# Wetter Temperatur Luftdruck Luftfeuchtigkeit Sichtweite Windgeschwindigkeit Windrichtung Zeit
1 Clear 22 1009 83 10000 0 0 14:22 01.02.2023
2 Clouds 23 1008 83 10000 2.57 30 13:20 01.02.2023
3 Clear 24 1008 78 10000 3.09 40 12:47 01.02.2023
4 Clouds 25 1008 69 10000 3.09 50 11:56 01.02.2023
5 Clouds 30 1007 42 10000 4.12 60 08:43 01.02.2023
6 Clouds 23 1011 88 10000 5.66 20 00:34 01.02.2023
7 Clouds 23 1009 100 10000 2.57 250 21:28 31.01.2023
8 Clouds 24 1007 94 10000 0 0 19:32 31.01.2023
9 Clouds 23 1008 100 10000 0 0 17:54 31.01.2023
10 Clouds 24 1009 94 10000 0 0 15:36 31.01.2023
11 Clouds 24 1009 94 10000 0 0 15:18 31.01.2023
12 Clouds 24 1009 94 10000 0 0 13:45 31.01.2023
13 Clouds 25 1009 88 10000 2.57 340 11:41 31.01.2023
14 Clouds 25 1008 83 10000 2.57 300 10:26 31.01.2023
15 Clouds 26 1007 83 10000 1.03 270 09:44 31.01.2023
16 Clouds 31 1007 40 10000 1.34 359 08:56 31.01.2023
17 Clouds 31 1007 40 10000 2.57 210 07:59 31.01.2023
18 Clouds 24 1011 88 10000 2.57 170 03:39 31.01.2023
19 Clouds 23 1011 94 10000 0 0 23:29 30.01.2023
20 Clouds 23 1011 94 10000 0 0 22:50 30.01.2023
21 Clouds 23 1010 94 10000 0 0 21:48 30.01.2023
22 Clouds 23 1010 94 10000 0 0 20:44 30.01.2023
23 Clouds 23 1010 94 10000 0.51 180 18:55 30.01.2023
24 Clouds 23 1010 94 10000 3.09 140 17:25 30.01.2023
25 Clouds 23 1012 94 10000 3.6 130 14:48 30.01.2023
26 Clouds 23 1012 94 10000 3.6 130 13:55 30.01.2023
27 Clouds 24 1012 88 10000 5.14 150 12:18 30.01.2023
28 Clouds 26 1010 78 10000 4.63 180 10:21 30.01.2023
29 Clouds 26 1010 83 10000 5.14 180 09:53 30.01.2023
30 Clouds 31 1007 40 10000 5.66 190 08:23 30.01.2023
31 Clouds 26 1011 89 10000 3.6 220 04:32 30.01.2023
32 Clouds 24 1013 94 10000 2.06 120 23:35 29.01.2023
33 Drizzle 23 1013 100 10000 3.09 80 22:59 29.01.2023
34 Clouds 23 1012 94 10000 3.6 120 22:31 29.01.2023
35 Clouds 23 1010 100 10000 3.09 160 20:52 29.01.2023
36 Clouds 23 1009 100 10000 2.57 190 20:19 29.01.2023
37 Clouds 23 1010 100 10000 0 0 19:32 29.01.2023
38 Rain 23 1011 100 10000 3.6 60 17:55 29.01.2023
39 Clouds 24 1012 94 10000 2.57 150 16:22 29.01.2023
40 Clouds 24 1012 94 10000 3.09 130 15:51 29.01.2023
41 Rain 24 1011 100 10000 0 0 13:58 29.01.2023
42 Rain 24 1011 100 10000 2.06 220 12:58 29.01.2023
43 Rain 24 1011 100 10000 2.57 230 12:36 29.01.2023
44 Rain 24 1011 100 10000 0 0 12:18 29.01.2023
45 Rain 24 1010 94 10000 0.51 190 11:36 29.01.2023
46 Rain 23 1009 100 10000 3.6 80 10:38 29.01.2023
47 Clouds 31 1007 40 6000 4.12 310 07:57 29.01.2023
48 Clouds 33 1009 46 10000 3.6 200 03:43 29.01.2023
49 Clouds 27 1010 74 10000 0.51 80 23:50 28.01.2023
50 Clouds 25 1008 88 10000 0 0 20:52 28.01.2023
51 Clouds 25 1008 88 10000 2.57 290 19:54 28.01.2023
52 Clouds 24 1008 94 10000 3.09 280 18:52 28.01.2023
53 Clouds 24 1008 94 10000 2.06 240 17:27 28.01.2023
54 Clouds 25 1009 88 10000 3.6 230 16:40 28.01.2023
55 Clouds 25 1009 88 10000 3.6 230 16:18 28.01.2023
56 Clouds 26 1009 83 10000 4.12 320 15:22 28.01.2023
57 Clouds 27 1009 74 10000 3.6 90 13:48 28.01.2023
58 Clouds 27 1008 74 10000 5.14 180 12:21 28.01.2023
59 Clouds 34 1005 33 10000 5.66 350 10:35 28.01.2023
60 Clouds 34 1004 33 10000 5.66 340 09:21 28.01.2023
61 Clouds 29 1009 58 10000 2.57 140 01:51 28.01.2023
62 Clouds 25 1010 78 10000 2.57 150 00:27 28.01.2023
63 Clouds 24 1009 83 10000 5.66 310 21:56 27.01.2023
64 Clouds 26 1008 65 10000 4.63 290 18:57 27.01.2023
65 Clouds 27 1008 61 10000 4.63 300 17:58 27.01.2023
66 Clouds 27 1008 61 10000 6.17 300 17:20 27.01.2023
67 Clouds 28 1009 54 10000 5.66 330 16:35 27.01.2023
68 Clouds 27 1009 61 10000 3.6 330 15:25 27.01.2023
69 Clouds 27 1008 57 10000 2.57 260 14:26 27.01.2023
70 Clouds 26 1008 65 10000 2.57 300 13:32 27.01.2023
71 Clouds 31 1007 40 10000 4.12 350 08:48 27.01.2023
72 Clouds 31 1007 40 10000 2.06 50 06:29 27.01.2023
73 Clouds 31 1007 40 10000 4.12 280 00:27 27.01.2023
74 Clouds 27 1011 44 10000 4.63 40 21:52 26.01.2023
75 Clouds 27 1011 44 10000 2.57 60 20:40 26.01.2023
76 Clouds 28 1010 42 10000 2.57 50 19:57 26.01.2023
77 Clouds 31 1007 40 10000 3.09 330 17:56 26.01.2023
78 Clouds 31 1007 40 10000 4.63 20 16:30 26.01.2023
79 Clouds 31 1007 40 10000 5.14 30 15:58 26.01.2023
80 Clouds 31 1007 40 10000 1.34 359 15:38 26.01.2023
81 Clouds 31 1007 40 10000 1.34 359 15:20 26.01.2023
82 Clouds 31 1007 40 10000 5.66 330 13:32 26.01.2023
83 Clouds 31 1007 40 10000 4.63 50 12:31 26.01.2023
84 Clouds 36 1008 19 10000 3.6 20 10:34 26.01.2023
85 Clouds 36 1008 19 10000 5.66 10 09:44 26.01.2023
86 Clouds 39 1008 17 10000 3.6 150 08:40 26.01.2023
87 Clouds 39 1009 13 10000 5.66 90 06:27 26.01.2023
88 Clouds 31 1007 40 10000 1.34 359 23:41 25.01.2023
89 Clouds 31 1007 40 10000 1.34 359 22:43 25.01.2023
90 Clouds 25 1011 61 10000 0 0 21:25 25.01.2023
91 Clouds 24 1011 64 10000 0 0 20:59 25.01.2023
92 Clouds 31 1007 40 10000 1.34 359 18:29 25.01.2023
93 Clouds 31 1007 40 10000 1.34 359 16:22 25.01.2023
94 Clouds 31 1007 40 10000 1.34 359 14:57 25.01.2023
95 Clouds 28 1010 36 10000 0 0 12:29 25.01.2023
96 Clouds 35 1009 18 10000 3.09 150 09:53 25.01.2023
97 Clouds 35 1009 18 10000 2.57 160 09:20 25.01.2023
98 Clouds 35 1010 20 10000 2.57 170 06:26 25.01.2023
99 Clouds 31 1007 40 10000 2.06 80 00:30 25.01.2023
100 Clouds 23 1010 56 10000 0 0 21:55 24.01.2023
101 Clouds 23 1010 56 10000 0 0 21:27 24.01.2023
102 Clouds 31 1007 40 10000 3.6 290 19:37 24.01.2023
103 Clouds 31 1007 40 10000 1.34 359 18:30 24.01.2023
104 Clouds 31 1007 40 10000 1.34 359 17:18 24.01.2023
105 Clouds 31 1007 40 10000 2.57 320 16:52 24.01.2023
106 Clouds 31 1007 40 10000 1.54 230 13:57 24.01.2023
107 Clouds 30 1009 28 10000 3.09 110 12:24 24.01.2023
108 Clouds 37 1007 13 10000 1.54 170 09:36 24.01.2023
109 Clouds 38 1008 14 10000 3.09 130 08:20 24.01.2023
110 Clouds 37 1008 13 10000 3.09 160 07:49 24.01.2023
111 Clouds 34 1011 18 10000 0.51 360 02:54 24.01.2023
112 Clouds 31 1007 40 10000 3.6 60 00:41 24.01.2023
113 Clouds 31 1007 40 10000 1.34 359 23:34 23.01.2023
114 Clouds 20 1009 49 10000 2.57 290 21:39 23.01.2023
115 Clouds 23 1009 31 10000 0 0 19:29 23.01.2023
116 Clouds 24 1009 29 10000 3.09 20 17:32 23.01.2023
117 Clear 31 1007 40 10000 3.09 40 15:33 23.01.2023
118 Clear 31 1007 40 10000 4.12 70 13:57 23.01.2023
119 Clear 31 1007 40 10000 3.6 70 13:21 23.01.2023
120 Clear 31 1007 40 10000 4.12 70 12:44 23.01.2023
121 Clear 31 1007 40 10000 3.09 90 11:29 23.01.2023
122 Clear 36 1009 12 10000 2.57 120 08:25 23.01.2023
123 Clear 31 1007 40 10000 4.63 70 02:23 23.01.2023
124 Clear 18 1013 59 10000 2.06 270 22:49 22.01.2023
125 Clear 16 1011 63 10000 3.09 280 21:19 22.01.2023
126 Clear 17 1010 59 10000 0 0 20:24 22.01.2023
127 Clear 17 1010 59 10000 0 0 19:45 22.01.2023
128 Clear 18 1010 55 10000 0 0 18:49 22.01.2023
129 Clear 18 1011 59 10000 0 0 17:56 22.01.2023
130 Clear 19 1011 55 10000 0 0 17:26 22.01.2023
131 Clear 21 1012 40 10000 2.06 70 15:51 22.01.2023
132 Clear 24 1012 25 10000 2.57 60 14:54 22.01.2023
133 Clear 24 1012 27 10000 3.6 70 13:40 22.01.2023
134 Clear 31 1007 40 10000 3.09 110 12:34 22.01.2023
135 Clear 31 1007 40 10000 4.12 110 11:35 22.01.2023
136 Clear 31 1007 40 10000 2.57 140 09:35 22.01.2023
137 Clouds 34 1011 14 10000 5.66 90 06:40 22.01.2023
138 Clouds 31 1007 40 10000 6.17 80 02:27 22.01.2023
139 Clouds 24 1013 60 10000 0 0 23:32 21.01.2023
140 Clouds 19 1012 82 10000 1.54 280 22:18 21.01.2023
141 Clouds 20 1011 77 10000 0 0 19:47 21.01.2023
142 Clouds 21 1011 78 10000 0 0 17:22 21.01.2023
143 Clouds 23 1012 60 10000 2.57 70 14:37 21.01.2023
144 Clouds 24 1011 57 10000 3.09 30 12:57 21.01.2023
145 Clouds 24 1011 57 10000 3.09 40 12:35 21.01.2023
146 Clouds 26 1011 50 10000 3.09 30 11:22 21.01.2023
147 Clouds 28 1010 42 10000 3.09 20 09:29 21.01.2023
148 Clouds 31 1007 40 10000 6.17 150 04:34 21.01.2023
149 Clouds 21 1011 68 10000 5.14 130 22:29 20.01.2023
150 Clouds 21 1011 68 10000 5.14 130 22:29 20.01.2023
151 Clouds 22 1012 68 10000 2.06 280 21:38 20.01.2023
152 Clouds 22 1011 68 10000 3.09 220 20:57 20.01.2023
153 Clouds 22 1011 64 10000 3.09 250 19:45 20.01.2023
154 Clouds 23 1012 56 10000 3.09 270 16:44 20.01.2023
155 Clouds 24 1013 46 10000 2.57 180 14:46 20.01.2023
156 Clouds 25 1012 44 10000 4.12 170 13:51 20.01.2023
157 Clouds 31 1007 40 10000 8.23 190 10:24 20.01.2023
158 Clouds 31 1007 40 10000 7.2 180 08:54 20.01.2023
159 Clouds 31 1007 40 10000 4.12 160 05:56 20.01.2023
160 Clouds 31 1007 40 10000 5.66 90 02:30 20.01.2023
161 Clear 21 1011 60 10000 3.09 160 22:35 19.01.2023
162 Clear 20 1010 68 10000 3.09 160 20:44 19.01.2023
163 Clear 23 1009 53 10000 2.57 130 19:29 19.01.2023
164 Clear 23 1010 64 10000 2.57 90 16:56 19.01.2023
165 Clear 31 1007 40 10000 3.09 120 13:30 19.01.2023
166 Clear 31 1007 40 10000 5.14 130 09:37 19.01.2023
167 Clear 31 1007 40 10000 5.14 150 05:57 19.01.2023
168 Clear 23 1013 64 10000 3.09 160 22:26 18.01.2023
169 Clear 25 1012 53 10000 3.6 150 20:20 18.01.2023
170 Clear 26 1011 50 10000 5.66 140 19:38 18.01.2023
171 Clouds 27 1010 47 10000 4.63 140 18:30 18.01.2023
172 Clouds 31 1007 40 10000 5.66 140 15:56 18.01.2023
173 Clouds 31 1007 40 10000 3.6 150 13:49 18.01.2023
174 Clouds 31 1007 40 10000 3.6 130 11:28 18.01.2023
175 Clouds 31 1007 40 10000 6.17 140 09:22 18.01.2023
176 Clouds 33 1012 35 10000 3.09 140 02:58 18.01.2023
177 Clouds 31 1007 40 10000 2.06 170 00:20 18.01.2023
178 Clear 23 1010 73 10000 0 0 20:56 17.01.2023
179 Clear 31 1007 40 10000 2.06 230 19:35 17.01.2023
180 Clear 31 1007 40 10000 1.34 359 18:36 17.01.2023
181 Clear 31 1007 40 10000 2.57 60 17:31 17.01.2023
182 Clear 31 1007 40 10000 3.09 50 15:20 17.01.2023
183 Clear 31 1007 40 10000 3.6 70 14:24 17.01.2023
184 Clouds 31 1007 40 10000 1.34 359 13:27 17.01.2023
185 Clouds 31 1009 37 10000 2.57 120 11:44 17.01.2023
186 Clouds 36 1008 24 10000 4.12 110 09:35 17.01.2023
187 Clouds 36 1008 23 10000 4.63 150 08:20 17.01.2023
188 Clouds 36 1010 26 10000 2.57 170 05:52 17.01.2023
189 Clear 31 1007 40 10000 2.57 360 00:57 17.01.2023
190 Clear 28 1013 54 10000 0 0 23:45 16.01.2023
191 Clear 22 1012 88 10000 0 0 22:19 16.01.2023
192 Clear 22 1011 88 10000 0 0 20:49 16.01.2023
193 Clear 23 1010 83 10000 0 0 19:42 16.01.2023
194 Clear 24 1010 78 10000 0 0 18:55 16.01.2023
195 Clear 24 1010 73 10000 0 0 18:21 16.01.2023
196 Clear 24 1010 73 10000 0 0 18:21 16.01.2023
197 Clear 25 1011 69 10000 0 0 17:36 16.01.2023
198 Clouds 31 1007 40 10000 2.06 40 15:49 16.01.2023
199 Clouds 31 1007 40 10000 2.57 80 13:39 16.01.2023
200 Clouds 31 1007 40 10000 2.57 70 11:57 16.01.2023
201 Clouds 31 1007 40 10000 5.66 80 10:21 16.01.2023
202 Clear 31 1007 40 10000 5.14 70 00:55 16.01.2023
203 Clear 20 1012 88 10000 2.57 320 22:27 15.01.2023
204 Clear 20 1011 88 10000 2.06 110 20:47 15.01.2023
205 Clear 21 1011 83 10000 2.57 110 19:59 15.01.2023
206 Clear 22 1011 83 10000 0 0 18:19 15.01.2023
207 Clouds 25 1011 57 10000 2.57 110 16:22 15.01.2023
208 Clouds 31 1007 40 10000 2.57 100 12:39 15.01.2023
209 Clouds 31 1007 40 10000 5.66 100 11:36 15.01.2023
210 Clouds 31 1007 40 10000 7.2 90 10:36 15.01.2023
211 Clouds 31 1007 40 10000 6.17 110 09:36 15.01.2023
212 Clear 31 1007 40 10000 5.14 100 01:51 15.01.2023
213 Clear 24 1011 78 10000 0 0 23:20 14.01.2023
214 Clear 20 1011 94 10000 0 0 22:00 14.01.2023
215 Clear 21 1010 88 10000 0 0 21:36 14.01.2023
216 Clear 21 1010 88 10000 0 0 21:18 14.01.2023
217 Clear 21 1010 83 10000 0.51 270 20:39 14.01.2023
218 Clear 22 1009 83 10000 0 0 18:40 14.01.2023
219 Clouds 23 1010 83 10000 2.06 140 16:59 14.01.2023
220 Clear 31 1007 40 10000 2.06 130 15:28 14.01.2023
221 Clear 31 1007 40 10000 2.06 140 14:25 14.01.2023
222 Clear 31 1007 40 10000 1.34 359 13:41 14.01.2023
223 Clear 31 1007 40 10000 3.09 90 11:46 14.01.2023
224 Clear 31 1007 40 10000 4.63 100 10:46 14.01.2023
225 Clouds 31 1007 40 10000 7.2 90 08:19 14.01.2023
226 Clear 26 1012 57 10000 2.57 40 23:30 13.01.2023
227 Clear 22 1011 83 10000 0.51 40 22:45 13.01.2023
228 Clear 22 1011 83 10000 0.51 40 22:20 13.01.2023
229 Clear 21 1010 88 10000 0 0 21:35 13.01.2023
230 Clear 23 1010 78 10000 0 0 19:42 13.01.2023
231 Clouds 23 1010 83 10000 1.03 140 18:21 13.01.2023
232 Clouds 31 1007 40 10000 1.34 359 16:24 13.01.2023
233 Clouds 31 1007 40 10000 2.57 70 13:19 13.01.2023
234 Clouds 31 1007 40 10000 2.57 60 12:20 13.01.2023
235 Clouds 34 1009 27 10000 6.17 90 10:26 13.01.2023
236 Clouds 34 1008 27 10000 6.69 100 09:45 13.01.2023
237 Clouds 35 1008 24 10000 6.17 110 08:55 13.01.2023
238 Clouds 35 1008 24 10000 6.17 110 08:21 13.01.2023
239 Clouds 35 1009 28 10000 5.66 100 06:52 13.01.2023
240 Clouds 34 1012 36 10000 7.72 90 04:43 13.01.2023
241 Clouds 31 1007 40 10000 1.34 359 23:58 12.01.2023
242 Clouds 31 1007 40 10000 1.34 359 22:41 12.01.2023
243 Clouds 22 1010 94 10000 2.57 160 20:55 12.01.2023
244 Clouds 24 1009 83 10000 0 0 19:44 12.01.2023
245 Clear 31 1007 40 10000 1.34 359 17:34 12.01.2023
246 Clear 31 1007 40 10000 2.06 10 16:18 12.01.2023
247 Clear 31 1007 40 10000 1.34 359 14:44 12.01.2023
248 Clear 31 1007 40 10000 1.34 359 14:22 12.01.2023
249 Clouds 31 1007 40 10000 2.57 70 12:50 12.01.2023
250 Clouds 31 1007 40 10000 5.14 100 10:38 12.01.2023
251 Clouds 35 1007 31 10000 6.17 110 08:31 12.01.2023
252 Clouds 31 1007 40 10000 3.6 130 03:58 12.01.2023
253 Clouds 31 1007 40 10000 1.34 359 23:59 11.01.2023
254 Clouds 31 1007 40 10000 1.34 359 23:40 11.01.2023
255 Clouds 26 1011 83 10000 0 0 23:21 11.01.2023
256 Clouds 24 1010 94 10000 2.57 80 21:45 11.01.2023
257 Clouds 24 1009 94 10000 2.06 330 19:59 11.01.2023
258 Clouds 24 1009 94 10000 3.09 340 18:35 11.01.2023
259 Clouds 25 1010 88 10000 0 0 16:47 11.01.2023
260 Clouds 25 1011 88 10000 3.09 200 14:47 11.01.2023
261 Clouds 25 1009 94 10000 1.03 170 12:43 11.01.2023
262 Clouds 24 1008 88 10000 1.54 70 11:54 11.01.2023
263 Rain 31 1007 40 10000 8.23 120 10:20 11.01.2023
264 Clouds 31 1007 40 10000 3.6 160 07:38 11.01.2023
265 Clouds 31 1007 40 10000 3.6 160 07:20 11.01.2023
266 Clouds 25 1010 83 10000 0 0 23:58 10.01.2023
267 Clouds 24 1010 88 10000 0 0 22:45 10.01.2023
268 Clouds 23 1009 94 10000 0 0 21:30 10.01.2023
269 Clouds 23 1009 100 10000 0 0 19:57 10.01.2023
270 Clouds 23 1009 100 10000 0 0 19:34 10.01.2023
271 Clouds 24 1009 94 10000 0 0 18:47 10.01.2023
272 Clouds 24 1009 94 10000 2.06 250 17:54 10.01.2023
273 Clouds 23 1010 94 10000 0 0 15:48 10.01.2023
274 Clouds 23 1010 94 10000 0 0 15:23 10.01.2023
275 Clouds 24 1010 88 10000 0 0 14:21 10.01.2023
276 Clouds 27 1009 69 10000 3.6 140 11:49 10.01.2023
277 Clouds 31 1007 40 10000 4.63 160 08:58 10.01.2023
278 Clouds 31 1007 40 10000 5.14 170 08:25 10.01.2023
279 Clouds 31 1007 40 10000 6.69 190 07:25 10.01.2023
280 Clouds 31 1007 40 10000 4.12 290 04:51 10.01.2023
281 Clouds 23 1010 94 10000 3.6 100 22:51 09.01.2023
282 Clouds 22 1010 100 10000 1.54 130 21:21 09.01.2023
283 Clouds 22 1009 100 10000 1.54 130 20:34 09.01.2023
284 Clouds 22 1009 100 10000 3.09 100 18:42 09.01.2023
285 Clouds 22 1010 94 10000 4.63 110 17:51 09.01.2023
286 Clouds 22 1011 94 10000 0.51 130 16:47 09.01.2023
287 Clouds 22 1011 94 10000 3.09 100 16:29 09.01.2023
288 Clouds 22 1011 94 10000 3.6 140 15:22 09.01.2023
289 Clouds 22 1011 94 10000 3.6 150 14:43 09.01.2023
290 Clouds 22 1011 94 10000 3.6 150 14:43 09.01.2023
291 Clouds 23 1011 88 10000 3.09 160 12:54 09.01.2023
292 Clouds 23 1011 88 10000 4.12 150 12:18 09.01.2023
293 Clouds 23 1010 88 10000 3.09 150 11:19 09.01.2023
294 Clouds 23 1009 83 10000 3.6 160 07:23 09.01.2023
295 Drizzle 22 1009 88 6000 3.09 90 06:21 09.01.2023
296 Clouds 19 1011 94 4900 3.09 140 02:53 09.01.2023
297 Clouds 17 1010 100 10000 3.09 140 22:29 08.01.2023
298 Clouds 17 1009 100 10000 3.09 140 21:22 08.01.2023
299 Clouds 17 1009 100 10000 3.09 120 20:54 08.01.2023
300 Clouds 17 1010 100 5000 2.57 150 18:52 08.01.2023
301 Rain 17 1009 100 5000 7.72 130 17:37 08.01.2023
302 Rain 18 1009 100 8000 7.2 120 17:18 08.01.2023
303 Clouds 18 1010 100 6000 5.66 100 15:36 08.01.2023
304 Clouds 20 1008 100 10000 6.69 140 13:59 08.01.2023
305 Clouds 20 1008 100 9000 7.72 160 13:31 08.01.2023
306 Clouds 21 1008 94 2600 3.09 110 12:54 08.01.2023
307 Rain 22 1006 100 10000 6.69 170 10:52 08.01.2023
308 Clouds 31 1007 40 500 5.14 200 09:36 08.01.2023
309 Clouds 31 1007 40 10000 4.63 120 07:50 08.01.2023
310 Clouds 18 1007 94 6000 3.09 300 00:30 08.01.2023
311 Rain 17 1005 100 10000 2.06 290 22:48 07.01.2023
312 Rain 17 1005 100 10000 2.06 290 22:48 07.01.2023
313 Clouds 16 1005 100 5000 2.57 290 22:24 07.01.2023
314 Clouds 17 1005 94 3500 2.57 280 21:49 07.01.2023
315 Clouds 17 1005 94 10000 0.51 190 20:47 07.01.2023
316 Clouds 17 1005 94 10000 2.57 160 20:24 07.01.2023
317 Clouds 17 1005 94 6000 3.09 270 18:52 07.01.2023
318 Rain 20 1005 77 10000 3.09 280 17:53 07.01.2023
319 Rain 21 1005 68 10000 2.57 170 17:33 07.01.2023
320 Rain 22 1005 64 10000 0 0 16:37 07.01.2023
321 Clouds 23 1005 53 10000 2.57 120 15:49 07.01.2023
322 Rain 25 1005 36 10000 4.63 130 15:27 07.01.2023
323 Rain 25 1005 38 10000 4.12 120 14:30 07.01.2023
324 Rain 25 1004 36 10000 4.63 110 13:54 07.01.2023
325 Clouds 25 1004 38 10000 5.66 110 13:26 07.01.2023
326 Rain 26 1004 38 10000 6.17 110 12:23 07.01.2023
327 Clouds 26 1004 36 10000 7.72 110 11:50 07.01.2023
328 Clouds 29 1002 23 10000 7.72 110 10:25 07.01.2023
329 Clouds 31 1007 40 10000 6.17 100 08:27 07.01.2023
330 Clouds 31 1007 40 10000 7.2 110 07:44 07.01.2023
331 Clouds 27 1003 34 10000 6.69 110 06:55 07.01.2023
332 Clouds 22 1006 60 10000 0 0 00:43 07.01.2023
333 Rain 22 1005 56 10000 0.51 70 22:23 06.01.2023
334 Rain 22 1004 56 10000 2.57 60 21:58 06.01.2023
335 Rain 22 1004 60 10000 2.57 70 21:18 06.01.2023
336 Clouds 22 1004 60 10000 0 0 19:57 06.01.2023
337 Clouds 22 1004 60 10000 2.57 180 19:39 06.01.2023
338 Clouds 22 1004 60 10000 2.57 180 19:21 06.01.2023
339 Clouds 22 1004 64 10000 0 0 18:28 06.01.2023
340 Clouds 24 1005 41 10000 0 0 16:55 06.01.2023
341 Clouds 23 1005 56 10000 0 0 16:24 06.01.2023
342 Clouds 24 1005 53 10000 0 0 15:53 06.01.2023
343 Clouds 24 1006 50 10000 0 0 15:34 06.01.2023
344 Clouds 25 1005 29 10000 2.57 110 13:48 06.01.2023
345 Clouds 27 1005 24 10000 3.6 140 12:21 06.01.2023
346 Clouds 28 1004 23 10000 4.12 90 10:57 06.01.2023
347 Clouds 30 1004 21 10000 4.12 60 08:55 06.01.2023
348 Clouds 29 1006 18 10000 5.14 70 05:31 06.01.2023
349 Clouds 23 1009 35 10000 2.06 10 23:48 05.01.2023
350 Clouds 21 1009 60 10000 2.06 110 22:54 05.01.2023
351 Clouds 21 1007 46 10000 1.54 40 21:22 05.01.2023
352 Clouds 21 1007 88 10000 0 0 17:57 05.01.2023
353 Clouds 22 1007 88 10000 0 0 17:26 05.01.2023
354 Clouds 22 1007 88 10000 0 0 17:26 05.01.2023
355 Clouds 23 1008 78 10000 0 0 15:59 05.01.2023
356 Clouds 23 1008 78 10000 0 0 15:59 05.01.2023
357 Clouds 23 1008 78 10000 2.57 160 15:37 05.01.2023
358 Clouds 24 1008 83 10000 0 0 14:34 05.01.2023
359 Clouds 25 1008 65 10000 0.51 10 12:42 05.01.2023
360 Clouds 27 1007 47 10000 2.57 90 11:44 05.01.2023
361 Clouds 28 1007 44 10000 4.63 100 09:50 05.01.2023
362 Clouds 30 1006 39 10000 4.63 80 08:24 05.01.2023
363 Clouds 29 1007 39 10000 3.6 100 06:57 05.01.2023
364 Clouds 26 1010 50 10000 6.69 100 03:34 05.01.2023
365 Clouds 18 1009 94 10000 1.03 330 22:33 04.01.2023
366 Clouds 18 1008 94 10000 2.57 270 21:33 04.01.2023
367 Clouds 18 1008 94 10000 0 0 20:26 04.01.2023
368 Clouds 18 1008 94 10000 0 0 19:54 04.01.2023
369 Clouds 18 1008 88 10000 0 0 19:30 04.01.2023
370 Clouds 18 1008 88 10000 0 0 19:30 04.01.2023
371 Rain 18 1008 88 10000 0 0 18:18 04.01.2023
372 Clouds 19 1009 94 10000 3.09 150 16:31 04.01.2023
373 Rain 19 1011 94 10000 2.57 150 14:53 04.01.2023
374 Rain 20 1010 88 10000 0 0 13:31 04.01.2023
375 Clouds 22 1008 68 10000 3.6 80 11:26 04.01.2023
376 Clouds 22 1008 68 10000 5.14 70 10:59 04.01.2023
377 Clouds 23 1007 64 10000 6.69 80 10:40 04.01.2023
378 Clouds 23 1007 64 10000 6.69 80 10:20 04.01.2023
379 Rain 31 1007 40 10000 6.69 150 05:39 04.01.2023
380 Clouds 31 1007 40 10000 5.66 130 01:41 04.01.2023
381 Clouds 25 1007 73 10000 4.63 150 23:43 03.01.2023
382 Clouds 25 1007 73 10000 4.63 150 23:21 03.01.2023
383 Clouds 24 1006 83 10000 0.51 170 21:42 03.01.2023
384 Clouds 24 1006 83 10000 1.03 140 20:50 03.01.2023
385 Clouds 24 1006 94 10000 0 0 18:40 03.01.2023
386 Clouds 24 1006 94 10000 0 0 16:40 03.01.2023
387 Clouds 24 1007 88 10000 2.57 140 15:28 03.01.2023
388 Rain 31 1007 40 10000 3.09 120 13:33 03.01.2023
389 Clouds 31 1007 40 6000 4.12 60 12:59 03.01.2023
390 Rain 31 1007 40 10000 6.17 140 12:38 03.01.2023
391 Rain 31 1007 40 6000 7.72 110 11:56 03.01.2023
392 Clouds 34 1003 31 10000 7.72 60 09:50 03.01.2023
393 Clouds 31 1007 40 10000 8.23 90 04:28 03.01.2023
394 Clouds 31 1007 40 10000 8.23 70 03:49 03.01.2023
395 Clouds 31 1007 40 10000 7.2 70 03:28 03.01.2023
396 Clouds 30 1006 66 10000 2.57 130 23:19 02.01.2023
397 Clouds 27 1006 83 10000 0 0 22:39 02.01.2023
398 Clouds 27 1005 78 10000 2.57 340 20:51 02.01.2023
399 Clouds 27 1004 78 10000 2.57 340 20:31 02.01.2023
400 Clouds 31 1007 40 10000 3.09 310 18:45 02.01.2023
401 Clouds 31 1007 40 10000 3.09 60 16:20 02.01.2023
402 Clouds 31 1007 40 10000 3.09 80 14:26 02.01.2023
403 Clouds 31 1007 40 10000 3.6 80 12:38 02.01.2023
404 Clouds 31 1007 40 10000 4.12 80 11:25 02.01.2023
405 Clouds 31 1007 40 10000 9.77 60 08:38 02.01.2023
406 Clouds 36 1004 32 10000 8.23 90 04:38 02.01.2023
407 Clouds 27 1006 74 10000 3.09 80 23:28 01.01.2023
408 Clouds 25 1005 83 10000 2.57 70 21:54 01.01.2023
409 Clouds 25 1004 83 10000 3.6 50 20:49 01.01.2023
410 Clouds 25 1004 83 10000 2.57 50 20:18 01.01.2023
411 Clouds 26 1004 78 10000 2.57 70 18:52 01.01.2023
412 Clouds 26 1004 78 10000 1.54 30 17:24 01.01.2023
413 Clouds 27 1005 74 10000 1.54 20 16:49 01.01.2023
414 Clouds 31 1007 40 10000 3.09 20 15:31 01.01.2023
415 Clouds 31 1007 40 10000 3.6 360 13:48 01.01.2023
416 Clouds 31 1007 40 10000 3.09 70 12:45 01.01.2023
417 Clouds 31 1007 40 10000 7.2 80 11:40 01.01.2023
418 Clouds 31 1007 40 10000 7.72 80 10:53 01.01.2023
419 Clouds 31 1007 40 10000 6.69 90 09:23 01.01.2023
420 Clouds 31 1007 40 10000 7.72 60 08:24 01.01.2023
421 Clouds 31 1007 40 10000 6.69 70 07:29 01.01.2023
422 Clouds 35 1003 36 10000 8.23 60 05:58 01.01.2023
423 Clouds 28 1006 61 10000 2.57 40 23:44 31.12.2022
424 Clouds 27 1005 65 10000 2.06 60 22:59 31.12.2022
425 Clouds 23 1004 83 10000 0 0 21:41 31.12.2022
426 Clouds 23 1004 83 10000 0 0 21:20 31.12.2022
427 Clouds 25 1003 69 10000 0 0 19:43 31.12.2022
428 Clouds 25 1004 73 10000 0 0 18:45 31.12.2022
429 Clouds 26 1004 61 10000 0 0 18:19 31.12.2022
430 Clouds 31 1007 40 10000 1.34 359 17:48 31.12.2022
431 Clouds 31 1007 40 10000 2.57 60 16:59 31.12.2022
432 Clouds 27 1005 61 10000 3.6 50 16:29 31.12.2022
433 Clouds 31 1007 40 10000 2.57 50 14:45 31.12.2022
434 Clouds 31 1007 40 10000 3.6 40 13:44 31.12.2022
435 Clouds 31 1007 40 10000 2.57 100 12:40 31.12.2022
436 Clouds 31 1007 40 10000 2.57 100 12:20 31.12.2022
437 Clouds 31 1007 40 10000 2.57 100 12:20 31.12.2022
438 Clouds 31 1007 40 10000 3.6 110 11:50 31.12.2022
439 Clouds 31 1007 40 10000 7.2 100 10:37 31.12.2022
440 Clouds 31 1007 40 10000 6.69 100 09:55 31.12.2022
441 Clouds 31 1007 40 10000 7.2 100 09:35 31.12.2022
442 Clouds 36 1003 28 10000 6.17 100 07:49 31.12.2022
443 Clouds 30 1008 42 10000 6.69 110 00:43 31.12.2022
444 Clouds 30 1008 45 10000 7.2 100 23:47 30.12.2022
445 Clouds 27 1007 54 10000 3.09 120 22:50 30.12.2022
446 Clouds 25 1007 69 10000 2.06 130 21:50 30.12.2022
447 Clouds 24 1007 78 10000 1.03 200 21:30 30.12.2022
448 Clouds 26 1006 65 10000 2.57 130 19:24 30.12.2022
449 Clouds 28 1007 51 10000 3.6 120 17:52 30.12.2022
450 Clouds 27 1007 54 10000 3.6 90 17:33 30.12.2022
451 Clouds 29 1007 48 10000 3.6 130 15:58 30.12.2022
452 Clouds 31 1007 40 10000 5.14 130 14:53 30.12.2022
453 Clouds 31 1007 40 10000 3.6 130 11:58 30.12.2022
454 Clouds 31 1007 40 10000 7.2 110 08:22 30.12.2022
455 Clouds 31 1007 40 10000 7.72 90 03:40 30.12.2022
456 Clouds 29 1011 51 10000 7.2 100 01:53 30.12.2022
457 Clouds 23 1011 78 10000 2.57 170 22:58 29.12.2022
458 Clouds 22 1010 83 10000 1.54 190 21:31 29.12.2022
459 Clouds 22 1010 83 10000 2.57 160 20:54 29.12.2022
460 Clouds 23 1010 73 10000 4.12 140 20:25 29.12.2022
461 Clouds 24 1010 64 10000 3.6 130 18:30 29.12.2022
462 Clouds 26 1010 57 10000 4.63 140 17:33 29.12.2022
463 Clouds 26 1011 57 10000 6.17 120 16:55 29.12.2022
464 Clouds 26 1010 57 10000 5.66 120 16:21 29.12.2022
465 Clouds 27 1011 54 10000 6.17 120 15:33 29.12.2022
466 Clouds 31 1007 40 10000 4.12 140 13:34 29.12.2022
467 Clouds 31 1007 40 10000 5.66 130 11:33 29.12.2022
468 Clouds 31 1007 40 10000 4.63 120 08:22 29.12.2022
469 Clouds 24 1013 73 10000 4.12 130 00:22 29.12.2022
470 Clouds 24 1012 73 10000 3.09 130 23:27 28.12.2022
471 Clouds 22 1011 83 10000 2.57 260 21:21 28.12.2022
472 Clouds 23 1011 83 10000 2.06 220 20:25 28.12.2022
473 Clouds 23 1011 78 10000 4.63 150 19:23 28.12.2022
474 Clouds 25 1010 83 10000 1.54 360 16:56 28.12.2022
475 Clouds 31 1007 40 10000 2.06 20 14:42 28.12.2022
476 Clouds 25 1011 83 10000 6.69 70 12:55 28.12.2022
477 Clouds 31 1007 40 6000 8.23 10 11:53 28.12.2022
478 Clouds 31 1007 40 10000 4.12 50 10:39 28.12.2022
479 Clouds 31 1007 40 10000 7.72 90 08:42 28.12.2022
480 Clouds 31 1007 40 10000 5.66 110 06:50 28.12.2022
481 Clouds 31 1007 40 10000 4.63 60 03:45 28.12.2022
482 Clouds 26 1011 83 10000 3.6 90 23:23 27.12.2022
483 Clouds 23 1009 94 10000 0 0 19:58 27.12.2022
484 Clouds 23 1009 94 10000 0 0 19:24 27.12.2022
485 Clouds 25 1009 83 10000 3.09 80 17:20 27.12.2022
486 Clouds 25 1009 83 10000 4.12 60 16:39 27.12.2022
487 Clouds 26 1010 78 10000 4.63 80 15:22 27.12.2022
488 Clouds 28 1009 65 10000 3.6 100 12:28 27.12.2022
489 Clouds 29 1009 58 10000 4.63 90 11:24 27.12.2022
490 Clouds 31 1008 55 10000 5.66 110 09:45 27.12.2022
491 Clouds 30 1008 54 10000 7.2 110 09:22 27.12.2022
492 Clouds 31 1009 58 10000 8.23 160 06:48 27.12.2022
493 Clouds 26 1012 83 10000 5.14 90 00:43 27.12.2022
494 Clouds 21 1012 100 10000 0 0 22:20 26.12.2022
495 Clouds 21 1011 100 10000 0 0 20:46 26.12.2022
496 Clouds 21 1011 100 10000 0 0 20:18 26.12.2022
497 Clouds 22 1011 94 10000 2.06 100 18:43 26.12.2022
498 Clouds 22 1011 100 10000 0 0 17:26 26.12.2022
499 Clouds 23 1012 94 10000 0 0 15:42 26.12.2022
500 Clouds 23 1011 94 10000 2.06 110 12:59 26.12.2022
501 Clouds 24 1010 88 10000 3.6 70 11:45 26.12.2022
502 Clouds 28 1010 65 10000 7.72 110 05:49 26.12.2022
503 Clouds 24 1012 88 10000 4.12 110 23:44 25.12.2022
504 Clouds 23 1011 94 10000 2.57 130 22:57 25.12.2022
505 Clouds 23 1011 94 10000 2.57 140 22:26 25.12.2022
506 Clouds 23 1010 94 10000 2.57 130 20:20 25.12.2022
507 Clouds 23 1009 94 10000 2.57 150 17:59 25.12.2022
508 Clouds 23 1009 94 10000 2.57 150 17:41 25.12.2022
509 Clouds 23 1010 94 10000 2.57 140 17:23 25.12.2022
510 Clouds 23 1011 94 10000 4.12 80 14:30 25.12.2022
511 Clouds 25 1010 83 10000 6.69 80 11:49 25.12.2022
512 Rain 26 1008 89 10000 5.66 110 06:20 25.12.2022
513 Clouds 23 1008 94 10000 4.12 100 22:57 24.12.2022
514 Clouds 22 1007 100 10000 2.57 90 19:54 24.12.2022
515 Clouds 23 1008 94 10000 3.6 90 17:40 24.12.2022
516 Clouds 23 1009 94 10000 2.06 90 15:45 24.12.2022
517 Clouds 23 1010 94 10000 3.6 80 14:31 24.12.2022
518 Clouds 23 1010 94 10000 4.63 70 12:24 24.12.2022
519 Clouds 26 1008 78 10000 4.12 120 10:24 24.12.2022
520 Clouds 26 1008 78 10000 5.66 110 09:37 24.12.2022
521 Clouds 26 1007 83 10000 3.6 90 08:46 24.12.2022
522 Clouds 24 1010 94 10000 3.6 30 03:51 24.12.2022
523 Clouds 23 1010 94 10000 2.57 90 00:30 24.12.2022
524 Clouds 22 1009 94 10000 3.09 110 22:45 23.12.2022
525 Drizzle 21 1009 100 6000 2.06 140 21:43 23.12.2022
526 Clouds 22 1008 94 10000 2.57 130 19:40 23.12.2022
527 Clouds 22 1008 94 10000 2.57 150 19:22 23.12.2022
528 Clouds 22 1008 94 10000 3.09 140 18:53 23.12.2022
529 Clouds 22 1009 94 10000 2.57 160 18:22 23.12.2022
530 Clouds 22 1009 94 10000 0.51 120 17:43 23.12.2022
531 Clouds 22 1011 94 10000 4.12 110 15:45 23.12.2022
532 Clouds 22 1011 94 10000 4.12 110 13:42 23.12.2022
533 Rain 24 1008 88 10000 6.17 140 10:21 23.12.2022
534 Rain 26 1008 78 10000 6.69 130 09:35 23.12.2022
535 Clouds 26 1008 78 10000 6.69 140 07:29 23.12.2022
536 Clouds 27 1008 74 10000 5.66 140 06:49 23.12.2022
537 Clouds 21 1011 100 10000 3.6 120 23:42 22.12.2022
538 Clouds 21 1011 100 10000 3.6 110 23:19 22.12.2022
539 Rain 21 1010 94 10000 4.12 130 21:55 22.12.2022
540 Rain 21 1010 100 10000 3.6 150 19:47 22.12.2022
541 Rain 21 1010 100 10000 0.51 180 19:18 22.12.2022
542 Rain 21 1010 100 5000 3.09 140 17:59 22.12.2022
543 Rain 21 1011 100 3000 3.6 160 16:48 22.12.2022
544 Clouds 22 1011 94 10000 3.6 150 15:38 22.12.2022
545 Clouds 21 1011 100 10000 3.09 140 15:18 22.12.2022
546 Clouds 22 1011 94 10000 5.66 150 14:18 22.12.2022
547 Clouds 22 1011 94 10000 4.63 150 13:19 22.12.2022
548 Clouds 24 1009 88 10000 2.57 130 11:36 22.12.2022
549 Rain 27 1008 69 10000 3.09 110 10:31 22.12.2022
550 Clouds 27 1008 65 10000 3.09 140 09:22 22.12.2022
551 Clouds 27 1007 65 10000 3.09 130 08:35 22.12.2022
552 Clouds 27 1008 65 10000 0 0 07:24 22.12.2022
553 Clouds 24 1010 83 10000 4.63 290 04:18 22.12.2022
554 Clouds 26 1010 61 10000 4.63 110 00:25 22.12.2022
555 Clouds 25 1009 61 10000 4.12 120 22:26 21.12.2022
556 Clouds 25 1008 57 10000 4.63 140 21:24 21.12.2022
557 Clouds 25 1007 61 10000 2.06 240 20:54 21.12.2022
558 Clouds 25 1007 61 10000 2.06 220 20:29 21.12.2022
559 Clouds 25 1006 57 10000 3.09 330 19:44 21.12.2022
560 Clouds 25 1006 57 10000 3.09 330 19:25 21.12.2022
561 Clouds 25 1007 61 10000 0 0 18:47 21.12.2022
562 Clouds 25 1007 61 10000 0 0 17:49 21.12.2022
563 Clouds 27 1008 50 10000 3.09 40 15:25 21.12.2022
564 Clouds 28 1008 42 10000 4.12 160 13:41 21.12.2022
565 Clouds 29 1006 39 10000 5.14 290 11:48 21.12.2022
566 Clouds 29 1006 39 10000 4.63 280 11:20 21.12.2022
567 Clouds 35 1004 23 10000 0 0 09:50 21.12.2022
568 Clouds 36 1004 23 10000 3.09 10 07:48 21.12.2022
569 Clouds 33 1008 40 10000 5.14 350 03:48 21.12.2022
570 Clouds 27 1009 61 10000 9.26 340 23:21 20.12.2022
571 Clouds 24 1007 73 10000 6.69 330 21:23 20.12.2022
572 Clouds 24 1006 73 10000 3.6 350 20:24 20.12.2022
573 Clouds 24 1007 69 10000 3.6 330 19:41 20.12.2022
574 Clouds 25 1007 65 10000 4.63 340 18:37 20.12.2022
575 Clouds 25 1007 65 10000 4.12 340 18:19 20.12.2022
576 Clouds 25 1007 65 10000 4.12 340 17:46 20.12.2022
577 Clouds 25 1008 69 10000 3.6 340 16:35 20.12.2022
578 Clouds 26 1009 61 10000 3.6 20 15:36 20.12.2022
579 Clouds 26 1009 61 10000 3.6 10 14:48 20.12.2022
580 Clouds 26 1009 61 10000 4.12 20 14:28 20.12.2022
581 Clouds 28 1009 51 10000 4.12 30 12:58 20.12.2022
582 Clouds 28 1008 47 10000 4.63 30 12:28 20.12.2022
583 Clouds 29 1008 42 10000 5.14 30 11:33 20.12.2022
584 Clouds 34 1006 26 10000 1.54 200 08:48 20.12.2022
585 Clouds 29 1011 48 10000 3.09 280 01:20 20.12.2022
586 Clouds 24 1009 69 10000 4.12 350 22:39 19.12.2022
587 Clouds 22 1009 78 10000 4.63 360 21:45 19.12.2022
588 Clouds 23 1008 73 10000 4.12 30 19:57 19.12.2022
589 Clouds 24 1007 64 10000 1.54 70 19:39 19.12.2022
590 Clouds 25 1007 57 10000 3.09 50 18:33 19.12.2022
591 Clouds 26 1009 53 10000 4.63 40 16:47 19.12.2022
592 Clouds 27 1009 54 10000 0 0 13:28 19.12.2022
593 Clouds 27 1009 47 10000 8.75 330 11:56 19.12.2022
594 Clouds 29 1007 42 10000 5.66 60 10:45 19.12.2022
595 Clouds 35 1006 26 10000 4.63 170 07:43 19.12.2022
596 Clouds 34 1009 24 10000 3.09 180 03:42 19.12.2022
597 Clouds 20 1009 64 10000 1.54 270 22:35 18.12.2022
598 Clouds 19 1009 68 10000 0 0 21:46 18.12.2022
599 Clouds 19 1009 63 10000 0 0 21:22 18.12.2022
600 Clouds 20 1009 64 10000 0.51 260 19:52 18.12.2022
601 Clouds 20 1008 64 10000 2.57 250 19:34 18.12.2022
602 Clouds 21 1008 64 10000 0 0 18:24 18.12.2022
603 Clouds 23 1009 49 10000 0 0 16:37 18.12.2022
604 Clouds 24 1009 46 10000 3.09 100 15:40 18.12.2022
605 Clouds 24 1009 46 10000 3.09 100 15:40 18.12.2022
606 Clouds 24 1009 46 10000 3.09 100 15:19 18.12.2022
607 Clouds 27 1009 36 10000 3.09 60 13:40 18.12.2022
608 Clouds 28 1009 30 10000 4.12 50 12:53 18.12.2022
609 Clouds 28 1009 30 10000 1.03 40 12:19 18.12.2022
610 Clouds 32 1007 19 10000 3.6 210 10:38 18.12.2022
611 Clouds 33 1006 19 10000 4.63 230 08:47 18.12.2022
612 Clouds 34 1006 18 10000 4.63 270 07:21 18.12.2022
613 Clouds 33 1007 19 10000 6.17 280 06:21 18.12.2022
614 Clouds 32 1009 20 10000 3.09 330 03:40 18.12.2022
615 Clear 27 1010 28 10000 0 0 00:34 18.12.2022
616 Clear 19 1009 42 10000 2.06 330 22:21 17.12.2022
617 Clouds 20 1009 37 10000 2.06 280 19:27 17.12.2022
618 Clouds 20 1009 34 10000 0 0 17:18 17.12.2022
619 Clouds 24 1010 27 10000 4.63 30 14:31 17.12.2022
620 Clouds 27 1009 19 10000 3.6 80 11:39 17.12.2022
621 Clouds 29 1009 16 10000 6.17 90 10:47 17.12.2022
622 Clouds 30 1008 13 10000 6.17 50 09:46 17.12.2022
623 Clouds 30 1008 11 10000 3.6 70 07:48 17.12.2022
624 Clouds 29 1009 11 10000 2.57 80 06:46 17.12.2022
625 Clouds 25 1011 13 10000 8.23 90 23:57 16.12.2022
626 Clouds 18 1010 27 10000 2.57 100 21:22 16.12.2022
627 Clouds 17 1009 31 10000 3.6 70 19:57 16.12.2022
628 Clouds 19 1010 27 10000 3.09 90 16:40 16.12.2022
629 Clouds 22 1011 24 10000 5.66 110 14:48 16.12.2022
630 Clouds 22 1011 23 10000 4.12 130 13:45 16.12.2022
631 Clouds 24 1011 20 10000 5.14 120 11:58 16.12.2022
632 Clouds 25 1011 19 10000 5.14 110 10:22 16.12.2022
633 Clouds 26 1010 19 10000 3.6 130 09:25 16.12.2022
634 Clouds 26 1011 18 10000 5.14 140 07:56 16.12.2022
635 Clouds 26 1011 18 10000 5.66 140 07:32 16.12.2022
636 Clouds 20 1013 28 10000 3.6 140 23:30 15.12.2022
637 Clouds 20 1012 24 10000 4.12 110 22:27 15.12.2022
638 Clouds 16 1010 39 10000 0 0 20:36 15.12.2022
639 Clouds 17 1010 34 10000 2.57 120 19:36 15.12.2022
640 Clouds 17 1009 34 10000 2.57 80 18:20 15.12.2022
641 Clouds 18 1010 32 10000 2.57 30 17:24 15.12.2022
642 Clouds 21 1011 26 10000 3.6 110 15:35 15.12.2022
643 Clouds 24 1011 22 10000 6.17 110 13:30 15.12.2022
644 Clouds 25 1010 20 10000 5.66 120 12:25 15.12.2022
645 Clouds 29 1009 18 10000 5.14 140 09:36 15.12.2022
646 Clouds 29 1009 18 10000 4.12 170 08:53 15.12.2022
647 Clouds 30 1010 16 10000 5.14 140 05:50 15.12.2022
648 Clouds 30 1011 15 10000 3.6 70 04:37 15.12.2022
649 Clouds 17 1013 36 10000 2.06 170 21:25 14.12.2022
650 Clouds 18 1013 34 10000 3.09 120 20:59 14.12.2022
651 Clouds 19 1013 32 10000 2.57 110 20:23 14.12.2022
652 Clouds 20 1012 30 10000 2.57 90 18:25 14.12.2022
653 Clouds 21 1013 28 10000 2.57 70 16:57 14.12.2022
654 Clouds 23 1014 25 10000 4.12 70 15:39 14.12.2022
655 Clouds 24 1015 23 10000 4.12 110 13:41 14.12.2022
656 Clouds 25 1014 22 10000 3.6 120 11:20 14.12.2022
657 Clouds 26 1014 21 10000 5.66 110 10:31 14.12.2022
658 Clouds 27 1014 19 10000 4.63 140 08:48 14.12.2022
659 Clouds 23 1017 21 10000 3.09 130 22:49 13.12.2022
660 Clouds 22 1016 24 10000 3.6 80 21:48 13.12.2022
661 Clouds 22 1015 23 10000 3.6 90 20:48 13.12.2022
662 Clouds 22 1015 23 10000 3.09 110 19:57 13.12.2022
663 Clouds 24 1015 20 10000 4.63 100 17:21 13.12.2022
664 Clouds 26 1016 18 10000 4.63 110 15:35 13.12.2022
665 Clouds 26 1016 18 10000 4.63 110 14:19 13.12.2022
666 Clouds 29 1014 14 10000 4.63 120 10:55 13.12.2022
667 Clouds 29 1014 14 10000 4.63 120 10:55 13.12.2022
668 Clouds 30 1014 13 10000 4.63 140 10:35 13.12.2022
669 Clouds 31 1013 12 10000 4.63 110 09:23 13.12.2022
670 Clouds 19 1016 37 10000 1.54 170 22:55 12.12.2022
671 Clouds 17 1016 48 10000 0 0 22:21 12.12.2022
672 Clouds 15 1015 51 10000 0 0 20:51 12.12.2022
673 Clouds 17 1014 42 10000 0 0 18:32 12.12.2022
674 Clouds 20 1016 32 10000 2.57 130 16:23 12.12.2022
675 Clouds 22 1016 30 10000 3.09 150 15:21 12.12.2022
676 Clouds 25 1014 25 10000 3.6 140 11:47 12.12.2022
677 Clouds 28 1013 24 10000 5.66 150 09:19 12.12.2022
678 Clouds 27 1014 32 10000 6.17 130 04:54 12.12.2022
679 Clouds 24 1016 41 10000 5.66 140 01:52 12.12.2022
680 Clouds 22 1014 88 10000 4.12 170 22:19 11.12.2022
681 Clouds 23 1011 88 10000 0 0 20:41 11.12.2022
682 Rain 24 1012 78 10000 1.03 350 19:41 11.12.2022
683 Clouds 24 1011 73 10000 0 0 18:55 11.12.2022
684 Clouds 25 1012 65 10000 4.12 300 17:58 11.12.2022
685 Rain 26 1011 57 10000 3.6 230 17:29 11.12.2022
686 Clouds 26 1012 57 10000 4.12 220 16:49 11.12.2022
687 Clouds 26 1012 57 10000 3.6 200 15:46 11.12.2022
688 Clouds 27 1012 54 10000 4.63 210 13:55 11.12.2022
689 Clouds 28 1011 47 10000 11.32 190 12:43 11.12.2022
690 Clouds 37 1006 14 10000 5.14 290 11:29 11.12.2022
691 Clouds 37 1009 12 10000 4.12 340 04:54 11.12.2022
692 Clouds 31 1007 40 10000 1.34 359 00:32 11.12.2022
693 Clouds 31 1007 40 10000 1.34 359 22:51 10.12.2022
694 Clouds 31 1007 40 10000 1.34 359 22:32 10.12.2022
695 Clouds 31 1007 40 10000 2.57 360 21:18 10.12.2022
696 Clouds 31 1007 40 10000 1.34 359 20:24 10.12.2022
697 Clouds 31 1007 40 10000 1.54 230 18:22 10.12.2022
698 Clouds 31 1007 40 10000 2.57 340 16:47 10.12.2022
699 Clouds 30 1011 37 10000 3.09 200 15:53 10.12.2022
700 Clouds 30 1011 35 10000 4.12 170 15:33 10.12.2022
701 Clouds 32 1010 31 10000 8.23 180 13:44 10.12.2022
702 Clouds 34 1009 26 10000 12.86 190 12:34 10.12.2022
703 Clouds 38 1008 11 10000 4.63 270 11:22 10.12.2022
704 Clouds 41 1007 9 10000 4.63 290 09:52 10.12.2022
705 Clear 41 1008 9 10000 4.63 310 07:23 10.12.2022
706 Clear 42 1008 9 10000 4.63 350 06:54 10.12.2022
707 Clear 33 1012 10 10000 2.06 350 23:51 09.12.2022
708 Clear 23 1011 33 10000 0 0 22:43 09.12.2022
709 Clear 20 1011 37 10000 0 0 21:41 09.12.2022
710 Clear 21 1010 35 10000 3.09 80 20:59 09.12.2022
711 Clear 23 1010 31 10000 2.57 80 19:47 09.12.2022
712 Clear 25 1010 25 10000 2.06 80 17:56 09.12.2022
713 Clear 25 1010 25 10000 2.06 80 17:56 09.12.2022
714 Clear 27 1010 22 10000 3.09 70 17:27 09.12.2022
715 Clear 26 1010 25 10000 3.09 40 16:27 09.12.2022
716 Clear 26 1011 25 10000 3.09 50 15:30 09.12.2022
717 Clouds 29 1011 20 10000 3.6 70 12:52 09.12.2022
718 Clouds 35 1010 13 10000 6.17 70 10:51 09.12.2022
719 Clouds 36 1009 14 10000 1.54 100 10:23 09.12.2022
720 Clouds 33 1011 12 10000 4.63 60 05:39 09.12.2022
721 Clouds 30 1013 12 10000 7.2 90 03:18 09.12.2022
722 Clouds 26 1015 14 10000 5.14 110 23:20 08.12.2022
723 Clear 21 1012 23 10000 3.09 70 20:56 08.12.2022
724 Clear 22 1011 23 10000 2.57 100 18:57 08.12.2022
725 Clear 24 1011 19 10000 2.57 60 16:38 08.12.2022
726 Clear 27 1012 16 10000 2.57 90 14:30 08.12.2022
727 Clear 30 1011 14 10000 5.14 110 12:28 08.12.2022
728 Clear 33 1010 15 10000 5.66 90 10:36 08.12.2022
729 Clear 34 1010 14 10000 5.66 90 09:28 08.12.2022
730 Clouds 35 1010 14 10000 4.63 100 07:18 08.12.2022
731 Rain 25 1014 27 10000 6.17 120 22:44 07.12.2022
732 Clouds 25 1014 27 10000 6.17 120 22:18 07.12.2022
733 Clouds 25 1013 29 10000 5.14 120 21:46 07.12.2022
734 Clouds 25 1012 33 10000 5.14 130 20:24 07.12.2022
735 Clouds 25 1011 38 10000 3.6 150 18:20 07.12.2022
736 Clouds 28 1012 30 10000 4.12 130 15:39 07.12.2022
737 Clouds 32 1012 23 10000 4.63 130 13:26 07.12.2022
738 Clouds 35 1009 21 10000 8.75 150 10:49 07.12.2022
739 Clouds 38 1007 14 10000 6.17 130 09:58 07.12.2022
740 Clouds 39 1007 13 10000 3.6 180 08:55 07.12.2022
741 Clouds 40 1007 11 10000 3.6 200 07:21 07.12.2022
742 Clouds 40 1008 13 10000 4.63 160 05:24 07.12.2022
743 Clouds 34 1010 18 10000 6.17 170 23:58 06.12.2022
744 Clouds 31 1007 40 10000 1.54 240 21:41 06.12.2022
745 Clouds 31 1007 40 10000 1.34 359 18:59 06.12.2022
746 Clouds 31 1007 40 10000 2.06 340 17:18 06.12.2022
747 Clouds 27 1007 21 10000 0 0 16:23 06.12.2022
748 Clouds 26 1007 24 10000 0 0 15:35 06.12.2022
749 Clouds 29 1007 20 10000 0 0 14:35 06.12.2022
750 Clouds 30 1007 16 10000 2.06 290 13:49 06.12.2022
751 Clouds 31 1007 14 10000 0.51 330 12:41 06.12.2022
752 Clouds 36 1006 11 10000 2.06 360 11:34 06.12.2022
753 Clear 41 1006 7 10000 1.54 60 07:49 06.12.2022
754 Clear 38 1010 9 10000 8.75 350 02:26 06.12.2022
755 Clear 32 1010 13 10000 3.09 30 23:21 05.12.2022
756 Clear 19 1009 42 10000 0 0 21:40 05.12.2022
757 Clear 19 1009 37 10000 2.06 90 20:51 05.12.2022
758 Clear 20 1009 37 10000 0 0 19:53 05.12.2022
759 Clear 21 1009 30 10000 0 0 19:34 05.12.2022
760 Clouds 23 1009 25 10000 0 0 16:51 05.12.2022
761 Clouds 27 1010 17 10000 3.09 70 15:29 05.12.2022
762 Clouds 28 1011 15 10000 2.57 100 13:47 05.12.2022
763 Clouds 30 1010 12 10000 3.6 80 12:57 05.12.2022
764 Clouds 32 1010 12 10000 3.6 100 12:37 05.12.2022
765 Clouds 34 1009 10 10000 4.12 130 11:40 05.12.2022
766 Clear 38 1009 8 10000 4.63 50 06:48 05.12.2022
767 Clear 33 1013 14 10000 6.69 50 00:18 05.12.2022
768 Clear 19 1013 42 10000 0.51 140 22:44 04.12.2022
769 Clear 19 1013 42 10000 0.51 140 22:18 04.12.2022
770 Clear 16 1012 51 10000 1.03 200 21:32 04.12.2022
771 Clear 18 1011 39 10000 0 0 19:59 04.12.2022
772 Clear 18 1011 39 10000 0 0 19:23 04.12.2022
773 Clear 19 1011 37 10000 1.54 320 18:32 04.12.2022
774 Clear 20 1011 32 10000 1.54 310 17:22 04.12.2022
775 Clear 20 1012 34 10000 0 0 16:36 04.12.2022
776 Clear 20 1012 34 10000 0 0 16:18 04.12.2022
777 Clear 23 1012 27 10000 0 0 15:26 04.12.2022
778 Clear 24 1012 23 10000 1.54 40 14:18 04.12.2022
779 Clear 27 1011 18 10000 3.6 140 12:47 04.12.2022
780 Clear 28 1011 17 10000 3.6 130 12:25 04.12.2022
781 Clear 31 1010 12 10000 3.6 140 11:29 04.12.2022
782 Clear 37 1009 9 10000 5.66 110 07:36 04.12.2022
783 Clear 34 1012 12 10000 4.12 60 02:51 04.12.2022
784 Clear 24 1013 25 10000 0 0 23:44 03.12.2022
785 Clear 18 1012 36 10000 2.57 300 22:34 03.12.2022
786 Clear 15 1012 47 10000 2.57 280 21:47 03.12.2022
787 Clear 16 1011 39 10000 3.09 300 20:38 03.12.2022
788 Clear 17 1010 34 10000 2.06 320 18:41 03.12.2022
789 Clear 17 1010 36 10000 2.57 270 17:33 03.12.2022
790 Clear 20 1011 32 10000 0 0 15:50 03.12.2022
791 Clear 24 1011 19 10000 3.09 80 13:43 03.12.2022
792 Clear 27 1011 14 10000 3.09 140 12:43 03.12.2022
793 Clear 29 1010 13 10000 3.09 150 11:34 03.12.2022
794 Clear 35 1008 8 10000 6.69 180 08:25 03.12.2022
795 Clear 32 1012 12 10000 1.03 100 02:48 03.12.2022
796 Clear 23 1012 28 10000 0 0 23:38 02.12.2022
797 Clear 14 1011 58 10000 0 0 21:52 02.12.2022
798 Clear 16 1010 48 10000 0 0 19:45 02.12.2022
799 Clouds 19 1011 37 10000 0 0 16:38 02.12.2022
800 Clouds 19 1011 37 10000 0 0 15:53 02.12.2022
801 Clouds 22 1011 26 10000 2.57 110 14:29 02.12.2022
802 Clouds 25 1011 18 10000 2.57 90 13:43 02.12.2022
803 Clouds 27 1010 16 10000 3.6 120 11:49 02.12.2022
804 Clouds 32 1008 11 10000 5.14 150 10:30 02.12.2022
805 Clear 35 1008 10 10000 7.72 180 07:48 02.12.2022
806 Clear 34 1008 10 10000 8.23 170 07:18 02.12.2022
807 Clear 20 1012 37 10000 0 0 22:50 01.12.2022
808 Clear 14 1011 54 10000 0 0 21:41 01.12.2022
809 Clear 15 1010 51 10000 0 0 20:37 01.12.2022
810 Clouds 15 1010 51 10000 0 0 18:58 01.12.2022
811 Clear 17 1011 42 10000 0 0 16:57 01.12.2022
812 Clear 19 1011 37 10000 0 0 14:21 01.12.2022
813 Clear 29 1010 13 10000 4.12 130 10:56 01.12.2022
814 Clouds 31 1009 11 10000 4.63 130 09:54 01.12.2022
815 Clouds 31 1009 12 10000 4.63 140 09:36 01.12.2022
816 Clear 32 1010 13 10000 4.63 150 06:19 01.12.2022
817 Clear 15 1013 58 10000 0 0 22:41 30.11.2022
818 Clear 11 1013 71 10000 0 0 21:40 30.11.2022
819 Clear 11 1013 71 10000 0 0 21:18 30.11.2022
820 Clear 13 1012 62 10000 0 0 20:23 30.11.2022
821 Clear 15 1012 51 10000 0 0 18:36 30.11.2022
822 Clear 16 1012 44 10000 2.57 130 17:40 30.11.2022
823 Clear 16 1013 48 10000 3.09 180 16:26 30.11.2022
824 Clear 19 1013 34 10000 2.57 140 14:45 30.11.2022
825 Clear 19 1013 34 10000 2.57 140 14:24 30.11.2022
826 Clear 24 1011 22 10000 3.6 130 11:57 30.11.2022
827 Clear 30 1010 13 10000 5.66 140 09:21 30.11.2022
828 Clear 30 1010 13 10000 5.66 140 09:21 30.11.2022
829 Clear 30 1010 13 10000 5.66 140 09:21 30.11.2022
830 Clear 29 1010 15 10000 6.69 140 07:59 30.11.2022
831 Clear 28 1012 21 10000 4.63 140 04:57 30.11.2022
832 Clear 20 1016 40 10000 0.51 110 23:26 29.11.2022
833 Clear 12 1015 76 10000 0 0 21:48 29.11.2022
834 Clear 12 1014 76 10000 0 0 20:50 29.11.2022
835 Clear 14 1014 67 10000 0 0 19:46 29.11.2022
836 Clear 15 1014 63 10000 0 0 17:52 29.11.2022
837 Clear 16 1014 59 10000 2.57 140 16:29 29.11.2022
838 Clear 18 1014 48 10000 2.57 150 15:21 29.11.2022
839 Clear 19 1014 45 10000 3.6 160 13:50 29.11.2022
840 Clear 21 1013 35 10000 2.57 170 12:36 29.11.2022
841 Clear 25 1013 23 10000 3.6 140 11:31 29.11.2022
842 Clear 27 1012 21 10000 4.63 150 10:23 29.11.2022
843 Clear 29 1011 20 10000 5.66 150 08:44 29.11.2022
844 Clear 28 1013 21 10000 6.17 150 06:34 29.11.2022
845 Clear 23 1016 33 10000 7.72 110 00:22 29.11.2022
846 Clear 21 1015 40 10000 5.14 130 23:22 28.11.2022
847 Clear 15 1014 72 10000 2.57 180 21:56 28.11.2022
848 Clear 14 1014 77 10000 2.57 190 21:36 28.11.2022
849 Clear 14 1013 82 10000 1.03 270 20:20 28.11.2022
850 Clouds 16 1013 77 10000 0 0 18:41 28.11.2022
851 Clouds 16 1013 77 10000 2.06 330 17:54 28.11.2022
852 Clouds 17 1013 67 10000 0 0 17:21 28.11.2022
853 Clouds 21 1014 49 10000 3.09 170 14:43 28.11.2022
854 Clouds 21 1014 52 10000 2.57 180 13:52 28.11.2022
855 Clouds 21 1013 49 10000 3.6 190 12:44 28.11.2022
856 Clouds 21 1013 49 10000 3.6 190 12:44 28.11.2022
857 Clouds 24 1012 38 10000 4.63 160 11:31 28.11.2022
858 Clouds 28 1011 28 10000 5.66 170 07:54 28.11.2022
859 Clouds 28 1012 28 10000 5.66 150 04:53 28.11.2022
860 Clouds 28 1013 26 10000 5.66 160 03:59 28.11.2022
861 Clouds 28 1013 28 10000 6.17 150 03:20 28.11.2022
862 Clouds 23 1012 43 10000 3.6 150 23:43 27.11.2022
863 Clear 20 1011 77 10000 0 0 21:49 27.11.2022
864 Clouds 20 1010 68 10000 2.06 130 20:36 27.11.2022
865 Clouds 22 1010 73 10000 2.06 110 18:18 27.11.2022
866 Clouds 24 1011 88 10000 0 0 15:36 27.11.2022
867 Clouds 24 1010 83 10000 0.51 320 13:34 27.11.2022
868 Clouds 26 1009 69 10000 2.57 50 10:57 27.11.2022
869 Clouds 27 1008 61 10000 4.63 10 08:47 27.11.2022
870 Clouds 30 1009 51 10000 3.6 80 04:47 27.11.2022
871 Clouds 23 1010 94 10000 0 0 22:34 26.11.2022
872 Clouds 23 1009 88 10000 0 0 20:51 26.11.2022
873 Clouds 24 1008 83 10000 3.09 130 19:30 26.11.2022
874 Clouds 23 1008 94 10000 0.51 350 17:57 26.11.2022
875 Clouds 24 1009 88 10000 0 0 16:25 26.11.2022
876 Clouds 25 1010 83 10000 1.03 150 13:51 26.11.2022
877 Clouds 26 1010 73 10000 4.12 310 12:23 26.11.2022
878 Clouds 28 1009 61 10000 1.03 220 10:51 26.11.2022
879 Clouds 31 1008 37 10000 7.2 310 09:31 26.11.2022
880 Clouds 33 1009 31 10000 8.75 310 06:41 26.11.2022
881 Clouds 21 1014 94 10000 2.57 360 21:46 25.11.2022
882 Clouds 21 1014 94 10000 2.57 360 21:46 25.11.2022
883 Clouds 21 1014 94 10000 2.06 270 21:24 25.11.2022
884 Clouds 21 1013 94 10000 0 0 19:57 25.11.2022
885 Clouds 21 1014 94 10000 0 0 16:49 25.11.2022
886 Clouds 22 1015 88 10000 1.54 80 14:22 25.11.2022
887 Clouds 27 1014 57 10000 2.57 140 09:22 25.11.2022
888 Clouds 27 1014 54 10000 3.09 160 08:41 25.11.2022
889 Clouds 27 1015 54 10000 3.6 210 06:54 25.11.2022
890 Clouds 27 1015 54 10000 3.6 170 06:22 25.11.2022
891 Clouds 20 1019 94 10000 0 0 23:55 24.11.2022
892 Clouds 19 1019 94 10000 0 0 22:51 24.11.2022
893 Clouds 18 1018 100 10000 0 0 21:58 24.11.2022
894 Clouds 18 1017 100 10000 0 0 20:30 24.11.2022
895 Clouds 19 1017 88 10000 3.09 350 18:30 24.11.2022
896 Clouds 18 1018 100 10000 0 0 17:40 24.11.2022
897 Clouds 18 1018 100 10000 0 0 17:20 24.11.2022
898 Clouds 19 1019 88 10000 0 0 15:18 24.11.2022
899 Clouds 19 1019 88 10000 0 0 13:49 24.11.2022
900 Clouds 21 1018 78 10000 2.06 300 11:55 24.11.2022
901 Clouds 22 1018 73 10000 0 0 10:36 24.11.2022
902 Clouds 22 1018 73 10000 2.06 330 07:53 24.11.2022
903 Clouds 19 1020 88 10000 2.57 90 03:22 24.11.2022
904 Rain 15 1019 100 10000 6.17 90 23:45 23.11.2022
905 Rain 15 1019 100 8000 3.6 100 21:56 23.11.2022
906 Clouds 15 1019 100 5000 3.09 130 21:23 23.11.2022
907 Clouds 15 1018 100 6000 2.57 230 19:59 23.11.2022
908 Rain 15 1018 94 10000 0 0 18:58 23.11.2022
909 Clouds 15 1018 94 10000 0 0 18:35 23.11.2022
910 Rain 15 1019 94 10000 2.06 340 16:24 23.11.2022
911 Rain 15 1019 94 10000 0 0 13:39 23.11.2022
912 Rain 15 1019 94 10000 0 0 13:19 23.11.2022
913 Clouds 15 1019 94 10000 0 0 11:59 23.11.2022
914 Clouds 15 1018 94 10000 2.06 60 11:40 23.11.2022
915 Clouds 16 1018 82 10000 3.09 90 10:42 23.11.2022
916 Clouds 16 1018 77 10000 4.12 90 09:42 23.11.2022
917 Clouds 16 1018 77 10000 4.12 90 09:23 23.11.2022
918 Clouds 16 1018 82 10000 4.12 50 08:36 23.11.2022
919 Clouds 16 1020 72 10000 2.57 100 05:22 23.11.2022
920 Rain 16 1021 72 10000 4.12 170 02:56 23.11.2022
921 Clouds 18 1019 45 10000 3.6 110 22:58 22.11.2022
922 Clouds 18 1018 48 10000 2.57 130 21:54 22.11.2022
923 Clouds 18 1018 45 10000 2.06 140 21:32 22.11.2022
924 Clouds 18 1017 45 10000 2.57 110 20:45 22.11.2022
925 Clouds 18 1017 48 10000 1.03 120 19:52 22.11.2022
926 Clouds 18 1017 48 10000 2.57 90 17:55 22.11.2022
927 Clouds 18 1018 55 10000 0 0 16:48 22.11.2022
928 Clouds 19 1019 45 10000 2.57 130 14:56 22.11.2022
929 Clouds 19 1019 45 10000 3.09 130 13:21 22.11.2022
930 Clouds 20 1018 45 10000 4.63 150 10:23 22.11.2022
931 Clouds 22 1018 37 10000 5.66 150 08:59 22.11.2022
932 Clouds 22 1018 37 10000 4.12 110 06:45 22.11.2022
933 Clouds 18 1022 59 10000 4.12 50 01:35 22.11.2022
934 Clouds 19 1021 45 10000 6.17 100 23:28 21.11.2022
935 Clouds 18 1020 63 10000 2.57 130 22:26 21.11.2022
936 Clouds 18 1019 68 10000 3.09 130 21:33 21.11.2022
937 Clouds 19 1018 48 10000 3.09 120 20:35 21.11.2022
938 Clouds 19 1018 48 10000 1.54 110 19:40 21.11.2022
939 Clouds 20 1018 42 10000 2.57 90 18:52 21.11.2022
940 Clouds 20 1018 45 10000 2.57 130 17:45 21.11.2022
941 Clouds 21 1018 37 10000 2.57 130 16:44 21.11.2022
942 Clouds 20 1018 40 10000 2.57 110 16:23 21.11.2022
943 Clouds 20 1019 40 10000 3.09 100 15:24 21.11.2022
944 Clouds 21 1019 35 10000 3.09 80 13:54 21.11.2022
945 Clouds 21 1018 35 10000 3.09 80 13:27 21.11.2022
946 Clouds 24 1017 27 10000 5.14 100 10:20 21.11.2022
947 Clouds 25 1017 22 10000 6.17 130 08:20 21.11.2022
948 Clouds 24 1019 22 10000 7.2 130 02:18 21.11.2022
949 Clouds 17 1016 77 10000 0 0 21:59 20.11.2022
950 Clouds 18 1015 68 10000 2.06 140 20:55 20.11.2022
951 Clouds 19 1015 55 10000 1.54 110 20:22 20.11.2022
952 Clouds 18 1014 59 10000 2.57 150 17:49 20.11.2022
953 Clouds 21 1014 43 10000 2.57 90 15:52 20.11.2022
954 Clouds 21 1015 43 10000 3.09 80 15:24 20.11.2022
955 Clouds 21 1015 43 10000 2.57 70 14:25 20.11.2022
956 Clouds 22 1015 33 10000 3.09 110 13:32 20.11.2022
957 Clouds 23 1014 33 10000 3.6 120 12:25 20.11.2022
958 Clouds 27 1012 22 10000 4.12 140 10:58 20.11.2022
959 Clouds 28 1012 20 10000 4.12 140 09:47 20.11.2022
960 Clouds 29 1011 18 10000 3.6 160 08:55 20.11.2022
961 Clouds 29 1011 18 10000 3.6 160 08:55 20.11.2022
962 Clouds 29 1011 17 10000 3.6 90 08:32 20.11.2022
963 Clouds 29 1011 17 10000 3.6 90 08:32 20.11.2022
964 Clouds 29 1012 18 10000 4.63 130 07:27 20.11.2022
965 Clear 23 1015 21 10000 7.2 110 01:30 20.11.2022
966 Clouds 23 1015 21 10000 7.72 130 00:57 20.11.2022
967 Clouds 22 1015 23 10000 7.2 130 00:38 20.11.2022
968 Clouds 22 1015 23 10000 7.2 130 00:19 20.11.2022
969 Clouds 21 1014 28 10000 7.2 130 23:34 19.11.2022
970 Clouds 20 1014 37 10000 5.14 150 22:49 19.11.2022
971 Clouds 18 1013 48 10000 4.63 160 22:18 19.11.2022
972 Clouds 16 1012 67 10000 3.09 180 21:27 19.11.2022
973 Clouds 17 1011 63 10000 3.09 190 20:41 19.11.2022
974 Clouds 17 1011 67 10000 2.57 190 19:51 19.11.2022
975 Clouds 19 1010 59 10000 2.57 180 18:54 19.11.2022
976 Clouds 21 1010 46 10000 3.09 180 17:39 19.11.2022
977 Clouds 21 1010 46 10000 3.09 180 17:18 19.11.2022
978 Clouds 24 1010 43 10000 1.03 320 14:58 19.11.2022
979 Clouds 25 1008 44 10000 3.09 230 13:34 19.11.2022
980 Clouds 29 1007 26 10000 3.6 210 11:54 19.11.2022
981 Clouds 34 1005 24 10000 6.69 250 09:45 19.11.2022
982 Clouds 36 1005 24 10000 6.69 290 07:53 19.11.2022
983 Clouds 35 1007 29 10000 9.77 300 04:45 19.11.2022
984 Clear 28 1008 57 10000 9.26 300 00:48 19.11.2022
985 Clear 26 1008 65 10000 9.26 320 23:34 18.11.2022
986 Clear 26 1008 65 10000 9.26 320 23:34 18.11.2022
987 Clear 26 1008 65 10000 9.26 320 23:34 18.11.2022
988 Clear 26 1008 65 10000 9.26 320 23:34 18.11.2022
989 Clear 25 1007 69 10000 9.26 320 22:23 18.11.2022
990 Clear 24 1007 73 10000 7.72 320 21:35 18.11.2022
991 Clear 24 1006 73 10000 5.66 310 20:57 18.11.2022
992 Clear 24 1006 73 10000 7.2 330 20:25 18.11.2022
993 Clouds 23 1005 78 10000 7.72 350 19:36 18.11.2022
994 Rain 27 1005 57 10000 12.35 310 17:45 18.11.2022
995 Clouds 23 1006 83 10000 2.57 360 16:27 18.11.2022
996 Clouds 27 1005 54 10000 5.66 350 11:57 18.11.2022
997 Rain 33 1004 31 10000 4.12 300 10:25 18.11.2022
998 Clouds 35 1004 29 10000 7.72 290 07:52 18.11.2022
999 Clouds 31 1007 40 10000 4.63 320 05:27 18.11.2022
1000 Clouds 26 1010 57 10000 6.69 300 02:40 18.11.2022
1001 Clouds 24 1009 57 10000 7.72 320 23:29 17.11.2022
1002 Clouds 23 1007 56 10000 5.66 350 20:48 17.11.2022
1003 Clouds 23 1007 53 10000 7.72 330 19:54 17.11.2022
1004 Clouds 23 1007 53 10000 9.77 330 19:25 17.11.2022
1005 Clouds 23 1008 53 10000 6.69 340 18:27 17.11.2022
1006 Clouds 23 1008 49 10000 4.63 360 17:30 17.11.2022
1007 Clouds 22 1010 64 10000 4.12 40 15:45 17.11.2022
1008 Clouds 26 1009 47 10000 3.09 340 12:19 17.11.2022
1009 Clouds 28 1009 39 10000 4.12 330 10:35 17.11.2022
1010 Clouds 30 1009 32 10000 5.66 340 07:35 17.11.2022
1011 Clouds 23 1015 60 10000 4.12 60 00:54 17.11.2022
1012 Clouds 18 1015 82 10000 2.57 20 23:21 16.11.2022
1013 Clouds 16 1014 100 10000 0.51 90 21:54 16.11.2022
1014 Clouds 16 1012 94 10000 2.57 170 20:31 16.11.2022
1015 Clouds 14 1013 100 10000 3.6 90 18:48 16.11.2022
1016 Clouds 14 1014 100 10000 4.12 60 18:27 16.11.2022
1017 Clouds 14 1016 100 10000 2.57 120 15:35 16.11.2022
1018 Rain 14 1017 100 10000 3.09 10 11:23 16.11.2022
1019 Clouds 14 1016 100 10000 3.6 90 06:54 16.11.2022
1020 Clouds 18 1017 52 10000 5.14 90 01:38 16.11.2022
1021 Clouds 19 1016 59 10000 4.12 80 23:31 15.11.2022
1022 Clouds 21 1014 32 10000 3.09 150 21:28 15.11.2022
1023 Clouds 22 1013 33 10000 4.12 90 19:47 15.11.2022
1024 Clouds 22 1014 30 10000 3.6 110 18:51 15.11.2022
1025 Clouds 23 1013 31 10000 3.09 100 17:36 15.11.2022
1026 Clouds 23 1013 31 10000 5.14 90 16:20 15.11.2022
1027 Clouds 24 1014 29 10000 4.63 80 15:35 15.11.2022
1028 Clouds 26 1013 25 10000 5.66 110 13:43 15.11.2022
1029 Clouds 26 1013 27 10000 4.63 110 12:54 15.11.2022
1030 Clouds 27 1012 26 10000 5.14 110 11:21 15.11.2022
1031 Clouds 31 1007 40 10000 5.14 110 09:38 15.11.2022
1032 Clear 22 1017 33 10000 6.69 100 00:42 15.11.2022
1033 Clear 22 1017 33 10000 6.69 100 00:22 15.11.2022
1034 Clear 14 1016 67 10000 2.57 180 21:52 14.11.2022
1035 Clear 14 1015 67 10000 0 0 20:44 14.11.2022
1036 Clear 16 1014 55 10000 2.06 90 19:19 14.11.2022
1037 Clear 16 1014 55 10000 1.03 80 18:21 14.11.2022
1038 Clear 23 1015 35 10000 4.12 120 12:55 14.11.2022
1039 Clear 24 1014 31 10000 4.12 130 11:46 14.11.2022
1040 Clear 26 1014 27 10000 3.6 130 10:49 14.11.2022
1041 Clear 31 1007 40 10000 4.63 120 08:30 14.11.2022
1042 Clear 31 1007 40 10000 3.09 110 07:51 14.11.2022
1043 Clear 22 1018 28 10000 7.2 130 00:19 14.11.2022
1044 Clear 22 1018 28 10000 7.2 130 00:19 14.11.2022
1045 Clear 22 1018 28 10000 7.2 130 00:19 14.11.2022
1046 Clear 16 1016 51 10000 1.03 150 22:43 13.11.2022
1047 Clear 14 1015 54 10000 3.6 170 21:40 13.11.2022
1048 Clear 15 1014 47 10000 2.57 180 20:45 13.11.2022
1049 Clear 18 1013 36 10000 2.57 190 18:35 13.11.2022
1050 Clear 18 1013 42 10000 1.54 260 17:49 13.11.2022
1051 Clear 22 1012 46 10000 3.09 220 15:20 13.11.2022
1052 Clear 23 1012 49 10000 1.54 250 14:30 13.11.2022
1053 Rain 25 1011 38 10000 1.54 150 12:55 13.11.2022
1054 Clouds 31 1007 40 10000 3.6 170 11:34 13.11.2022
1055 Clouds 31 1007 40 10000 5.66 180 09:44 13.11.2022
1056 Clouds 33 1008 22 10000 7.2 200 05:52 13.11.2022
1057 Clear 25 1010 47 10000 4.63 210 23:35 12.11.2022
1058 Clear 21 1007 64 10000 3.09 270 21:24 12.11.2022
1059 Clear 21 1006 60 10000 4.12 280 20:25 12.11.2022
1060 Clouds 24 1005 43 10000 3.09 250 18:56 12.11.2022
1061 Clouds 28 1005 39 10000 4.12 320 16:32 12.11.2022
1062 Clouds 31 1005 30 10000 4.12 320 15:24 12.11.2022
1063 Clouds 28 1006 57 10000 4.63 230 13:28 12.11.2022
1064 Clouds 31 1007 40 10000 8.23 10 09:35 12.11.2022
1065 Clouds 31 1007 40 10000 7.72 330 07:47 12.11.2022
1066 Clouds 31 1007 40 10000 7.72 330 07:47 12.11.2022
1067 Clouds 25 1009 65 10000 5.66 10 23:23 11.11.2022
1068 Clouds 22 1007 83 10000 7.2 350 20:52 11.11.2022
1069 Clouds 22 1007 78 10000 8.23 350 20:28 11.11.2022
1070 Clouds 22 1007 78 10000 8.75 350 19:26 11.11.2022
1071 Rain 22 1009 78 10000 9.26 360 17:59 11.11.2022
1072 Rain 21 1009 94 10000 4.63 40 16:55 11.11.2022
1073 Clouds 22 1009 83 10000 3.6 70 14:30 11.11.2022
1074 Clouds 22 1008 88 10000 4.12 50 13:31 11.11.2022
1075 Clouds 22 1008 88 10000 4.12 90 11:38 11.11.2022
1076 Clouds 31 1007 40 10000 2.57 20 08:43 11.11.2022
1077 Rain 30 1004 33 10000 7.23 271 07:41 11.11.2022
1078 Clouds 29 1011 37 10000 6.17 10 00:30 11.11.2022
1079 Clouds 25 1011 50 10000 2.57 30 22:51 10.11.2022
1080 Clouds 22 1009 60 10000 3.6 60 21:39 10.11.2022
1081 Clouds 22 1009 60 10000 3.6 60 21:20 10.11.2022
1082 Clouds 22 1009 60 10000 1.54 60 20:23 10.11.2022
1083 Clouds 23 1009 56 10000 0 0 19:55 10.11.2022
1084 Clouds 24 1009 53 10000 0 0 18:44 10.11.2022
1085 Clouds 26 1010 47 10000 6.69 350 16:26 10.11.2022
1086 Clouds 25 1010 57 10000 3.6 360 15:24 10.11.2022
1087 Clouds 23 1012 73 10000 5.14 270 13:34 10.11.2022
1088 Clouds 31 1007 40 10000 5.66 150 09:19 10.11.2022
1089 Clouds 36 1008 17 10000 6.69 260 06:59 10.11.2022
1090 Clouds 31 1007 40 10000 9.77 350 00:56 10.11.2022
1091 Clouds 24 1011 53 10000 5.66 340 22:47 09.11.2022
1092 Clouds 21 1010 78 10000 0 0 20:58 09.11.2022
1093 Clouds 20 1010 88 10000 0 0 20:39 09.11.2022
1094 Clouds 20 1009 88 10000 0 0 19:50 09.11.2022
1095 Clouds 20 1009 77 10000 0 0 19:24 09.11.2022
1096 Clouds 21 1010 78 10000 2.57 310 17:39 09.11.2022
1097 Clouds 21 1010 78 10000 2.57 310 17:39 09.11.2022
1098 Clouds 23 1012 60 10000 3.6 360 14:56 09.11.2022
1099 Clouds 22 1012 68 10000 4.63 350 14:26 09.11.2022
1100 Clouds 22 1012 68 10000 4.63 350 14:26 09.11.2022
1101 Clouds 23 1012 64 10000 6.69 10 13:34 09.11.2022
1102 Clouds 22 1011 73 10000 6.17 30 12:51 09.11.2022
1103 Thunderstorm 31 1008 29 10000 3.09 350 09:28 09.11.2022
1104 Clouds 25 1007 47 2400 8.75 340 07:47 09.11.2022
1105 Clouds 34 1012 22 10000 7.72 350 02:33 09.11.2022
1106 Clouds 24 1012 50 10000 0.51 320 22:23 08.11.2022
1107 Clouds 23 1011 56 10000 2.57 360 21:36 08.11.2022
1108 Clouds 23 1012 60 10000 3.6 310 20:41 08.11.2022
1109 Clouds 23 1012 60 10000 4.12 310 19:47 08.11.2022
1110 Clouds 23 1012 60 10000 4.12 310 19:21 08.11.2022
1111 Clouds 24 1011 64 10000 4.12 250 17:34 08.11.2022
1112 Clouds 27 1012 39 10000 6.17 270 14:57 08.11.2022
1113 Clouds 27 1012 39 10000 9.77 270 14:31 08.11.2022
1114 Clouds 30 1012 26 10000 4.63 200 13:28 08.11.2022
1115 Clouds 33 1009 19 10000 3.09 150 10:28 08.11.2022
1116 Clouds 36 1009 15 10000 8.23 240 07:38 08.11.2022
1117 Clouds 31 1014 13 10000 4.12 320 01:50 08.11.2022
1118 Clouds 24 1012 23 10000 3.09 160 22:54 07.11.2022
1119 Clouds 21 1011 23 10000 1.54 10 21:39 07.11.2022
1120 Clouds 20 1011 26 10000 0.51 10 20:45 07.11.2022
1121 Clouds 20 1010 24 10000 3.6 10 19:33 07.11.2022
1122 Clear 21 1012 19 10000 2.57 10 17:39 07.11.2022
1123 Clear 20 1013 22 10000 0 0 15:36 07.11.2022
1124 Clear 21 1013 19 10000 2.57 130 14:54 07.11.2022
1125 Clouds 26 1012 13 10000 2.57 320 12:59 07.11.2022
1126 Clouds 28 1012 11 10000 2.57 300 11:49 07.11.2022
1127 Clouds 34 1011 8 10000 4.63 300 09:49 07.11.2022
1128 Clouds 35 1011 8 10000 6.69 330 07:54 07.11.2022
1129 Clouds 35 1012 7 10000 3.09 340 06:27 07.11.2022
1130 Clouds 30 1016 10 10000 7.2 40 01:42 07.11.2022
1131 Clear 15 1015 33 10000 0 0 22:39 06.11.2022
1132 Clear 16 1014 27 10000 0 0 21:21 06.11.2022
1133 Clear 15 1013 31 10000 0 0 20:34 06.11.2022
1134 Clear 16 1013 27 10000 0 0 19:55 06.11.2022
1135 Clouds 18 1013 22 10000 1.03 70 18:41 06.11.2022
1136 Clouds 18 1013 22 10000 1.03 70 18:20 06.11.2022
1137 Clouds 19 1014 20 10000 1.54 70 17:22 06.11.2022
1138 Clouds 22 1014 16 10000 3.09 90 16:41 06.11.2022
1139 Clouds 22 1014 15 10000 3.6 80 15:54 06.11.2022
1140 Clouds 24 1015 14 10000 4.12 80 14:36 06.11.2022
1141 Clouds 26 1014 13 10000 4.12 90 12:42 06.11.2022
1142 Clouds 29 1014 11 10000 4.12 110 10:48 06.11.2022
1143 Clouds 33 1013 9 10000 5.14 100 09:30 06.11.2022
1144 Clear 34 1014 10 10000 3.6 140 06:39 06.11.2022
1145 Clear 23 1018 18 10000 0 0 23:22 05.11.2022
1146 Clear 13 1016 38 10000 0 0 19:57 05.11.2022
1147 Clear 17 1016 23 10000 2.06 80 18:20 05.11.2022
1148 Clear 19 1017 20 10000 3.09 50 16:21 05.11.2022
1149 Clear 20 1018 19 10000 3.6 80 14:34 05.11.2022
1150 Clear 23 1018 16 10000 4.12 110 12:51 05.11.2022
1151 Clear 29 1016 10 10000 4.12 150 10:38 05.11.2022
1152 Clear 31 1007 40 10000 5.66 190 08:48 05.11.2022
1153 Clear 31 1007 40 10000 6.17 150 06:58 05.11.2022
1154 Clear 31 1007 40 10000 6.17 110 06:36 05.11.2022
1155 Clear 18 1020 29 10000 2.57 100 23:35 04.11.2022
1156 Clear 11 1020 50 10000 0 0 22:33 04.11.2022
1157 -273 0 0 0 0 0 20:28 04.11.2022
1158 -273 0 0 0 0 0 20:26 04.11.2022
1159 Clear 11 1019 46 10000 0 0 20:26 04.11.2022
1160 Clear 11 1019 46 10000 0 0 20:26 04.11.2022
1161 Clear 16 1019 31 10000 2.57 90 17:46 04.11.2022
1162 Clear 14 1019 35 10000 2.57 60 16:46 04.11.2022
1163 Clear 20 1020 22 10000 4.98 97 13:39 04.11.2022
1164 Clear 23 1019 17 10000 4.12 110 12:25 04.11.2022
1165 Clear 25 1017 14 10000 5.55 111 09:41 04.11.2022
1166 Clear 28 1017 12 10000 3.09 50 08:29 04.11.2022
1167 Clear 29 1017 11 10000 4.63 100 07:41 04.11.2022
1168 Clear 23 1023 20 10000 6.17 70 02:28 04.11.2022
1169 Clear 15 1023 38 10000 2.06 90 22:44 03.11.2022
1170 Clear 9 1022 57 10000 0 0 20:49 03.11.2022
1171 Clear 9 1021 57 10000 0 0 19:44 03.11.2022
1172 Clear 10 1021 50 10000 0 0 18:46 03.11.2022
1173 Clear 11 1022 46 10000 0 0 17:42 03.11.2022
1174 Clear 13 1022 41 10000 0 0 16:18 03.11.2022
1175 Clear 15 1022 36 10000 3.09 120 13:54 03.11.2022
1176 Clear 18 1022 27 10000 3.6 130 12:35 03.11.2022
1177 Clear 20 1021 22 10000 3.6 130 11:44 03.11.2022
1178 Clear 25 1018 16 10000 5.14 130 08:51 03.11.2022
1179 Clear 24 1018 17 10000 5.66 130 07:24 03.11.2022
1180 Clear 8 1020 57 10000 0.51 100 21:24 02.11.2022
1181 Clear 10 1020 43 10000 2.57 100 20:34 02.11.2022
1182 Clear 10 1020 43 10000 1.03 50 19:47 02.11.2022
1183 Clear 14 1020 35 10000 3.09 100 16:34 02.11.2022
1184 Clear 15 1020 36 10000 3.6 120 15:35 02.11.2022
1185 Clear 17 1020 34 10000 3.09 150 13:42 02.11.2022
1186 Clear 18 1019 29 10000 3.6 140 12:35 02.11.2022
1187 Clear 21 1017 24 10000 4.63 120 10:45 02.11.2022
1188 Clear 25 1016 20 10000 5.66 140 08:43 02.11.2022
1189 Clear 21 1020 24 10000 3.09 110 03:32 02.11.2022
1190 Clear 14 1020 44 10000 2.57 140 22:53 01.11.2022
1191 Clear 10 1019 71 10000 2.06 170 22:18 01.11.2022
1192 Clear 9 1018 71 10000 2.57 150 21:24 01.11.2022
1193 Clear 10 1018 71 10000 3.09 160 20:23 01.11.2022
1194 Clear 11 1017 66 10000 3.09 160 19:41 01.11.2022
1195 Clear 12 1017 62 10000 2.57 160 18:30 01.11.2022
1196 Clear 15 1017 47 10000 3.09 140 16:53 01.11.2022
1197 Clear 16 1017 44 10000 3.6 140 15:19 01.11.2022
1198 Clear 17 1016 39 10000 2.57 130 13:24 01.11.2022
1199 Clear 20 1015 30 10000 3.09 150 12:26 01.11.2022
1200 Clear 20 1014 32 10000 3.09 170 11:21 01.11.2022
1201 Clear 25 1012 18 10000 4.12 190 09:25 01.11.2022
1202 Clear 25 1012 19 10000 5.66 230 07:54 01.11.2022
1203 Clear 25 1012 20 10000 4.63 230 07:28 01.11.2022
1204 Clear 25 1013 19 10000 6.69 220 06:46 01.11.2022
1205 Clear 24 1014 22 10000 6.69 220 05:23 01.11.2022
1206 Clear 13 1016 35 10000 3.6 240 22:51 31.10.2022
1207 Clear 8 1015 49 10000 2.06 240 21:34 31.10.2022
1208 Clear 10 1014 46 10000 3.6 220 19:58 31.10.2022
1209 Clear 14 1014 28 10000 6.17 210 18:44 31.10.2022
1210 Clear 15 1014 33 10000 4.12 210 16:45 31.10.2022
1211 Clouds 17 1014 27 10000 6.17 220 15:35 31.10.2022
1212 Clouds 21 1012 24 10000 6.69 230 12:39 31.10.2022
1213 Clouds 26 1008 31 10000 7.72 230 09:44 31.10.2022
1214 Clouds 31 1007 40 10000 7.72 250 07:41 31.10.2022
1215 Clouds 28 1008 30 10000 7.2 260 02:49 31.10.2022
1216 Clouds 26 1008 34 10000 8.23 240 01:48 31.10.2022
1217 Clouds 25 1006 69 10000 4.12 300 22:22 30.10.2022
1218 Clouds 26 1004 57 10000 7.2 330 20:43 30.10.2022
1219 Clouds 26 1004 57 10000 7.72 320 19:52 30.10.2022
1220 Clouds 31 1007 40 10000 4.12 310 16:42 30.10.2022
1221 Clouds 31 1007 40 10000 6.69 330 14:54 30.10.2022
1222 Clouds 31 1007 40 10000 7.72 340 13:51 30.10.2022
1223 Clouds 31 1007 40 10000 8.23 280 12:27 30.10.2022
1224 Clouds 31 1007 40 7000 7.72 260 10:25 30.10.2022
1225 Clouds 28 1004 57 10000 9.77 330 09:35 30.10.2022
1226 Clouds 37 1003 22 10000 12.35 320 07:57 30.10.2022
1227 Clouds 23 1009 64 10000 7.72 320 00:29 30.10.2022
1228 Clouds 24 1009 50 10000 4.12 330 23:47 29.10.2022
1229 Clear 25 1009 38 10000 9.77 330 22:31 29.10.2022
1230 Clouds 24 1007 50 10000 7.2 350 19:38 29.10.2022
1231 Clouds 24 1008 43 10000 6.17 350 17:23 29.10.2022
1232 Clouds 25 1009 41 10000 4.63 20 15:39 29.10.2022
1233 Clouds 26 1009 38 10000 4.12 10 14:55 29.10.2022
1234 Clouds 27 1009 36 10000 5.14 10 13:50 29.10.2022
1235 Clouds 31 1007 40 10000 5.66 350 12:33 29.10.2022
1236 Clouds 31 1007 40 10000 7.72 340 09:32 29.10.2022
1237 Clouds 31 1007 40 10000 9.26 30 06:51 29.10.2022
1238 Clouds 31 1007 40 10000 7.2 30 05:54 29.10.2022
1239 Clouds 18 1014 94 10000 3.6 210 23:44 28.10.2022
1240 Clouds 19 1012 82 10000 10.29 210 21:58 28.10.2022
1241 Clouds 17 1009 94 10000 0 0 20:45 28.10.2022
1242 Clouds 17 1010 94 10000 2.57 30 18:39 28.10.2022
1243 Clouds 17 1010 94 10000 2.57 30 18:20 28.10.2022
1244 Clouds 19 1012 82 10000 4.12 30 15:28 28.10.2022
1245 Clouds 19 1013 94 10000 3.6 60 13:43 28.10.2022
1246 Clouds 20 1014 88 10000 2.06 250 11:55 28.10.2022
1247 Clouds 20 1014 94 10000 2.57 290 11:33 28.10.2022
1248 Clouds 21 1014 83 10000 0 0 10:45 28.10.2022
1249 Rain 21 1014 78 10000 3.09 350 09:37 28.10.2022
1250 Clouds 31 1007 40 10000 3.6 310 07:19 28.10.2022
1251 Clear 28 1013 27 10000 6.94 76 02:30 28.10.2022
1252 Clouds 20 1014 49 10000 3.09 60 23:47 27.10.2022
1253 Clouds 20 1013 49 10000 2.57 120 22:37 27.10.2022
1254 Clouds 19 1013 52 10000 0 0 21:21 27.10.2022
1255 Clouds 22 1012 40 10000 3.09 100 18:33 27.10.2022
1256 Clouds 23 1011 38 10000 4.12 70 17:22 27.10.2022
1257 Clouds 27 1011 29 10000 3.6 130 13:32 27.10.2022
1258 Clouds 31 1007 40 10000 2.06 160 08:31 27.10.2022
1259 Clear 24 1014 41 10000 6.69 110 02:56 27.10.2022
1260 Clear 19 1014 55 10000 5.66 110 23:54 26.10.2022
1261 Clear 18 1012 55 10000 4.12 130 22:44 26.10.2022
1262 Clear 18 1012 55 10000 3.6 130 21:49 26.10.2022
1263 Clouds 21 1011 43 10000 4.12 140 18:38 26.10.2022
1264 Clouds 24 1011 33 10000 5.66 140 16:22 26.10.2022
1265 Clouds 31 1007 40 10000 2.57 210 13:34 26.10.2022
1266 Clouds 31 1007 40 10000 3.6 170 12:36 26.10.2022
1267 Clouds 36 1005 14 10000 5.66 240 09:31 26.10.2022
1268 Clouds 36 1005 15 10000 6.69 260 08:53 26.10.2022
1269 Clear 36 1006 17 10000 5.14 220 07:57 26.10.2022
1270 Clear 25 1010 44 10000 4.63 260 00:42 26.10.2022
1271 Clear 24 1009 50 10000 4.63 270 23:57 25.10.2022
1272 Clear 20 1007 68 10000 2.57 260 21:47 25.10.2022
1273 Clear 21 1006 64 10000 3.6 290 20:50 25.10.2022
1274 Clouds 21 1007 68 10000 4.12 270 18:59 25.10.2022
1275 Clouds 22 1007 64 10000 3.09 270 17:51 25.10.2022
1276 Clouds 21 1008 78 10000 2.57 10 13:57 25.10.2022
1277 Clouds 23 1007 64 10000 3.6 80 11:38 25.10.2022
1278 Clouds 22 1008 73 10000 5.14 70 10:36 25.10.2022
1279 Clouds 30 1009 26 10000 8.75 190 08:44 25.10.2022
1280 Clouds 30 1009 26 10000 8.75 190 08:18 25.10.2022
1281 Clouds 30 1009 26 10000 8.75 190 07:54 25.10.2022
1282 Clouds 37 1003 16 10000 8.1 314 06:54 25.10.2022
1283 Clouds 32 1009 23 10000 8.75 360 03:38 25.10.2022
1284 Clouds 23 1010 38 10000 4.63 50 00:33 25.10.2022
1285 Clouds 19 1009 48 10000 4.12 80 22:29 24.10.2022
1286 Clouds 19 1008 48 10000 4.63 80 21:50 24.10.2022
1287 Clouds 20 1008 42 10000 4.63 90 21:32 24.10.2022
1288 Clouds 21 1008 40 10000 4.12 90 20:41 24.10.2022
1289 Clear 21 1008 43 10000 4.63 90 18:52 24.10.2022
1290 Clear 21 1010 46 10000 2.57 90 16:59 24.10.2022
1291 Clear 23 1010 40 10000 5.14 100 15:51 24.10.2022
1292 Clear 26 1010 31 10000 3.6 120 14:21 24.10.2022
1293 Clear 28 1009 30 10000 4.12 120 12:59 24.10.2022
1294 Clear 32 1007 23 10000 3.6 170 10:27 24.10.2022
1295 Clear 32 1007 27 10000 3.6 100 07:56 24.10.2022
1296 Clear 18 1012 77 10000 3.09 100 23:45 23.10.2022
1297 Clouds 17 1010 82 10000 3.09 130 20:41 23.10.2022
1298 Clouds 18 1010 82 10000 4.12 130 19:29 23.10.2022
1299 Clouds 19 1011 77 10000 6.17 140 17:30 23.10.2022
1300 Clouds 19 1011 77 10000 6.17 140 17:30 23.10.2022
1301 Clear 21 1011 68 10000 5.14 150 16:37 23.10.2022
1302 Clear 22 1011 60 10000 6.69 140 15:19 23.10.2022
1303 Clouds 28 1007 32 10000 5.66 150 12:21 23.10.2022
1304 Clouds 31 1007 40 10000 7.72 160 10:58 23.10.2022
1305 Clear 31 1007 40 10000 2.57 150 06:36 23.10.2022
1306 Clouds 21 1010 60 10000 3.6 230 23:32 22.10.2022
1307 Clouds 20 1008 68 10000 2.57 270 22:30 22.10.2022
1308 Clouds 20 1007 68 10000 3.09 130 21:40 22.10.2022
1309 Clouds 21 1007 60 10000 3.09 90 20:28 22.10.2022
1310 Clouds 23 1007 53 10000 2.57 120 19:31 22.10.2022
1311 Clouds 27 1011 32 10000 7.72 230 17:42 22.10.2022
1312 Clouds 27 1008 29 10000 3.6 320 16:50 22.10.2022
1313 Clouds 31 1007 40 10000 2.57 140 15:18 22.10.2022
1314 Clouds 31 1007 40 10000 6.17 240 14:31 22.10.2022
1315 Clouds 31 1007 40 10000 2.57 310 11:35 22.10.2022
1316 Clouds 35 1006 12 10000 5.66 320 09:46 22.10.2022
1317 Clouds 36 1006 11 10000 3.6 330 08:37 22.10.2022
1318 Clouds 35 1008 10 10000 4.63 320 06:19 22.10.2022
1319 Clear 31 1007 40 10000 2.06 110 00:55 22.10.2022
1320 Clear 15 1011 63 10000 0 0 22:52 21.10.2022
1321 Clear 17 1010 55 10000 0 0 21:32 21.10.2022
1322 Clear 17 1010 59 10000 2.57 90 20:27 21.10.2022
1323 Clear 18 1011 55 10000 2.57 30 18:27 21.10.2022
1324 Clear 22 1013 35 10000 0 0 14:40 21.10.2022
1325 Clear 24 1012 25 10000 2.57 120 13:40 21.10.2022
1326 Clear 27 1011 18 10000 3.6 180 11:46 21.10.2022
1327 Clear 31 1007 40 10000 5.66 190 10:24 21.10.2022
1328 Clear 31 1007 40 10000 5.66 200 08:45 21.10.2022
1329 Clear 31 1007 40 10000 3.09 190 08:20 21.10.2022
1330 Clear 31 1007 40 10000 3.6 220 04:30 21.10.2022
1331 Clear 14 1015 88 10000 0 0 23:23 20.10.2022
1332 Clear 14 1013 82 10000 0 0 20:57 20.10.2022
1333 Clear 16 1013 72 10000 0 0 19:43 20.10.2022
1334 Clear 17 1013 67 10000 0 0 18:34 20.10.2022
1335 Clear 17 1014 67 10000 3.09 280 17:38 20.10.2022
1336 Clear 21 1014 46 10000 2.06 90 13:47 20.10.2022
1337 Clear 24 1013 35 10000 3.09 170 12:32 20.10.2022
1338 Clear 27 1012 28 10000 4.63 180 11:29 20.10.2022
1339 Clear 28 1012 26 10000 4.12 170 10:51 20.10.2022
1340 Clear 31 1007 40 10000 3.6 220 09:22 20.10.2022
1341 Clear 27 1013 29 10000 4.12 230 06:24 20.10.2022
1342 Clear 20 1017 64 10000 3.09 190 01:59 20.10.2022
1343 Clear 14 1016 88 10000 0 0 23:39 19.10.2022
1344 Clear 13 1015 94 10000 0 0 22:23 19.10.2022
1345 Clear 14 1015 88 10000 2.06 270 21:20 19.10.2022
1346 Clear 15 1015 82 10000 0 0 19:55 19.10.2022
1347 Clear 16 1015 77 10000 3.09 170 17:47 19.10.2022
1348 Clear 17 1016 72 10000 3.09 190 16:24 19.10.2022
1349 Clear 20 1015 56 10000 3.6 150 14:20 19.10.2022
1350 Clear 25 1012 31 10000 5.14 190 11:42 19.10.2022
1351 Clear 27 1011 29 10000 4.12 240 08:47 19.10.2022
1352 Clear 28 1012 30 10000 4.63 240 07:22 19.10.2022
1353 Clear 19 1015 63 10000 3.09 190 01:33 19.10.2022
1354 Clear 16 1014 77 10000 3.6 290 23:22 18.10.2022
1355 Clear 15 1013 77 10000 4.63 280 21:49 18.10.2022
1356 Clear 15 1013 77 10000 4.63 280 21:49 18.10.2022
1357 Clear 15 1012 72 10000 5.14 280 21:19 18.10.2022
1358 Clear 16 1012 67 10000 4.63 280 20:26 18.10.2022
1359 Clear 16 1012 67 10000 4.63 280 20:26 18.10.2022
1360 Clear 15 1012 72 10000 3.6 280 18:55 18.10.2022
1361 Clear 17 1013 63 10000 4.12 290 16:56 18.10.2022
1362 Clear 18 1012 55 10000 3.09 270 14:59 18.10.2022
1363 Clear 20 1011 42 10000 3.6 230 13:38 18.10.2022
1364 Clear 23 1009 27 10000 5.14 230 11:47 18.10.2022
1365 Clear 27 1008 22 10000 7.2 240 10:27 18.10.2022
1366 Clear 31 1007 40 10000 8.75 250 08:40 18.10.2022
1367 Clouds 28 1008 39 10000 6.17 230 05:45 18.10.2022
1368 Clouds 19 1009 88 10000 4.12 350 23:25 17.10.2022
1369 Clouds 19 1007 88 10000 5.14 10 21:28 17.10.2022
1370 Clouds 19 1007 88 10000 7.72 20 20:45 17.10.2022
1371 Clouds 19 1006 88 10000 8.75 20 20:27 17.10.2022
1372 Clouds 18 1009 94 10000 3.6 350 19:41 17.10.2022
1373 Clouds 18 1010 100 10000 5.14 50 17:40 17.10.2022
1374 Clouds 19 1014 94 10000 2.57 200 15:54 17.10.2022
1375 Clouds 20 1013 88 10000 5.14 170 14:36 17.10.2022
1376 Clouds 23 1011 73 10000 3.09 50 12:42 17.10.2022
1377 Clouds 35 1008 26 10000 8.23 340 07:34 17.10.2022
1378 Clear 27 1015 50 10000 5.66 20 01:25 17.10.2022
1379 Clear 18 1014 88 10000 2.06 360 22:34 16.10.2022
1380 Clouds 18 1014 88 10000 3.09 20 21:21 16.10.2022
1381 Clouds 18 1014 88 10000 2.57 110 19:51 16.10.2022
1382 Clouds 19 1015 88 10000 2.57 140 19:24 16.10.2022
1383 Clouds 20 1015 83 10000 4.12 50 17:44 16.10.2022
1384 Clouds 20 1017 83 10000 3.6 240 16:26 16.10.2022
1385 Rain 21 1016 73 10000 4.63 50 15:53 16.10.2022
1386 Clouds 24 1015 57 10000 3.6 70 12:25 16.10.2022
1387 Clouds 25 1014 50 10000 3.6 80 11:22 16.10.2022
1388 Clouds 31 1007 40 10000 6.17 350 10:26 16.10.2022
1389 Clear 31 1007 40 10000 5.66 10 04:51 16.10.2022
1390 Clouds 17 1017 82 10000 1.54 30 23:42 15.10.2022
1391 Clouds 16 1016 94 10000 1.03 350 21:30 15.10.2022
1392 Clouds 16 1016 88 10000 1.54 50 20:57 15.10.2022
1393 Clouds 16 1016 88 10000 1.54 50 20:57 15.10.2022
1394 Clouds 16 1016 88 10000 1.54 50 20:57 15.10.2022
1395 Clouds 17 1016 77 10000 2.57 130 19:30 15.10.2022
1396 Clouds 18 1017 68 10000 7.72 90 16:57 15.10.2022
1397 Clouds 22 1017 35 10000 4.63 100 15:45 15.10.2022
1398 Clouds 24 1015 31 10000 7.72 90 13:21 15.10.2022
1399 Clouds 26 1015 27 10000 7.2 90 11:40 15.10.2022
1400 Clouds 31 1007 40 10000 5.66 90 09:28 15.10.2022
1401 Clouds 31 1007 40 10000 5.66 90 07:33 15.10.2022
1402 Clouds 17 1018 42 10000 4.63 110 00:40 15.10.2022
1403 Clouds 13 1016 50 10000 3.6 110 22:41 14.10.2022
1404 Clouds 13 1016 50 10000 3.6 110 22:22 14.10.2022
1405 Clouds 15 1015 44 10000 3.09 110 20:33 14.10.2022
1406 Clouds 15 1016 44 10000 3.09 90 18:39 14.10.2022
1407 Clouds 18 1017 36 10000 4.12 90 15:32 14.10.2022
1408 Clouds 20 1016 32 10000 3.6 90 12:47 14.10.2022
1409 Clouds 23 1015 25 10000 6.17 100 10:54 14.10.2022
1410 Clouds 25 1015 22 10000 5.66 100 08:25 14.10.2022
1411 Clouds 24 1016 25 10000 5.66 100 06:45 14.10.2022
1412 Clouds 23 1017 27 10000 5.66 70 06:18 14.10.2022
1413 Clouds 21 1018 30 10000 6.69 90 05:41 14.10.2022
1414 Clouds 18 1020 39 10000 8.75 110 01:46 14.10.2022
1415 Clouds 7 1019 76 10000 0 0 23:20 13.10.2022
1416 Clouds 7 1018 76 10000 0 0 21:31 13.10.2022
1417 Clouds 9 1017 71 10000 0 0 20:22 13.10.2022
1418 Clouds 9 1017 66 10000 0 0 19:42 13.10.2022
1419 Clouds 9 1018 71 10000 0 0 18:45 13.10.2022
1420 Clouds 10 1018 66 10000 0 0 17:53 13.10.2022
1421 Clouds 12 1019 58 10000 2.57 170 15:49 13.10.2022
1422 Clouds 13 1019 67 10000 3.09 160 14:59 13.10.2022
1423 Clouds 14 1018 62 10000 3.6 160 13:49 13.10.2022
1424 Clouds 16 1017 55 10000 5.66 160 11:45 13.10.2022
1425 Clouds 18 1016 48 10000 5.66 160 09:57 13.10.2022
1426 Clouds 19 1015 45 10000 6.69 170 08:33 13.10.2022
1427 Clouds 20 1015 42 10000 6.69 180 07:36 13.10.2022
1428 Clouds 18 1017 48 10000 6.69 150 03:37 13.10.2022
1429 Clouds 15 1016 58 10000 6.69 160 01:38 13.10.2022
1430 Clouds 14 1014 72 10000 4.63 170 23:32 12.10.2022
1431 Clouds 14 1014 72 10000 4.12 160 22:44 12.10.2022
1432 Clouds 15 1012 72 10000 6.17 180 21:25 12.10.2022
1433 Clouds 15 1012 72 10000 6.17 180 20:55 12.10.2022
1434 Clouds 16 1012 67 10000 7.72 180 20:26 12.10.2022
1435 Clouds 16 1011 67 10000 5.66 170 19:18 12.10.2022
1436 Clouds 18 1011 63 10000 8.75 170 17:54 12.10.2022
1437 Clouds 22 1009 43 10000 6.69 170 16:29 12.10.2022
1438 Clear 31 1007 40 10000 4.63 330 13:58 12.10.2022
1439 Clear 31 1007 40 10000 4.12 330 13:36 12.10.2022
1440 Clear 31 1007 40 10000 7.72 340 10:51 12.10.2022
1441 Clear 39 1003 10 10000 8.75 300 09:23 12.10.2022
1442 Clear 39 1004 11 10000 9.77 320 07:41 12.10.2022
1443 Clear 38 1005 12 10000 10.29 320 06:43 12.10.2022
1444 Clear 31 1007 40 10000 9.77 340 02:55 12.10.2022
1445 Clear 24 1008 15 10000 6.17 350 23:33 11.10.2022
1446 Clear 25 1007 13 10000 2.57 60 20:58 11.10.2022
1447 Clouds 21 1007 19 10000 4.63 80 19:59 11.10.2022
1448 Clouds 22 1009 20 10000 4.63 110 17:38 11.10.2022
1449 Clouds 24 1009 17 10000 4.63 60 15:34 11.10.2022
1450 Clouds 28 1009 14 10000 6.17 70 13:29 11.10.2022
1451 Clouds 31 1007 40 10000 4.63 290 10:32 11.10.2022
1452 Clouds 31 1007 40 10000 2.06 310 09:55 11.10.2022
1453 Clouds 31 1007 40 10000 3.6 250 08:25 11.10.2022
1454 Clouds 31 1007 40 10000 5.14 340 02:46 11.10.2022
1455 Clouds 22 1013 15 10000 5.14 340 00:34 11.10.2022
1456 Clouds 21 1012 18 10000 1.54 350 21:47 10.10.2022
1457 Clouds 16 1012 31 10000 0 0 20:32 10.10.2022
1458 Clouds 19 1013 24 10000 2.57 60 18:50 10.10.2022
1459 Clouds 19 1014 26 10000 3.6 30 17:24 10.10.2022
1460 Clouds 18 1015 27 10000 3.6 40 16:22 10.10.2022
1461 Clouds 21 1015 23 10000 3.6 80 13:31 10.10.2022
1462 Clouds 23 1014 20 10000 3.6 80 12:22 10.10.2022
1463 Clear 29 1014 14 10000 3.6 70 09:26 10.10.2022
1464 Clouds 27 1016 14 10000 2.57 90 05:53 10.10.2022
1465 Clouds 26 1017 15 10000 2.06 40 05:32 10.10.2022
1466 Clouds 15 1019 31 10000 3.6 90 00:41 10.10.2022
1467 Clear 7 1019 45 10000 0 0 23:36 09.10.2022
1468 Clear 7 1019 45 10000 0 0 22:24 09.10.2022
1469 Clouds 7 1018 42 10000 0 0 21:27 09.10.2022
1470 Clouds 8 1018 39 10000 0 0 20:42 09.10.2022
1471 Clouds 8 1018 39 10000 0 0 19:47 09.10.2022
1472 Clear 9 1019 37 10000 0 0 18:48 09.10.2022
1473 Clear 10 1020 34 10000 0 0 17:35 09.10.2022
1474 Clear 11 1020 30 10000 1.54 140 16:44 09.10.2022
1475 Clear 13 1020 26 10000 2.06 110 16:19 09.10.2022
1476 Clear 14 1021 24 10000 2.06 140 14:49 09.10.2022
1477 Clear 16 1020 21 10000 2.57 100 14:26 09.10.2022
1478 Clear 19 1020 18 10000 2.57 110 12:48 09.10.2022
1479 Clear 23 1019 13 10000 4.12 130 11:22 09.10.2022
1480 Clear 26 1018 12 10000 5.14 100 08:32 09.10.2022
1481 Clear 22 1023 20 10000 5.66 120 04:28 09.10.2022
1482 Clear 20 1023 24 10000 5.66 120 03:20 09.10.2022
1483 Clear 15 1023 36 10000 7.2 80 00:40 09.10.2022
1484 Clear 11 1022 46 10000 3.6 80 23:32 08.10.2022
1485 Clear 11 1021 43 10000 3.09 110 22:35 08.10.2022
1486 Clear 11 1021 46 10000 3.09 100 20:33 08.10.2022
1487 Clear 12 1021 43 10000 2.57 90 19:27 08.10.2022
1488 Clear 12 1022 47 10000 0 0 17:39 08.10.2022
1489 Clear 15 1023 36 10000 3.6 130 15:34 08.10.2022
1490 Clear 17 1022 34 10000 3.6 140 13:32 08.10.2022
1491 Clear 22 1020 26 10000 5.14 120 11:24 08.10.2022
1492 Clear 23 1019 27 10000 6.69 120 10:32 08.10.2022
1493 Clear 24 1019 25 10000 5.66 130 09:24 08.10.2022
1494 Clear 22 1021 26 10000 7.2 120 05:35 08.10.2022
1495 Clouds 18 1023 34 10000 8.23 130 01:19 08.10.2022
1496 Clouds 17 1021 34 10000 8.75 150 23:48 07.10.2022
1497 Clouds 18 1021 27 10000 7.2 150 23:20 07.10.2022
1498 Clouds 18 1019 24 10000 5.14 150 21:52 07.10.2022
1499 Clouds 18 1018 27 10000 4.63 150 20:18 07.10.2022
1500 Clouds 19 1017 32 10000 5.14 140 17:55 07.10.2022
1501 Clear 20 1017 32 10000 6.17 150 16:51 07.10.2022
1502 Clouds 22 1016 40 10000 4.63 130 15:27 07.10.2022
1503 Clouds 23 1016 46 10000 4.12 120 14:22 07.10.2022
1504 Clouds 27 1012 32 10000 4.12 130 11:38 07.10.2022
1505 Clear 31 1007 40 10000 3.6 120 09:25 07.10.2022
1506 Clear 31 1007 40 10000 3.6 210 08:23 07.10.2022
1507 Clear 23 1017 40 10000 5.14 120 02:55 07.10.2022
1508 Clouds 18 1016 55 10000 0 0 23:21 06.10.2022
1509 Clouds 18 1015 52 10000 0 0 22:48 06.10.2022
1510 Clouds 19 1014 45 10000 3.09 200 21:37 06.10.2022
1511 Clouds 20 1014 42 10000 2.57 190 20:39 06.10.2022
1512 Clouds 21 1013 40 10000 3.6 180 18:57 06.10.2022
1513 Clouds 22 1013 35 10000 7.2 170 18:32 06.10.2022
1514 Clouds 24 1012 29 10000 0.51 300 15:38 06.10.2022
1515 Clouds 28 1011 20 10000 2.57 280 12:59 06.10.2022
1516 Clear 31 1007 40 10000 8.75 310 09:27 06.10.2022
1517 Clouds 31 1007 40 10000 8.75 320 05:19 06.10.2022
1518 Clear 29 1015 20 10000 6.17 240 01:47 06.10.2022
1519 Clear 16 1012 77 10000 0 0 21:59 05.10.2022
1520 Clouds 18 1011 68 10000 2.57 30 19:45 05.10.2022
1521 Clouds 22 1013 56 10000 3.6 100 17:37 05.10.2022
1522 Clouds 22 1013 53 10000 1.03 110 16:45 05.10.2022
1523 Clouds 25 1013 41 10000 3.6 100 14:59 05.10.2022
1524 Clouds 26 1013 38 10000 4.12 120 14:38 05.10.2022
1525 Clouds 27 1012 36 10000 3.09 10 13:29 05.10.2022
1526 Clouds 31 1007 40 10000 2.57 310 11:45 05.10.2022
1527 Clouds 31 1007 40 10000 3.09 270 08:25 05.10.2022
1528 Clouds 31 1007 40 10000 2.57 40 07:20 05.10.2022
1529 Clear 31 1007 40 10000 3.6 240 05:31 05.10.2022
1530 Clear 24 1015 46 10000 2.57 220 02:31 05.10.2022
1531 Clouds 19 1014 59 10000 2.57 230 00:28 05.10.2022
1532 Clouds 18 1014 68 10000 3.09 280 23:58 04.10.2022
1533 Clear 15 1012 82 10000 1.54 220 21:25 04.10.2022
1534 Clouds 16 1012 77 10000 2.57 280 19:56 04.10.2022
1535 Clouds 17 1012 77 10000 3.09 270 18:55 04.10.2022
1536 Clouds 17 1012 77 10000 2.06 220 17:57 04.10.2022
1537 Clouds 19 1013 72 10000 0 0 16:56 04.10.2022
1538 Clouds 23 1012 53 10000 3.6 140 14:29 04.10.2022
1539 Clouds 31 1007 40 10000 6.17 270 10:23 04.10.2022
1540 Clouds 31 1007 40 10000 7.72 320 07:50 04.10.2022
1541 Clouds 31 1007 40 10000 5.14 340 04:43 04.10.2022
1542 Clouds 19 1012 94 10000 2.57 290 23:49 03.10.2022
1543 Clouds 19 1011 94 10000 0.51 260 22:28 03.10.2022
1544 Clouds 19 1010 88 10000 1.54 290 21:30 03.10.2022
1545 Clouds 19 1010 77 10000 1.54 350 20:35 03.10.2022
1546 Clouds 20 1010 77 10000 1.03 190 18:52 03.10.2022
1547 Clouds 20 1010 77 10000 3.6 30 17:32 03.10.2022
1548 Clouds 21 1010 73 10000 1.54 210 15:55 03.10.2022
1549 Clouds 21 1010 73 10000 1.54 70 14:26 03.10.2022
1550 Clouds 23 1009 60 10000 3.6 30 12:36 03.10.2022
1551 Clouds 26 1008 53 10000 4.63 80 10:59 03.10.2022
1552 Thunderstorm 29 1007 42 10000 5.14 290 09:52 03.10.2022
1553 Clouds 29 1007 42 10000 5.14 280 08:45 03.10.2022
1554 Clouds 30 1010 34 10000 5.66 320 04:41 03.10.2022
1555 Clouds 21 1012 41 10000 2.57 60 23:27 02.10.2022
1556 Clouds 19 1011 41 10000 3.6 60 21:58 02.10.2022
1557 Clouds 18 1011 50 10000 2.57 90 19:50 02.10.2022
1558 Clouds 19 1011 52 10000 2.57 60 17:55 02.10.2022
1559 Clouds 20 1012 49 10000 3.09 60 16:53 02.10.2022
1560 Clouds 19 1012 54 10000 3.09 60 16:32 02.10.2022
1561 Clouds 19 1013 53 10000 3.6 80 15:25 02.10.2022
1562 Clouds 20 1013 52 10000 3.09 10 13:46 02.10.2022
1563 Clouds 23 1012 41 10000 3.09 20 12:39 02.10.2022
1564 Clouds 25 1012 40 10000 3.09 20 11:48 02.10.2022
1565 Clouds 25 1011 39 10000 2.57 20 11:30 02.10.2022
1566 Clouds 27 1011 33 10000 3.09 360 10:19 02.10.2022
1567 Clouds 27 1010 26 10000 2.06 240 08:28 02.10.2022
1568 Clouds 26 1013 26 10000 5.14 300 05:19 02.10.2022
1569 Clouds 22 1015 33 10000 3.09 20 00:58 02.10.2022
1570 Clouds 20 1015 47 10000 3.09 30 00:38 02.10.2022
1571 Clouds 17 1014 43 10000 3.09 20 23:28 01.10.2022
1572 Clouds 16 1013 41 10000 3.6 50 21:39 01.10.2022
1573 Clouds 18 1013 31 10000 3.6 70 18:54 01.10.2022
1574 Clouds 20 1014 31 10000 3.6 60 17:28 01.10.2022
1575 Clouds 21 1016 27 10000 2.57 150 14:50 01.10.2022
1576 Clouds 22 1015 30 10000 2.57 140 13:44 01.10.2022
1577 Clouds 23 1015 23 10000 2.57 130 12:34 01.10.2022
1578 Clouds 24 1014 22 10000 3.09 130 11:22 01.10.2022
1579 Rain 25 1013 21 10000 3.6 130 10:47 01.10.2022
1580 Clouds 25 1013 21 10000 4.63 120 10:26 01.10.2022
1581 Clouds 25 1014 21 10000 4.63 110 09:21 01.10.2022
1582 Clouds 26 1014 21 10000 4.12 120 08:26 01.10.2022
1583 Clouds 24 1017 20 10000 5.66 100 03:39 01.10.2022
1584 Clouds 25 1017 21 10000 7.2 60 02:37 01.10.2022
1585 Clouds 16 1018 41 10000 0 0 23:21 30.09.2022
1586 Clouds 16 1017 36 10000 2.06 300 21:58 30.09.2022
1587 Clouds 17 1017 34 10000 2.57 290 20:45 30.09.2022
1588 Clouds 17 1017 34 10000 2.57 310 20:20 30.09.2022
1589 Clouds 18 1018 31 10000 0 0 17:59 30.09.2022
1590 Clouds 19 1019 26 10000 0.51 250 16:31 30.09.2022
1591 Clouds 21 1019 23 10000 0.45 215 14:23 30.09.2022
1592 Clouds 22 1019 21 10000 3.6 140 12:29 30.09.2022
1593 Clouds 23 1018 20 10000 4.63 140 11:55 30.09.2022
1594 Clouds 27 1017 20 10000 5.14 160 08:57 30.09.2022
1595 Clouds 28 1018 15 10000 4.63 70 06:38 30.09.2022
1596 Clouds 25 1022 22 10000 6.69 90 02:51 30.09.2022
1597 Clouds 18 1022 32 10000 4.63 100 00:53 30.09.2022
1598 Clouds 13 1020 41 10000 2.57 110 21:39 29.09.2022
1599 Clouds 13 1020 41 10000 2.57 110 21:19 29.09.2022
1600 Clouds 15 1020 36 10000 3.6 90 18:54 29.09.2022
1601 Clouds 15 1021 32 10000 2.57 60 17:48 29.09.2022
1602 Clear 15 1021 32 10000 2.57 100 16:29 29.09.2022
1603 Clear 17 1021 30 10000 2.57 100 15:36 29.09.2022
1604 Clear 17 1021 30 10000 3.09 110 14:59 29.09.2022
1605 Clear 21 1020 22 10000 3.6 130 11:54 29.09.2022
1606 Clouds 28 1018 15 10000 3.6 150 07:39 29.09.2022
1607 Clear 23 1021 21 10000 6.69 90 03:24 29.09.2022
1608 Clear 16 1021 40 10000 0.89 235 00:29 29.09.2022
1609 Clear 11 1020 60 10000 0 0 23:19 28.09.2022
1610 Clear 6 1019 65 10000 0 0 21:31 28.09.2022
1611 Clear 7 1019 65 10000 1.03 160 20:45 28.09.2022
1612 Clear 8 1019 57 10000 0 0 18:53 28.09.2022
1613 Clear 17 1019 30 10000 2.06 80 15:46 28.09.2022
1614 Clear 19 1019 27 10000 4.12 130 13:28 28.09.2022
1615 Clear 19 1019 27 10000 4.12 130 13:28 28.09.2022
1616 Clear 21 1018 31 10000 5.66 130 11:43 28.09.2022
1617 Clear 26 1016 24 10000 5.14 120 09:34 28.09.2022
1618 Clear 27 1017 25 10000 5.14 120 07:41 28.09.2022
1619 Clear 25 1019 27 10000 4.12 100 05:31 28.09.2022
1620 Clear 17 1020 53 10000 3.6 90 01:40 28.09.2022
1621 Clear 12 1018 79 10000 1.34 186 23:31 27.09.2022
1622 Clear 13 1018 71 10000 2.06 200 22:32 27.09.2022
1623 Clear 11 1017 85 10000 0 0 20:56 27.09.2022
1624 Clouds 12 1017 84 10000 2.06 190 20:19 27.09.2022
1625 Clouds 11 1018 85 10000 1.54 240 19:36 27.09.2022
1626 Clouds 12 1018 81 10000 1.03 120 17:46 27.09.2022
1627 Clouds 14 1018 71 10000 3.09 130 16:20 27.09.2022
1628 Clouds 15 1018 66 10000 4.12 140 15:18 27.09.2022
1629 Clouds 16 1019 64 10000 3.09 110 13:36 27.09.2022
1630 Clouds 16 1019 63 10000 4.63 100 12:36 27.09.2022
1631 Clouds 18 1018 55 10000 5.66 140 09:54 27.09.2022
1632 Clouds 20 1017 50 10000 7.2 100 07:41 27.09.2022
1633 Clouds 15 1020 72 10000 8.23 90 03:51 27.09.2022
1634 Clouds 15 1021 67 10000 3.6 70 01:36 27.09.2022
1635 Clouds 16 1018 61 10000 5.14 130 23:45 26.09.2022
1636 Clouds 16 1018 61 10000 5.66 140 23:21 26.09.2022
1637 Clouds 17 1016 67 10000 2.24 239 20:58 26.09.2022
1638 Clouds 18 1016 60 10000 4.63 110 19:42 26.09.2022
1639 Clouds 18 1016 60 10000 4.12 130 18:38 26.09.2022
1640 Clouds 18 1017 60 10000 4.12 120 17:24 26.09.2022
1641 Clouds 20 1017 57 10000 4.02 261 14:48 26.09.2022
1642 Clouds 20 1016 54 10000 4.63 140 11:37 26.09.2022
1643 Clouds 22 1015 53 10000 5.14 130 10:41 26.09.2022
1644 Clouds 22 1015 53 10000 5.14 130 10:22 26.09.2022
1645 Clouds 21 1015 53 10000 5.14 170 09:56 26.09.2022
1646 Clouds 22 1015 50 10000 5.14 100 09:25 26.09.2022
1647 Clouds 23 1015 41 10000 6.69 120 08:58 26.09.2022
1648 Clouds 23 1017 33 10000 6.69 70 02:59 26.09.2022
1649 Clouds 22 1016 34 10000 3.6 50 01:31 26.09.2022
1650 Clouds 21 1016 33 10000 2.57 240 23:20 25.09.2022
1651 Clouds 22 1014 30 10000 1.34 242 21:44 25.09.2022
1652 Clouds 22 1014 24 10000 4.63 260 20:54 25.09.2022
1653 Clouds 23 1014 23 10000 1.34 260 19:55 25.09.2022
1654 Clouds 23 1014 22 10000 4.12 100 18:43 25.09.2022
1655 Clouds 23 1014 22 10000 4.12 100 18:20 25.09.2022
1656 Clouds 24 1016 21 10000 2.68 232 16:55 25.09.2022
1657 Clouds 24 1015 20 10000 1.79 239 15:46 25.09.2022
1658 Clouds 25 1015 20 10000 3.09 110 14:30 25.09.2022
1659 Clouds 26 1015 20 10000 3.13 243 13:19 25.09.2022
1660 Clouds 31 1012 14 10000 10.29 170 10:36 25.09.2022
1661 Clouds 37 1010 15 10000 2.57 280 08:25 25.09.2022
1662 Clouds 35 1011 15 10000 4.63 330 06:24 25.09.2022
1663 Clouds 30 1013 15 10000 8.23 350 03:20 25.09.2022
1664 Clear 20 1013 21 10000 4.12 10 23:23 24.09.2022
1665 Clear 20 1012 20 10000 5.66 20 21:19 24.09.2022
1666 Clear 19 1013 21 10000 3.6 50 19:23 24.09.2022
1667 Clear 18 1013 22 10000 3.6 40 18:18 24.09.2022
1668 Clear 22 1014 18 10000 5.14 30 16:36 24.09.2022
1669 Clear 21 1014 19 10000 2.57 50 15:22 24.09.2022
1670 Clear 22 1014 18 10000 3.6 60 13:35 24.09.2022
1671 Clear 23 1014 17 10000 3.09 60 12:58 24.09.2022
1672 Clear 28 1012 12 10000 3.6 90 11:42 24.09.2022
1673 Clear 31 1012 10 10000 1.54 70 09:54 24.09.2022
1674 Clear 31 1012 10 10000 1.54 170 08:47 24.09.2022
1675 Clear 31 1013 11 10000 3.09 350 07:39 24.09.2022
1676 Clear 31 1016 15 10000 5.14 80 04:48 24.09.2022
1677 Clear 31 1017 15 10000 6.17 70 03:42 24.09.2022
1678 Clear 13 1015 42 10000 0 0 22:36 23.09.2022
1679 Clear 10 1015 53 10000 0 0 21:28 23.09.2022
1680 Clear 15 1015 40 10000 0 0 20:56 23.09.2022
1681 Clear 11 1015 54 10000 0 0 20:20 23.09.2022
1682 Clear 16 1016 33 10000 3.09 110 18:50 23.09.2022
1683 Clear 20 1017 26 10000 2.57 70 14:55 23.09.2022
1684 Clear 28 1016 14 10000 5.66 110 10:55 23.09.2022
1685 Clear 31 1015 15 10000 4.63 90 09:32 23.09.2022
1686 Clear 29 1017 14 10000 1.54 0 05:58 23.09.2022
1687 Clear 21 1018 31 10000 0 0 00:32 23.09.2022
1688 Clear 9 1017 61 10000 0 0 23:21 22.09.2022
1689 Clear 9 1016 57 10000 0 0 22:26 22.09.2022
1690 Clear 11 1016 50 10000 0 0 20:51 22.09.2022
1691 Clear 13 1016 44 10000 2.57 310 19:37 22.09.2022
1692 Clear 15 1017 38 10000 2.06 140 16:57 22.09.2022
1693 Clear 25 1016 20 10000 3.6 110 12:20 22.09.2022
1694 Clear 30 1015 13 10000 5.14 110 10:32 22.09.2022
1695 Clear 30 1015 13 10000 3.09 100 08:52 22.09.2022
1696 Clear 29 1016 15 10000 2.06 360 06:45 22.09.2022
1697 Clear 22 1020 24 10000 4.12 90 02:52 22.09.2022
1698 Clear 8 1019 66 10000 0 0 23:25 21.09.2022
1699 Clear 9 1018 61 10000 0 0 21:41 21.09.2022
1700 Clear 9 1018 61 10000 0 0 19:55 21.09.2022
1701 Clear 11 1019 54 10000 0 0 17:48 21.09.2022
1702 Clear 15 1019 40 10000 0 0 16:30 21.09.2022
1703 Clear 18 1020 30 10000 2.57 110 14:31 21.09.2022
1704 Clear 21 1019 27 10000 3.6 140 12:42 21.09.2022
1705 Clear 23 1018 25 10000 3.09 140 11:29 21.09.2022
1706 Clear 25 1017 22 10000 3.6 180 09:50 21.09.2022
1707 Clear 25 1017 22 10000 3.6 160 08:58 21.09.2022
1708 Clear 23 1019 28 10000 3.09 130 06:22 21.09.2022
1709 Clear 19 1022 39 10000 7.2 110 02:45 21.09.2022
1710 Clear 18 1023 45 10000 6.17 130 02:23 21.09.2022
1711 Clear 14 1020 26 10000 3.09 140 00:34 21.09.2022
1712 Clear 14 1020 26 10000 2.57 180 22:41 20.09.2022
1713 Clear 14 1020 26 10000 3.09 200 20:45 20.09.2022
1714 Clear 14 1020 26 10000 0 0 19:32 20.09.2022
1715 Clear 17 1018 34 10000 4.63 190 16:25 20.09.2022
1716 Clear 21 1018 24 10000 4.63 230 14:45 20.09.2022
1717 Clouds 24 1015 29 10000 2.57 250 12:58 20.09.2022
1718 Clouds 32 1010 14 10000 9.77 240 09:19 20.09.2022
1719 Clouds 33 1010 13 10000 9.77 250 08:26 20.09.2022
1720 Clear 34 1011 14 10000 7.72 300 04:46 20.09.2022
1721 Clear 33 1012 17 10000 7.72 290 03:48 20.09.2022
1722 Clear 26 1010 44 10000 6.17 340 22:55 19.09.2022
1723 Clouds 27 1009 39 10000 6.69 340 21:40 19.09.2022
1724 Clouds 27 1008 39 10000 10.29 350 20:47 19.09.2022
1725 Clouds 27 1008 36 10000 8.75 350 20:24 19.09.2022
1726 Clouds 29 1010 26 10000 5.14 350 17:44 19.09.2022
1727 Clouds 27 1011 24 10000 3.6 350 14:18 19.09.2022
1728 Clouds 28 1011 23 10000 3.09 350 13:18 19.09.2022
1729 Clouds 33 1009 16 10000 5.14 310 10:48 19.09.2022
1730 Clouds 34 1010 12 10000 5.66 350 08:51 19.09.2022
1731 Clouds 33 1013 17 10000 8.75 330 05:53 19.09.2022
1732 Clouds 26 1016 18 10000 5.66 360 01:53 19.09.2022
1733 Clear 14 1020 26 10000 2.57 280 23:22 18.09.2022
1734 Clear 12 1014 54 10000 0 0 21:34 18.09.2022
1735 Clouds 13 1014 50 10000 0 0 20:23 18.09.2022
1736 Clouds 16 1015 31 10000 2.06 130 17:54 18.09.2022
1737 Clouds 18 1015 29 10000 2.57 110 17:19 18.09.2022
1738 Clouds 19 1015 27 10000 5.66 90 15:36 18.09.2022
1739 Clear 20 1015 28 10000 3.6 100 13:47 18.09.2022
1740 Clear 23 1014 23 10000 5.14 90 12:34 18.09.2022
1741 Clear 28 1014 17 10000 5.66 90 10:45 18.09.2022
1742 Clear 23 1019 25 10000 5.66 80 03:40 18.09.2022
1743 Clear 17 1019 42 10000 3.6 60 01:24 18.09.2022
1744 Clear 14 1020 26 10000 2.06 350 00:21 18.09.2022
1745 Clear 14 1020 26 10000 0 0 21:39 17.09.2022
1746 Clear 14 1020 26 10000 0 0 19:42 17.09.2022
1747 Clear 14 1020 26 10000 0 0 18:57 17.09.2022
1748 Clear 14 1020 26 10000 0 0 15:58 17.09.2022
1749 Clear 18 1019 34 10000 4.63 120 13:56 17.09.2022
1750 Clear 24 1016 22 10000 3.6 130 10:56 17.09.2022
1751 Clear 25 1016 20 10000 3.6 160 08:34 17.09.2022
1752 Clear 25 1017 23 10000 3.09 130 06:24 17.09.2022
1753 Clear 14 1020 26 10000 2.57 270 23:57 16.09.2022
1754 Clear 14 1020 26 10000 2.57 250 22:52 16.09.2022
1755 Clouds 14 1020 26 10000 3.6 200 20:59 16.09.2022
1756 Clouds 16 1016 33 10000 3.6 240 19:50 16.09.2022
1757 Clear 16 1015 36 10000 2.57 280 16:30 16.09.2022
1758 Clear 17 1015 27 10000 0 0 14:53 16.09.2022
1759 Clear 18 1014 24 10000 2.57 160 13:43 16.09.2022
1760 Clear 26 1012 12 10000 3.6 210 10:50 16.09.2022
1761 Clear 27 1012 11 10000 2.57 180 08:19 16.09.2022
1762 Clear 26 1013 11 10000 3.6 190 06:48 16.09.2022
1763 Clear 26 1014 12 10000 2.06 160 06:25 16.09.2022
1764 Clear 21 1015 21 10000 2.9 140 02:38 16.09.2022
1765 Clear 14 1020 26 10000 2.57 270 22:43 15.09.2022
1766 Clear 14 1020 26 10000 2.06 330 20:48 15.09.2022
1767 Clear 14 1020 26 10000 2.57 270 19:46 15.09.2022
1768 Clear 14 1020 26 10000 2.06 280 18:29 15.09.2022
1769 Clear 16 1015 31 10000 3.09 290 17:31 15.09.2022
1770 Clear 17 1015 34 10000 2.06 300 15:50 15.09.2022
1771 Clear 18 1015 34 10000 3.6 210 14:20 15.09.2022
1772 Clear 23 1013 23 10000 3.09 180 11:48 15.09.2022
1773 Clear 28 1012 17 10000 5.14 180 09:52 15.09.2022
1774 Clear 29 1013 18 10000 5.66 230 07:45 15.09.2022
1775 Clear 26 1016 29 10000 6.69 240 03:49 15.09.2022
1776 Clouds 17 1014 63 10000 0 0 23:32 14.09.2022
1777 Clouds 18 1013 59 10000 0 0 21:26 14.09.2022
1778 Clouds 20 1014 49 10000 2.57 260 19:33 14.09.2022
1779 Clouds 19 1014 52 10000 3.09 280 18:30 14.09.2022
1780 Clouds 22 1015 37 10000 2.57 210 16:40 14.09.2022
1781 Clouds 27 1015 28 10000 5.66 170 15:29 14.09.2022
1782 Clouds 29 1014 26 10000 4.63 310 13:36 14.09.2022
1783 Clouds 32 1013 20 10000 6.69 300 10:47 14.09.2022
1784 Clouds 33 1012 19 10000 8.23 310 09:27 14.09.2022
1785 Clouds 34 1014 18 10000 9.77 300 06:51 14.09.2022
1786 Clear 33 1014 18 10000 9.77 290 06:33 14.09.2022
1787 Clear 30 1017 19 10000 10.29 340 03:54 14.09.2022
1788 Clear 25 1016 23 10000 6.69 350 01:41 14.09.2022
1789 Clear 25 1016 23 10000 6.69 350 01:19 14.09.2022
1790 Clear 21 1016 32 10000 6.17 360 23:55 13.09.2022
1791 Clear 22 1016 30 10000 7.2 360 23:37 13.09.2022
1792 Clear 22 1016 30 10000 7.2 360 23:37 13.09.2022
1793 Clear 22 1016 30 10000 7.2 360 23:19 13.09.2022
1794 Clear 22 1016 33 10000 8.23 10 22:32 13.09.2022
1795 Clear 23 1017 31 10000 8.23 360 21:40 13.09.2022
1796 Clear 23 1017 31 10000 7.2 360 19:26 13.09.2022
1797 Clear 22 1018 33 10000 3.6 50 16:45 13.09.2022
1798 Clear 23 1017 31 10000 7.15 10 15:38 13.09.2022
1799 Clear 22 1018 37 10000 4.12 70 13:50 13.09.2022
1800 Clear 28 1016 20 10000 2.06 360 11:34 13.09.2022
1801 Clear 31 1016 16 10000 3.6 330 08:20 13.09.2022
1802 Clear 25 1021 36 10000 3.6 10 02:58 13.09.2022
1803 Clear 14 1020 26 10000 2.57 120 23:23 12.09.2022
1804 Clear 14 1020 26 10000 2.06 130 22:45 12.09.2022
1805 Clear 14 1020 26 10000 2.57 70 21:35 12.09.2022
1806 Clear 14 1020 26 10000 3.09 80 20:23 12.09.2022
1807 Clouds 15 1020 72 10000 3.6 110 18:41 12.09.2022
1808 Clear 17 1020 63 10000 3.6 100 15:53 12.09.2022
1809 Clear 20 1019 52 10000 3.6 90 12:57 12.09.2022
1810 Clear 25 1017 36 10000 5.66 100 10:34 12.09.2022
1811 Clear 26 1017 36 10000 5.14 110 08:58 12.09.2022
1812 Clear 20 1020 56 10000 4.63 100 04:39 12.09.2022
1813 Clear 17 1021 67 10000 4.63 80 02:57 12.09.2022
1814 Clouds 14 1020 26 10000 2.57 110 22:51 11.09.2022
1815 Clouds 14 1020 26 10000 6.17 100 21:40 11.09.2022
1816 Clouds 14 1020 26 10000 4.12 110 20:44 11.09.2022
1817 Clouds 14 1020 26 10000 4.12 110 19:45 11.09.2022
1818 Clouds 14 1020 26 10000 5.14 90 19:21 11.09.2022
1819 Clouds 14 1020 26 10000 3.6 120 17:47 11.09.2022
1820 Clouds 14 1019 94 10000 5.14 120 15:51 11.09.2022
1821 Clouds 20 1017 45 10000 5.66 120 13:52 11.09.2022
1822 Clouds 23 1014 38 10000 6.17 120 11:35 11.09.2022
1823 Clouds 27 1013 29 10000 4.12 20 08:25 11.09.2022
1824 Clouds 24 1015 35 10000 6.69 30 05:49 11.09.2022
1825 Clouds 14 1020 26 10000 2.57 90 00:23 11.09.2022
1826 Clouds 14 1020 26 10000 3.6 30 22:23 10.09.2022
1827 Clouds 14 1020 26 10000 3.09 50 20:35 10.09.2022
1828 Clouds 14 1020 26 10000 3.09 50 20:35 10.09.2022
1829 Rain 14 1020 26 10000 2.06 160 19:44 10.09.2022
1830 Rain 14 1020 26 10000 2.06 140 19:25 10.09.2022
1831 Clouds 14 1020 26 10000 3.09 120 17:51 10.09.2022
1832 Clouds 16 1018 48 10000 3.09 140 15:37 10.09.2022
1833 Clouds 16 1018 48 10000 3.6 120 13:55 10.09.2022
1834 Clouds 17 1018 48 10000 3.6 130 12:51 10.09.2022
1835 Clouds 19 1017 37 10000 3.6 150 10:34 10.09.2022
1836 Clouds 20 1016 34 10000 5.66 110 08:42 10.09.2022
1837 Clouds 20 1016 34 10000 5.66 110 08:20 10.09.2022
1838 Clouds 20 1016 34 10000 5.66 110 08:20 10.09.2022
1839 Clouds 19 1019 39 10000 7.2 80 04:30 10.09.2022
1840 Clouds 14 1020 26 10000 2.57 90 23:37 09.09.2022
1841 Clouds 14 1020 26 10000 3.6 70 22:36 09.09.2022
1842 Clouds 14 1020 26 10000 3.09 110 20:59 09.09.2022
1843 Clouds 14 1020 26 10000 2.57 90 20:20 09.09.2022
1844 Clear 14 1020 26 10000 0 0 19:23 09.09.2022
1845 Clear 14 1020 26 10000 0 0 17:50 09.09.2022
1846 Clear 14 1020 26 10000 4.12 100 15:23 09.09.2022
1847 Clouds 17 1018 42 10000 3.09 90 13:33 09.09.2022
1848 Clear 20 1017 30 10000 3.09 140 11:27 09.09.2022
1849 Clouds 23 1017 27 10000 2.06 190 07:57 09.09.2022
1850 Clear 18 1021 42 10000 4.12 100 03:37 09.09.2022
1851 Clear 9 1018 66 10000 2.57 280 22:40 08.09.2022
1852 Clear 9 1018 66 10000 2.57 270 21:51 08.09.2022
1853 Clear 14 1020 26 10000 3.6 290 20:49 08.09.2022
1854 Clear 14 1020 26 10000 3.6 290 20:49 08.09.2022
1855 Clear 14 1020 26 10000 2.57 280 20:27 08.09.2022
1856 Clear 14 1020 26 10000 3.09 260 19:18 08.09.2022
1857 Clear 14 1020 26 10000 3.6 280 17:25 08.09.2022
1858 Clear 14 1020 26 10000 3.6 290 15:35 08.09.2022
1859 Clear 15 1016 31 10000 0 0 13:30 08.09.2022
1860 Clear 17 1015 27 10000 3.6 210 12:40 08.09.2022
1861 Clear 20 1015 19 10000 3.09 230 11:22 08.09.2022
1862 Clear 25 1014 12 10000 7.2 250 09:35 08.09.2022
1863 Clear 24 1014 15 10000 5.66 270 07:18 08.09.2022
1864 Clear 19 1018 30 10000 3.6 160 03:37 08.09.2022
1865 Clear 14 1020 26 10000 4.63 150 02:36 08.09.2022
1866 Clear 14 1020 26 10000 4.63 150 02:18 08.09.2022
1867 Clear 14 1020 26 10000 2.57 270 22:58 07.09.2022
1868 Clear 14 1020 26 10000 3.6 280 21:44 07.09.2022
1869 Clear 14 1020 26 10000 3.09 300 21:21 07.09.2022
1870 Clear 14 1020 26 10000 3.09 260 20:25 07.09.2022
1871 Clear 14 1020 26 10000 5.14 250 18:54 07.09.2022
1872 Clear 18 1014 36 10000 5.14 250 15:51 07.09.2022
1873 Clear 27 1008 21 10000 8.75 280 10:51 07.09.2022
1874 Clear 27 1008 19 10000 9.77 290 10:32 07.09.2022
1875 Clouds 29 1007 18 10000 9.77 300 07:46 07.09.2022
1876 Clouds 27 1010 28 10000 8.75 310 04:59 07.09.2022
1877 Clouds 17 1012 72 10000 2.57 350 00:26 07.09.2022
1878 Clouds 11 1010 93 10000 1.03 220 21:48 06.09.2022
1879 Clouds 11 1010 93 10000 0 0 21:30 06.09.2022
1880 Clouds 12 1011 94 10000 2.06 240 19:27 06.09.2022
1881 Clouds 13 1011 88 10000 0.51 250 18:29 06.09.2022
1882 Clouds 14 1012 82 10000 0 0 17:23 06.09.2022
1883 Clouds 15 1012 77 10000 5.14 50 16:40 06.09.2022
1884 Clouds 16 1013 72 10000 2.06 30 15:26 06.09.2022
1885 Clouds 16 1013 77 10000 3.6 30 13:47 06.09.2022
1886 Clouds 16 1013 82 10000 0 0 13:26 06.09.2022
1887 Clouds 16 1013 82 10000 2.06 100 12:37 06.09.2022
1888 Clouds 20 1012 56 10000 2.57 140 10:46 06.09.2022
1889 Clouds 25 1010 36 10000 11.83 290 08:56 06.09.2022
1890 Clouds 28 1010 23 10000 7.72 340 07:52 06.09.2022
1891 Clouds 26 1013 21 10000 6.17 350 04:48 06.09.2022
1892 Clear 14 1020 26 10000 0 0 23:52 05.09.2022
1893 Clear 14 1020 26 10000 2.57 80 22:40 05.09.2022
1894 Clouds 14 1020 26 10000 0.51 50 20:58 05.09.2022
1895 Clouds 14 1020 26 10000 2.57 90 19:50 05.09.2022
1896 Clouds 14 1020 26 10000 2.06 40 18:49 05.09.2022
1897 Clouds 14 1020 26 10000 2.57 80 18:22 05.09.2022
1898 Clear 14 1020 26 10000 0 0 17:30 05.09.2022
1899 Clear 14 1020 26 10000 2.57 100 15:52 05.09.2022
1900 Clear 14 1020 26 10000 3.6 90 13:39 05.09.2022
1901 Clear 17 1017 39 10000 3.09 90 12:29 05.09.2022
1902 Clear 22 1016 26 10000 3.6 90 10:30 05.09.2022
1903 Clear 22 1016 24 10000 3.09 130 07:36 05.09.2022
1904 Clear 14 1020 26 10000 5.66 70 02:49 05.09.2022
1905 Clouds 3 1020 87 10000 2.06 310 23:40 04.09.2022
1906 Clouds 3 1020 87 10000 2.06 300 22:28 04.09.2022
1907 Clouds 3 1020 87 10000 2.57 270 21:40 04.09.2022
1908 Clouds 3 1020 93 10000 3.09 270 19:39 04.09.2022
1909 Clouds 4 1020 87 10000 3.09 260 18:20 04.09.2022
1910 Clear 5 1020 81 10000 2.57 290 17:19 04.09.2022
1911 Clouds 14 1020 26 10000 2.06 170 14:36 04.09.2022
1912 Clouds 14 1020 26 10000 3.6 110 13:52 04.09.2022
1913 Clouds 14 1020 26 10000 4.12 100 12:18 04.09.2022
1914 Clouds 14 1020 26 10000 0.51 160 10:47 04.09.2022
1915 Clouds 15 1020 33 10000 5.14 190 08:20 04.09.2022
1916 Clouds 13 1022 41 10000 4.12 110 05:35 04.09.2022
1917 Clouds 9 1022 71 10000 6.69 80 00:50 04.09.2022
1918 Clouds 7 1021 81 10000 4.12 90 22:24 03.09.2022
1919 Clouds 7 1020 81 10000 3.6 70 21:23 03.09.2022
1920 Clouds 7 1020 81 10000 3.6 70 21:23 03.09.2022
1921 Clouds 7 1021 81 10000 0 0 19:42 03.09.2022
1922 Clouds 14 1020 26 10000 3.6 110 17:28 03.09.2022
1923 Clouds 14 1020 26 10000 3.6 130 16:31 03.09.2022
1924 Clouds 14 1020 26 10000 3.09 120 14:45 03.09.2022
1925 Clouds 14 1020 26 10000 3.09 120 14:22 03.09.2022
1926 Clouds 14 1020 26 10000 4.12 110 12:24 03.09.2022
1927 Clouds 14 1020 26 10000 8.23 110 10:41 03.09.2022
1928 Clouds 20 1021 32 10000 7.72 110 08:28 03.09.2022
1929 Clouds 18 1022 36 10000 7.72 110 06:58 03.09.2022
1930 Clouds 14 1020 26 10000 10.29 110 04:33 03.09.2022
1931 Clouds 4 1024 100 10000 0 0 23:55 02.09.2022
1932 Clouds 3 1023 100 10000 0 0 22:45 02.09.2022
1933 Clouds 4 1023 100 10000 0 0 20:59 02.09.2022
1934 Clear 4 1023 93 10000 0 0 20:27 02.09.2022
1935 Clear 5 1024 100 10000 0 0 19:00 02.09.2022
1936 Clear 6 1024 93 10000 1.54 150 18:28 02.09.2022
1937 Clear 6 1024 93 10000 2.57 120 17:43 02.09.2022
1938 Clear 14 1020 26 10000 1.54 110 16:47 02.09.2022
1939 Clear 14 1020 26 10000 2.57 130 13:55 02.09.2022
1940 Clear 14 1020 26 10000 3.6 130 12:24 02.09.2022
1941 Clear 14 1020 26 10000 7.72 100 10:19 02.09.2022
1942 Clear 18 1023 34 10000 7.2 130 09:39 02.09.2022
1943 Clear 18 1023 39 10000 7.72 130 07:30 02.09.2022
1944 Clear 18 1023 39 10000 7.72 130 07:30 02.09.2022
1945 Clear 18 1024 42 10000 7.72 120 06:36 02.09.2022
1946 Clouds 14 1020 26 10000 4.63 110 02:37 02.09.2022
1947 Fog 6 1023 100 350 0 0 22:30 01.09.2022
1948 Fog 7 1023 100 250 0 0 21:43 01.09.2022
1949 Fog 7 1023 100 600 2.06 210 21:23 01.09.2022
1950 Fog 7 1022 100 250 0 0 20:37 01.09.2022
1951 Mist 8 1023 100 1000 0 0 18:49 01.09.2022
1952 Clouds 10 1023 100 10000 1.54 130 17:21 01.09.2022
1953 Clouds 11 1024 100 10000 3.09 150 15:34 01.09.2022
1954 Clouds 12 1023 94 10000 2.57 130 13:48 01.09.2022
1955 Clouds 12 1023 94 10000 3.6 130 12:57 01.09.2022
1956 Clouds 12 1022 100 10000 5.66 120 11:52 01.09.2022
1957 Clouds 13 1022 94 10000 3.6 130 11:29 01.09.2022
1958 Clouds 13 1020 94 10000 4.12 140 09:49 01.09.2022
1959 Clouds 13 1019 94 10000 4.63 130 07:50 01.09.2022
1960 Clouds 12 1021 94 10000 1.03 130 05:56 01.09.2022
1961 Rain 11 1022 93 6000 4.63 200 01:31 01.09.2022
1962 Clouds 12 1021 100 10000 4.12 240 23:19 31.08.2022
1963 Rain 13 1018 88 10000 2.57 270 20:48 31.08.2022
1964 Rain 13 1017 88 10000 3.09 70 19:23 31.08.2022
1965 Clouds 14 1018 77 10000 3.6 120 16:49 31.08.2022
1966 Clouds 15 1019 72 10000 3.6 110 15:28 31.08.2022
1967 Clouds 17 1019 48 10000 4.63 90 13:37 31.08.2022
1968 Rain 17 1018 48 10000 4.12 60 12:18 31.08.2022
1969 Clouds 21 1016 28 10000 6.17 100 09:36 31.08.2022
1970 Clouds 21 1016 28 10000 4.63 90 08:26 31.08.2022
1971 Clouds 15 1021 38 10000 6.17 90 02:58 31.08.2022
1972 Clouds 10 1020 50 10000 2.06 110 22:29 30.08.2022
1973 Clouds 10 1020 50 10000 2.06 110 22:29 30.08.2022
1974 Clouds 9 1019 53 10000 0 0 21:29 30.08.2022
1975 Clouds 9 1020 53 10000 0 0 20:35 30.08.2022
1976 Clouds 9 1021 49 10000 2.57 110 16:58 30.08.2022
1977 Clouds 13 1021 41 10000 3.09 120 13:53 30.08.2022
1978 Clouds 15 1020 36 10000 3.6 130 12:25 30.08.2022
1979 Clouds 17 1019 31 10000 4.63 130 11:20 30.08.2022
1980 Clouds 20 1019 24 10000 6.17 120 09:39 30.08.2022
1981 Clouds 20 1020 22 10000 6.69 120 06:48 30.08.2022
1982 Clouds 13 1024 35 10000 5.66 120 01:18 30.08.2022
1983 Clear 9 1022 49 10000 3.09 130 22:38 29.08.2022
1984 Clouds 10 1022 46 10000 2.57 140 21:53 29.08.2022
1985 Clear 9 1021 61 10000 3.6 130 20:47 29.08.2022
1986 Clear 8 1021 66 10000 3.09 130 18:59 29.08.2022
1987 Clear 10 1022 53 10000 0 0 17:33 29.08.2022
1988 Clear 10 1022 57 10000 1.54 130 16:58 29.08.2022
1989 Clear 12 1021 47 10000 3.6 170 15:19 29.08.2022
1990 Clear 15 1021 38 10000 2.57 160 13:54 29.08.2022
1991 Clear 18 1019 32 10000 3.6 140 12:24 29.08.2022
1992 Clear 23 1018 20 10000 5.66 150 10:43 29.08.2022
1993 Clear 24 1018 17 10000 4.63 140 09:18 29.08.2022
1994 Clouds 24 1018 17 10000 6.17 120 06:52 29.08.2022
1995 Clouds 20 1020 24 10000 6.17 170 02:25 29.08.2022
1996 Clouds 7 1017 45 10000 1.03 280 23:35 28.08.2022
1997 Clouds 11 1014 37 10000 2.57 310 21:48 28.08.2022
1998 Clouds 12 1014 32 10000 3.09 320 21:25 28.08.2022
1999 Clouds 13 1014 33 10000 2.57 330 20:18 28.08.2022
2000 Clouds 13 1014 33 10000 2.57 330 20:18 28.08.2022
2001 Clouds 14 1015 30 10000 3.6 360 18:22 28.08.2022
2002 Clouds 14 1015 30 10000 3.09 350 17:51 28.08.2022
2003 Clouds 14 1015 33 10000 2.57 280 16:44 28.08.2022
2004 Clouds 14 1016 33 10000 0 0 15:00 28.08.2022
2005 Clouds 17 1016 27 10000 0 0 12:57 28.08.2022
2006 Clouds 19 1014 22 10000 0 0 11:24 28.08.2022
2007 Clouds 22 1014 17 10000 0 0 10:20 28.08.2022
2008 Clouds 24 1014 15 10000 3.6 310 08:49 28.08.2022
2009 Clouds 24 1014 15 10000 4.12 350 07:51 28.08.2022
2010 Clouds 24 1016 13 10000 7.72 350 04:55 28.08.2022
2011 Clear 5 1016 45 10000 2.06 320 00:34 28.08.2022
2012 Clear 3 1015 48 10000 2.57 290 22:58 27.08.2022
2013 Clear 4 1015 45 10000 2.06 300 22:24 27.08.2022
2014 Clear 4 1015 45 10000 0 0 20:34 27.08.2022
2015 Clear 7 1015 39 10000 0 0 18:50 27.08.2022
2016 Clear 8 1017 34 10000 0 0 16:26 27.08.2022
2017 Clear 9 1017 31 10000 2.57 80 15:30 27.08.2022
2018 Clear 16 1016 21 10000 3.09 100 12:55 27.08.2022
2019 Clear 17 1015 20 10000 3.6 120 11:56 27.08.2022
2020 Clear 24 1014 12 10000 4.63 110 09:52 27.08.2022
2021 Clear 24 1014 13 10000 4.12 140 09:25 27.08.2022
2022 Clear 21 1018 16 10000 3.6 130 05:24 27.08.2022
2023 Clouds 2 1020 55 10000 2.06 290 00:25 27.08.2022
2024 Clouds 1 1020 60 10000 2.57 300 23:24 26.08.2022
2025 Clouds 2 1020 55 10000 2.57 280 21:45 26.08.2022
2026 Clouds 4 1021 52 10000 0 0 19:40 26.08.2022
2027 Clear 5 1022 48 10000 0 0 17:29 26.08.2022
2028 Clear 8 1022 36 10000 1.54 10 15:37 26.08.2022
2029 Clear 8 1022 39 10000 0.51 50 14:44 26.08.2022
2030 Clouds 12 1021 30 10000 3.6 120 12:54 26.08.2022
2031 Clouds 14 1020 26 10000 4.12 120 11:37 26.08.2022
2032 Clouds 14 1020 26 10000 4.63 120 10:47 26.08.2022
2033 Clouds 19 1020 19 10000 3.09 120 07:37 26.08.2022
2034 Clouds 14 1020 26 10000 7.2 80 02:31 26.08.2022
2035 Clear 0 1023 64 10000 0 0 23:45 25.08.2022
2036 Clear 0 1022 64 10000 0 0 21:46 25.08.2022
2037 Clear 2 1023 60 10000 0 0 20:51 25.08.2022
2038 Clear 1 1023 60 10000 0 0 19:24 25.08.2022
2039 Clear 3 1024 56 10000 0 0 18:18 25.08.2022
2040 Clear 4 1024 48 10000 0 0 17:31 25.08.2022
2041 Clear 5 1024 48 10000 0 0 16:25 25.08.2022
2042 Clear 6 1024 49 10000 0 0 15:27 25.08.2022
2043 Clear 10 1024 37 10000 3.09 120 12:47 25.08.2022
2044 Clear 14 1020 26 10000 5.66 130 10:49 25.08.2022
2045 Clear 14 1020 26 10000 6.17 120 09:21 25.08.2022
2046 Clear 14 1020 26 10000 7.2 120 06:31 25.08.2022
2047 Clear 7 1028 49 10000 0 0 01:43 25.08.2022
2048 Clear -1 1027 59 10000 0.51 290 23:27 24.08.2022
2049 Clear 1 1026 60 10000 0.51 330 22:41 24.08.2022
2050 Clear 1 1026 60 10000 1.03 270 21:36 24.08.2022
2051 Clear 1 1026 55 10000 0 0 20:55 24.08.2022
2052 Clear 1 1026 51 10000 0 0 19:19 24.08.2022
2053 Clear 3 1027 44 10000 2.57 160 16:47 24.08.2022
2054 Clear 4 1027 41 10000 3.6 140 15:52 24.08.2022
2055 Clear 8 1028 34 10000 3.6 150 13:40 24.08.2022
2056 Clear 14 1026 23 10000 5.14 140 11:38 24.08.2022
2057 Clear 14 1020 26 10000 6.17 140 09:39 24.08.2022
2058 Clear 14 1020 26 10000 7.72 120 07:59 24.08.2022
2059 Clear 14 1020 26 10000 9.77 110 02:36 24.08.2022
2060 Clear 0 1029 64 10000 2.06 160 23:32 23.08.2022
2061 Clear -1 1028 69 10000 0 0 22:32 23.08.2022
2062 Clear 1 1028 55 10000 2.57 160 21:29 23.08.2022
2063 Clear 1 1028 60 10000 0 0 20:20 23.08.2022
2064 Clear 2 1028 55 10000 0.51 170 18:46 23.08.2022
2065 Clear 4 1029 48 10000 2.57 160 17:49 23.08.2022
2066 Clear 3 1029 52 10000 3.09 170 16:53 23.08.2022
2067 Clear 5 1029 45 10000 3.6 170 15:37 23.08.2022
2068 Clear 8 1028 34 10000 3.09 140 13:26 23.08.2022
2069 Clear 12 1027 28 10000 4.63 130 11:31 23.08.2022
2070 Clear 14 1020 26 10000 7.72 130 10:36 23.08.2022
2071 Clear 14 1020 26 10000 7.72 130 09:54 23.08.2022
2072 Clear 14 1020 26 10000 7.72 120 08:51 23.08.2022
2073 Clear 14 1020 26 10000 7.72 120 08:20 23.08.2022
2074 Clear 14 1020 26 10000 7.72 120 08:20 23.08.2022
2075 Clear 14 1020 26 10000 7.2 150 07:34 23.08.2022
2076 Clear 14 1020 26 10000 7.72 150 06:27 23.08.2022
2077 Clear 14 1020 26 10000 8.23 140 03:24 23.08.2022
2078 Clear 8 1029 53 10000 5.14 170 00:28 23.08.2022
2079 Clear 9 1028 57 10000 7.2 160 23:33 22.08.2022
2080 Clouds 10 1027 66 10000 7.72 160 22:44 22.08.2022
2081 Clouds 12 1025 62 10000 10.8 150 21:25 22.08.2022
2082 Clouds 14 1024 62 10000 8.75 160 19:48 22.08.2022
2083 Clear 13 1023 33 10000 3.6 210 18:45 22.08.2022
2084 Clear 14 1020 26 10000 7.51 179 17:18 22.08.2022
2085 Clear 14 1020 26 10000 2.06 330 15:39 22.08.2022
2086 Clear 14 1020 26 10000 2.06 330 15:39 22.08.2022
2087 Clear 14 1020 26 10000 1.54 320 13:47 22.08.2022
2088 Clear 25 1018 15 10000 5.66 210 10:43 22.08.2022
2089 Clear 25 1018 13 10000 4.63 200 07:59 22.08.2022
2090 Clear 22 1021 23 10000 2.57 300 04:22 22.08.2022
2091 Clear 9 1022 53 10000 2.57 280 00:41 22.08.2022
2092 Clear 9 1022 53 10000 2.57 280 00:22 22.08.2022
2093 Clear 4 1021 65 10000 2.06 310 22:20 21.08.2022
2094 Clear 4 1021 70 10000 2.57 310 21:23 21.08.2022
2095 Clear 5 1021 65 10000 2.06 350 20:36 21.08.2022
2096 Clear 6 1021 61 10000 2.57 350 19:24 21.08.2022
2097 Clear 7 1022 57 10000 0 0 16:55 21.08.2022
2098 Clear 8 1022 51 10000 0 0 15:53 21.08.2022
2099 Clear 11 1023 50 10000 2.06 350 15:20 21.08.2022
2100 Clear 12 1023 43 10000 2.57 150 13:52 21.08.2022
2101 Clear 13 1022 41 10000 3.6 140 13:24 21.08.2022
2102 Clear 18 1022 27 10000 2.57 70 11:29 21.08.2022
2103 Clear 22 1021 23 10000 3.09 110 09:31 21.08.2022
2104 Clear 22 1022 21 10000 4.63 70 08:56 21.08.2022
2105 Clear 22 1021 23 10000 3.6 120 08:38 21.08.2022
2106 Clear 21 1022 26 10000 3.09 120 07:26 21.08.2022
2107 Clear 18 1026 36 10000 8.75 90 03:24 21.08.2022
2108 Clear 2 1026 75 10000 0 0 23:45 20.08.2022
2109 Clear 3 1024 70 10000 0 0 22:24 20.08.2022
2110 Clear 3 1024 70 10000 0 0 21:26 20.08.2022
2111 Clear 4 1025 65 10000 0 0 19:58 20.08.2022
2112 Clear 5 1025 65 10000 0 0 19:39 20.08.2022
2113 Clear 5 1025 60 10000 0 0 18:27 20.08.2022
2114 Clear 6 1026 56 10000 0 0 17:40 20.08.2022
2115 Clear 7 1026 57 10000 0 0 16:40 20.08.2022
2116 Clear 9 1026 49 10000 0 0 15:23 20.08.2022
2117 Clear 12 1026 40 10000 3.6 140 12:46 20.08.2022
2118 Clear 14 1025 33 10000 3.09 130 11:47 20.08.2022
2119 Clear 20 1025 24 10000 6.17 110 09:29 20.08.2022
2120 Clear 20 1025 22 10000 6.17 90 08:25 20.08.2022
2121 Clear 19 1026 26 10000 6.69 120 05:48 20.08.2022
2122 Clear 6 1028 56 10000 0.51 290 00:58 20.08.2022
2123 Clear 2 1027 69 10000 2.06 290 00:30 20.08.2022
2124 Clear 2 1026 64 10000 1.54 310 22:50 19.08.2022
2125 Clear 2 1026 64 10000 2.57 280 21:34 19.08.2022
2126 Clear 4 1026 56 10000 2.06 270 19:41 19.08.2022
2127 Clear 6 1026 49 10000 0 0 16:32 19.08.2022
2128 Clear 8 1026 42 10000 2.06 140 14:37 19.08.2022
2129 Clouds 10 1025 37 10000 3.6 140 12:45 19.08.2022
2130 Clear 17 1024 23 10000 4.63 120 10:41 19.08.2022
2131 Clear 18 1024 22 10000 4.63 140 09:36 19.08.2022
2132 Clear 15 1026 33 10000 5.66 150 04:56 19.08.2022
2133 Clouds 8 1027 71 10000 3.09 180 00:45 19.08.2022
2134 Clouds 5 1026 81 10000 3.09 200 00:20 19.08.2022
2135 Clear 5 1026 75 10000 2.57 190 22:59 18.08.2022
2136 Clear 6 1025 75 10000 2.57 180 22:26 18.08.2022
2137 Clear 10 1024 60 10000 4.02 273 21:51 18.08.2022
2138 Clear 9 1025 66 10000 4.12 170 20:56 18.08.2022
2139 Clouds 11 1024 60 10000 6.26 261 19:40 18.08.2022
2140 Clouds 11 1024 65 10000 4.63 170 19:20 18.08.2022
2141 Clouds 13 1024 61 10000 6.17 170 17:38 18.08.2022
2142 Clouds 13 1024 67 10000 4.63 180 16:18 18.08.2022
2143 Clouds 18 1021 55 10000 7.2 190 14:22 18.08.2022
2144 Clouds 19 1020 52 10000 9.26 180 13:44 18.08.2022
2145 Clouds 19 1020 52 10000 9.26 180 13:44 18.08.2022
2146 Clouds 24 1017 25 10000 4.12 200 12:30 18.08.2022
2147 Clear 27 1016 16 10000 4.63 230 11:20 18.08.2022
2148 Clear 31 1015 11 10000 8.23 260 09:43 18.08.2022
2149 Clear 31 1014 9 10000 7.2 270 07:27 18.08.2022
2150 Clear 31 1015 8 10000 6.17 270 06:30 18.08.2022
2151 Clear 21 1017 13 10000 6.17 340 01:44 18.08.2022
2152 Clear 16 1016 21 10000 0.51 300 22:45 17.08.2022
2153 Clear 14 1016 19 10000 2.57 300 20:30 17.08.2022
2154 Clouds 17 1016 15 10000 3.09 340 19:58 17.08.2022
2155 Clear 14 1017 21 10000 5.14 350 18:33 17.08.2022
2156 Clear 14 1017 23 10000 2.57 350 17:21 17.08.2022
2157 Clear 14 1018 23 10000 3.6 310 15:46 17.08.2022
2158 Clear 18 1018 16 10000 3.6 330 14:40 17.08.2022
2159 Clear 20 1018 13 10000 3.09 330 12:29 17.08.2022
2160 Clear 23 1017 11 10000 2.57 330 11:23 17.08.2022
2161 Clear 27 1017 9 10000 3.09 340 09:19 17.08.2022
2162 Clear 26 1019 11 10000 4.12 330 06:29 17.08.2022
2163 Clear 6 1022 45 10000 0 0 00:50 17.08.2022
2164 Clear 1 1021 55 10000 2.06 310 23:18 16.08.2022
2165 Clear 2 1019 51 10000 1.54 280 21:21 16.08.2022
2166 Clear 4 1020 45 10000 2.06 290 19:56 16.08.2022
2167 Clear 4 1020 45 10000 2.06 290 19:26 16.08.2022
2168 Clear 5 1020 45 10000 2.06 250 17:55 16.08.2022
2169 Clear 6 1021 39 10000 1.03 140 16:47 16.08.2022
2170 Clear 7 1021 36 10000 0 0 15:45 16.08.2022
2171 Clear 10 1021 32 10000 0 0 14:54 16.08.2022
2172 Clear 9 1021 31 10000 0 0 14:36 16.08.2022
2173 Clear 15 1020 23 10000 3.6 120 12:19 16.08.2022
2174 Clear 21 1019 14 10000 3.6 110 10:23 16.08.2022
2175 Clear 22 1019 14 10000 3.6 110 08:53 16.08.2022
2176 Clouds 22 1019 15 10000 3.09 140 08:21 16.08.2022
2177 Clouds 21 1021 23 10000 3.6 130 05:55 16.08.2022
2178 Clouds 3 1020 75 10000 3.6 180 23:37 15.08.2022
2179 Clear 5 1020 70 10000 1.54 230 22:21 15.08.2022
2180 Clear 5 1020 65 10000 0 0 21:48 15.08.2022
2181 Clear 12 1020 49 10000 0.45 273 20:31 15.08.2022
2182 Clear 11 1020 50 10000 0.45 145 19:18 15.08.2022
2183 Clear 11 1020 47 10000 0 0 17:59 15.08.2022
2184 Clear 10 1020 53 10000 2.06 290 16:24 15.08.2022
2185 Clear 12 1020 47 10000 0 0 15:26 15.08.2022
2186 Clear 14 1019 38 10000 2.57 170 13:27 15.08.2022
2187 Clear 24 1017 19 10000 4.63 200 10:37 15.08.2022
2188 Clear 25 1017 18 10000 2.57 230 09:40 15.08.2022
2189 Clear 25 1018 19 10000 4.63 210 06:51 15.08.2022
2190 Clear 22 1020 15 10000 5.66 190 04:32 15.08.2022
2191 Clear 6 1019 45 10000 2.57 290 23:49 14.08.2022
2192 Clear 5 1018 45 10000 3.09 290 22:28 14.08.2022
2193 Clear 5 1018 45 10000 2.57 310 21:25 14.08.2022
2194 Clear 6 1018 42 10000 3.09 290 19:46 14.08.2022
2195 Clear 7 1019 42 10000 3.09 310 18:41 14.08.2022
2196 Clear 7 1019 45 10000 0 0 17:44 14.08.2022
2197 Clear 10 1019 34 10000 3.09 350 16:30 14.08.2022
2198 Clear 11 1019 32 10000 2.57 360 15:45 14.08.2022
2199 Clear 12 1019 30 10000 0 0 13:52 14.08.2022
2200 Clear 12 1019 28 10000 2.57 170 13:34 14.08.2022
2201 Clear 13 1018 26 10000 3.09 160 12:54 14.08.2022
2202 Clear 18 1017 17 10000 3.6 180 11:31 14.08.2022
2203 Clear 23 1016 12 10000 3.09 210 10:18 14.08.2022
2204 Clear 24 1016 12 10000 2.57 210 08:18 14.08.2022
2205 Clear 23 1018 15 10000 3.09 130 06:18 14.08.2022
2206 Clear 13 1020 44 10000 0 0 01:48 14.08.2022
2207 Clear 1 1019 75 10000 0 0 23:23 13.08.2022
2208 Clear 2 1018 75 10000 0.51 330 22:28 13.08.2022
2209 Clear 3 1019 70 10000 2.06 300 20:56 13.08.2022
2210 Clear 3 1019 65 10000 2.06 320 19:50 13.08.2022
2211 Clear 3 1019 65 10000 2.57 290 19:19 13.08.2022
2212 Clear 5 1020 56 10000 0 0 17:22 13.08.2022
2213 Clear 8 1020 53 10000 2.57 60 15:18 13.08.2022
2214 Clear 9 1020 46 10000 1.54 60 14:24 13.08.2022
2215 Clear 11 1020 43 10000 3.6 170 13:36 13.08.2022
2216 Clear 15 1019 31 10000 3.09 100 11:49 13.08.2022
2217 Clear 20 1018 22 10000 1.54 50 09:27 13.08.2022
2218 Clear 20 1019 22 10000 1.54 100 07:48 13.08.2022
2219 Clear 12 1022 47 10000 0 0 01:56 13.08.2022
2220 Clear 1 1021 69 10000 2.57 290 23:36 12.08.2022
2221 Clear 3 1021 65 10000 0 0 21:40 12.08.2022
2222 Clear 4 1021 60 10000 2.57 330 19:51 12.08.2022
2223 Clear 4 1021 60 10000 2.57 340 19:24 12.08.2022
2224 Clear 3 1021 60 10000 2.57 280 18:31 12.08.2022
2225 Clear 3 1022 56 10000 0 0 16:27 12.08.2022
2226 Clear 6 1022 49 10000 2.57 300 15:23 12.08.2022
2227 Clear 9 1021 43 10000 2.06 260 13:50 12.08.2022
2228 Clear 10 1021 37 10000 3.09 190 12:50 12.08.2022
2229 Clear 19 1018 18 10000 5.66 220 09:22 12.08.2022
2230 Clear 18 1019 25 10000 3.09 270 07:46 12.08.2022
2231 Clear 18 1020 27 10000 5.66 210 06:24 12.08.2022
2232 Clear 8 1021 60 10000 3.6 260 00:49 12.08.2022
2233 Clear 7 1021 63 10000 3.09 280 23:59 11.08.2022
2234 Clear 8 1021 68 10000 3.09 290 23:27 11.08.2022
2235 Clear 2 1020 100 10000 3.6 280 21:55 11.08.2022
2236 Clear 3 1020 100 10000 3.09 300 21:28 11.08.2022
2237 Clear 3 1020 100 10000 2.57 310 20:31 11.08.2022
2238 Clouds 3 1021 100 10000 2.57 300 19:34 11.08.2022
2239 Clouds 4 1021 100 10000 2.57 310 18:57 11.08.2022
2240 Clouds 6 1021 93 10000 2.57 310 17:22 11.08.2022
2241 Clouds 8 1021 88 10000 1.34 45 15:51 11.08.2022
2242 Clouds 8 1021 93 10000 2.57 290 14:46 11.08.2022
2243 Clouds 11 1019 82 10000 1.03 220 11:59 11.08.2022
2244 Clouds 16 1017 63 10000 6.17 340 09:22 11.08.2022
2245 Clouds 14 1019 77 10000 2.06 320 06:52 11.08.2022
2246 Clouds 14 1022 72 10000 0 0 02:49 11.08.2022
2247 Clouds 13 1021 71 10000 0 0 00:19 11.08.2022
2248 Clouds 14 1020 62 10000 2.57 240 21:56 10.08.2022
2249 Clouds 14 1020 62 10000 2.57 250 21:19 10.08.2022
2250 Clouds 15 1021 58 10000 4.12 240 20:36 10.08.2022
2251 Clouds 16 1021 55 10000 4.63 250 18:53 10.08.2022
2252 Clouds 16 1021 51 10000 2.57 280 17:27 10.08.2022
2253 Clouds 16 1020 51 10000 2.06 270 14:57 10.08.2022
2254 Clouds 16 1020 48 10000 3.09 220 13:34 10.08.2022
2255 Clouds 19 1019 42 10000 5.66 220 10:51 10.08.2022
2256 Clouds 22 1018 30 10000 4.12 200 08:42 10.08.2022
2257 Clouds 22 1018 30 10000 4.63 180 07:35 10.08.2022
2258 Clouds 21 1019 28 10000 2.57 200 04:50 10.08.2022
2259 Clouds 17 1020 42 10000 3.6 300 01:52 10.08.2022
2260 Clouds 16 1019 48 10000 0.89 40 23:32 09.08.2022
2261 Clouds 15 1018 47 10000 2.57 250 22:47 09.08.2022
2262 Clouds 19 1016 18 10000 4.63 360 21:33 09.08.2022
2263 Clouds 18 1017 22 10000 5.66 340 19:33 09.08.2022
2264 Clouds 20 1017 21 10000 3.09 10 17:53 09.08.2022
2265 Clouds 20 1016 18 10000 5.14 30 17:26 09.08.2022
2266 Clouds 20 1018 14 10000 2.57 330 16:30 09.08.2022
2267 Clear 20 1017 14 10000 5.66 360 15:26 09.08.2022
2268 Clear 20 1016 15 10000 4.12 20 11:49 09.08.2022
2269 Clear 26 1014 9 10000 5.14 30 08:53 09.08.2022
2270 Clear 26 1015 8 10000 4.63 30 07:59 09.08.2022
2271 Clear 25 1016 10 10000 6.17 70 06:55 09.08.2022
2272 Clear 13 1021 30 10000 0.51 110 01:57 09.08.2022
2273 Clear 6 1020 51 10000 0 0 23:26 08.08.2022
2274 Clear 6 1020 50 10000 0.89 45 22:45 08.08.2022
2275 Clear 7 1020 50 10000 0 0 21:47 08.08.2022
2276 Clear 3 1020 52 10000 0 0 20:43 08.08.2022
2277 Clear 6 1020 50 10000 0.51 60 19:41 08.08.2022
2278 Clear 7 1020 49 10000 2.57 90 18:19 08.08.2022
2279 Clear 7 1021 47 10000 3.09 100 15:55 08.08.2022
2280 Clear 8 1021 40 10000 2.57 90 15:37 08.08.2022
2281 Clear 14 1020 26 10000 2.57 120 12:31 08.08.2022
2282 Clear 20 1019 20 10000 5.66 90 10:37 08.08.2022
2283 Clear 22 1019 15 10000 5.14 100 07:59 08.08.2022
2284 Clear 20 1022 21 10000 5.66 70 04:31 08.08.2022
2285 Clear 2 1023 69 10000 0 0 00:33 08.08.2022
2286 Clear 2 1021 64 10000 0 0 21:42 07.08.2022
2287 Clear 2 1021 64 10000 0 0 21:19 07.08.2022
2288 Clear 3 1021 65 10000 0 0 20:23 07.08.2022
2289 Clear 4 1021 60 10000 0 0 19:52 07.08.2022
2290 Clear 4 1021 60 10000 0 0 19:22 07.08.2022
2291 Clear 5 1022 52 10000 0 0 17:45 07.08.2022
2292 Clear 6 1022 56 10000 0 0 16:52 07.08.2022
2293 Clear 8 1022 49 10000 0 0 15:39 07.08.2022
2294 Clear 9 1022 43 10000 0 0 14:27 07.08.2022
2295 Clear 13 1020 35 10000 3.09 130 12:41 07.08.2022
2296 Clear 19 1019 24 10000 5.14 110 10:51 07.08.2022
2297 Clear 20 1019 22 10000 4.63 100 10:20 07.08.2022
2298 Clear 17 1022 29 10000 7.72 90 04:38 07.08.2022
2299 Clear 13 1023 38 10000 6.69 80 02:25 07.08.2022
2300 Clear 2 1020 64 10000 0 0 22:39 06.08.2022
2301 Clear 2 1020 64 10000 0 0 22:18 06.08.2022
2302 Clear 3 1020 56 10000 2.06 290 19:46 06.08.2022
2303 Clear 4 1020 56 10000 0 0 18:49 06.08.2022
2304 Clear 6 1020 52 10000 0 0 17:45 06.08.2022
2305 Clear 6 1020 49 10000 2.57 90 16:24 06.08.2022
2306 Clear 10 1020 40 10000 2.06 50 13:51 06.08.2022
2307 Clear 12 1018 32 10000 4.12 130 12:27 06.08.2022
2308 Clear 12 1018 32 10000 4.12 130 12:27 06.08.2022
2309 Clear 18 1017 24 10000 3.6 130 10:53 06.08.2022
2310 Clear 20 1017 21 10000 2.06 150 09:41 06.08.2022
2311 Clear 18 1019 25 10000 5.66 110 04:43 06.08.2022
2312 Clear 6 1020 61 10000 2.06 250 00:49 06.08.2022
2313 Clear 5 1018 60 10000 2.57 270 22:35 05.08.2022
2314 Clear 5 1017 60 10000 3.09 260 20:50 05.08.2022
2315 Clear 5 1017 65 10000 2.06 270 18:56 05.08.2022
2316 Clear 6 1017 61 10000 2.06 270 18:38 05.08.2022
2317 Clear 8 1017 53 10000 2.06 300 16:52 05.08.2022
2318 Clear 9 1016 53 10000 0 0 15:24 05.08.2022
2319 Clear 10 1016 46 10000 0 0 14:35 05.08.2022
2320 Clear 12 1015 37 10000 2.57 170 13:36 05.08.2022
2321 Clear 12 1015 37 10000 2.57 170 13:18 05.08.2022
2322 Clear 17 1014 29 10000 3.6 170 11:29 05.08.2022
2323 Clear 21 1004 32 10000 3.09 180 08:57 05.08.2022
2324 Clear 21 1004 32 10000 3.6 210 07:53 05.08.2022
2325 Clear 21 1004 32 10000 4.63 210 04:19 05.08.2022
2326 Clouds 11 1014 71 10000 2.57 280 23:18 04.08.2022
2327 Clouds 12 1012 66 10000 2.06 260 21:28 04.08.2022
2328 Clouds 12 1012 66 10000 2.06 270 20:57 04.08.2022
2329 Clouds 13 1012 67 10000 3.6 270 20:36 04.08.2022
2330 Clear 13 1012 71 10000 4.63 250 18:58 04.08.2022
2331 Clear 12 1012 76 10000 4.12 250 18:33 04.08.2022
2332 Clouds 16 1011 59 10000 3.09 280 15:53 04.08.2022
2333 Clouds 21 1004 32 10000 2.57 270 13:26 04.08.2022
2334 Clouds 21 1004 32 10000 2.57 270 13:26 04.08.2022
2335 Clouds 21 1004 32 10000 4.63 290 11:39 04.08.2022
2336 Clouds 25 1009 33 10000 5.14 290 10:21 04.08.2022
2337 Clouds 21 1004 32 10000 4.63 300 07:45 04.08.2022
2338 Clouds 21 1004 32 10000 5.66 270 02:48 04.08.2022
2339 Clouds 21 1004 32 10000 3.6 310 00:33 04.08.2022
2340 Clouds 22 1009 40 10000 3.6 340 23:39 03.08.2022
2341 Clouds 22 1008 35 10000 4.63 340 21:27 03.08.2022
2342 Clouds 22 1008 35 10000 4.12 320 20:21 03.08.2022
2343 Clouds 21 1004 32 10000 7.2 300 19:19 03.08.2022
2344 Clear 21 1004 32 10000 10.29 310 16:48 03.08.2022
2345 Clear 21 1004 32 10000 9.77 310 16:22 03.08.2022
2346 Clear 21 1004 32 10000 8.75 320 13:40 03.08.2022
2347 Clear 29 1007 17 10000 6.17 310 10:50 03.08.2022
2348 Clouds 31 1008 14 10000 10.29 310 07:23 03.08.2022
2349 Clouds 28 1012 20 10000 6.17 310 04:22 03.08.2022
2350 Clouds 26 1012 21 10000 7.72 310 03:23 03.08.2022
2351 Clouds 21 1004 32 10000 7.2 330 00:49 03.08.2022
2352 Clouds 21 1004 32 10000 4.63 320 22:37 02.08.2022
2353 Clouds 21 1004 32 10000 4.63 320 21:51 02.08.2022
2354 Clouds 23 1011 20 10000 4.63 310 20:29 02.08.2022
2355 Clouds 22 1011 21 10000 3.09 290 17:47 02.08.2022
2356 Clouds 25 1012 18 10000 5.66 350 14:39 02.08.2022
2357 Clouds 27 1010 14 10000 6.69 320 10:50 02.08.2022
2358 Clouds 30 1009 13 10000 9.77 340 08:54 02.08.2022
2359 Clouds 30 1009 13 10000 9.77 340 08:54 02.08.2022
2360 Clouds 28 1010 17 10000 10.29 330 07:52 02.08.2022
2361 Clouds 24 1012 23 10000 8.75 360 04:59 02.08.2022
2362 Clouds 25 1013 21 10000 12.05 354 03:36 02.08.2022
2363 Clouds 19 1014 30 10000 3.6 10 23:32 01.08.2022
2364 Clouds 20 1013 30 10000 3.09 20 21:54 01.08.2022
2365 Clouds 20 1014 28 10000 4.12 360 20:34 01.08.2022
2366 Clouds 19 1014 32 10000 2.06 50 19:22 01.08.2022
2367 Clouds 19 1016 30 10000 3.6 40 17:22 01.08.2022
2368 Clouds 19 1015 30 10000 3.6 50 16:49 01.08.2022
2369 Clouds 17 1016 31 10000 3.09 70 15:46 01.08.2022
2370 Clouds 17 1016 31 10000 3.09 70 15:19 01.08.2022
2371 Clouds 17 1017 34 10000 2.06 90 13:39 01.08.2022
2372 Clouds 21 1015 26 10000 3.6 120 11:18 01.08.2022
2373 Clouds 23 1015 21 10000 4.63 130 09:38 01.08.2022
2374 Clouds 25 1015 19 10000 2.57 90 08:18 01.08.2022
2375 Clouds 19 1018 30 10000 6.17 80 04:43 01.08.2022
2376 Clear 14 1020 44 10000 6.69 90 02:24 01.08.2022
2377 Clear 6 1018 65 10000 1.03 160 22:54 31.07.2022
2378 Clear 6 1017 61 10000 2.57 140 22:35 31.07.2022
2379 Clear 7 1018 61 10000 2.57 90 20:44 31.07.2022
2380 Clouds 11 1018 46 10000 0 0 18:42 31.07.2022
2381 Clear 11 1018 73 10000 2.55 113 17:34 31.07.2022
2382 Clear 12 1018 48 10000 3.36 136 14:57 31.07.2022
2383 Clouds 14 1017 35 10000 2.57 80 13:19 31.07.2022
2384 Clear 18 1016 27 10000 3.09 140 11:44 31.07.2022
2385 Clouds 24 1015 20 10000 4.12 170 08:47 31.07.2022
2386 Clouds 21 1004 32 10000 3.09 220 05:38 31.07.2022
2387 Clouds 17 1017 25 10000 2.57 290 02:31 31.07.2022
2388 Clouds 8 1015 46 10000 0 0 22:50 30.07.2022
2389 Clouds 8 1015 42 10000 0 0 21:52 30.07.2022
2390 Clouds 8 1015 46 10000 0 0 21:33 30.07.2022
2391 Clouds 10 1016 37 10000 2.57 330 20:38 30.07.2022
2392 Clouds 9 1016 43 10000 1.54 290 19:57 30.07.2022
2393 Clouds 8 1016 42 10000 0 0 18:20 30.07.2022
2394 Clouds 11 1016 35 10000 2.57 310 16:40 30.07.2022
2395 Clouds 12 1016 32 10000 0 0 15:33 30.07.2022
2396 Clouds 13 1016 33 10000 0.51 10 14:23 30.07.2022
2397 Clouds 16 1016 27 10000 0.51 200 12:32 30.07.2022
2398 Clouds 17 1016 25 10000 2.57 200 11:53 30.07.2022
2399 Clouds 21 1004 32 10000 0 0 10:20 30.07.2022
2400 Clouds 21 1004 32 10000 2.57 360 09:32 30.07.2022
2401 Clouds 21 1004 32 10000 4.63 310 07:33 30.07.2022
2402 Clouds 15 1020 31 10000 4.12 40 02:33 30.07.2022
2403 Clouds 5 1020 52 10000 0 0 00:30 30.07.2022
2404 Clouds 5 1019 48 10000 0 0 21:38 29.07.2022
2405 Clouds 5 1020 48 10000 3.09 270 20:51 29.07.2022
2406 Clouds 6 1020 45 10000 0 0 19:47 29.07.2022
2407 Clouds 10 1020 34 10000 2.57 60 17:34 29.07.2022
2408 Clear 9 1021 34 10000 0 0 14:50 29.07.2022
2409 Clouds 13 1020 26 10000 2.57 90 12:55 29.07.2022
2410 Clouds 21 1004 32 10000 5.66 110 09:34 29.07.2022
2411 Clouds 21 1004 32 10000 5.14 80 08:41 29.07.2022
2412 Clouds 21 1004 32 10000 5.14 80 06:40 29.07.2022
2413 Clouds 7 1024 45 10000 0 0 01:19 29.07.2022
2414 Clouds 2 1022 51 10000 0 0 21:45 28.07.2022
2415 Clouds 3 1022 48 10000 0 0 20:54 28.07.2022
2416 Clouds 2 1023 51 10000 0 0 20:21 28.07.2022
2417 Clouds 7 1023 37 10000 2.97 102 19:40 28.07.2022
2418 Clouds 3 1023 48 10000 2.57 310 18:25 28.07.2022
2419 Clouds 4 1023 41 10000 0 0 17:42 28.07.2022
2420 Clouds 4 1024 41 10000 0 0 16:41 28.07.2022
2421 Clouds 7 1023 33 10000 0 0 14:30 28.07.2022
2422 Clear 13 1022 22 10000 3.09 110 12:41 28.07.2022
2423 Clear 21 1004 32 10000 5.14 110 09:25 28.07.2022
2424 Clear 21 1004 32 10000 4.63 100 05:45 28.07.2022
2425 Clear 17 1024 22 10000 6.69 110 05:21 28.07.2022
2426 Clouds -2 1025 69 10000 0 0 00:29 28.07.2022
2427 Clear -3 1023 74 10000 1.03 220 22:25 27.07.2022
2428 Clear -1 1024 64 10000 2.06 270 20:20 27.07.2022
2429 Clear -1 1024 59 10000 0 0 19:32 27.07.2022
2430 Clear 3 1025 52 10000 0 0 16:34 27.07.2022
2431 Clear 4 1025 45 10000 0 0 15:51 27.07.2022
2432 Clear 6 1025 42 10000 1.54 110 14:42 27.07.2022
2433 Clear 7 1025 39 10000 3.09 150 13:58 27.07.2022
2434 Clear 10 1023 29 10000 3.09 120 11:49 27.07.2022
2435 Clear 21 1004 32 10000 5.14 120 07:53 27.07.2022
2436 Clear 15 1024 29 10000 5.66 110 05:23 27.07.2022
2437 Clear -2 1024 93 10000 0 0 23:41 26.07.2022
2438 Clear 0 1023 93 10000 0 0 22:20 26.07.2022
2439 Clear 1 1023 80 10000 0 0 21:18 26.07.2022
2440 Clear 1 1023 75 10000 0 0 19:33 26.07.2022
2441 Clear 2 1024 75 10000 0 0 18:41 26.07.2022
2442 Clear 2 1024 69 10000 0 0 17:54 26.07.2022
2443 Clear 5 1025 70 10000 0 0 15:47 26.07.2022
2444 Clear 6 1025 65 10000 2.57 130 14:43 26.07.2022
2445 Clear 10 1023 50 10000 3.6 140 12:35 26.07.2022
2446 Clear 16 1022 33 10000 5.66 110 10:35 26.07.2022
2447 Clear 18 1023 29 10000 6.69 110 08:29 26.07.2022
2448 Clear 12 1026 50 10000 8.23 110 02:25 26.07.2022
2449 Clear 3 1025 87 10000 0 0 00:22 26.07.2022
2450 Clear 4 1023 87 10000 1.03 170 22:41 25.07.2022
2451 Clear 4 1023 87 10000 1.03 170 22:21 25.07.2022
2452 Clear 4 1023 87 10000 1.54 230 21:31 25.07.2022
2453 Clear 5 1023 81 10000 0 0 20:39 25.07.2022
2454 Clear 6 1023 81 10000 0 0 19:25 25.07.2022
2455 Clear 6 1023 75 10000 0 0 18:18 25.07.2022
2456 Clear 9 1023 71 10000 0 0 17:23 25.07.2022
2457 Clear 12 1022 62 10000 3.09 170 14:19 25.07.2022
2458 Clear 19 1020 42 10000 3.6 150 10:56 25.07.2022
2459 Clear 21 1004 32 10000 5.66 150 08:22 25.07.2022
2460 Clear 14 1020 62 10000 2.57 250 01:44 25.07.2022
2461 Clear 8 1019 81 10000 3.09 260 23:46 24.07.2022
2462 Clear 10 1018 71 10000 3.6 270 22:49 24.07.2022
2463 Clear 10 1017 71 10000 3.09 270 21:48 24.07.2022
2464 Clear 12 1017 62 10000 2.06 280 21:18 24.07.2022
2465 Clear 12 1017 58 10000 0 0 20:44 24.07.2022
2466 Clear 10 1016 43 10000 5.66 200 19:23 24.07.2022
2467 Clear 12 1015 37 10000 2.57 300 18:26 24.07.2022
2468 Clear 14 1015 33 10000 2.57 320 15:55 24.07.2022
2469 Clear 14 1015 30 10000 2.06 230 14:57 24.07.2022
2470 Clear 19 1014 24 10000 2.57 330 13:50 24.07.2022
2471 Clear 21 1004 32 10000 3.6 310 12:28 24.07.2022
2472 Clear 21 1004 32 10000 3.09 330 11:31 24.07.2022
2473 Clear 27 1012 12 10000 4.12 310 09:55 24.07.2022
2474 Clear 28 1012 13 10000 5.66 330 08:29 24.07.2022
2475 Clear 28 1012 12 10000 4.63 330 07:44 24.07.2022
2476 Clear 21 1004 32 10000 5.66 350 03:35 24.07.2022
2477 Clear 10 1015 32 10000 3.09 10 23:36 23.07.2022
2478 Clear 6 1015 45 10000 0.51 140 20:49 23.07.2022
2479 Clear 9 1015 37 10000 3.6 50 19:30 23.07.2022
2480 Clear 9 1016 40 10000 0 0 18:40 23.07.2022
2481 Clear 13 1016 28 10000 3.6 50 17:28 23.07.2022
2482 Clear 12 1016 32 10000 0 0 16:29 23.07.2022
2483 Clear 10 1016 37 10000 2.57 60 15:22 23.07.2022
2484 Clear 14 1016 28 10000 2.57 70 14:55 23.07.2022
2485 Clear 15 1016 26 10000 3.09 60 14:24 23.07.2022
2486 Clear 20 1015 21 10000 4.12 90 11:56 23.07.2022
2487 Clear 21 1004 32 10000 4.63 100 10:44 23.07.2022
2488 Clear 21 1004 32 10000 4.63 80 09:44 23.07.2022
2489 Clear 26 1014 14 10000 4.12 130 08:24 23.07.2022
2490 Clear 21 1004 32 10000 2.57 20 03:38 23.07.2022
2491 Clear 7 1018 53 10000 0 0 00:39 23.07.2022
2492 Clear 8 1017 49 10000 0 0 21:38 22.07.2022
2493 Clear 8 1017 49 10000 0 0 20:33 22.07.2022
2494 Clear 7 1017 53 10000 0 0 18:56 22.07.2022
2495 Clear 8 1018 49 10000 1.03 310 17:40 22.07.2022
2496 Clear 9 1018 46 10000 0 0 16:26 22.07.2022
2497 Clear 14 1017 33 10000 3.6 110 13:24 22.07.2022
2498 Clear 24 1015 17 10000 2.57 110 10:23 22.07.2022
2499 Clear 24 1015 17 10000 3.09 170 09:24 22.07.2022
2500 Clear 25 1015 16 10000 2.06 120 08:26 22.07.2022
2501 Clear 20 1019 22 10000 2.06 10 04:24 22.07.2022
2502 Haze 1 1019 75 3600 0 0 23:44 21.07.2022
2503 Clear 2 1019 75 10000 0 0 21:55 21.07.2022
2504 Clear 6 1020 46 10000 2.4 63 20:28 21.07.2022
2505 Clear 6 1021 48 10000 2.38 70 18:43 21.07.2022
2506 Clear 5 1020 56 10000 1.54 50 17:22 21.07.2022
2507 Clear 7 1020 53 10000 3.09 90 16:31 21.07.2022
2508 Clear 10 1020 46 10000 2.57 100 14:46 21.07.2022
2509 Clear 9 1020 43 10000 2.06 90 13:58 21.07.2022
2510 Clear 12 1019 37 10000 3.09 110 12:18 21.07.2022
2511 Clear 18 1018 25 10000 3.6 80 10:21 21.07.2022
2512 Clear 19 1018 24 10000 3.6 110 08:53 21.07.2022
2513 Clear 19 1018 24 10000 3.6 100 08:18 21.07.2022
2514 Clear 18 1019 25 10000 4.12 120 06:45 21.07.2022
2515 Clouds 11 1023 40 10000 6.69 80 02:59 21.07.2022
2516 Clear 1 1021 75 10000 0 0 22:49 20.07.2022
2517 Clear 1 1022 75 10000 0 0 22:19 20.07.2022
2518 Clear 2 1022 69 10000 0 0 20:46 20.07.2022
2519 Clear 1 1021 75 10000 0 0 19:47 20.07.2022
2520 Clear 3 1021 65 10000 0 0 18:54 20.07.2022
2521 Clear 3 1021 70 10000 0 0 18:31 20.07.2022
2522 Clear 5 1022 65 10000 0 0 17:28 20.07.2022
2523 Clear 8 1023 53 10000 0 0 15:33 20.07.2022
2524 Clear 9 1022 49 10000 1.03 90 14:49 20.07.2022
2525 Clear 11 1021 43 10000 3.6 130 13:21 20.07.2022
2526 Clear 17 1020 29 10000 4.63 130 10:59 20.07.2022
2527 Clear 21 1020 26 10000 4.63 100 06:35 20.07.2022
2528 Clouds 13 1021 44 10000 5.66 90 01:47 20.07.2022
2529 Clouds 8 1020 57 10000 2.57 90 00:42 20.07.2022
2530 Clouds 9 1019 53 10000 2.57 110 22:37 19.07.2022
2531 Clouds 9 1019 53 10000 2.57 110 22:18 19.07.2022
2532 Clouds 11 1019 46 10000 3.6 90 20:50 19.07.2022
2533 Clouds 12 1019 43 10000 2.57 70 19:32 19.07.2022
2534 Clouds 13 1019 41 10000 2.06 110 18:42 19.07.2022
2535 Clouds 14 1019 38 10000 3.09 100 17:54 19.07.2022
2536 Clouds 16 1019 31 10000 6.69 90 15:49 19.07.2022
2537 Clouds 16 1018 31 10000 3.6 70 13:46 19.07.2022
2538 Clouds 19 1017 26 10000 4.12 120 11:34 19.07.2022
2539 Clear 23 1016 18 10000 5.66 110 09:53 19.07.2022
2540 Clear 25 1016 16 10000 4.63 110 08:48 19.07.2022
2541 Clear 24 1016 17 10000 3.6 130 07:57 19.07.2022
2542 Clear 24 1016 19 10000 3.6 20 07:18 19.07.2022
2543 Clear 22 1019 21 10000 3.6 70 05:19 19.07.2022
2544 Clear 18 1020 32 10000 4.12 70 03:40 19.07.2022
2545 Clouds 4 1020 52 10000 0 0 00:18 19.07.2022
2546 Clouds 5 1019 48 10000 0.51 110 23:20 18.07.2022
2547 Clouds 7 1019 42 10000 2.06 130 22:42 18.07.2022
2548 Clouds 7 1019 42 10000 0 0 21:26 18.07.2022
2549 Clouds 7 1018 39 10000 0 0 20:45 18.07.2022
2550 Clouds 7 1019 36 10000 0 0 18:50 18.07.2022
2551 Clouds 7 1020 33 10000 3.09 40 16:45 18.07.2022
2552 Clouds 8 1020 31 10000 0 0 15:40 18.07.2022
2553 Clouds 13 1019 21 10000 3.6 80 13:40 18.07.2022
2554 Clear 14 1019 19 10000 3.6 80 12:21 18.07.2022
2555 Clear 22 1018 12 10000 6.69 110 09:56 18.07.2022
2556 Clear 23 1018 12 10000 6.17 90 08:20 18.07.2022
2557 Clear 22 1019 12 10000 5.66 100 06:39 18.07.2022
2558 Clear 1 1020 47 10000 0 0 23:19 17.07.2022
2559 Clear 2 1019 41 10000 0 0 22:32 17.07.2022
2560 Clear 2 1019 41 10000 0 0 21:40 17.07.2022
2561 Clear 3 1019 38 10000 0 0 20:46 17.07.2022
2562 Clear 3 1019 38 10000 0 0 20:18 17.07.2022
2563 Clear 4 1019 35 10000 0 0 19:25 17.07.2022
2564 Clear 4 1020 38 10000 0 0 17:55 17.07.2022
2565 Clear 3 1020 38 10000 0 0 17:36 17.07.2022
2566 Clear 5 1020 30 10000 2.06 340 16:45 17.07.2022
2567 Clear 6 1020 31 10000 2.57 340 16:22 17.07.2022
2568 Clear 9 1020 21 10000 2.06 280 13:58 17.07.2022
2569 Clear 12 1020 19 10000 1.03 70 12:56 17.07.2022
2570 Clear 22 1018 8 10000 3.09 120 10:21 17.07.2022
2571 Clear 23 1019 8 10000 2.57 100 07:31 17.07.2022
2572 Clear 13 1022 19 10000 0.51 220 02:35 17.07.2022
2573 Clear 2 1021 41 9000 2.57 300 00:33 17.07.2022
2574 Clear 2 1020 41 10000 3.09 300 22:43 16.07.2022
2575 Clear 3 1020 38 10000 2.57 310 20:45 16.07.2022
2576 Clear 4 1020 33 10000 2.57 330 18:58 16.07.2022
2577 Clear 4 1020 35 10000 2.57 290 17:48 16.07.2022
2578 Clear 5 1020 30 10000 2.57 320 16:22 16.07.2022
2579 Clear 10 1020 20 10000 0.51 110 13:26 16.07.2022
2580 Clear 23 1019 7 10000 0 0 10:29 16.07.2022
2581 Clear 23 1019 7 10000 1.54 230 09:26 16.07.2022
2582 Clear 23 1019 6 10000 3.09 230 08:41 16.07.2022
2583 Clear 23 1020 9 10000 3.09 210 07:23 16.07.2022
2584 Clear 17 1023 19 10000 4.12 350 03:35 16.07.2022
2585 Clear 2 1022 55 10000 2.06 350 00:45 16.07.2022
2586 Clear 6 1021 39 10000 0 0 22:57 15.07.2022
2587 Clear 5 1021 42 10000 3.6 10 22:26 15.07.2022
2588 Clear 2 1022 55 10000 0 0 20:41 15.07.2022
2589 Clear 0 1022 59 10000 0 0 19:34 15.07.2022
2590 Clear 1 1022 51 10000 2.06 290 18:23 15.07.2022
2591 Clear 1 1022 55 10000 0 0 16:53 15.07.2022
2592 Clear 10 1022 29 10000 3.6 100 14:19 15.07.2022
2593 Clear 12 1021 26 10000 3.6 70 12:37 15.07.2022
2594 Clear 17 1021 17 10000 3.6 90 10:52 15.07.2022
2595 Clear 20 1021 14 10000 4.12 120 07:48 15.07.2022
2596 Clear 12 1026 32 10000 4.63 90 03:41 15.07.2022
2597 Clear -3 1025 80 10000 0 0 00:40 15.07.2022
2598 Clear -2 1024 80 10000 1.03 320 22:56 14.07.2022
2599 Clear -2 1024 80 10000 0 0 22:24 14.07.2022
2600 Clear -1 1024 74 10000 3.09 60 21:39 14.07.2022
2601 Clear -1 1024 74 10000 3.09 60 21:19 14.07.2022
2602 Clear -1 1024 74 10000 0 0 20:42 14.07.2022
2603 Clouds -1 1024 74 10000 0 0 20:18 14.07.2022
2604 Clouds 1 1024 69 10000 0 0 17:59 14.07.2022
2605 Clear 1 1025 69 10000 0 0 16:19 14.07.2022
2606 Clear 4 1025 56 10000 2.06 90 14:55 14.07.2022
2607 Clear 9 1025 46 10000 3.09 70 13:51 14.07.2022
2608 Clear 9 1024 43 10000 3.09 110 12:34 14.07.2022
2609 Clear 13 1023 38 10000 3.6 80 11:26 14.07.2022
2610 Clear 14 1023 33 10000 4.63 90 10:51 14.07.2022
2611 Clear 17 1023 29 10000 5.66 90 08:45 14.07.2022
2612 Clear 14 1026 44 10000 6.17 80 04:18 14.07.2022
2613 Clear 3 1026 75 10000 0 0 01:18 14.07.2022
2614 Clear 0 1025 80 10000 0 0 00:50 14.07.2022
2615 Clear -2 1024 86 10000 2.06 250 22:30 13.07.2022
2616 Clear -1 1024 80 10000 1.54 260 21:38 13.07.2022
2617 Clear -1 1024 80 10000 0 0 20:38 13.07.2022
2618 Clear 1 1024 80 10000 0 0 18:26 13.07.2022
2619 Clear 1 1024 75 10000 0 0 17:22 13.07.2022
2620 Clear 2 1024 75 10000 0 0 16:18 13.07.2022
2621 Clear 5 1025 60 10000 2.57 140 13:57 13.07.2022
2622 Clear 11 1023 43 10000 3.6 130 11:33 13.07.2022
2623 Clear 14 1023 35 10000 5.66 120 10:44 13.07.2022
2624 Clear 15 1022 33 10000 5.14 140 09:30 13.07.2022
2625 Clear 16 1022 33 10000 6.17 110 08:24 13.07.2022
2626 Clear 14 1025 44 10000 6.69 110 04:50 13.07.2022
2627 Clear 2 1024 87 10000 0 0 00:47 13.07.2022
2628 Clear 0 1023 93 10000 0 0 22:47 12.07.2022
2629 Clear 1 1022 93 10000 0 0 21:49 12.07.2022
2630 Clear 1 1022 86 10000 1.03 180 20:53 12.07.2022
2631 Clear 3 1022 81 10000 2.57 180 20:21 12.07.2022
2632 Clear 2 1023 80 10000 0 0 18:51 12.07.2022
2633 Clear 3 1023 75 10000 0 0 17:23 12.07.2022
2634 Clear 4 1023 70 10000 2.06 170 15:32 12.07.2022
2635 Clear 8 1022 57 10000 3.09 150 13:43 12.07.2022
2636 Clear 11 1021 50 10000 3.6 130 11:54 12.07.2022
2637 Clear 14 1020 38 10000 4.12 140 10:45 12.07.2022
2638 Clear 17 1020 31 10000 6.69 150 08:58 12.07.2022
2639 Clear 17 1020 34 10000 4.63 140 07:48 12.07.2022
2640 Clear 17 1020 34 10000 4.63 140 07:48 12.07.2022
2641 Clear 16 1022 36 10000 5.66 110 05:47 12.07.2022
2642 Clear 16 1023 39 10000 5.66 140 05:29 12.07.2022
2643 Clear 7 1023 45 10000 3.6 270 01:31 12.07.2022
2644 Clear 1 1021 60 10000 2.57 320 22:43 11.07.2022
2645 Clear 2 1021 55 10000 3.09 290 21:34 11.07.2022
2646 Clear 1 1020 55 10000 2.57 270 20:32 11.07.2022
2647 Clear 2 1021 51 10000 0 0 19:18 11.07.2022
2648 Clear 3 1021 48 10000 0 0 18:29 11.07.2022
2649 Clear 4 1021 45 10000 0 0 16:30 11.07.2022
2650 Clear 3 1021 44 10000 0 0 15:28 11.07.2022
2651 Clear 8 1021 34 10000 0.51 170 13:19 11.07.2022
2652 Clear 12 1020 24 10000 3.6 190 11:23 11.07.2022
2653 Clear 18 1019 14 10000 4.12 190 09:55 11.07.2022
2654 Clear 21 1004 32 10000 4.12 190 09:27 11.07.2022
2655 Clear 21 1004 32 10000 3.09 140 08:32 11.07.2022
2656 Clear 3 1023 70 10000 0 0 01:20 11.07.2022
2657 Clear -3 1022 80 10000 0 0 23:54 10.07.2022
2658 Clear -2 1021 80 10000 3.09 340 22:45 10.07.2022
2659 Clear -2 1021 80 10000 2.06 250 20:56 10.07.2022
2660 Clear -2 1021 74 10000 2.06 310 20:36 10.07.2022
2661 Clear 0 1021 74 10000 0 0 19:30 10.07.2022
2662 Clear 0 1021 74 10000 0 0 19:30 10.07.2022
2663 Clear -1 1022 74 10000 2.06 240 18:35 10.07.2022
2664 Clear 1 1022 69 10000 0 0 17:35 10.07.2022
2665 Clear 2 1022 64 10000 0 0 16:24 10.07.2022
2666 Clear 3 1022 56 10000 0 0 14:47 10.07.2022
2667 Clear 6 1022 49 10000 1.03 130 13:31 10.07.2022
2668 Clear 11 1022 35 10000 3.09 90 11:57 10.07.2022
2669 Clear 16 1021 25 10000 4.12 70 09:46 10.07.2022
2670 Clear 17 1021 23 10000 4.63 70 08:44 10.07.2022
2671 Clear 16 1021 27 10000 5.14 80 07:20 10.07.2022
2672 Clear -2 1023 93 10000 3.6 100 23:53 09.07.2022
2673 Clear 0 1022 86 10000 2.57 180 22:26 09.07.2022
2674 Clear -1 1022 93 10000 0 0 21:47 09.07.2022
2675 Clear 1 1023 80 10000 2.06 290 19:50 09.07.2022
2676 Clear 1 1024 80 10000 0 0 18:32 09.07.2022
2677 Clear 2 1024 80 10000 0 0 17:32 09.07.2022
2678 Clear 2 1024 75 10000 0 0 16:36 09.07.2022
2679 Clear 4 1024 75 10000 0 0 15:39 09.07.2022
2680 Clear 5 1024 65 10000 0 0 14:24 09.07.2022
2681 Clear 6 1024 61 10000 2.57 150 13:48 09.07.2022
2682 Clear 8 1023 57 10000 3.09 140 12:22 09.07.2022
2683 Clear 14 1022 38 10000 5.14 110 10:27 09.07.2022
2684 Clear 15 1021 33 10000 6.69 120 09:57 09.07.2022
2685 Clear 16 1021 33 10000 7.2 100 07:44 09.07.2022
2686 Clear 14 1024 44 10000 7.2 110 04:50 09.07.2022
2687 Clear -1 1024 93 10000 0 0 00:43 09.07.2022
2688 Clear 0 1022 93 10000 0 0 22:41 08.07.2022
2689 Clear 0 1022 86 10000 0 0 21:27 08.07.2022
2690 Clear 1 1022 80 10000 0 0 20:40 08.07.2022
2691 Clear 1 1022 86 10000 0 0 19:48 08.07.2022
2692 Clear 2 1023 80 10000 1.54 200 17:57 08.07.2022
2693 Clear 3 1023 75 10000 0 0 16:37 08.07.2022
2694 Clear 5 1023 70 10000 2.57 150 14:51 08.07.2022
2695 Clear 8 1022 57 10000 3.6 140 12:42 08.07.2022
2696 Clear 11 1021 43 10000 3.6 150 11:24 08.07.2022
2697 Clear 14 1020 35 10000 4.63 130 10:21 08.07.2022
2698 Clear 16 1020 29 10000 3.6 140 07:55 08.07.2022
2699 Clear 15 1021 31 10000 5.14 130 06:23 08.07.2022
2700 Clear -2 1023 80 10000 2.57 270 00:41 08.07.2022
2701 Clear -1 1022 69 10000 3.09 290 22:57 07.07.2022
2702 Clear -1 1022 64 10000 2.06 270 21:52 07.07.2022
2703 Clear -1 1022 64 10000 0 0 19:35 07.07.2022
2704 Clear 2 1022 55 10000 0 0 17:50 07.07.2022
2705 Clear 0 1023 59 10000 0 0 16:23 07.07.2022
2706 Clear 4 1023 45 10000 0 0 14:21 07.07.2022
2707 Clear 7 1022 33 10000 2.57 160 12:43 07.07.2022
2708 Clear 7 1022 33 10000 2.57 160 12:23 07.07.2022
2709 Clear 10 1021 27 10000 3.6 130 11:33 07.07.2022
2710 Clear 12 1021 24 10000 3.6 130 10:45 07.07.2022
2711 Clear 15 1021 21 10000 4.12 140 10:27 07.07.2022
2712 Clear 16 1020 20 10000 4.63 160 09:32 07.07.2022
2713 Clear 16 1021 25 10000 5.14 120 06:26 07.07.2022
2714 Clear 2 1025 47 10000 2.56 161 00:28 07.07.2022
2715 Clear 2 1025 47 10000 2.56 161 23:36 06.07.2022
2716 Clear -2 1022 69 10000 3.09 290 23:18 06.07.2022
2717 Clear -2 1022 69 10000 3.09 290 22:51 06.07.2022
2718 Clear -2 1022 69 10000 2.57 290 22:33 06.07.2022
2719 Clear -1 1022 69 10000 2.57 270 20:19 06.07.2022
2720 Clear 0 1022 64 10000 2.06 320 18:48 06.07.2022
2721 Clear 3 1022 52 10000 2.06 310 16:58 06.07.2022
2722 Clear 3 1023 48 10000 0 0 15:44 06.07.2022
2723 Clear 7 1022 33 10000 2.57 180 12:44 06.07.2022
2724 Clear 9 1021 31 10000 3.6 170 11:52 06.07.2022
2725 Clear 13 1021 22 10000 3.09 140 10:48 06.07.2022
2726 Clear 18 1020 16 10000 4.63 130 08:46 06.07.2022
2727 Clear 17 1020 20 10000 3.09 150 07:41 06.07.2022
2728 Clear 16 1021 23 10000 3.6 160 06:40 06.07.2022
2729 Clear -2 1022 74 10000 2.57 300 22:50 05.07.2022
2730 Clear -2 1022 80 10000 2.57 300 22:28 05.07.2022
2731 Clear -1 1022 74 10000 2.57 300 20:42 05.07.2022
2732 Clear -1 1022 74 10000 2.06 270 19:44 05.07.2022
2733 Clear -1 1022 69 10000 2.57 290 19:26 05.07.2022
2734 Clear -1 1022 69 10000 2.57 270 17:48 05.07.2022
2735 Clear 1 1022 64 10000 0 0 16:57 05.07.2022
2736 Clear 3 1022 56 10000 0 0 15:38 05.07.2022
2737 Clear 4 1022 52 10000 0 0 14:33 05.07.2022
2738 Clear 6 1021 45 10000 2.57 160 12:48 05.07.2022
2739 Clear 7 1021 42 10000 3.09 170 12:19 05.07.2022
2740 Clear 11 1020 32 10000 3.09 130 10:44 05.07.2022
2741 Clear 15 1020 26 10000 4.63 130 09:28 05.07.2022
2742 Clear 16 1020 27 10000 4.63 120 08:18 05.07.2022
2743 Clear 13 1021 33 10000 4.12 120 05:45 05.07.2022
2744 Clear 11 1023 43 10000 4.63 140 04:25 05.07.2022
2745 Clear -3 1023 93 10000 3.09 270 00:37 05.07.2022
2746 Clear -1 1023 86 10000 3.09 290 23:34 04.07.2022
2747 Clear -2 1022 93 10000 3.09 280 22:47 04.07.2022
2748 Clear -2 1022 93 10000 4.12 280 21:46 04.07.2022
2749 Clear -1 1023 80 10000 2.57 260 20:53 04.07.2022
2750 Clear -1 1023 80 10000 2.57 290 20:34 04.07.2022
2751 Clear 0 1023 80 10000 3.09 310 19:55 04.07.2022
2752 Clear -1 1023 86 10000 2.57 270 19:35 04.07.2022
2753 Clear 0 1023 74 10000 2.06 280 18:18 04.07.2022
2754 Clear 0 1024 74 10000 0 0 15:58 04.07.2022
2755 Clear 2 1024 69 10000 0 0 15:33 04.07.2022
2756 Clear 4 1023 60 10000 3.09 190 13:29 04.07.2022
2757 Clear 7 1023 53 10000 2.57 160 12:30 04.07.2022
2758 Clear 12 1022 35 10000 4.63 140 10:34 04.07.2022
2759 Clear 13 1022 33 10000 5.66 150 09:52 04.07.2022
2760 Clear 14 1022 30 10000 5.14 130 07:37 04.07.2022
2761 Clear 11 1024 46 10000 5.14 150 04:48 04.07.2022
2762 Clear -2 1024 93 10000 3.09 260 00:39 04.07.2022
2763 Clear -2 1024 93 10000 3.09 260 22:59 03.07.2022
2764 Clear -2 1023 93 10000 2.57 270 20:58 03.07.2022
2765 Clear -1 1023 86 10000 3.09 250 20:31 03.07.2022
2766 Clear 0 1024 80 10000 2.57 260 19:27 03.07.2022
2767 Clear 0 1024 80 10000 2.57 250 18:43 03.07.2022
2768 Clear 0 1024 80 10000 2.06 260 17:43 03.07.2022
2769 Clear 2 1024 69 10000 0 0 15:51 03.07.2022
2770 Clear 4 1024 60 10000 3.09 180 14:59 03.07.2022
2771 Clear 3 1024 65 10000 3.09 180 14:18 03.07.2022
2772 Clear 3 1024 65 10000 3.6 170 13:48 03.07.2022
2773 Clear 7 1023 53 10000 3.6 170 12:33 03.07.2022
2774 Clear 9 1022 43 10000 2.57 160 11:28 03.07.2022
2775 Clear 12 1022 35 10000 4.63 150 10:38 03.07.2022
2776 Clear 14 1022 30 10000 5.66 150 09:31 03.07.2022
2777 Clear 13 1022 38 10000 6.69 170 07:35 03.07.2022
2778 Clear 8 1026 61 10000 5.66 140 02:49 03.07.2022
2779 Clear -2 1026 93 10000 0 0 00:20 03.07.2022
2780 Clear -1 1025 93 10000 3.09 190 22:33 02.07.2022
2781 Clear -1 1024 93 10000 0 0 20:58 02.07.2022
2782 Clear 0 1024 86 10000 2.06 270 19:52 02.07.2022
2783 Clear 1 1025 80 10000 0 0 19:20 02.07.2022
2784 Clear 2 1025 80 10000 0 0 17:41 02.07.2022
2785 Clear 2 1025 80 10000 2.57 170 16:53 02.07.2022
2786 Clear 6 1025 61 10000 1.54 180 14:31 02.07.2022
2787 Clear 7 1025 57 10000 3.09 140 12:21 02.07.2022
2788 Clear 11 1024 46 10000 5.14 130 11:26 02.07.2022
2789 Clear 13 1024 38 10000 6.17 130 10:37 02.07.2022
2790 Clear 15 1023 36 10000 6.69 140 08:55 02.07.2022
2791 Clear 14 1024 38 10000 7.2 140 08:20 02.07.2022
2792 Clear 15 1024 38 10000 6.69 140 06:59 02.07.2022
2793 Clear 9 1027 71 10000 6.17 120 01:53 02.07.2022
2794 Clear 6 1026 81 10000 3.6 130 23:56 01.07.2022
2795 Clear 9 1025 66 10000 4.63 130 22:41 01.07.2022
2796 Clear 10 1026 62 10000 6.17 120 21:47 01.07.2022
2797 Clear 10 1026 62 10000 6.17 130 21:27 01.07.2022
2798 Clear 10 1026 62 10000 4.63 130 20:38 01.07.2022
2799 Clear 10 1026 62 10000 3.6 130 19:42 01.07.2022
2800 Clear 10 1026 62 10000 3.6 140 17:53 01.07.2022
2801 Clear 9 1027 66 10000 3.09 170 15:50 01.07.2022
2802 Clear 7 1027 70 10000 2.57 170 13:54 01.07.2022
2803 Clear 11 1026 50 10000 3.6 140 11:56 01.07.2022
2804 Clear 14 1024 38 10000 6.17 120 10:20 01.07.2022
2805 Clear 14 1024 38 10000 6.17 120 10:20 01.07.2022
2806 Clear 16 1024 36 10000 7.2 150 09:31 01.07.2022
2807 Clear 13 1027 58 10000 7.72 130 03:42 01.07.2022
2808 Clouds 4 1026 93 10000 2.57 180 00:26 01.07.2022
2809 Clouds 5 1025 87 10000 3.09 190 22:58 30.06.2022
2810 Clouds 6 1025 81 10000 2.06 190 22:33 30.06.2022
2811 Clouds 9 1025 71 10000 3.09 150 21:59 30.06.2022
2812 Clouds 9 1025 71 10000 4.63 160 21:41 30.06.2022
2813 Clouds 10 1025 71 10000 4.63 160 20:29 30.06.2022
2814 Clouds 10 1026 71 10000 4.12 150 19:54 30.06.2022
2815 Clouds 10 1025 66 10000 4.12 150 19:19 30.06.2022
2816 Clouds 11 1026 62 10000 5.14 150 18:42 30.06.2022
2817 Clouds 11 1026 66 10000 4.63 150 17:38 30.06.2022
2818 Clouds 10 1026 66 10000 3.6 150 16:48 30.06.2022
2819 Clouds 9 1026 71 10000 3.6 170 15:38 30.06.2022
2820 Clouds 9 1025 61 10000 3.09 170 13:34 30.06.2022
2821 Clouds 11 1024 54 10000 3.6 150 12:35 30.06.2022
2822 Clouds 12 1024 47 10000 3.6 130 11:37 30.06.2022
2823 Clear 15 1022 31 10000 6.69 140 09:54 30.06.2022
2824 Clear 16 1022 31 10000 7.2 150 09:34 30.06.2022
2825 Clear 16 1022 29 10000 6.17 150 07:51 30.06.2022
2826 Clear 16 1024 23 10000 6.17 160 05:57 30.06.2022
2827 Clear 2 1024 80 10000 2.06 240 00:32 30.06.2022
2828 Clear 2 1023 80 10000 2.57 260 23:21 29.06.2022
2829 Clear 2 1023 75 10000 2.57 210 22:39 29.06.2022
2830 Clear 3 1023 70 10000 2.06 250 21:34 29.06.2022
2831 Clear 3 1023 70 10000 0 0 20:33 29.06.2022
2832 Clouds 4 1023 65 10000 0 0 19:37 29.06.2022
2833 Clouds 7 1023 53 10000 3.09 180 17:43 29.06.2022
2834 Clouds 9 1023 46 10000 2.57 150 16:37 29.06.2022
2835 Clouds 12 1023 37 10000 3.6 130 14:56 29.06.2022
2836 Clouds 12 1021 40 10000 4.12 150 12:40 29.06.2022
2837 Clouds 15 1020 31 10000 4.12 140 10:56 29.06.2022
2838 Clouds 18 1019 27 10000 6.17 130 09:32 29.06.2022
2839 Clear 18 1019 29 10000 4.63 130 07:39 29.06.2022
2840 Clear 16 1020 28 10000 5.31 120 04:51 29.06.2022
2841 Clouds 11 1022 54 10000 3.09 150 00:57 29.06.2022
2842 Clouds 11 1022 54 10000 2.57 170 00:35 29.06.2022
2843 Clouds 11 1022 54 10000 3.09 200 22:53 28.06.2022
2844 Clouds 11 1021 54 10000 2.57 210 22:24 28.06.2022
2845 Clouds 11 1020 54 10000 3.6 200 21:54 28.06.2022
2846 Clouds 10 1020 57 10000 3.09 170 21:32 28.06.2022
2847 Clouds 11 1021 54 10000 2.57 160 20:34 28.06.2022
2848 Clouds 11 1021 58 10000 0 0 19:33 28.06.2022
2849 Clouds 11 1021 58 10000 1.03 150 18:45 28.06.2022
2850 Clouds 11 1021 58 10000 1.03 150 18:45 28.06.2022
2851 Clouds 11 1021 58 10000 4.12 120 17:39 28.06.2022
2852 Clouds 10 1022 62 10000 2.57 110 15:57 28.06.2022
2853 Clouds 10 1022 57 10000 0 0 15:21 28.06.2022
2854 Clouds 11 1023 54 10000 3.09 110 14:20 28.06.2022
2855 Clouds 11 1022 54 10000 2.57 120 13:50 28.06.2022
2856 Clouds 12 1023 50 10000 3.09 90 12:54 28.06.2022
2857 Clouds 13 1023 47 10000 3.09 120 11:18 28.06.2022
2858 Clouds 14 1022 41 10000 3.09 100 09:28 28.06.2022
2859 Clouds 14 1022 41 10000 3.6 60 08:43 28.06.2022
2860 Clouds 15 1022 38 10000 4.63 100 07:42 28.06.2022
2861 Clouds 14 1023 44 10000 4.63 110 05:58 28.06.2022
2862 Clouds 9 1025 61 10000 2.06 80 00:00 28.06.2022
2863 Clouds 10 1025 57 10000 3.09 80 23:36 27.06.2022
2864 Clouds 10 1025 57 10000 2.57 120 22:51 27.06.2022
2865 Clouds 11 1025 54 10000 4.63 120 21:33 27.06.2022
2866 Clouds 11 1025 54 10000 4.12 120 20:48 27.06.2022
2867 Clouds 12 1026 50 10000 4.12 130 18:58 27.06.2022
2868 Clouds 12 1026 54 10000 4.12 120 18:19 27.06.2022
2869 Clouds 13 1026 47 10000 5.14 120 16:19 27.06.2022
2870 Clouds 12 1027 54 10000 3.6 130 14:44 27.06.2022
2871 Clouds 14 1026 47 10000 3.6 130 13:25 27.06.2022
2872 Clouds 14 1026 47 10000 4.12 130 12:52 27.06.2022
2873 Clouds 17 1025 39 10000 7.2 110 10:22 27.06.2022
2874 Clouds 20 1025 32 10000 8.23 120 08:48 27.06.2022
2875 Clouds 18 1025 36 10000 8.23 120 08:19 27.06.2022
2876 Clouds 19 1026 34 10000 8.75 90 06:38 27.06.2022
2877 Clouds 11 1029 71 10000 2.57 90 02:23 27.06.2022
2878 Clouds 6 1028 87 10000 2.57 150 23:49 26.06.2022
2879 Clouds 5 1027 87 10000 2.57 110 21:58 26.06.2022
2880 Clouds 5 1027 87 10000 2.57 110 20:34 26.06.2022
2881 Clouds 5 1027 87 10000 2.06 140 19:23 26.06.2022
2882 Clouds 7 1027 81 10000 2.57 170 18:24 26.06.2022
2883 Clouds 7 1027 81 10000 3.6 150 15:53 26.06.2022
2884 Clouds 8 1027 71 10000 3.6 170 14:34 26.06.2022
2885 Clouds 10 1026 62 10000 2.57 150 13:30 26.06.2022
2886 Clouds 10 1026 62 10000 3.09 130 12:52 26.06.2022
2887 Clouds 15 1025 44 10000 5.66 130 11:21 26.06.2022
2888 Clouds 17 1024 36 10000 8.23 120 10:23 26.06.2022
2889 Clear 18 1023 32 10000 8.23 140 08:46 26.06.2022
2890 Clouds 19 1024 26 10000 8.23 120 07:23 26.06.2022
2891 Clear 5 1026 81 10000 2.57 270 00:48 26.06.2022
2892 Clear 4 1025 81 10000 2.57 280 00:20 26.06.2022
2893 Clear 2 1024 87 10000 2.57 270 23:33 25.06.2022
2894 Clear 4 1024 81 10000 2.57 250 22:51 25.06.2022
2895 Clear 3 1024 87 10000 2.57 270 22:26 25.06.2022
2896 Clear 3 1023 81 10000 2.06 250 21:23 25.06.2022
2897 Clear 4 1023 81 10000 0 0 20:59 25.06.2022
2898 Clouds 5 1023 75 10000 0 0 20:25 25.06.2022
2899 Clouds 5 1023 75 10000 0 0 18:42 25.06.2022
2900 Clouds 7 1023 65 10000 0.51 330 17:28 25.06.2022
2901 Clouds 7 1023 61 10000 0.51 290 16:31 25.06.2022
2902 Clouds 8 1023 57 10000 0 0 14:47 25.06.2022
2903 Clouds 12 1022 43 10000 3.09 160 12:51 25.06.2022
2904 Clouds 12 1022 43 10000 3.6 150 12:32 25.06.2022
2905 Clouds 12 1022 43 10000 3.6 150 12:32 25.06.2022
2906 Clouds 21 1020 23 10000 6.69 130 09:35 25.06.2022
2907 Clouds 21 1020 23 10000 6.69 140 08:55 25.06.2022
2908 Clouds 21 1019 23 10000 5.66 130 08:25 25.06.2022
2909 Clouds 21 1020 26 10000 6.17 100 06:36 25.06.2022
2910 Clouds 10 1022 66 10000 0 0 01:31 25.06.2022
2911 Clouds 4 1021 81 10000 2.57 300 23:58 24.06.2022
2912 Clouds 4 1021 81 10000 0 0 22:29 24.06.2022
2913 Clouds 6 1020 75 10000 2.57 330 21:28 24.06.2022
2914 Clouds 5 1020 75 10000 2.06 290 20:24 24.06.2022
2915 Clouds 5 1020 75 10000 2.57 300 19:39 24.06.2022
2916 Clouds 5 1020 75 10000 2.57 300 19:18 24.06.2022
2917 Clouds 5 1020 75 10000 1.54 290 18:44 24.06.2022
2918 Clouds 6 1020 70 10000 1.54 290 18:24 24.06.2022
2919 Clear 7 1021 65 10000 0 0 16:47 24.06.2022
2920 Clear 9 1021 57 10000 0 0 14:50 24.06.2022
2921 Clear 9 1021 57 10000 1.54 120 14:23 24.06.2022
2922 Clear 12 1021 47 10000 0 0 13:41 24.06.2022
2923 Clear 16 1019 33 10000 3.6 140 11:41 24.06.2022
2924 Clear 21 1019 23 10000 2.57 130 10:36 24.06.2022
2925 Clear 23 1018 20 10000 3.09 130 09:42 24.06.2022
2926 Clear 23 1018 20 10000 3.6 150 08:54 24.06.2022
2927 Clear 23 1018 18 10000 2.06 110 07:57 24.06.2022
2928 Clear 23 1019 20 10000 3.6 150 06:43 24.06.2022
2929 Clear 23 1020 21 10000 3.6 170 06:20 24.06.2022
2930 Clear 21 1022 26 10000 0 0 04:41 24.06.2022
2931 Clear 3 1021 87 10000 0 0 23:24 23.06.2022
2932 Clear 4 1021 87 10000 1.54 320 22:42 23.06.2022
2933 Clear 5 1022 81 10000 2.06 330 20:59 23.06.2022
2934 Clear 5 1022 87 10000 0 0 20:36 23.06.2022
2935 Clear 6 1022 81 10000 0 0 19:40 23.06.2022
2936 Clear 5 1023 81 10000 0 0 17:53 23.06.2022
2937 Clear 7 1023 76 10000 2.06 330 17:33 23.06.2022
2938 Clear 8 1023 71 10000 2.06 280 16:23 23.06.2022
2939 Clear 9 1023 66 10000 1.54 120 15:25 23.06.2022
2940 Clear 11 1022 58 10000 0 0 13:46 23.06.2022
2941 Clear 17 1021 39 10000 3.09 130 11:27 23.06.2022
2942 Clear 21 1004 32 10000 3.09 130 10:40 23.06.2022
2943 Clear 21 1004 32 10000 3.6 130 09:18 23.06.2022
2944 Clear 17 1026 45 10000 5.66 70 03:40 23.06.2022
2945 Clear 2 1026 93 10000 0 0 00:27 23.06.2022
2946 Clear 3 1026 93 10000 2.06 280 23:41 22.06.2022
2947 Clear 4 1026 93 10000 2.57 270 22:48 22.06.2022
2948 Clear 4 1026 93 10000 2.57 270 22:48 22.06.2022
2949 Clear 4 1026 87 10000 3.09 310 21:22 22.06.2022
2950 Clear 4 1026 87 10000 2.06 270 20:45 22.06.2022
2951 Clear 5 1026 87 10000 2.57 300 19:58 22.06.2022
2952 Clear 5 1026 87 10000 0 0 18:49 22.06.2022
2953 Clear 6 1026 75 10000 0 0 17:28 22.06.2022
2954 Clear 7 1026 81 10000 0 0 16:33 22.06.2022
2955 Clear 10 1026 66 10000 0 0 15:27 22.06.2022
2956 Clear 10 1026 66 10000 2.06 130 14:21 22.06.2022
2957 Clear 10 1026 66 10000 2.57 140 13:41 22.06.2022
2958 Clear 10 1026 66 10000 2.57 140 13:23 22.06.2022
2959 Clear 13 1025 54 10000 2.57 140 11:50 22.06.2022
2960 Clear 16 1025 44 10000 3.6 140 10:57 22.06.2022
2961 Clear 21 1004 32 10000 4.63 130 10:19 22.06.2022
2962 Clear 21 1004 32 10000 5.66 100 08:28 22.06.2022
2963 Clear 21 1004 32 10000 5.66 130 05:38 22.06.2022
2964 Clear 8 1027 87 10000 0 0 01:39 22.06.2022
2965 Clear 4 1026 93 10000 0 0 00:29 22.06.2022
2966 Clear 5 1025 87 10000 0.51 250 22:37 21.06.2022
2967 Clear 7 1025 81 10000 2.57 310 19:57 21.06.2022
2968 Clear 7 1025 81 10000 0 0 18:36 21.06.2022
2969 Clear 7 1025 81 10000 0 0 17:39 21.06.2022
2970 Clear 11 1025 62 10000 0 0 14:22 21.06.2022
2971 Clear 15 1023 47 10000 3.09 140 11:49 21.06.2022
2972 Clear 21 1004 32 10000 4.63 120 10:18 21.06.2022
2973 Clear 21 1004 32 10000 6.69 120 08:48 21.06.2022
2974 Clear 21 1004 32 10000 5.66 140 07:23 21.06.2022
2975 Clear 13 1023 58 10000 2.06 250 01:43 21.06.2022
2976 Clear 5 1021 87 10000 2.06 240 23:26 20.06.2022
2977 Clear 7 1020 81 10000 1.54 320 21:55 20.06.2022
2978 Clear 7 1020 81 10000 2.06 320 21:30 20.06.2022
2979 Clear 8 1020 76 10000 2.57 220 19:44 20.06.2022
2980 Clear 8 1020 76 10000 0 0 18:48 20.06.2022
2981 Clear 9 1020 76 10000 0.51 140 18:23 20.06.2022
2982 Clear 9 1020 76 10000 0 0 17:36 20.06.2022
2983 Clear 10 1020 71 10000 0 0 15:58 20.06.2022
2984 Clear 14 1019 54 10000 2.06 100 13:34 20.06.2022
2985 Clear 21 1004 32 10000 3.6 120 11:25 20.06.2022
2986 Clear 21 1004 32 10000 4.12 130 09:47 20.06.2022
2987 Clear 25 1016 22 10000 5.14 110 08:45 20.06.2022
2988 Clear 25 1017 22 10000 2.06 110 06:49 20.06.2022
2989 Clear 21 1004 32 10000 0 0 03:20 20.06.2022
2990 Clouds 6 1018 87 10000 0 0 00:37 20.06.2022
2991 Clouds 7 1018 81 10000 0 0 23:24 19.06.2022
2992 Clouds 8 1017 76 10000 2.06 320 22:18 19.06.2022
2993 Clouds 8 1017 81 10000 2.06 330 21:41 19.06.2022
2994 Clouds 8 1018 76 10000 1.54 340 20:46 19.06.2022
2995 Clouds 8 1018 81 10000 0 0 19:48 19.06.2022
2996 Clouds 8 1018 81 10000 0 0 19:23 19.06.2022
2997 Clouds 10 1018 71 10000 0 0 18:31 19.06.2022
2998 Clouds 11 1018 66 10000 2.57 330 17:34 19.06.2022
2999 Clouds 11 1019 66 10000 1.54 310 16:38 19.06.2022
3000 Clouds 10 1019 71 10000 1.54 220 15:44 19.06.2022
3001 Clouds 11 1019 66 10000 0 0 15:26 19.06.2022
3002 Clouds 12 1018 62 10000 0 0 14:30 19.06.2022
3003 Clouds 13 1018 54 10000 0 0 13:43 19.06.2022
3004 Clouds 17 1017 39 10000 0 0 11:53 19.06.2022
3005 Clouds 21 1004 32 10000 2.57 80 10:51 19.06.2022
3006 Clouds 21 1004 32 10000 3.6 160 08:55 19.06.2022
3007 Clouds 21 1004 32 10000 3.6 180 08:30 19.06.2022
3008 Clouds 21 1004 32 10000 1.54 230 06:41 19.06.2022
3009 Clouds 19 1020 32 10000 2.06 20 03:19 19.06.2022
3010 Clouds 9 1019 71 10000 0 0 00:27 19.06.2022
3011 Clouds 10 1019 66 10000 1.54 100 23:37 18.06.2022
3012 Clouds 10 1019 66 10000 1.54 100 23:19 18.06.2022
3013 Clouds 13 1018 50 10000 0 0 21:54 18.06.2022
3014 Clouds 12 1019 54 10000 2.57 50 20:50 18.06.2022
3015 Clouds 10 1019 71 10000 3.09 40 19:50 18.06.2022
3016 Clouds 10 1020 71 10000 0 0 18:54 18.06.2022
3017 Clouds 10 1020 71 10000 0 0 18:30 18.06.2022
3018 Clouds 10 1020 66 10000 0 0 17:28 18.06.2022
3019 Clouds 12 1020 58 10000 2.57 60 15:39 18.06.2022
3020 Clouds 13 1020 54 10000 1.54 80 14:50 18.06.2022
3021 Clouds 13 1020 54 10000 0 0 13:54 18.06.2022
3022 Clouds 16 1019 41 10000 3.09 110 12:25 18.06.2022
3023 Clouds 17 1018 36 10000 3.6 100 10:59 18.06.2022
3024 Clouds 21 1004 32 10000 5.14 100 09:29 18.06.2022
3025 Clouds 21 1004 32 10000 5.14 110 08:37 18.06.2022
3026 Clouds 21 1004 32 10000 3.6 120 07:33 18.06.2022
3027 Clear 19 1021 37 10000 6.69 70 04:43 18.06.2022
3028 Clear 9 1022 81 10000 0.51 30 01:27 18.06.2022
3029 Clear 6 1022 93 10000 0 0 00:55 18.06.2022
3030 Clear 4 1022 93 10000 0 0 00:23 18.06.2022
3031 Clear 5 1021 87 10000 0 0 23:33 17.06.2022
3032 Clear 5 1020 93 10000 0 0 21:57 17.06.2022
3033 Clouds 6 1021 87 10000 0 0 20:29 17.06.2022
3034 Clouds 6 1022 87 10000 0 0 19:20 17.06.2022
3035 Clouds 7 1021 81 10000 0 0 17:47 17.06.2022
3036 Clouds 7 1021 81 10000 0 0 16:44 17.06.2022
3037 Clouds 8 1022 81 10000 0 0 16:21 17.06.2022
3038 Clouds 9 1022 71 10000 0 0 15:37 17.06.2022
3039 Clouds 11 1022 66 10000 0 0 14:23 17.06.2022
3040 Clouds 11 1022 62 10000 0 0 13:57 17.06.2022
3041 Clouds 12 1021 58 10000 0 0 13:37 17.06.2022
3042 Clear 13 1021 54 10000 3.09 130 12:20 17.06.2022
3043 Clear 15 1020 47 10000 2.57 110 11:49 17.06.2022
3044 Clear 16 1020 44 10000 3.6 120 11:30 17.06.2022
3045 Clear 21 1004 32 10000 4.63 110 08:45 17.06.2022
3046 Clear 21 1004 32 10000 5.66 100 08:24 17.06.2022
3047 Clear 21 1004 32 10000 5.66 110 06:35 17.06.2022
3048 Clear 18 1023 39 10000 3.09 90 03:42 17.06.2022
3049 Clear 11 1023 71 10000 0 0 01:55 17.06.2022
3050 Clear 6 1021 87 10000 0 0 23:34 16.06.2022
3051 Clear 5 1021 93 10000 0 0 22:40 16.06.2022
3052 Clouds 6 1020 87 10000 0 0 21:21 16.06.2022
3053 Clouds 7 1021 81 10000 0 0 20:50 16.06.2022
3054 Clouds 7 1021 87 10000 0 0 20:21 16.06.2022
3055 Clouds 8 1021 81 10000 0 0 18:51 16.06.2022
3056 Clouds 9 1021 76 10000 0 0 17:50 16.06.2022
3057 Clouds 9 1021 76 10000 0 0 17:27 16.06.2022
3058 Clouds 9 1022 76 10000 0 0 16:20 16.06.2022
3059 Clouds 10 1022 71 10000 0 0 15:21 16.06.2022
3060 Clouds 12 1022 62 10000 0 0 14:27 16.06.2022
3061 Clear 14 1022 51 10000 3.09 120 12:53 16.06.2022
3062 Clear 15 1021 51 10000 3.6 120 12:34 16.06.2022
3063 Clear 16 1021 44 10000 3.6 130 11:48 16.06.2022
3064 Clear 21 1004 32 10000 4.63 120 10:41 16.06.2022
3065 Clear 21 1004 32 10000 3.6 150 09:43 16.06.2022
3066 Clear 21 1004 32 10000 4.63 160 08:57 16.06.2022
3067 Clear 21 1004 32 10000 5.14 100 07:41 16.06.2022
3068 Clear 21 1004 32 10000 4.63 120 05:51 16.06.2022
3069 Clear 21 1004 32 10000 5.14 80 03:56 16.06.2022
3070 Clouds 13 1024 67 10000 0 0 01:52 16.06.2022
3071 Clouds 10 1023 76 10000 0 0 01:22 16.06.2022
3072 Clouds 6 1022 87 10000 2.06 300 00:22 16.06.2022
3073 Clouds 5 1022 87 10000 2.06 330 22:53 15.06.2022
3074 Clouds 6 1022 81 10000 0 0 21:37 15.06.2022
3075 Clear 6 1022 87 10000 0 0 20:59 15.06.2022
3076 Clear 6 1022 87 10000 0 0 20:36 15.06.2022
3077 Clear 7 1022 81 10000 0 0 19:57 15.06.2022
3078 Clear 8 1022 76 10000 0.51 350 18:37 15.06.2022
3079 Clear 10 1022 66 10000 2.57 350 17:46 15.06.2022
3080 Clear 10 1022 66 10000 0 0 16:27 15.06.2022
3081 Clear 11 1022 62 10000 0 0 15:19 15.06.2022
3082 Clouds 13 1022 54 10000 0 0 13:29 15.06.2022
3083 Clouds 12 1021 54 10000 2.57 160 12:47 15.06.2022
3084 Clouds 21 1004 32 10000 3.09 150 11:25 15.06.2022
3085 Clouds 21 1004 32 10000 3.6 140 10:22 15.06.2022
3086 Clear 21 1004 32 10000 5.66 160 08:59 15.06.2022
3087 Clear 21 1004 32 10000 5.14 170 07:36 15.06.2022
3088 Clear 21 1004 32 10000 1.54 180 05:36 15.06.2022
3089 Clear 21 1004 32 10000 1.03 280 02:47 15.06.2022
3090 Clear 11 1022 66 10000 0 0 01:36 15.06.2022
3091 Clear 5 1021 81 10000 0 0 00:19 15.06.2022
3092 Clear 5 1021 81 10000 0 0 23:38 14.06.2022
3093 Clear 5 1021 81 10000 0 0 22:46 14.06.2022
3094 Clear 6 1020 81 10000 3.6 280 21:43 14.06.2022
3095 Clear 6 1020 81 10000 0 0 20:58 14.06.2022
3096 Clear 6 1021 81 10000 0 0 20:38 14.06.2022
3097 Clear 8 1021 71 10000 0 0 19:47 14.06.2022
3098 Clear 8 1021 71 10000 2.06 280 18:39 14.06.2022
3099 Clear 7 1021 76 10000 0 0 16:53 14.06.2022
3100 Clear 8 1021 71 10000 0 0 16:34 14.06.2022
3101 Clear 10 1021 62 10000 0 0 15:41 14.06.2022
3102 Clear 11 1021 58 10000 3.09 10 14:53 14.06.2022
3103 Clear 11 1021 62 10000 0.51 310 13:59 14.06.2022
3104 Clear 13 1020 50 10000 0 0 12:59 14.06.2022
3105 Clear 17 1020 34 10000 3.09 130 11:56 14.06.2022
3106 Clear 21 1004 32 10000 2.57 140 10:51 14.06.2022
3107 Clear 21 1004 32 10000 3.09 170 10:28 14.06.2022
3108 Clear 21 1004 32 10000 2.57 180 09:18 14.06.2022
3109 Clear 21 1004 32 10000 2.57 130 08:24 14.06.2022
3110 Clear 21 1004 32 10000 2.06 210 06:20 14.06.2022
3111 Clear 20 1021 30 10000 0 0 03:45 14.06.2022
3112 Clear 8 1021 76 10000 0 0 01:37 14.06.2022
3113 Clear 4 1021 87 10000 0 0 00:21 14.06.2022
3114 Clear 3 1020 87 10000 0 0 22:39 13.06.2022
3115 Clear 3 1020 87 10000 0 0 22:19 13.06.2022
3116 Clear 3 1020 87 10000 0 0 21:24 13.06.2022
3117 Clear 4 1020 81 10000 0 0 19:48 13.06.2022
3118 Clear 5 1021 75 10000 0 0 18:52 13.06.2022
3119 Clear 5 1021 81 10000 0 0 17:52 13.06.2022
3120 Clear 6 1020 75 10000 0 0 17:21 13.06.2022
3121 Clouds 8 1021 66 10000 0 0 16:22 13.06.2022
3122 Clouds 8 1020 66 10000 3.09 50 14:48 13.06.2022
3123 Clouds 9 1021 57 10000 2.57 40 14:18 13.06.2022
3124 Clouds 12 1020 37 10000 2.57 100 13:23 13.06.2022
3125 Clouds 14 1020 33 10000 2.57 100 11:50 13.06.2022
3126 Clouds 21 1004 32 10000 3.09 130 10:36 13.06.2022
3127 Clear 21 1004 32 10000 3.09 120 09:42 13.06.2022
3128 Clear 21 1004 32 10000 2.57 130 08:30 13.06.2022
3129 Clear 21 1004 32 10000 3.09 90 06:34 13.06.2022
3130 Clear 17 1022 42 10000 4.63 70 04:23 13.06.2022
3131 Clear 9 1023 81 10000 0 0 01:44 13.06.2022
3132 Clear 6 1023 87 10000 0 0 01:18 13.06.2022
3133 Clear 2 1022 100 10000 0 0 23:37 12.06.2022
3134 Clear 2 1021 93 10000 0 0 22:29 12.06.2022
3135 Clear 2 1021 93 10000 0 0 21:41 12.06.2022
3136 Clear 3 1021 93 10000 0 0 20:43 12.06.2022
3137 Clear 4 1022 87 10000 1.54 270 19:42 12.06.2022
3138 Clear 4 1022 87 10000 0 0 18:46 12.06.2022
3139 Clear 5 1022 81 10000 0 0 16:57 12.06.2022
3140 Clear 6 1022 81 10000 0 0 15:33 12.06.2022
3141 Clear 7 1022 70 10000 0 0 14:41 12.06.2022
3142 Clear 7 1022 70 10000 0 0 14:18 12.06.2022
3143 Clear 8 1022 66 10000 0 0 13:43 12.06.2022
3144 Clear 11 1021 54 10000 3.09 130 11:58 12.06.2022
3145 Clear 14 1020 41 10000 3.09 80 10:46 12.06.2022
3146 Clear 21 1004 32 10000 4.63 100 09:36 12.06.2022
3147 Clear 21 1004 32 10000 4.12 120 08:49 12.06.2022
3148 Clear 21 1004 32 10000 4.63 90 07:47 12.06.2022
3149 Clear 17 1022 36 10000 5.14 110 05:51 12.06.2022
3150 Clear 14 1024 51 10000 5.66 110 03:38 12.06.2022
3151 Clear 14 1024 51 10000 5.66 110 03:38 12.06.2022
3152 Clouds 11 1024 62 10000 4.12 110 01:44 12.06.2022
3153 Clouds 6 1023 93 10000 2.57 190 00:59 12.06.2022
3154 Clouds 5 1023 93 10000 0.51 200 00:28 12.06.2022
3155 Clouds 5 1023 93 10000 0 0 23:56 11.06.2022
3156 Clouds 7 1022 81 10000 2.06 170 22:49 11.06.2022
3157 Clouds 8 1022 81 10000 2.57 170 22:29 11.06.2022
3158 Clouds 9 1023 76 10000 2.06 180 20:55 11.06.2022
3159 Clouds 9 1023 76 10000 0 0 20:24 11.06.2022
3160 Clouds 10 1022 66 10000 2.57 150 19:32 11.06.2022
3161 Clouds 10 1022 66 10000 2.57 100 18:36 11.06.2022
3162 Clouds 10 1022 66 10000 3.09 130 17:52 11.06.2022
3163 Clouds 10 1022 66 10000 3.6 120 17:29 11.06.2022
3164 Clouds 9 1023 71 10000 3.09 130 16:59 11.06.2022
3165 Clouds 10 1023 66 10000 2.06 150 16:38 11.06.2022
3166 Clouds 10 1023 66 10000 3.09 120 15:45 11.06.2022
3167 Clouds 10 1023 66 10000 3.09 120 15:45 11.06.2022
3168 Clouds 10 1024 62 10000 3.09 120 13:54 11.06.2022
3169 Clouds 10 1024 62 10000 3.09 160 13:25 11.06.2022
3170 Clouds 12 1023 50 10000 3.6 120 10:58 11.06.2022
3171 Clouds 12 1022 50 10000 4.12 110 10:22 11.06.2022
3172 Rain 12 1022 47 10000 4.63 130 09:38 11.06.2022
3173 Clouds 13 1022 47 10000 3.6 100 07:52 11.06.2022
3174 Clouds 13 1022 47 10000 4.12 100 06:31 11.06.2022
3175 Clouds 12 1023 50 10000 6.69 90 05:21 11.06.2022
3176 Clouds 6 1025 87 10000 2.06 90 01:53 11.06.2022
3177 Clouds 5 1024 87 10000 0 0 01:33 11.06.2022
3178 Clouds 3 1024 93 10000 0 0 00:22 11.06.2022
3179 Clouds 2 1023 93 10000 0 0 22:33 10.06.2022
3180 Clouds 2 1022 93 10000 0 0 21:53 10.06.2022
3181 Clouds 3 1023 93 10000 0 0 20:43 10.06.2022
3182 Clouds 3 1023 93 10000 0 0 20:22 10.06.2022
3183 Clouds 3 1023 93 10000 0 0 19:48 10.06.2022
3184 Clouds 3 1023 87 10000 0 0 19:18 10.06.2022
3185 Clouds 4 1023 87 10000 0 0 18:19 10.06.2022
3186 Clouds 4 1024 81 10000 0 0 17:36 10.06.2022
3187 Clouds 5 1024 81 10000 0 0 16:55 10.06.2022
3188 Clouds 5 1024 81 10000 0 0 15:47 10.06.2022
3189 Clouds 7 1024 70 10000 2.06 90 14:57 10.06.2022
3190 Clouds 7 1024 70 10000 2.57 120 13:44 10.06.2022
3191 Clouds 8 1023 66 10000 3.09 120 12:28 10.06.2022
3192 Clouds 11 1022 50 10000 3.6 120 11:40 10.06.2022
3193 Clouds 13 1022 41 10000 5.14 120 10:37 10.06.2022
3194 Clouds 14 1022 41 10000 4.63 130 09:40 10.06.2022
3195 Clouds 15 1022 38 10000 5.66 120 08:23 10.06.2022
3196 Clouds 15 1022 41 10000 5.66 130 06:51 10.06.2022
3197 Clouds 14 1023 41 10000 5.66 140 06:32 10.06.2022
3198 Clouds 14 1024 44 10000 5.66 100 05:35 10.06.2022
3199 Clouds 9 1026 76 10000 3.6 100 02:54 10.06.2022
3200 Clouds 4 1026 93 10000 0 0 01:37 10.06.2022
3201 Clouds 0 1024 93 10000 0 0 23:58 09.06.2022
3202 Clouds 1 1024 93 10000 0 0 22:56 09.06.2022
3203 Clouds 1 1024 93 10000 0 0 21:46 09.06.2022
3204 Clouds 1 1024 100 10000 0 0 21:28 09.06.2022
3205 Clouds 1 1023 93 10000 0 0 20:40 09.06.2022
3206 Clouds 2 1023 93 10000 0 0 19:51 09.06.2022
3207 Clouds 3 1024 93 10000 2.57 310 18:43 09.06.2022
3208 Clouds 3 1024 87 10000 0.51 290 17:56 09.06.2022
3209 Clouds 4 1024 87 10000 0 0 16:38 09.06.2022
3210 Clouds 4 1024 87 10000 2.06 170 15:42 09.06.2022
3211 Clouds 5 1024 81 10000 3.09 150 14:34 09.06.2022
3212 Clear 6 1024 75 10000 3.09 110 13:46 09.06.2022
3213 Clear 7 1024 76 10000 2.57 120 13:25 09.06.2022
3214 Clear 10 1023 62 10000 3.6 130 11:52 09.06.2022
3215 Clear 13 1022 47 10000 3.6 130 10:36 09.06.2022
3216 Clear 15 1022 44 10000 5.66 150 09:40 09.06.2022
3217 Clear 15 1022 44 10000 5.66 150 09:21 09.06.2022
3218 Clear 14 1022 47 10000 5.14 130 07:29 09.06.2022
3219 Clouds 13 1025 54 10000 6.69 90 04:47 09.06.2022
3220 Clouds 2 1025 100 10000 0 0 00:36 09.06.2022
3221 Clouds 1 1024 93 10000 0 0 23:23 08.06.2022
3222 Clear 2 1024 93 10000 0 0 22:44 08.06.2022
3223 Clear 2 1023 93 10000 0 0 22:24 08.06.2022
3224 Clear 2 1023 100 10000 0 0 21:40 08.06.2022
3225 Clouds 3 1023 93 10000 0 0 20:25 08.06.2022
3226 Clear 3 1023 100 10000 0 0 19:46 08.06.2022
3227 Clear 3 1023 93 10000 0 0 18:48 08.06.2022
3228 Clear 4 1023 87 10000 0 0 17:48 08.06.2022
3229 Clear 5 1024 87 10000 0 0 16:18 08.06.2022
3230 Clouds 6 1024 81 10000 2.57 140 14:46 08.06.2022
3231 Clear 8 1024 71 10000 2.06 130 12:55 08.06.2022
3232 Clear 10 1023 57 10000 3.6 130 11:44 08.06.2022
3233 Clear 11 1022 54 10000 3.6 130 11:19 08.06.2022
3234 Clear 15 1022 38 10000 6.17 130 09:45 08.06.2022
3235 Clear 15 1022 41 10000 6.17 120 09:18 08.06.2022
3236 Clear 15 1022 41 10000 6.17 100 07:22 08.06.2022
3237 Clear 14 1024 44 10000 6.69 120 04:51 08.06.2022
3238 Clear 10 1025 71 10000 0.51 70 02:19 08.06.2022
3239 Clear 2 1024 93 10000 0 0 23:41 07.06.2022
3240 Clear 2 1024 93 10000 0 0 23:22 07.06.2022
3241 Clear 3 1023 93 10000 0.51 310 22:38 07.06.2022
3242 Clear 2 1023 93 10000 0 0 21:41 07.06.2022
3243 Clear 2 1023 93 10000 0 0 21:23 07.06.2022
3244 Clear 3 1023 93 10000 1.54 290 20:42 07.06.2022
3245 Clear 4 1023 93 10000 1.54 330 19:58 07.06.2022
3246 Clear 4 1023 93 10000 0 0 18:38 07.06.2022
3247 Clear 4 1024 93 10000 1.54 130 17:36 07.06.2022
3248 Clear 4 1023 93 10000 0 0 16:47 07.06.2022
3249 Clear 5 1024 93 10000 0 0 16:28 07.06.2022
3250 Clear 6 1024 87 10000 1.03 130 15:37 07.06.2022
3251 Clear 6 1024 87 10000 1.03 130 15:18 07.06.2022
3252 Clear 6 1024 87 10000 2.57 150 14:43 07.06.2022
3253 Clear 9 1023 71 10000 2.57 120 13:38 07.06.2022
3254 Clear 9 1023 71 10000 2.57 120 13:20 07.06.2022
3255 Clear 10 1022 66 10000 3.09 130 11:55 07.06.2022
3256 Clear 13 1021 54 10000 3.6 130 10:53 07.06.2022
3257 Clear 16 1020 41 10000 5.14 110 08:58 07.06.2022
3258 Clear 16 1020 41 10000 5.66 150 08:22 07.06.2022
3259 Clear 15 1021 44 10000 5.66 130 06:42 07.06.2022
3260 Clear 14 1022 51 10000 6.69 110 04:47 07.06.2022
3261 Clouds 8 1023 93 10000 2.06 160 01:28 07.06.2022
3262 Clouds 5 1022 100 10000 0 0 23:58 06.06.2022
3263 Clouds 6 1021 100 10000 0 0 22:56 06.06.2022
3264 Clouds 6 1021 93 10000 2.57 170 22:30 06.06.2022
3265 Clouds 7 1021 93 10000 2.06 170 21:18 06.06.2022
3266 Clouds 6 1021 100 10000 0 0 19:29 06.06.2022
3267 Clouds 7 1021 93 10000 0 0 18:53 06.06.2022
3268 Clouds 7 1021 93 10000 0 0 18:26 06.06.2022
3269 Clouds 8 1021 87 10000 0.51 140 17:26 06.06.2022
3270 Clouds 8 1021 87 10000 1.54 160 16:18 06.06.2022
3271 Clear 9 1021 87 10000 2.06 70 15:33 06.06.2022
3272 Clear 10 1021 81 10000 3.09 160 14:32 06.06.2022
3273 Clouds 11 1021 76 10000 2.57 140 13:25 06.06.2022
3274 Clouds 13 1020 67 10000 3.09 140 12:36 06.06.2022
3275 Clouds 14 1019 62 10000 3.6 140 11:53 06.06.2022
3276 Clouds 15 1019 58 10000 3.6 130 10:40 06.06.2022
3277 Clouds 16 1018 55 10000 4.63 130 09:33 06.06.2022
3278 Clouds 21 1004 32 10000 4.63 110 08:32 06.06.2022
3279 Clouds 21 1004 32 10000 5.14 140 07:28 06.06.2022
3280 Clouds 16 1020 55 10000 4.12 130 05:27 06.06.2022
3281 Clouds 12 1021 71 10000 5.66 120 02:55 06.06.2022
3282 Clouds 9 1021 87 10000 0 0 01:18 06.06.2022
3283 Clear 7 1019 87 10000 0 0 00:37 06.06.2022
3284 Clouds 6 1019 93 10000 3.09 240 23:33 05.06.2022
3285 Clear 6 1019 93 10000 2.57 240 22:45 05.06.2022
3286 Clear 6 1019 93 10000 2.57 240 22:45 05.06.2022
3287 Clouds 7 1018 93 10000 0 0 20:46 05.06.2022
3288 Clouds 8 1018 87 10000 2.06 210 19:38 05.06.2022
3289 Clear 10 1018 81 10000 0.51 190 18:29 05.06.2022
3290 Clear 10 1018 87 10000 0 0 17:51 05.06.2022
3291 Clear 10 1018 87 10000 0 0 17:24 05.06.2022
3292 Clear 9 1018 93 10000 0 0 16:49 05.06.2022
3293 Clear 11 1018 82 10000 2.06 310 15:50 05.06.2022
3294 Clear 11 1018 87 10000 2.57 220 14:24 05.06.2022
3295 Clear 14 1017 72 10000 2.06 140 12:49 05.06.2022
3296 Clear 21 1004 32 10000 3.09 150 11:43 05.06.2022
3297 Clouds 21 1004 32 10000 4.12 160 10:25 05.06.2022
3298 Clouds 21 1004 32 10000 4.12 170 09:58 05.06.2022
3299 Clouds 21 1004 32 10000 4.12 200 08:28 05.06.2022
3300 Clouds 21 1004 32 10000 4.63 190 06:54 05.06.2022
3301 Clouds 21 1004 32 10000 5.14 190 05:20 05.06.2022
3302 Clouds 18 1016 59 10000 4.12 230 03:43 05.06.2022
3303 Clouds 13 1016 82 10000 2.57 210 01:32 05.06.2022
3304 Clouds 12 1015 94 10000 0 0 23:58 04.06.2022
3305 Clouds 8 1014 100 10000 0 0 21:58 04.06.2022
3306 Clouds 9 1015 93 10000 0 0 20:21 04.06.2022
3307 Clouds 9 1016 93 10000 0 0 18:18 04.06.2022
3308 Clouds 10 1016 93 10000 0 0 16:42 04.06.2022
3309 Clouds 10 1016 93 10000 0 0 16:18 04.06.2022
3310 Clouds 10 1016 93 10000 0 0 16:18 04.06.2022
3311 Clear 11 1016 87 10000 1.54 130 14:37 04.06.2022
3312 Clear 14 1016 72 10000 2.57 100 11:51 04.06.2022
3313 Clear 16 1015 59 10000 2.57 130 10:57 04.06.2022
3314 Clear 21 1004 32 10000 3.09 120 10:22 04.06.2022
3315 Clear 21 1004 32 10000 3.09 140 09:41 04.06.2022
3316 Clear 21 1004 32 10000 2.57 110 08:40 04.06.2022
3317 Clear 21 1004 32 10000 2.57 130 07:40 04.06.2022
3318 Clear 16 1019 59 10000 5.14 70 04:38 04.06.2022
3319 Clear 6 1020 100 10000 0 0 00:56 04.06.2022
3320 Clear 4 1020 100 10000 0 0 23:53 03.06.2022
3321 Clear 5 1019 100 10000 0 0 22:30 03.06.2022
3322 Clear 5 1019 100 10000 0 0 21:21 03.06.2022
3323 Clear 6 1019 100 10000 0 0 20:33 03.06.2022
3324 Clear 7 1019 100 10000 0 0 17:58 03.06.2022
3325 Clear 7 1020 100 10000 0 0 16:47 03.06.2022
3326 Clear 9 1020 93 10000 0 0 15:18 03.06.2022
3327 Clear 11 1020 87 10000 3.09 160 13:20 03.06.2022
3328 Clear 15 1018 67 10000 3.09 170 11:19 03.06.2022
3329 Clear 18 1017 52 10000 3.6 180 09:38 03.06.2022
3330 Clear 18 1017 52 10000 4.63 190 08:45 03.06.2022
3331 Clouds 17 1017 55 10000 4.12 190 07:26 03.06.2022
3332 Clouds 17 1017 63 10000 4.12 190 06:34 03.06.2022
3333 Clouds 16 1018 67 10000 4.63 190 05:35 03.06.2022
3334 Clouds 14 1017 94 10000 6.17 210 00:28 03.06.2022
3335 Clouds 15 1015 94 10000 4.12 210 22:41 02.06.2022
3336 Clouds 15 1014 100 10000 3.6 210 21:40 02.06.2022
3337 Clouds 16 1014 94 10000 2.57 220 20:22 02.06.2022
3338 Clouds 16 1014 94 10000 0 0 19:46 02.06.2022
3339 Clouds 16 1014 94 10000 2.06 230 19:28 02.06.2022
3340 Clouds 16 1014 94 10000 2.57 210 17:32 02.06.2022
3341 Clouds 16 1014 94 10000 3.6 210 16:27 02.06.2022
3342 Clouds 18 1014 82 10000 0 0 14:19 02.06.2022
3343 Clouds 18 1014 82 10000 0 0 13:29 02.06.2022
3344 Clouds 19 1013 72 10000 0 0 11:24 02.06.2022
3345 Clouds 21 1004 32 10000 3.09 330 10:20 02.06.2022
3346 Clouds 21 1004 32 10000 0 0 09:27 02.06.2022
3347 Clouds 21 1004 32 10000 4.12 300 08:26 02.06.2022
3348 Clouds 20 1012 68 10000 3.6 320 07:21 02.06.2022
3349 Clouds 19 1014 77 10000 2.57 330 04:49 02.06.2022
3350 Clouds 16 1015 88 10000 6.17 330 02:38 02.06.2022
3351 Clouds 14 1015 94 10000 3.09 350 23:47 01.06.2022
3352 Clouds 13 1015 100 10000 3.09 40 22:31 01.06.2022
3353 Clouds 13 1015 100 10000 3.6 60 21:35 01.06.2022
3354 Clouds 12 1015 100 10000 2.57 70 20:40 01.06.2022
3355 Clouds 13 1015 94 10000 2.57 80 19:59 01.06.2022
3356 Clouds 13 1015 94 10000 3.09 80 19:19 01.06.2022
3357 Clouds 12 1016 100 10000 3.6 80 17:44 01.06.2022
3358 Clouds 11 1016 100 10000 3.6 80 16:34 01.06.2022
3359 Clouds 10 1017 100 10000 4.12 70 14:54 01.06.2022
3360 Clouds 10 1017 100 8000 5.14 70 13:51 01.06.2022
3361 Clouds 10 1017 100 10000 6.69 90 12:26 01.06.2022
3362 Clouds 10 1015 100 9000 4.63 80 09:41 01.06.2022
3363 Clouds 10 1015 100 3200 5.66 90 08:40 01.06.2022
3364 Mist 10 1015 100 4200 5.66 90 07:22 01.06.2022
3365 Clouds 10 1016 100 6000 6.69 90 05:23 01.06.2022
3366 Rain 9 1018 100 10000 2.57 70 00:22 01.06.2022
3367 Rain 9 1016 100 10000 6.17 50 23:28 31.05.2022
3368 Clouds 9 1018 100 10000 3.09 40 22:36 31.05.2022
3369 Rain 9 1018 100 10000 2.57 70 21:45 31.05.2022
3370 Rain 10 1018 87 10000 2.57 130 20:45 31.05.2022
3371 Rain 10 1017 87 10000 3.09 110 20:18 31.05.2022
3372 Rain 12 1018 66 10000 0 0 18:52 31.05.2022
3373 Rain 13 1017 50 10000 3.09 70 17:50 31.05.2022
3374 Clouds 13 1017 50 10000 3.6 80 16:56 31.05.2022
3375 Clouds 13 1018 47 10000 2.57 80 15:40 31.05.2022
3376 Clouds 13 1017 47 10000 2.57 110 13:52 31.05.2022
3377 Clouds 14 1017 44 10000 2.57 70 12:20 31.05.2022
3378 Clouds 14 1016 44 10000 0 0 10:53 31.05.2022
3379 Clouds 14 1016 41 10000 3.09 100 08:49 31.05.2022
3380 Clouds 14 1016 44 10000 3.09 90 07:21 31.05.2022
3381 Clouds 14 1019 44 10000 4.63 150 04:53 31.05.2022
3382 Clouds 10 1018 50 10000 0 0 00:26 31.05.2022
3383 Clouds 9 1017 49 10000 2.57 280 23:26 30.05.2022
3384 Clouds 9 1017 49 10000 2.06 250 22:48 30.05.2022
3385 Clouds 8 1016 53 10000 2.57 300 21:51 30.05.2022
3386 Clouds 9 1016 49 10000 2.57 230 21:32 30.05.2022
3387 Clouds 9 1016 49 10000 2.57 220 19:51 30.05.2022
3388 Clouds 11 1016 43 10000 0 0 18:34 30.05.2022
3389 Clouds 12 1016 40 10000 2.57 260 17:24 30.05.2022
3390 Clouds 12 1016 37 10000 0 0 16:39 30.05.2022
3391 Clouds 13 1016 35 10000 2.57 170 13:44 30.05.2022
3392 Clouds 14 1015 30 10000 3.09 190 12:19 30.05.2022
3393 Clouds 16 1014 27 10000 3.6 210 10:26 30.05.2022
3394 Clouds 16 1014 25 10000 3.09 170 09:19 30.05.2022
3395 Clouds 16 1014 25 10000 3.09 170 09:19 30.05.2022
3396 Clouds 17 1014 25 10000 5.66 200 06:30 30.05.2022
3397 Clouds 17 1014 25 10000 6.69 220 05:47 30.05.2022
3398 Clouds 14 1014 35 10000 5.66 200 01:32 30.05.2022
3399 Clouds 18 1010 55 10000 6.69 230 22:50 29.05.2022
3400 Clouds 18 1010 59 10000 7.2 210 22:31 29.05.2022
3401 Clouds 21 1009 52 10000 7.2 240 20:51 29.05.2022
3402 Clouds 22 1008 46 10000 5.66 270 19:30 29.05.2022
3403 Clouds 21 1004 32 10000 8.75 270 18:35 29.05.2022
3404 Clouds 21 1004 32 10000 5.66 260 16:51 29.05.2022
3405 Clouds 21 1004 32 10000 6.69 280 15:47 29.05.2022
3406 Clouds 21 1004 32 10000 7.72 290 14:56 29.05.2022
3407 Clouds 21 1004 32 10000 8.75 300 13:46 29.05.2022
3408 Clouds 21 1004 32 10000 7.72 300 11:31 29.05.2022
3409 Clouds 27 1007 22 10000 7.72 300 10:37 29.05.2022
3410 Clouds 27 1007 24 10000 10.29 310 08:39 29.05.2022
3411 Clouds 25 1010 27 10000 10.29 300 05:22 29.05.2022
3412 Clouds 24 1012 31 10000 5.66 310 04:41 29.05.2022
3413 Clouds 21 1004 32 10000 3.6 290 02:24 29.05.2022
3414 Clouds 19 1012 42 10000 4.63 350 23:48 28.05.2022
3415 Clouds 19 1012 42 10000 3.09 360 23:25 28.05.2022
3416 Clouds 19 1012 42 10000 4.63 330 22:21 28.05.2022
3417 Clouds 20 1012 40 10000 3.6 330 21:19 28.05.2022
3418 Clouds 20 1012 40 10000 3.6 330 21:19 28.05.2022
3419 Clouds 14 1013 54 10000 0.51 360 19:21 28.05.2022
3420 Clouds 21 1004 32 10000 2.57 40 18:40 28.05.2022
3421 Clouds 21 1004 32 10000 1.54 80 17:34 28.05.2022
3422 Clouds 21 1004 32 10000 0 0 16:22 28.05.2022
3423 Clouds 21 1004 32 10000 3.09 80 15:38 28.05.2022
3424 Clouds 21 1004 32 10000 3.6 100 13:42 28.05.2022
3425 Clouds 21 1004 32 10000 3.6 90 12:43 28.05.2022
3426 Clouds 21 1004 32 10000 4.12 70 11:50 28.05.2022
3427 Clouds 24 1013 31 10000 5.14 90 10:41 28.05.2022
3428 Clouds 25 1012 29 10000 5.14 90 09:55 28.05.2022
3429 Clouds 27 1012 26 10000 1.54 110 08:33 28.05.2022
3430 Clouds 26 1013 27 10000 3.09 80 06:53 28.05.2022
3431 Clouds 24 1016 31 10000 1.03 60 05:24 28.05.2022
3432 Clouds 21 1004 32 10000 4.12 80 02:27 28.05.2022
3433 Clouds 12 1017 66 10000 4.12 80 23:58 27.05.2022
3434 Clouds 11 1017 71 10000 2.06 100 22:48 27.05.2022
3435 Clouds 13 1017 62 10000 2.57 100 21:29 27.05.2022
3436 Clouds 13 1017 62 10000 3.09 80 20:45 27.05.2022
3437 Clouds 13 1017 62 10000 3.09 100 20:19 27.05.2022
3438 Clouds 13 1017 62 10000 0 0 19:38 27.05.2022
3439 Clouds 13 1017 62 10000 0 0 19:19 27.05.2022
3440 Clouds 14 1018 58 10000 3.09 70 17:24 27.05.2022
3441 Clouds 15 1018 58 10000 3.6 80 15:57 27.05.2022
3442 Clouds 15 1019 58 10000 3.6 70 14:57 27.05.2022
3443 Clouds 21 1004 32 10000 3.09 110 13:40 27.05.2022
3444 Clouds 21 1004 32 10000 3.09 110 12:20 27.05.2022
3445 Clouds 21 1004 32 10000 3.09 130 11:30 27.05.2022
3446 Clouds 21 1004 32 10000 5.14 100 10:41 27.05.2022
3447 Clouds 21 1004 32 10000 5.66 110 09:59 27.05.2022
3448 Clouds 23 1016 35 10000 5.14 120 09:29 27.05.2022
3449 Clear 23 1016 35 10000 5.66 110 07:30 27.05.2022
3450 Clear 21 1004 32 10000 6.69 80 03:38 27.05.2022
3451 Clear 14 1020 67 10000 0 0 01:19 27.05.2022
3452 Clear 8 1019 87 10000 0 0 23:23 26.05.2022
3453 Clear 8 1019 87 10000 0 0 23:23 26.05.2022
3454 Clear 9 1018 81 10000 0 0 21:53 26.05.2022
3455 Clear 9 1018 81 10000 0 0 21:27 26.05.2022
3456 Clouds 11 1018 71 10000 2.06 100 19:34 26.05.2022
3457 Clouds 13 1018 67 10000 2.06 90 18:31 26.05.2022
3458 Clouds 12 1019 66 10000 0 0 17:36 26.05.2022
3459 Clouds 13 1019 67 10000 0 0 16:18 26.05.2022
3460 Clouds 15 1019 58 10000 0 0 15:19 26.05.2022
3461 Clouds 17 1019 55 10000 2.57 100 13:56 26.05.2022
3462 Clouds 21 1004 32 10000 4.63 120 11:49 26.05.2022
3463 Clear 21 1004 32 10000 4.63 140 10:39 26.05.2022
3464 Clear 25 1016 31 10000 2.57 190 09:38 26.05.2022
3465 Clear 26 1016 29 10000 3.6 90 08:38 26.05.2022
3466 Clear 21 1004 32 10000 3.09 90 05:26 26.05.2022
3467 Clear 21 1004 32 10000 4.63 110 02:19 26.05.2022
3468 Clear 9 1018 81 10000 2.06 310 23:50 25.05.2022
3469 Clouds 10 1018 81 10000 2.57 270 22:51 25.05.2022
3470 Clear 11 1017 71 10000 3.09 340 21:41 25.05.2022
3471 Clear 10 1017 76 10000 2.57 190 20:47 25.05.2022
3472 Clouds 12 1016 66 10000 0 0 19:32 25.05.2022
3473 Clouds 13 1017 67 10000 2.57 300 18:36 25.05.2022
3474 Clouds 13 1017 67 10000 0 0 16:53 25.05.2022
3475 Clouds 21 1004 32 10000 0 0 16:25 25.05.2022
3476 Clouds 21 1004 32 10000 1.54 340 15:36 25.05.2022
3477 Clouds 21 1004 32 10000 0.51 110 14:42 25.05.2022
3478 Clouds 21 1004 32 10000 0.51 110 14:24 25.05.2022
3479 Clouds 21 1004 32 10000 0 0 13:21 25.05.2022
3480 Clouds 21 1004 32 10000 2.09 147 11:32 25.05.2022
3481 Clouds 24 1015 31 10000 2.57 100 10:23 25.05.2022
3482 Clouds 27 1013 25 10000 3.57 268 08:53 25.05.2022
3483 Clouds 27 1014 27 10000 2.66 290 07:23 25.05.2022
3484 Clouds 27 1017 28 10000 2.57 310 05:27 25.05.2022
3485 Clouds 12 1018 71 10000 0 0 00:38 25.05.2022
3486 Clouds 12 1018 76 10000 0 0 23:48 24.05.2022
3487 Clouds 12 1018 71 10000 0 0 22:53 24.05.2022
3488 Clouds 13 1018 67 10000 0 0 21:46 24.05.2022
3489 Clouds 12 1017 76 10000 0 0 21:22 24.05.2022
3490 Clouds 12 1018 71 10000 0 0 20:44 24.05.2022
3491 Clouds 14 1018 67 10000 0 0 18:59 24.05.2022
3492 Clouds 16 1019 59 10000 2.57 90 17:19 24.05.2022
3493 Clouds 21 1004 32 10000 0 0 16:29 24.05.2022
3494 Clouds 21 1004 32 10000 0 0 15:27 24.05.2022
3495 Clouds 21 1004 32 10000 2.57 140 14:36 24.05.2022
3496 Clouds 21 1004 32 10000 3.09 140 13:34 24.05.2022
3497 Clouds 21 1004 32 10000 3.09 120 12:18 24.05.2022
3498 Clouds 25 1016 33 10000 3.6 90 09:50 24.05.2022
3499 Clouds 26 1016 29 10000 2.57 160 08:51 24.05.2022
3500 Clouds 25 1017 31 10000 5.66 180 07:32 24.05.2022
3501 Clouds 26 1018 31 10000 3.09 230 06:27 24.05.2022
3502 Clouds 21 1004 32 10000 3.09 40 02:58 24.05.2022
3503 Clouds 21 1004 32 10000 0 0 01:44 24.05.2022
3504 Clouds 10 1020 76 10000 0 0 23:59 23.05.2022
3505 Clouds 10 1018 76 10000 0 0 22:22 23.05.2022
3506 Clouds 13 1018 71 10000 3.6 90 21:42 23.05.2022
3507 Clouds 12 1018 66 10000 2.06 120 20:45 23.05.2022
3508 Clouds 11 1019 66 10000 1.54 110 19:44 23.05.2022
3509 Clouds 11 1018 66 10000 0 0 19:18 23.05.2022
3510 Clouds 11 1019 66 10000 0 0 18:37 23.05.2022
3511 Clouds 12 1019 62 10000 0 0 17:56 23.05.2022
3512 Clouds 15 1020 55 10000 0 0 15:54 23.05.2022
3513 Clouds 17 1020 48 10000 0 0 13:44 23.05.2022
3514 Clouds 21 1004 32 10000 3.09 120 11:40 23.05.2022
3515 Clouds 21 1004 32 10000 2.57 130 10:44 23.05.2022
3516 Clouds 24 1017 29 10000 3.6 100 09:47 23.05.2022
3517 Clouds 25 1017 25 10000 4.63 110 08:46 23.05.2022
3518 Clouds 21 1004 32 10000 3.6 60 06:49 23.05.2022
3519 Clouds 21 1004 32 10000 3.09 130 06:31 23.05.2022
3520 Clouds 19 1021 52 10000 3.6 80 02:55 23.05.2022
3521 Clouds 15 1021 58 10000 0 0 01:50 23.05.2022
3522 Clouds 10 1021 71 10000 2.06 270 01:23 23.05.2022
3523 Clouds 7 1019 76 10000 0 0 22:48 22.05.2022
3524 Clouds 6 1019 75 10000 0 0 22:21 22.05.2022
3525 Clouds 7 1019 70 10000 0 0 21:50 22.05.2022
3526 Clouds 8 1019 71 10000 0 0 20:42 22.05.2022
3527 Clouds 8 1019 71 10000 0 0 20:20 22.05.2022
3528 Clouds 9 1019 66 10000 0 0 18:58 22.05.2022
3529 Clouds 9 1019 66 10000 2.06 290 18:37 22.05.2022
3530 Clear 9 1019 66 10000 2.06 290 18:18 22.05.2022
3531 Clear 9 1020 66 10000 0 0 16:51 22.05.2022
3532 Clear 11 1020 58 10000 0 0 15:24 22.05.2022
3533 Clear 12 1019 50 10000 0 0 14:36 22.05.2022
3534 Clear 16 1018 44 10000 3.09 110 12:54 22.05.2022
3535 Clear 16 1018 41 10000 3.6 130 12:24 22.05.2022
3536 Clear 21 1004 32 10000 3.09 110 10:45 22.05.2022
3537 Clear 21 1004 32 10000 2.06 140 09:29 22.05.2022
3538 Clear 21 1004 32 10000 1.54 50 07:44 22.05.2022
3539 Clear 21 1004 32 10000 2.57 120 06:41 22.05.2022
3540 Clear 18 1021 36 10000 3.09 100 03:53 22.05.2022
3541 Clear 7 1021 65 10000 2.06 300 00:49 22.05.2022
3542 Clear 4 1020 75 10000 0 0 23:56 21.05.2022
3543 Clear 4 1020 75 10000 2.06 260 23:29 21.05.2022
3544 Clear 6 1020 65 10000 2.06 310 21:59 21.05.2022
3545 Clear 5 1020 65 10000 0 0 21:37 21.05.2022
3546 Clear 7 1020 61 10000 2.06 260 20:41 21.05.2022
3547 Clouds 7 1020 65 10000 2.06 290 19:53 21.05.2022
3548 Clouds 8 1021 61 10000 2.06 290 18:54 21.05.2022
3549 Clouds 9 1021 53 10000 0 0 16:58 21.05.2022
3550 Clear 11 1022 50 10000 2.06 110 14:51 21.05.2022
3551 Clouds 13 1022 44 10000 2.57 110 13:55 21.05.2022
3552 Clouds 13 1022 44 10000 3.6 130 13:25 21.05.2022
3553 Clouds 14 1021 38 10000 4.12 140 12:39 21.05.2022
3554 Clouds 16 1020 31 10000 3.6 140 11:38 21.05.2022
3555 Clouds 21 1004 32 10000 4.63 140 10:21 21.05.2022
3556 Clear 21 1004 32 10000 5.14 140 08:59 21.05.2022
3557 Clear 21 1004 32 10000 4.12 140 08:38 21.05.2022
3558 Clouds 21 1004 32 10000 6.45 129 06:20 21.05.2022
3559 Clouds 11 1024 76 10000 0 0 01:42 21.05.2022
3560 Clear 5 1023 93 10000 0 0 23:35 20.05.2022
3561 Clear 6 1022 87 10000 0 0 22:30 20.05.2022
3562 Clear 6 1022 93 10000 0 0 21:56 20.05.2022
3563 Clear 6 1022 87 10000 0 0 21:19 20.05.2022
3564 Clear 6 1022 93 10000 0 0 20:47 20.05.2022
3565 Clear 7 1022 87 10000 0 0 19:45 20.05.2022
3566 Clear 8 1023 81 10000 0 0 18:53 20.05.2022
3567 Clear 9 1023 81 10000 2.06 130 17:53 20.05.2022
3568 Clear 10 1023 81 10000 0 0 16:23 20.05.2022
3569 Clear 11 1023 76 10000 1.03 90 15:54 20.05.2022
3570 Clear 13 1023 71 10000 2.06 110 14:32 20.05.2022
3571 Clear 14 1023 67 10000 2.57 130 13:59 20.05.2022
3572 Clear 17 1022 55 10000 3.6 150 11:51 20.05.2022
3573 Clear 21 1004 32 10000 4.63 130 10:34 20.05.2022
3574 Clear 21 1004 32 10000 4.63 130 08:59 20.05.2022
3575 Clear 21 1004 32 10000 5.14 110 07:42 20.05.2022
3576 Clear 21 1004 32 10000 3.6 90 06:39 20.05.2022
3577 Clear 21 1004 32 10000 4.12 80 05:39 20.05.2022
3578 Clear 12 1024 82 10000 0 0 01:29 20.05.2022
3579 Clear 6 1022 100 10000 0 0 23:31 19.05.2022
3580 Clear 6 1022 93 10000 0 0 22:34 19.05.2022
3581 Clear 6 1022 100 10000 0 0 21:49 19.05.2022
3582 Clear 6 1022 100 10000 0 0 21:49 19.05.2022
3583 Clear 6 1022 93 10000 0 0 21:23 19.05.2022
3584 Clear 8 1022 93 10000 0 0 20:43 19.05.2022
3585 Clear 9 1022 93 10000 2.06 110 19:54 19.05.2022
3586 Clear 8 1023 93 10000 0 0 18:58 19.05.2022
3587 Clear 11 1023 82 10000 2.06 110 17:35 19.05.2022
3588 Clear 13 1023 71 10000 4.12 130 15:33 19.05.2022
3589 Clouds 14 1023 58 10000 4.12 120 14:30 19.05.2022
3590 Clouds 14 1022 62 10000 2.57 110 13:53 19.05.2022
3591 Clouds 16 1021 55 10000 3.6 120 11:46 19.05.2022
3592 Clouds 21 1004 32 10000 4.63 90 10:25 19.05.2022
3593 Clouds 21 1004 32 10000 5.14 120 08:31 19.05.2022
3594 Clouds 21 1004 32 10000 3.6 100 06:39 19.05.2022
3595 Clouds 21 1004 32 10000 4.63 100 02:57 19.05.2022
3596 Clouds 17 1022 48 10000 4.63 80 00:47 19.05.2022
3597 Clouds 17 1021 45 10000 4.63 90 22:53 18.05.2022
3598 Clouds 17 1020 45 10000 4.63 90 22:35 18.05.2022
3599 Clouds 17 1020 42 10000 3.6 100 21:31 18.05.2022
3600 Clouds 18 1020 42 10000 4.63 90 20:55 18.05.2022
3601 Clouds 18 1020 39 10000 4.63 80 20:19 18.05.2022
3602 Clouds 17 1021 45 10000 1.54 90 18:43 18.05.2022
3603 Clouds 18 1022 34 10000 2.57 140 17:41 18.05.2022
3604 Clouds 18 1022 34 10000 2.57 140 17:23 18.05.2022
3605 Clouds 18 1022 34 10000 0 0 16:35 18.05.2022
3606 Clouds 17 1022 34 10000 0 0 15:42 18.05.2022
3607 Clouds 18 1022 32 10000 0 0 14:54 18.05.2022
3608 Clouds 19 1022 30 10000 2.57 140 13:47 18.05.2022
3609 Clouds 21 1004 32 10000 3.09 140 12:51 18.05.2022
3610 Clouds 21 1004 32 10000 3.6 130 11:37 18.05.2022
3611 Clouds 21 1004 32 10000 3.6 130 11:19 18.05.2022
3612 Clouds 21 1004 32 10000 4.63 130 09:56 18.05.2022
3613 Clouds 21 1004 32 10000 5.14 100 07:54 18.05.2022
3614 Clouds 21 1004 32 10000 5.14 100 06:48 18.05.2022
3615 Clouds 21 1004 32 10000 3.6 100 02:23 18.05.2022
3616 Clouds 14 1021 44 10000 1.03 90 00:23 18.05.2022
3617 Clouds 13 1020 47 10000 3.6 80 22:18 17.05.2022
3618 Clouds 14 1020 44 10000 3.09 100 21:20 17.05.2022
3619 Clouds 15 1020 41 10000 4.63 90 20:22 17.05.2022
3620 Clouds 15 1020 47 10000 0 0 19:28 17.05.2022
3621 Clouds 16 1020 44 10000 3.09 100 17:52 17.05.2022
3622 Clouds 16 1021 44 10000 3.6 90 17:18 17.05.2022
3623 Clouds 17 1021 42 10000 3.6 90 16:31 17.05.2022
3624 Clouds 18 1021 39 10000 3.6 90 15:32 17.05.2022
3625 Clouds 17 1021 42 10000 2.06 60 14:30 17.05.2022
3626 Clouds 17 1020 42 10000 1.54 100 13:37 17.05.2022
3627 Clouds 21 1004 32 10000 3.6 100 11:58 17.05.2022
3628 Clouds 25 1018 25 10000 6.17 100 09:38 17.05.2022
3629 Clear 26 1018 24 10000 5.66 100 08:36 17.05.2022
3630 Clear 25 1019 23 10000 5.66 100 06:50 17.05.2022
3631 Clouds 21 1004 32 10000 7.2 90 03:45 17.05.2022
3632 Clouds 14 1022 51 10000 3.6 90 00:45 17.05.2022
3633 Clouds 13 1020 54 10000 3.6 100 22:44 16.05.2022
3634 Clouds 14 1020 54 10000 2.57 60 21:45 16.05.2022
3635 Clouds 13 1019 62 10000 1.54 80 20:48 16.05.2022
3636 Clouds 11 1020 66 10000 0 0 19:49 16.05.2022
3637 Clouds 11 1020 66 10000 0 0 18:21 16.05.2022
3638 Clear 14 1021 58 10000 0 0 15:53 16.05.2022
3639 Clear 17 1020 48 10000 2.57 100 14:26 16.05.2022
3640 Clouds 19 1020 42 10000 3.09 110 13:23 16.05.2022
3641 Clouds 21 1004 32 10000 4.12 120 11:31 16.05.2022
3642 Clouds 21 1004 32 10000 6.69 110 09:47 16.05.2022
3643 Clouds 25 1018 33 10000 5.14 120 06:58 16.05.2022
3644 Clouds 21 1004 32 10000 7.2 90 03:58 16.05.2022
3645 Clouds 14 1019 67 10000 3.09 150 23:38 15.05.2022
3646 Clouds 15 1018 63 10000 2.06 170 22:32 15.05.2022
3647 Clouds 14 1018 67 10000 2.57 140 21:47 15.05.2022
3648 Clouds 15 1018 63 10000 2.06 150 20:57 15.05.2022
3649 Clouds 15 1017 63 10000 2.57 170 19:52 15.05.2022
3650 Clouds 17 1018 59 10000 0 0 17:52 15.05.2022
3651 Clouds 18 1018 55 10000 0 0 16:29 15.05.2022
3652 Clouds 21 1004 32 10000 3.09 130 13:58 15.05.2022
3653 Clouds 21 1004 32 10000 2.57 130 12:50 15.05.2022
3654 Clouds 21 1004 32 10000 3.09 140 11:40 15.05.2022
3655 Clouds 25 1016 36 10000 4.12 140 10:27 15.05.2022
3656 Clouds 25 1016 36 10000 3.09 140 08:46 15.05.2022
3657 Clouds 26 1016 34 10000 5.14 140 06:58 15.05.2022
3658 Clear 24 1017 43 10000 4.12 110 05:52 15.05.2022
3659 Clouds 15 1019 72 10000 0 0 00:49 15.05.2022
3660 Clouds 13 1018 71 10000 2.57 190 23:39 14.05.2022
3661 Clouds 13 1018 71 10000 3.09 200 22:59 14.05.2022
3662 Clouds 14 1017 67 10000 2.57 190 21:29 14.05.2022
3663 Clouds 14 1017 67 10000 2.57 210 20:53 14.05.2022
3664 Clear 15 1017 58 10000 2.57 210 19:38 14.05.2022
3665 Clear 15 1017 58 10000 2.57 210 19:19 14.05.2022
3666 Clear 16 1016 55 10000 3.09 230 18:44 14.05.2022
3667 Clear 21 1004 32 10000 0 0 16:46 14.05.2022
3668 Clear 21 1004 32 10000 2.57 130 15:30 14.05.2022
3669 Clear 21 1004 32 10000 0 0 14:34 14.05.2022
3670 Clouds 21 1004 32 10000 0 0 12:24 14.05.2022
3671 Clouds 28 1013 24 10000 2.57 170 10:59 14.05.2022
3672 Clouds 31 1012 20 10000 2.57 160 10:21 14.05.2022
3673 Clouds 32 1012 19 10000 3.6 190 09:53 14.05.2022
3674 Clouds 32 1012 19 10000 2.57 210 08:49 14.05.2022
3675 Clouds 32 1012 20 10000 3.6 210 06:41 14.05.2022
3676 Clouds 26 1015 25 10000 0 0 02:39 14.05.2022
3677 Clouds 13 1014 50 10000 0 0 23:36 13.05.2022
3678 Clouds 14 1014 44 10000 4.12 320 22:58 13.05.2022
3679 Clouds 17 1013 39 10000 2.57 340 22:25 13.05.2022
3680 Clouds 12 1013 54 10000 0 0 21:39 13.05.2022
3681 Clouds 12 1013 54 10000 0 0 20:44 13.05.2022
3682 Clouds 16 1013 41 10000 2.06 320 20:24 13.05.2022
3683 Clouds 12 1013 54 10000 1.54 250 19:25 13.05.2022
3684 Clouds 13 1014 47 10000 0 0 17:50 13.05.2022
3685 Clouds 13 1014 47 10000 0 0 17:50 13.05.2022
3686 Clouds 21 1004 32 10000 0 0 17:27 13.05.2022
3687 Clouds 21 1004 32 10000 2.06 90 16:18 13.05.2022
3688 Clear 21 1004 32 10000 1.03 310 15:20 13.05.2022
3689 Clouds 21 1004 32 10000 2.57 350 13:29 13.05.2022
3690 Clear 21 1004 32 10000 2.06 340 12:25 13.05.2022
3691 Clear 21 1004 32 10000 0 0 10:46 13.05.2022
3692 Clear 28 1012 18 10000 3.09 270 09:31 13.05.2022
3693 Clear 29 1012 18 10000 3.09 290 08:23 13.05.2022
3694 Clear 28 1012 20 10000 3.09 310 07:42 13.05.2022
3695 Clear 26 1013 22 10000 3.09 310 05:59 13.05.2022
3696 Clear 21 1004 32 10000 1.54 20 02:43 13.05.2022
3697 Clouds 6 1016 75 10000 0 0 23:44 12.05.2022
3698 Clouds 7 1015 76 10000 0 0 22:44 12.05.2022
3699 Clouds 6 1014 75 10000 0 0 21:46 12.05.2022
3700 Clouds 7 1014 70 10000 0 0 20:23 12.05.2022
3701 Clouds 9 1015 66 10000 1.03 280 18:31 12.05.2022
3702 Clouds 9 1016 61 10000 0 0 16:57 12.05.2022
3703 Clouds 11 1016 58 10000 2.57 70 15:49 12.05.2022
3704 Clouds 14 1016 47 10000 3.09 90 13:59 12.05.2022
3705 Clouds 15 1015 41 10000 3.6 80 13:21 12.05.2022
3706 Clouds 22 1014 26 10000 3.09 150 10:35 12.05.2022
3707 Clouds 21 1004 32 10000 1.03 170 08:58 12.05.2022
3708 Clouds 21 1004 32 10000 1.03 10 08:39 12.05.2022
3709 Clouds 21 1004 32 10000 2.06 180 07:37 12.05.2022
3710 Clouds 21 1004 32 10000 1.54 150 05:30 12.05.2022
3711 Clouds 15 1018 72 10000 0 0 02:21 12.05.2022
3712 Clouds 4 1017 81 10000 2.57 280 23:55 11.05.2022
3713 Clouds 4 1016 81 10000 2.06 310 22:29 11.05.2022
3714 Clouds 6 1016 70 10000 0 0 21:29 11.05.2022
3715 Clouds 6 1016 75 10000 1.03 250 20:48 11.05.2022
3716 Clouds 7 1016 65 10000 1.03 100 17:56 11.05.2022
3717 Clouds 8 1017 61 10000 0 0 16:49 11.05.2022
3718 Clouds 10 1018 62 10000 0.51 190 14:50 11.05.2022
3719 Clouds 11 1017 54 10000 2.06 160 14:26 11.05.2022
3720 Clouds 13 1017 50 10000 2.57 150 13:44 11.05.2022
3721 Clouds 16 1016 41 10000 3.09 150 11:50 11.05.2022
3722 Clouds 21 1004 32 10000 4.63 110 09:39 11.05.2022
3723 Clouds 21 1004 32 10000 3.6 150 07:52 11.05.2022
3724 Clear 21 1004 32 10000 4.12 100 03:38 11.05.2022
3725 Clear 6 1018 70 10000 2.57 270 23:45 10.05.2022
3726 Clear 6 1018 75 10000 0 0 22:30 10.05.2022
3727 Clear 6 1018 70 10000 0.51 260 21:43 10.05.2022
3728 Clear 7 1018 70 10000 2.06 260 20:48 10.05.2022
3729 Clear 7 1018 70 10000 0 0 19:18 10.05.2022
3730 Clear 8 1019 71 10000 0 0 17:44 10.05.2022
3731 Clear 10 1020 66 10000 3.09 170 16:39 10.05.2022
3732 Clear 13 1019 58 10000 2.57 160 13:54 10.05.2022
3733 Clear 15 1018 51 10000 3.09 140 12:30 10.05.2022
3734 Clear 18 1018 45 10000 3.6 130 11:42 10.05.2022
3735 Clear 18 1018 45 10000 3.6 130 11:18 10.05.2022
3736 Clear 21 1004 32 10000 5.66 140 09:52 10.05.2022
3737 Clear 21 1004 32 10000 5.66 140 08:29 10.05.2022
3738 Clear 21 1004 32 10000 5.66 120 06:21 10.05.2022
3739 Clear 15 1020 44 10000 5.14 110 02:31 10.05.2022
3740 Clouds 8 1019 66 10000 2.57 200 23:55 09.05.2022
3741 Clear 10 1019 57 10000 3.09 150 22:42 09.05.2022
3742 Clouds 12 1019 50 10000 3.6 140 21:48 09.05.2022
3743 Clouds 14 1019 44 10000 3.6 120 20:22 09.05.2022
3744 Clouds 11 1020 50 10000 3.09 130 18:29 09.05.2022
3745 Clouds 13 1020 44 10000 3.09 170 17:27 09.05.2022
3746 Clouds 11 1021 50 10000 3.09 160 16:21 09.05.2022
3747 Clouds 12 1021 47 10000 2.57 180 15:47 09.05.2022
3748 Clouds 14 1021 38 10000 2.57 180 14:41 09.05.2022
3749 Clouds 15 1021 36 10000 2.57 180 13:59 09.05.2022
3750 Clouds 15 1021 36 10000 3.09 190 13:23 09.05.2022
3751 Clouds 16 1020 31 10000 3.6 160 11:53 09.05.2022
3752 Clouds 15 1019 41 10000 2.57 170 10:48 09.05.2022
3753 Clouds 16 1019 36 10000 3.6 160 10:26 09.05.2022
3754 Clouds 21 1004 32 10000 4.63 120 07:57 09.05.2022
3755 Clouds 21 1004 32 10000 3.6 160 05:59 09.05.2022
3756 Clouds 10 1021 46 10000 3.09 270 01:59 09.05.2022
3757 Clouds 7 1020 53 10000 0 0 23:29 08.05.2022
3758 Clouds 7 1020 53 10000 2.57 250 22:32 08.05.2022
3759 Clouds 6 1019 56 10000 2.06 320 21:24 08.05.2022
3760 Clouds 5 1019 60 10000 1.54 240 20:25 08.05.2022
3761 Clouds 5 1019 56 10000 2.06 280 19:33 08.05.2022
3762 Clouds 5 1020 56 10000 0 0 18:40 08.05.2022
3763 Clouds 6 1020 49 10000 0 0 17:40 08.05.2022
3764 Clouds 7 1020 49 10000 0 0 16:22 08.05.2022
3765 Clouds 8 1021 46 10000 0 0 15:22 08.05.2022
3766 Clouds 12 1020 32 10000 3.09 130 12:49 08.05.2022
3767 Clouds 15 1020 29 10000 3.09 130 11:45 08.05.2022
3768 Clouds 21 1004 32 10000 4.63 120 10:25 08.05.2022
3769 Clouds 21 1004 32 10000 4.63 140 09:53 08.05.2022
3770 Clear 21 1004 32 10000 6.17 110 07:44 08.05.2022
3771 Clear 21 1004 32 10000 6.69 110 05:57 08.05.2022
3772 Clear 15 1023 38 10000 7.2 100 03:22 08.05.2022
3773 Clear 6 1023 65 10000 0 0 00:48 08.05.2022
3774 Clear 2 1022 80 10000 2.57 270 23:56 07.05.2022
3775 Clear 1 1022 80 10000 2.57 270 23:28 07.05.2022
3776 Clear 2 1022 75 10000 0 0 22:35 07.05.2022
3777 Clear 3 1022 70 10000 0 0 21:55 07.05.2022
3778 Clear 2 1022 69 10000 0 0 21:20 07.05.2022
3779 Clear 3 1022 70 10000 0 0 20:23 07.05.2022
3780 Clear 5 1023 60 10000 0 0 18:41 07.05.2022
3781 Clear 6 1023 56 10000 1.54 170 16:24 07.05.2022
3782 Clear 8 1024 53 10000 2.57 170 14:51 07.05.2022
3783 Clear 15 1022 33 10000 3.6 120 11:21 07.05.2022
3784 Clear 21 1004 32 10000 7.2 120 09:39 07.05.2022
3785 Clear 21 1004 32 10000 7.2 110 08:28 07.05.2022
3786 Clear 21 1004 32 10000 5.66 130 06:44 07.05.2022
3787 Clear 21 1004 32 10000 5.66 130 06:24 07.05.2022
3788 Clear 15 1024 38 10000 7.2 120 03:54 07.05.2022
3789 Clouds 2 1023 75 10000 0 0 23:41 06.05.2022
3790 Clouds 3 1023 75 10000 0 0 22:34 06.05.2022
3791 Clouds 4 1023 70 10000 1.54 130 21:47 06.05.2022
3792 Clouds 5 1022 65 10000 0 0 20:39 06.05.2022
3793 Clouds 6 1023 61 10000 0 0 19:43 06.05.2022
3794 Clouds 6 1023 61 10000 0 0 19:19 06.05.2022
3795 Clouds 8 1023 53 10000 3.6 160 18:25 06.05.2022
3796 Clouds 9 1023 49 10000 3.6 160 17:27 06.05.2022
3797 Clouds 10 1024 46 10000 2.57 160 15:49 06.05.2022
3798 Clouds 11 1023 43 10000 2.57 130 14:58 06.05.2022
3799 Clouds 13 1023 38 10000 3.6 130 13:31 06.05.2022
3800 Clouds 13 1022 38 10000 3.6 140 12:41 06.05.2022
3801 Clouds 13 1022 38 10000 3.6 140 11:49 06.05.2022
3802 Clouds 16 1021 29 10000 5.66 130 10:34 06.05.2022
3803 Clouds 17 1021 27 10000 5.14 140 09:46 06.05.2022
3804 Clouds 21 1004 32 10000 5.14 150 08:43 06.05.2022
3805 Clouds 17 1021 29 10000 4.63 100 06:50 06.05.2022
3806 Clouds 16 1022 31 10000 6.17 110 05:37 06.05.2022
3807 Clouds 14 1025 41 10000 7.2 120 02:50 06.05.2022
3808 Clear 5 1024 65 10000 0 0 00:26 06.05.2022
3809 Clear 3 1023 70 10000 0 0 22:32 05.05.2022
3810 Clear 4 1022 65 10000 3.09 170 21:22 05.05.2022
3811 Clear 5 1022 60 10000 3.09 170 19:55 05.05.2022
3812 Clear 6 1022 61 10000 3.6 160 18:34 05.05.2022
3813 Clear 8 1023 57 10000 2.57 140 16:33 05.05.2022
3814 Clear 10 1023 53 10000 3.09 130 14:50 05.05.2022
3815 Clear 12 1023 54 10000 3.6 130 13:22 05.05.2022
3816 Clear 13 1023 50 10000 3.6 140 12:49 05.05.2022
3817 Clear 17 1021 39 10000 5.14 130 10:48 05.05.2022
3818 Clear 21 1004 32 10000 5.66 120 09:40 05.05.2022
3819 Clouds 21 1004 32 10000 6.17 160 07:35 05.05.2022
3820 Clouds 21 1004 32 10000 6.69 130 05:19 05.05.2022
3821 Clouds 14 1024 62 10000 7.72 120 01:56 05.05.2022
3822 Clouds 14 1024 62 10000 7.72 140 01:27 05.05.2022
3823 Clouds 15 1022 55 10000 6.69 130 23:50 04.05.2022
3824 Clouds 16 1022 55 10000 6.17 140 22:42 04.05.2022
3825 Clouds 16 1022 55 10000 5.66 130 21:50 04.05.2022
3826 Clouds 16 1021 55 10000 6.69 140 21:26 04.05.2022
3827 Clouds 16 1021 59 10000 4.63 140 20:24 04.05.2022
3828 Clouds 16 1021 59 10000 5.66 150 19:53 04.05.2022
3829 Clouds 17 1022 59 10000 4.63 150 18:56 04.05.2022
3830 Clouds 17 1021 59 10000 6.17 140 18:22 04.05.2022
3831 Clouds 18 1021 55 10000 6.69 150 17:38 04.05.2022
3832 Clouds 19 1022 42 10000 4.12 140 15:40 04.05.2022
3833 Clouds 19 1021 37 10000 3.6 140 15:22 04.05.2022
3834 Clouds 18 1021 36 10000 2.57 140 14:21 04.05.2022
3835 Clouds 20 1020 32 10000 3.09 130 13:26 04.05.2022
3836 Clouds 21 1020 30 10000 4.12 120 12:29 04.05.2022
3837 Clouds 23 1018 27 10000 3.6 130 10:40 04.05.2022
3838 Clouds 23 1018 28 10000 4.63 110 09:43 04.05.2022
3839 Clouds 24 1018 29 10000 4.63 150 08:41 04.05.2022
3840 Clouds 25 1017 27 10000 5.66 150 06:41 04.05.2022
3841 Clouds 22 1020 33 10000 4.12 90 02:58 04.05.2022
3842 Clouds 14 1018 67 10000 0 0 00:33 04.05.2022
3843 Clouds 14 1017 67 10000 0 0 22:34 03.05.2022
3844 Clouds 15 1017 67 10000 0 0 21:43 03.05.2022
3845 Clouds 15 1017 63 10000 0.51 180 20:53 03.05.2022
3846 Clouds 18 1017 52 10000 0 0 19:57 03.05.2022
3847 Clouds 18 1017 52 10000 2.06 140 18:52 03.05.2022
3848 Clouds 19 1017 48 10000 2.57 130 18:20 03.05.2022
3849 Clouds 19 1018 52 10000 2.06 80 16:37 03.05.2022
3850 Clouds 20 1018 49 10000 2.57 110 15:35 03.05.2022
3851 Clouds 23 1018 43 10000 2.57 120 12:47 03.05.2022
3852 Clouds 23 1017 46 10000 2.57 140 12:27 03.05.2022
3853 Clouds 24 1016 43 10000 2.57 160 10:57 03.05.2022
3854 Clouds 25 1016 41 10000 3.6 180 09:29 03.05.2022
3855 Clouds 24 1017 38 10000 2.57 220 06:46 03.05.2022
3856 Clouds 23 1017 40 10000 2.57 230 05:58 03.05.2022
3857 Clouds 16 1018 55 10000 0 0 00:32 03.05.2022
3858 Clouds 15 1018 58 10000 0 0 22:36 02.05.2022
3859 Clouds 15 1017 58 10000 0 0 21:52 02.05.2022
3860 Clouds 18 1017 48 10000 2.57 110 20:51 02.05.2022
3861 Clouds 20 1017 42 10000 3.6 70 18:37 02.05.2022
3862 Clouds 20 1018 45 10000 3.6 80 17:57 02.05.2022
3863 Clouds 20 1018 45 10000 3.09 70 17:34 02.05.2022
3864 Clouds 21 1018 43 10000 3.6 100 16:21 02.05.2022
3865 Clouds 21 1018 40 10000 5.14 110 15:30 02.05.2022
3866 Clouds 21 1018 40 10000 5.14 110 15:30 02.05.2022
3867 Clouds 22 1019 37 10000 3.09 130 13:50 02.05.2022
3868 Clouds 22 1018 37 10000 3.09 130 12:19 02.05.2022
3869 Clouds 23 1017 35 10000 4.12 140 10:38 02.05.2022
3870 Clouds 25 1017 33 10000 3.09 100 08:49 02.05.2022
3871 Clouds 25 1017 33 10000 3.6 120 07:39 02.05.2022
3872 Clouds 25 1017 33 10000 3.6 120 07:39 02.05.2022
3873 Clouds 21 1021 40 10000 4.63 100 03:48 02.05.2022
3874 Clouds 14 1021 72 10000 0 0 00:24 02.05.2022
3875 Clouds 13 1021 71 10000 2.06 90 23:47 01.05.2022
3876 Clouds 14 1021 72 10000 0.51 150 22:20 01.05.2022
3877 Clouds 13 1020 76 10000 0 0 21:18 01.05.2022
3878 Clouds 13 1020 71 10000 0 0 19:50 01.05.2022
3879 Clouds 14 1021 67 10000 2.06 150 18:55 01.05.2022
3880 Clouds 14 1021 67 10000 0 0 18:22 01.05.2022
3881 Clouds 15 1021 67 10000 3.09 140 17:18 01.05.2022
3882 Clouds 16 1021 63 10000 1.03 60 16:23 01.05.2022
3883 Clouds 15 1022 63 10000 2.06 120 15:24 01.05.2022
3884 Clouds 18 1021 55 10000 3.09 140 13:42 01.05.2022
3885 Clouds 20 1020 52 10000 4.12 140 10:53 01.05.2022
3886 Clouds 21 1020 52 10000 5.14 130 08:53 01.05.2022
3887 Clouds 21 1020 52 10000 5.14 130 08:53 01.05.2022
3888 Clouds 21 1020 52 10000 4.63 120 07:53 01.05.2022
3889 Clouds 18 1023 63 10000 5.66 120 03:26 01.05.2022
3890 Clouds 14 1023 72 10000 2.57 150 23:49 30.04.2022
3891 Clouds 14 1022 72 10000 3.6 140 21:44 30.04.2022
3892 Clouds 14 1022 77 10000 3.09 130 20:36 30.04.2022
3893 Clouds 14 1022 72 10000 2.57 140 19:41 30.04.2022
3894 Clear 17 1023 63 10000 4.63 130 17:44 30.04.2022
3895 Clear 18 1024 59 10000 4.63 130 16:37 30.04.2022
3896 Clouds 21 1004 32 10000 6.17 130 15:24 30.04.2022
3897 Clouds 21 1004 32 10000 6.69 120 14:34 30.04.2022
3898 Clouds 21 1004 32 10000 5.14 110 12:40 30.04.2022
3899 Clouds 21 1004 32 10000 5.66 130 11:33 30.04.2022
3900 Clouds 21 1004 32 10000 7.2 120 10:40 30.04.2022
3901 Clouds 25 1020 44 10000 6.69 130 08:54 30.04.2022
3902 Clouds 23 1021 53 10000 5.66 120 05:51 30.04.2022
3903 Clouds 21 1004 32 10000 6.17 150 01:51 30.04.2022
3904 Clouds 17 1022 82 10000 4.63 150 23:37 29.04.2022
3905 Clouds 16 1021 82 10000 4.12 150 22:31 29.04.2022
3906 Clear 16 1021 82 10000 4.12 150 21:27 29.04.2022
3907 Clear 16 1021 82 10000 3.6 150 20:39 29.04.2022
3908 Clouds 17 1021 77 10000 4.12 150 19:38 29.04.2022
3909 Clouds 21 1004 32 10000 3.6 150 17:50 29.04.2022
3910 Clouds 21 1004 32 10000 4.12 150 16:56 29.04.2022
3911 Clouds 21 1004 32 10000 5.14 160 14:57 29.04.2022
3912 Clouds 21 1004 32 10000 6.17 160 14:20 29.04.2022
3913 Clouds 21 1004 32 10000 7.72 180 12:43 29.04.2022
3914 Clouds 28 1016 32 10000 7.72 170 10:59 29.04.2022
3915 Clouds 34 1013 18 10000 3.09 190 08:33 29.04.2022
3916 Clouds 35 1013 16 10000 0.51 330 07:27 29.04.2022
3917 Clear 35 1014 16 10000 2.06 300 06:37 29.04.2022
3918 Clear 32 1017 19 10000 4.63 340 03:34 29.04.2022
3919 Clouds 21 1004 32 10000 2.57 180 00:18 29.04.2022
3920 Clouds 21 1004 32 10000 2.06 80 23:26 28.04.2022
3921 Clouds 21 1004 32 10000 2.57 50 22:40 28.04.2022
3922 Clouds 21 1004 32 10000 0 0 21:46 28.04.2022
3923 Clouds 21 1004 32 10000 0 0 20:51 28.04.2022
3924 Clouds 21 1004 32 10000 3.09 80 19:59 28.04.2022
3925 Clouds 21 1004 32 10000 3.6 60 19:40 28.04.2022
3926 Clouds 21 1004 32 10000 3.6 60 19:20 28.04.2022
3927 Clouds 21 1014 46 10000 3.09 50 17:56 28.04.2022
3928 Clouds 20 1015 52 10000 1.03 340 16:59 28.04.2022
3929 Clouds 20 1015 52 10000 0 0 16:21 28.04.2022
3930 Clouds 20 1014 52 10000 0 0 15:57 28.04.2022
3931 Clouds 21 1015 49 10000 1.54 90 15:23 28.04.2022
3932 Clouds 24 1014 41 10000 0 0 13:43 28.04.2022
3933 Clouds 25 1013 38 10000 0 0 12:37 28.04.2022
3934 Clouds 27 1013 32 10000 0 0 11:51 28.04.2022
3935 Clouds 32 1012 23 10000 1.54 250 10:30 28.04.2022
3936 Clouds 33 1011 21 10000 3.6 260 09:51 28.04.2022
3937 Clouds 33 1012 22 10000 2.06 340 07:45 28.04.2022
3938 Clouds 32 1012 23 10000 3.6 350 06:56 28.04.2022
3939 Clouds 32 1013 23 10000 4.63 310 05:54 28.04.2022
3940 Clear 31 1013 23 10000 6.69 350 04:44 28.04.2022
3941 Clear 30 1014 26 10000 6.69 340 03:40 28.04.2022
3942 Clear 22 1013 40 10000 6.69 20 23:52 27.04.2022
3943 Clear 22 1011 37 10000 4.63 10 22:30 27.04.2022
3944 Clear 22 1011 37 10000 3.6 20 21:50 27.04.2022
3945 Clear 22 1011 40 10000 4.12 40 20:56 27.04.2022
3946 Clear 21 1011 43 10000 4.12 30 20:34 27.04.2022
3947 Clear 21 1011 43 10000 4.12 30 20:34 27.04.2022
3948 Clouds 22 1011 40 10000 4.12 20 19:37 27.04.2022
3949 Clouds 21 1012 46 10000 0 0 18:52 27.04.2022
3950 Clouds 21 1012 46 10000 1.03 70 18:21 27.04.2022
3951 Clouds 21 1012 46 10000 3.09 70 16:23 27.04.2022
3952 Clouds 22 1011 40 10000 3.6 120 13:51 27.04.2022
3953 Clouds 27 1010 29 10000 0 0 11:39 27.04.2022
3954 Clouds 27 1010 29 10000 0 0 11:18 27.04.2022
3955 Clouds 32 1009 20 10000 3.09 250 08:53 27.04.2022
3956 Clouds 31 1010 22 10000 4.12 270 06:45 27.04.2022
3957 Clouds 26 1014 34 10000 3.6 340 03:30 27.04.2022
3958 Clouds 21 1004 32 10000 3.09 340 01:27 27.04.2022
3959 Clouds 12 1013 82 10000 2.57 290 00:35 27.04.2022
3960 Clouds 11 1013 76 10000 0 0 23:24 26.04.2022
3961 Clouds 11 1013 82 10000 0 0 22:52 26.04.2022
3962 Clouds 11 1012 76 10000 0 0 22:32 26.04.2022
3963 Clouds 13 1012 76 10000 0 0 21:25 26.04.2022
3964 Clouds 12 1012 76 10000 0 0 20:40 26.04.2022
3965 Clouds 12 1012 76 10000 0 0 20:40 26.04.2022
3966 Clouds 13 1012 71 10000 0 0 19:48 26.04.2022
3967 Clouds 13 1012 71 10000 2.06 100 19:26 26.04.2022
3968 Clouds 14 1012 72 10000 0 0 18:40 26.04.2022
3969 Clouds 13 1012 71 10000 2.06 40 17:42 26.04.2022
3970 Clear 15 1012 67 10000 2.57 100 15:59 26.04.2022
3971 Clouds 19 1012 52 10000 2.57 90 13:58 26.04.2022
3972 Clouds 19 1012 52 10000 3.09 70 13:29 26.04.2022
3973 Clouds 23 1010 38 10000 3.6 110 11:29 26.04.2022
3974 Clouds 26 1010 31 10000 4.12 90 10:31 26.04.2022
3975 Clouds 27 1010 29 10000 2.06 160 08:38 26.04.2022
3976 Clouds 25 1012 44 10000 2.57 70 05:29 26.04.2022
3977 Clouds 23 1013 53 10000 3.09 90 04:23 26.04.2022
3978 Clouds 13 1013 100 10000 0 0 00:52 26.04.2022
3979 Clouds 11 1013 100 10000 0 0 23:51 25.04.2022
3980 Clouds 11 1012 100 10000 0 0 21:57 25.04.2022
3981 Clouds 11 1012 100 10000 0 0 21:33 25.04.2022
3982 Clouds 12 1011 94 10000 0 0 19:58 25.04.2022
3983 Clouds 13 1012 94 10000 0 0 18:48 25.04.2022
3984 Clouds 12 1013 94 10000 0 0 17:40 25.04.2022
3985 Clouds 13 1013 94 10000 0 0 16:44 25.04.2022
3986 Clear 14 1014 88 10000 0 0 15:23 25.04.2022
3987 Clear 16 1014 88 10000 0 0 14:34 25.04.2022
3988 Clouds 17 1013 82 10000 2.57 130 12:49 25.04.2022
3989 Clouds 21 1013 68 10000 4.12 140 10:44 25.04.2022
3990 Clouds 23 1012 56 10000 4.63 140 09:42 25.04.2022
3991 Clouds 22 1012 60 10000 4.12 170 07:49 25.04.2022
3992 Clouds 21 1014 68 10000 3.09 170 05:54 25.04.2022
3993 Clouds 17 1016 94 10000 3.6 140 01:28 25.04.2022
3994 Clouds 16 1016 100 10000 3.09 140 23:54 24.04.2022
3995 Clouds 16 1015 100 3900 2.57 150 23:24 24.04.2022
3996 Clouds 16 1015 100 10000 0 0 22:39 24.04.2022
3997 Clouds 16 1015 100 7000 1.54 170 21:56 24.04.2022
3998 Clouds 16 1015 100 6000 2.06 160 21:22 24.04.2022
3999 Clouds 16 1015 100 10000 2.06 140 20:46 24.04.2022
4000 Clouds 16 1015 100 10000 2.06 110 20:20 24.04.2022
4001 Clouds 17 1016 94 10000 3.6 90 18:38 24.04.2022
4002 Clouds 17 1016 94 10000 3.09 70 17:49 24.04.2022
4003 Clouds 17 1016 94 10000 4.63 90 17:21 24.04.2022
4004 Clouds 17 1017 94 10000 3.6 80 16:51 24.04.2022
4005 Clouds 21 1004 32 10000 6.17 100 16:25 24.04.2022
4006 Clouds 21 1004 32 10000 5.66 120 15:39 24.04.2022
4007 Clouds 21 1004 32 10000 4.63 110 14:33 24.04.2022
4008 Clouds 21 1004 32 10000 4.63 110 14:33 24.04.2022
4009 Clouds 21 1004 32 10000 4.63 100 13:26 24.04.2022
4010 Clouds 21 1004 32 6000 5.66 100 12:55 24.04.2022
4011 Clouds 21 1004 32 10000 8.23 100 11:49 24.04.2022
4012 Clouds 21 1004 32 10000 7.72 120 10:37 24.04.2022
4013 Clouds 21 1004 32 10000 7.72 120 10:37 24.04.2022
4014 Clouds 21 1004 32 10000 7.72 110 09:43 24.04.2022
4015 Clouds 21 1004 32 10000 5.66 140 07:42 24.04.2022
4016 Clouds 21 1004 32 10000 3.6 130 05:38 24.04.2022
4017 Clouds 21 1004 32 10000 4.12 170 01:58 24.04.2022
4018 Clouds 18 1019 48 10000 3.6 170 00:45 24.04.2022
4019 Clouds 14 1019 62 10000 3.6 190 23:46 23.04.2022
4020 Clouds 15 1018 58 10000 3.6 170 23:25 23.04.2022
4021 Clouds 15 1018 63 10000 2.57 180 21:56 23.04.2022
4022 Clouds 16 1018 55 10000 2.57 160 21:36 23.04.2022
4023 Clouds 16 1018 59 10000 2.57 140 20:59 23.04.2022
4024 Clouds 21 1004 32 10000 3.09 130 19:55 23.04.2022
4025 Clouds 21 1004 32 10000 3.09 130 19:20 23.04.2022
4026 Clouds 21 1004 32 10000 4.12 130 18:53 23.04.2022
4027 Clouds 19 1019 48 10000 3.6 150 18:28 23.04.2022
4028 Clouds 20 1019 42 10000 3.6 140 17:43 23.04.2022
4029 Clouds 19 1019 45 10000 2.57 150 16:43 23.04.2022
4030 Clouds 21 1004 32 10000 3.09 130 15:35 23.04.2022
4031 Clouds 21 1004 32 10000 3.6 130 12:54 23.04.2022
4032 Clouds 21 1004 32 10000 4.63 110 10:53 23.04.2022
4033 Clouds 21 1004 32 10000 5.66 130 09:38 23.04.2022
4034 Clouds 24 1018 31 10000 5.66 140 07:38 23.04.2022
4035 Clouds 21 1004 32 10000 6.69 120 03:54 23.04.2022
4036 Clouds 21 1004 32 10000 4.63 130 01:55 23.04.2022
4037 Clouds 12 1021 62 10000 3.09 140 23:33 22.04.2022
4038 Clouds 12 1020 58 10000 0 0 22:28 22.04.2022
4039 Clouds 12 1020 58 10000 3.09 150 21:44 22.04.2022
4040 Clouds 12 1020 54 10000 2.57 140 20:54 22.04.2022
4041 Clouds 12 1020 50 10000 0 0 20:27 22.04.2022
4042 Clouds 12 1020 50 10000 0 0 19:21 22.04.2022
4043 Clouds 13 1020 47 10000 0 0 18:45 22.04.2022
4044 Clouds 13 1020 47 10000 0 0 17:48 22.04.2022
4045 Clouds 13 1020 44 10000 0 0 16:46 22.04.2022
4046 Clouds 14 1020 38 10000 3.09 170 15:45 22.04.2022
4047 Clear 15 1021 36 10000 3.09 150 15:18 22.04.2022
4048 Clear 16 1021 33 10000 2.57 180 13:54 22.04.2022
4049 Clear 17 1020 31 10000 3.09 140 12:58 22.04.2022
4050 Clear 21 1004 32 10000 3.6 150 11:52 22.04.2022
4051 Clear 21 1004 32 10000 4.12 140 11:22 22.04.2022
4052 Clear 21 1004 32 10000 4.63 140 10:50 22.04.2022
4053 Clear 21 1004 32 10000 6.17 140 10:30 22.04.2022
4054 Clear 21 1004 32 10000 6.17 140 09:50 22.04.2022
4055 Clear 25 1019 19 10000 5.66 120 08:50 22.04.2022
4056 Clear 25 1019 19 10000 6.69 120 07:20 22.04.2022
4057 Clear 21 1004 32 10000 6.17 100 03:30 22.04.2022
4058 Clear 13 1022 47 10000 0 0 00:52 22.04.2022
4059 Clear 8 1021 61 10000 0 0 23:25 21.04.2022
4060 Clear 8 1021 57 10000 0 0 22:29 21.04.2022
4061 Clear 10 1020 53 10000 0 0 20:37 21.04.2022
4062 Clear 10 1020 53 10000 0 0 20:18 21.04.2022
4063 Clear 12 1020 43 10000 2.57 130 18:42 21.04.2022
4064 Clear 12 1021 43 10000 3.09 140 17:57 21.04.2022
4065 Clear 13 1021 41 10000 3.09 170 16:35 21.04.2022
4066 Clear 13 1021 41 10000 3.6 160 15:21 21.04.2022
4067 Clear 14 1021 38 10000 3.6 170 14:47 21.04.2022
4068 Clear 16 1021 33 10000 3.6 130 13:23 21.04.2022
4069 Clear 17 1020 29 10000 3.6 130 12:53 21.04.2022
4070 Clouds 21 1004 32 10000 5.66 140 10:47 21.04.2022
4071 Clouds 25 1018 16 10000 6.69 110 08:56 21.04.2022
4072 Clear 24 1019 20 10000 6.17 120 07:24 21.04.2022
4073 Clear 23 1020 27 10000 7.2 100 05:42 21.04.2022
4074 Clear 21 1004 32 10000 5.66 120 03:28 21.04.2022
4075 Clear 21 1004 32 10000 5.14 120 02:47 21.04.2022
4076 Clear 21 1004 32 10000 5.14 120 02:47 21.04.2022
4077 Clouds 11 1022 62 10000 0 0 00:43 21.04.2022
4078 Clouds 9 1022 66 10000 0 0 23:50 20.04.2022
4079 Clouds 9 1022 66 10000 1.54 220 23:22 20.04.2022
4080 Clouds 10 1021 62 10000 0 0 22:46 20.04.2022
4081 Clouds 10 1021 62 10000 0 0 22:26 20.04.2022
4082 Clouds 10 1020 57 10000 0 0 21:27 20.04.2022
4083 Clouds 10 1020 57 10000 2.06 120 20:23 20.04.2022
4084 Clouds 10 1020 57 10000 0 0 19:51 20.04.2022
4085 Clouds 12 1021 50 10000 3.09 130 19:18 20.04.2022
4086 Clouds 12 1021 50 10000 0 0 17:55 20.04.2022
4087 Clear 14 1021 44 10000 2.06 110 16:40 20.04.2022
4088 Clear 14 1021 44 10000 2.06 110 16:18 20.04.2022
4089 Clear 16 1021 39 10000 3.09 130 13:50 20.04.2022
4090 Clear 20 1020 30 10000 4.12 140 11:47 20.04.2022
4091 Clear 21 1004 32 10000 5.66 130 10:56 20.04.2022
4092 Clear 21 1004 32 10000 6.17 160 09:58 20.04.2022
4093 Clear 24 1018 23 10000 5.66 130 09:24 20.04.2022
4094 Clear 24 1018 22 10000 4.12 120 08:20 20.04.2022
4095 Clear 24 1018 22 10000 5.14 110 07:32 20.04.2022
4096 Clear 21 1004 32 10000 4.63 100 03:34 20.04.2022
4097 Clear 10 1022 62 10000 0 0 00:22 20.04.2022
4098 Clear 9 1021 61 10000 0 0 23:37 19.04.2022
4099 Clear 9 1021 61 10000 0 0 22:25 19.04.2022
4100 Clear 9 1021 61 10000 0 0 21:55 19.04.2022
4101 Clouds 10 1020 57 10000 0 0 21:22 19.04.2022
4102 Clouds 10 1020 57 10000 0 0 20:41 19.04.2022
4103 Clear 10 1020 57 10000 0 0 19:56 19.04.2022
4104 Clear 11 1021 50 10000 1.54 130 18:47 19.04.2022
4105 Clear 14 1021 41 10000 3.09 130 17:32 19.04.2022
4106 Clear 15 1021 41 10000 4.12 150 16:43 19.04.2022
4107 Clear 15 1021 41 10000 4.12 150 16:22 19.04.2022
4108 Clear 15 1021 44 10000 3.09 150 14:48 19.04.2022
4109 Clouds 16 1020 44 10000 3.6 150 13:49 19.04.2022
4110 Clouds 18 1020 39 10000 3.09 130 12:50 19.04.2022
4111 Clouds 21 1004 32 10000 3.6 130 11:55 19.04.2022
4112 Clouds 21 1004 32 10000 5.66 130 10:25 19.04.2022
4113 Clouds 23 1018 33 10000 5.66 130 09:18 19.04.2022
4114 Clouds 21 1004 32 10000 6.69 120 04:56 19.04.2022
4115 Clouds 21 1004 32 10000 6.69 120 03:25 19.04.2022
4116 Clouds 18 1021 68 10000 4.63 140 00:54 19.04.2022
4117 Clouds 18 1020 63 10000 5.66 140 23:30 18.04.2022
4118 Clouds 18 1019 59 10000 3.09 150 21:30 18.04.2022
4119 Clouds 18 1019 59 10000 3.09 150 21:30 18.04.2022
4120 Clear 18 1018 55 10000 3.09 140 20:55 18.04.2022
4121 Clear 18 1019 55 10000 3.6 160 20:32 18.04.2022
4122 Clear 18 1018 55 10000 3.09 150 19:49 18.04.2022
4123 Clear 18 1018 48 10000 3.6 150 18:56 18.04.2022
4124 Clouds 20 1018 42 10000 4.12 150 17:57 18.04.2022
4125 Clouds 21 1004 32 10000 5.66 150 17:33 18.04.2022
4126 Clear 21 1004 32 10000 6.17 150 16:55 18.04.2022
4127 Clear 21 1004 32 10000 4.63 150 16:31 18.04.2022
4128 Clear 21 1004 32 10000 7.2 150 14:45 18.04.2022
4129 Clouds 21 1004 32 10000 5.66 150 13:35 18.04.2022
4130 Clear 27 1016 21 10000 6.69 160 12:29 18.04.2022
4131 Clear 28 1015 23 10000 4.63 170 11:34 18.04.2022
4132 Clear 29 1014 23 10000 5.66 160 10:31 18.04.2022
4133 Clear 30 1014 23 10000 5.14 190 09:30 18.04.2022
4134 Clear 30 1014 26 10000 6.17 180 07:42 18.04.2022
4135 Clear 29 1015 28 10000 6.17 170 05:37 18.04.2022
4136 Clouds 21 1004 32 10000 3.09 210 00:27 18.04.2022
4137 Clouds 21 1004 32 10000 2.57 220 22:40 17.04.2022
4138 Clouds 21 1004 32 10000 3.09 190 21:42 17.04.2022
4139 Clouds 21 1004 32 10000 3.09 190 21:22 17.04.2022
4140 Clouds 21 1004 32 10000 3.09 200 20:35 17.04.2022
4141 Clouds 21 1004 32 10000 4.63 210 19:28 17.04.2022
4142 Clouds 28 1013 32 10000 6.69 190 17:45 17.04.2022
4143 Clouds 29 1012 24 10000 3.6 310 15:39 17.04.2022
4144 Clouds 30 1011 21 10000 2.06 310 14:54 17.04.2022
4145 Clouds 29 1011 26 10000 0 0 13:48 17.04.2022
4146 Clouds 30 1011 21 10000 2.57 360 12:58 17.04.2022
4147 Clouds 30 1011 23 10000 2.57 360 12:18 17.04.2022
4148 Clouds 33 1010 18 10000 2.57 320 10:46 17.04.2022
4149 Clouds 34 1010 16 10000 3.09 350 10:28 17.04.2022
4150 Clouds 34 1010 16 10000 3.09 350 10:27 17.04.2022
4151 Clouds 35 1009 15 10000 1.03 340 09:29 17.04.2022
4152 Clouds 36 1010 13 10000 4.12 290 08:42 17.04.2022
4153 Clear 36 1010 13 10000 5.66 290 07:26 17.04.2022
4154 Clouds 33 1013 17 10000 6.69 350 04:29 17.04.2022
4155 Clouds 26 1014 27 10000 2.57 70 00:55 17.04.2022
4156 Clouds 21 1004 32 10000 0 0 23:50 16.04.2022
4157 Clouds 21 1004 32 10000 2.06 250 22:29 16.04.2022
4158 Clouds 21 1004 32 10000 3.09 70 21:31 16.04.2022
4159 Clouds 21 1004 32 10000 3.09 60 20:18 16.04.2022
4160 Clear 21 1004 32 10000 3.09 50 18:59 16.04.2022
4161 Clear 21 1004 32 10000 3.6 50 17:46 16.04.2022
4162 Clear 21 1004 32 10000 3.09 40 16:38 16.04.2022
4163 Clear 21 1004 32 10000 3.6 60 15:43 16.04.2022
4164 Clear 25 1013 27 10000 4.12 60 14:55 16.04.2022
4165 Clouds 26 1013 27 10000 3.6 70 13:58 16.04.2022
4166 Clouds 27 1013 24 10000 3.6 70 13:32 16.04.2022
4167 Clouds 28 1013 23 10000 3.6 90 12:22 16.04.2022
4168 Clouds 32 1012 19 10000 5.14 90 10:49 16.04.2022
4169 Clouds 34 1012 15 10000 4.63 100 09:56 16.04.2022
4170 Clouds 35 1012 14 10000 4.12 130 08:57 16.04.2022
4171 Clouds 35 1012 15 10000 4.12 140 07:35 16.04.2022
4172 Clouds 35 1012 15 10000 4.63 80 06:58 16.04.2022
4173 Clear 30 1016 25 10000 6.17 50 02:33 16.04.2022
4174 Clouds 21 1004 32 10000 0.51 230 00:23 16.04.2022
4175 Clouds 21 1004 32 10000 0 0 22:58 15.04.2022
4176 Clouds 21 1004 32 10000 0 0 22:32 15.04.2022
4177 Clouds 21 1004 32 10000 0 0 21:50 15.04.2022
4178 Clouds 21 1004 32 10000 0 0 20:56 15.04.2022
4179 Clouds 21 1004 32 10000 3.09 100 19:59 15.04.2022
4180 Clouds 21 1004 32 10000 4.63 90 19:39 15.04.2022
4181 Clear 21 1004 32 10000 4.12 90 18:46 15.04.2022
4182 Clear 21 1004 32 10000 4.12 80 18:24 15.04.2022
4183 Clear 24 1015 35 10000 1.54 90 17:32 15.04.2022
4184 Clear 23 1016 38 10000 0 0 16:37 15.04.2022
4185 Clear 23 1016 38 10000 0 0 16:18 15.04.2022
4186 Clouds 24 1016 33 10000 0 0 14:44 15.04.2022
4187 Clear 26 1016 29 10000 2.57 110 13:34 15.04.2022
4188 Clouds 28 1015 26 10000 3.6 130 12:40 15.04.2022
4189 Clouds 30 1014 23 10000 3.09 120 11:55 15.04.2022
4190 Clouds 33 1014 19 10000 4.12 130 10:58 15.04.2022
4191 Clouds 34 1014 17 10000 4.63 120 10:40 15.04.2022
4192 Clear 35 1014 16 10000 4.63 130 09:41 15.04.2022
4193 Clear 35 1014 16 10000 4.63 130 09:19 15.04.2022
4194 Clear 36 1014 15 10000 6.17 70 07:24 15.04.2022
4195 Clear 35 1015 16 10000 2.57 100 05:58 15.04.2022
4196 Clear 30 1017 25 10000 2.06 80 02:34 15.04.2022
4197 Clear 21 1004 32 10000 0 0 23:30 14.04.2022
4198 Clouds 21 1004 32 10000 0 0 22:47 14.04.2022
4199 Clear 21 1004 32 10000 0 0 22:29 14.04.2022
4200 Clear 21 1004 32 10000 1.03 210 21:57 14.04.2022
4201 Clear 21 1004 32 10000 1.03 330 20:35 14.04.2022
4202 Clear 21 1004 32 10000 0 0 19:22 14.04.2022
4203 Clear 21 1004 32 10000 2.57 190 18:18 14.04.2022
4204 Clear 21 1004 32 10000 2.57 70 17:28 14.04.2022
4205 Clouds 21 1004 32 10000 0 0 16:33 14.04.2022
4206 Clouds 24 1016 29 10000 2.57 40 14:27 14.04.2022
4207 Clear 26 1016 25 10000 3.6 120 13:39 14.04.2022
4208 Clear 27 1015 22 10000 3.6 130 12:51 14.04.2022
4209 Clear 28 1015 21 10000 4.12 130 12:30 14.04.2022
4210 Clouds 32 1014 15 10000 5.14 130 11:23 14.04.2022
4211 Clouds 34 1013 13 10000 4.63 130 10:36 14.04.2022
4212 Clear 35 1013 12 10000 5.66 140 09:56 14.04.2022
4213 Clear 36 1012 11 10000 4.63 150 08:40 14.04.2022
4214 Clear 35 1013 14 10000 5.14 110 06:50 14.04.2022
4215 Clear 30 1017 23 10000 3.09 100 02:45 14.04.2022
4216 Clear 21 1004 32 10000 2.57 280 22:52 13.04.2022
4217 Clear 21 1004 32 10000 2.06 310 21:44 13.04.2022
4218 Clear 21 1004 32 10000 2.57 260 20:53 13.04.2022
4219 Clear 21 1004 32 10000 3.6 290 20:22 13.04.2022
4220 Clear 21 1004 32 10000 0.51 200 19:23 13.04.2022
4221 Clear 21 1004 32 10000 0 0 17:55 13.04.2022
4222 Clear 21 1004 32 10000 0 0 17:23 13.04.2022
4223 Clear 21 1004 32 10000 0 0 16:33 13.04.2022
4224 Clear 22 1016 35 10000 2.06 90 15:32 13.04.2022
4225 Clear 24 1016 29 10000 2.06 90 14:50 13.04.2022
4226 Clear 25 1015 29 10000 0.51 60 14:18 13.04.2022
4227 Clear 26 1015 27 10000 3.09 120 13:19 13.04.2022
4228 Clear 28 1014 23 10000 3.09 130 12:20 13.04.2022
4229 Clear 33 1013 17 10000 4.63 130 10:47 13.04.2022
4230 Clouds 36 1013 14 10000 5.14 110 08:57 13.04.2022
4231 Clouds 35 1013 16 10000 2.57 110 08:31 13.04.2022
4232 Clear 35 1013 16 10000 3.6 140 06:51 13.04.2022
4233 Clear 35 1014 17 10000 3.6 80 06:25 13.04.2022
4234 Clear 34 1016 18 10000 5.66 50 04:55 13.04.2022
4235 Clear 21 1004 32 10000 0.51 80 00:20 13.04.2022
4236 Clear 21 1004 32 10000 0 0 23:21 12.04.2022
4237 Clear 21 1004 32 10000 0 0 21:57 12.04.2022
4238 Clear 21 1004 32 10000 2.06 70 20:51 12.04.2022
4239 Clear 23 1014 40 10000 2.57 80 20:33 12.04.2022
4240 Clouds 22 1014 40 10000 2.57 100 19:47 12.04.2022
4241 Clouds 24 1014 35 10000 2.57 90 19:28 12.04.2022
4242 Clouds 25 1015 33 10000 3.09 70 17:59 12.04.2022
4243 Clouds 26 1015 31 10000 3.09 100 16:53 12.04.2022
4244 Clouds 26 1015 31 10000 2.57 90 16:19 12.04.2022
4245 Clouds 28 1015 28 10000 0.51 70 15:26 12.04.2022
4246 Clouds 29 1015 26 10000 3.09 120 14:21 12.04.2022
4247 Clouds 30 1014 23 10000 2.06 90 13:28 12.04.2022
4248 Clouds 31 1013 22 10000 2.57 120 12:44 12.04.2022
4249 Clouds 33 1012 19 10000 3.6 100 11:42 12.04.2022
4250 Clouds 35 1012 17 10000 5.14 100 10:30 12.04.2022
4251 Clouds 36 1011 16 10000 7.72 90 08:54 12.04.2022
4252 Clouds 36 1011 16 10000 7.72 90 08:54 12.04.2022
4253 Clouds 36 1011 16 10000 7.72 90 08:54 12.04.2022
4254 Clouds 36 1012 15 10000 4.12 90 07:50 12.04.2022
4255 Clouds 36 1013 16 10000 6.69 50 05:49 12.04.2022
4256 Clouds 34 1015 17 10000 6.17 50 03:28 12.04.2022
4257 Clouds 24 1014 43 10000 0 0 23:36 11.04.2022
4258 Clouds 25 1014 38 10000 0 0 22:44 11.04.2022
4259 Clouds 25 1014 38 10000 3.09 60 21:36 11.04.2022
4260 Clouds 26 1014 34 10000 3.09 70 20:49 11.04.2022
4261 Clouds 27 1014 32 10000 2.06 90 20:28 11.04.2022
4262 Clouds 26 1014 38 10000 0 0 19:36 11.04.2022
4263 Clouds 26 1014 38 10000 0 0 19:18 11.04.2022
4264 Clouds 26 1014 36 10000 0.51 40 18:37 11.04.2022
4265 Clouds 27 1015 34 10000 2.06 120 17:44 11.04.2022
4266 Clouds 27 1015 32 10000 0 0 16:38 11.04.2022
4267 Clouds 28 1015 30 10000 3.09 110 15:24 11.04.2022
4268 Clouds 28 1015 30 10000 2.57 80 13:51 11.04.2022
4269 Clouds 29 1014 28 10000 3.6 130 12:43 11.04.2022
4270 Clouds 29 1014 28 10000 3.6 130 12:22 11.04.2022
4271 Clouds 33 1013 22 10000 4.12 110 10:56 11.04.2022
4272 Clouds 34 1012 21 10000 3.6 130 09:58 11.04.2022
4273 Clouds 35 1013 20 10000 3.09 140 08:23 11.04.2022
4274 Clouds 33 1015 22 10000 6.17 80 04:57 11.04.2022
4275 Clouds 18 1016 42 10000 1.54 290 00:49 11.04.2022
4276 Clouds 21 1004 32 10000 3.09 290 22:27 10.04.2022
4277 Clouds 21 1004 32 10000 2.57 270 21:54 10.04.2022
4278 Clouds 21 1004 32 10000 2.06 300 21:23 10.04.2022
4279 Clouds 21 1004 32 10000 0 0 20:18 10.04.2022
4280 Clouds 21 1004 32 10000 0 0 19:36 10.04.2022
4281 Clouds 21 1004 32 10000 0 0 18:50 10.04.2022
4282 Clouds 21 1004 32 10000 0 0 18:26 10.04.2022
4283 Clouds 21 1004 32 10000 0 0 17:44 10.04.2022
4284 Clouds 21 1004 32 10000 0 0 16:57 10.04.2022
4285 Clouds 21 1004 32 10000 0 0 15:38 10.04.2022
4286 Clouds 21 1004 32 10000 0 0 14:42 10.04.2022
4287 Clouds 21 1004 32 10000 2.57 140 13:28 10.04.2022
4288 Clear 25 1014 20 10000 2.57 130 12:27 10.04.2022
4289 Clear 27 1014 18 10000 3.09 140 11:38 10.04.2022
4290 Clear 31 1013 13 10000 3.6 150 10:59 10.04.2022
4291 Clear 32 1013 12 10000 3.6 140 10:27 10.04.2022
4292 Clear 33 1013 12 10000 3.09 200 09:41 10.04.2022
4293 Clouds 33 1013 11 10000 2.57 280 08:26 10.04.2022
4294 Clouds 32 1013 12 10000 3.6 130 07:53 10.04.2022
4295 Clouds 32 1013 12 10000 1.54 150 06:48 10.04.2022
4296 Clear 28 1017 21 10000 4.63 100 03:36 10.04.2022
4297 Clear 28 1017 21 10000 4.63 100 03:36 10.04.2022
4298 Haze 21 1004 32 5000 0 0 01:30 10.04.2022
4299 Clear 21 1004 32 10000 3.09 270 23:53 09.04.2022
4300 Clear 12 1015 58 10000 2.57 310 22:52 09.04.2022
4301 Clear 12 1015 54 10000 2.57 280 21:51 09.04.2022
4302 Clear 12 1014 54 10000 2.57 270 20:58 09.04.2022
4303 Clear 12 1014 54 10000 2.57 280 20:26 09.04.2022
4304 Clear 13 1014 50 10000 2.06 260 19:43 09.04.2022
4305 Clear 13 1014 50 10000 2.06 260 19:21 09.04.2022
4306 Clear 14 1014 51 10000 2.06 280 18:22 09.04.2022
4307 Clear 14 1015 44 10000 0 0 17:42 09.04.2022
4308 Clear 16 1015 41 10000 0 0 16:55 09.04.2022
4309 Clear 21 1004 32 10000 0 0 16:24 09.04.2022
4310 Clear 21 1004 32 10000 0 0 15:43 09.04.2022
4311 Clear 21 1004 32 10000 0 0 14:44 09.04.2022
4312 Clear 21 1004 32 10000 0 0 14:44 09.04.2022
4313 Clear 21 1004 32 10000 2.06 110 14:23 09.04.2022
4314 Clear 21 1004 32 10000 3.6 110 13:21 09.04.2022
4315 Clear 21 1004 32 10000 3.6 120 12:51 09.04.2022
4316 Clear 21 1004 32 10000 3.09 120 11:40 09.04.2022
4317 Clear 30 1013 13 10000 3.09 140 10:21 09.04.2022
4318 Clear 31 1013 12 10000 2.06 160 09:47 09.04.2022
4319 Clear 31 1013 11 10000 2.57 20 08:56 09.04.2022
4320 Clear 31 1013 12 10000 2.06 220 07:32 09.04.2022
4321 Clear 25 1017 25 10000 4.12 90 02:58 09.04.2022
4322 Clear 12 1017 62 10000 2.06 290 00:25 09.04.2022
4323 Clear 10 1016 62 10000 2.57 290 22:57 08.04.2022
4324 Clear 12 1015 58 10000 0 0 21:32 08.04.2022
4325 Clear 12 1015 58 10000 2.57 310 20:40 08.04.2022
4326 Clear 12 1015 54 10000 0 0 19:32 08.04.2022
4327 Clear 13 1015 54 10000 0 0 18:31 08.04.2022
4328 Clear 13 1015 54 10000 0 0 17:52 08.04.2022
4329 Clear 14 1015 51 10000 0 0 17:26 08.04.2022
4330 Clear 15 1015 47 10000 0 0 16:51 08.04.2022
4331 Clear 16 1015 41 10000 0 0 15:59 08.04.2022
4332 Clear 17 1016 39 10000 1.54 80 15:27 08.04.2022
4333 Clear 19 1015 34 10000 2.57 80 14:39 08.04.2022
4334 Clear 20 1015 32 10000 3.6 110 13:48 08.04.2022
4335 Clear 21 1015 30 10000 3.09 120 13:29 08.04.2022
4336 Clear 22 1014 28 10000 4.12 130 12:18 08.04.2022
4337 Clear 27 1014 21 10000 4.63 120 10:37 08.04.2022
4338 Clear 28 1013 20 10000 3.6 150 09:38 08.04.2022
4339 Clear 28 1013 20 10000 4.12 170 08:51 08.04.2022
4340 Clear 28 1014 21 10000 4.63 100 06:55 08.04.2022
4341 Clear 26 1016 25 10000 4.12 110 05:23 08.04.2022
4342 Clear 19 1018 39 10000 0 0 01:29 08.04.2022
4343 Clear 13 1017 62 10000 2.06 290 00:25 08.04.2022
4344 Clear 12 1017 62 10000 2.06 320 22:59 07.04.2022
4345 Clear 11 1016 66 10000 2.06 160 22:39 07.04.2022
4346 Clear 11 1016 66 10000 2.06 160 22:21 07.04.2022
4347 Clear 12 1016 58 10000 0 0 21:53 07.04.2022
4348 Clear 13 1016 58 10000 0 0 21:19 07.04.2022
4349 Clear 15 1016 47 10000 0 0 20:37 07.04.2022
4350 Clear 15 1016 51 10000 0.51 50 18:35 07.04.2022
4351 Clear 16 1016 44 10000 2.57 160 17:27 07.04.2022
4352 Clear 17 1016 42 10000 4.12 150 16:44 07.04.2022
4353 Clear 17 1016 42 10000 4.12 150 16:22 07.04.2022
4354 Clear 17 1016 42 10000 4.12 150 16:22 07.04.2022
4355 Clear 21 1004 32 10000 2.57 150 14:50 07.04.2022
4356 Clear 21 1004 32 10000 3.6 150 13:43 07.04.2022
4357 Clear 21 1004 32 10000 3.6 170 12:50 07.04.2022
4358 Clear 26 1015 24 10000 3.6 160 11:34 07.04.2022
4359 Clear 29 1014 18 10000 7.2 170 09:37 07.04.2022
4360 Clear 30 1014 20 10000 5.66 170 08:38 07.04.2022
4361 Clear 28 1015 24 10000 4.63 150 06:42 07.04.2022
4362 Clear 24 1018 31 10000 3.6 120 02:54 07.04.2022
4363 Clear 21 1004 32 10000 4.63 150 02:25 07.04.2022
4364 Clear 21 1004 32 10000 2.06 250 00:27 07.04.2022
4365 Clear 15 1017 58 10000 2.57 290 22:51 06.04.2022
4366 Clear 15 1016 55 10000 2.57 280 22:27 06.04.2022
4367 Clear 16 1016 48 10000 0 0 21:44 06.04.2022
4368 Clear 21 1004 32 10000 2.57 310 20:36 06.04.2022
4369 Clear 21 1004 32 10000 2.06 300 19:53 06.04.2022
4370 Clear 21 1004 32 10000 2.57 280 18:51 06.04.2022
4371 Clear 21 1004 32 10000 2.06 250 18:25 06.04.2022
4372 Clear 21 1004 32 10000 0 0 17:35 06.04.2022
4373 Clear 21 1004 32 10000 0 0 16:38 06.04.2022
4374 Clear 21 1004 32 10000 2.06 140 15:48 06.04.2022
4375 Clear 21 1004 32 10000 2.57 130 14:57 06.04.2022
4376 Clouds 21 1004 32 10000 3.6 130 13:24 06.04.2022
4377 Clouds 25 1015 20 10000 3.6 130 12:26 06.04.2022
4378 Clouds 31 1014 12 10000 5.14 120 10:47 06.04.2022
4379 Clouds 32 1013 12 10000 5.66 120 10:25 06.04.2022
4380 Clouds 32 1013 12 10000 5.66 170 09:40 06.04.2022
4381 Clouds 32 1013 12 10000 3.6 150 08:32 06.04.2022
4382 Clouds 32 1013 12 10000 3.6 150 08:32 06.04.2022
4383 Clear 32 1013 12 10000 3.6 190 07:50 06.04.2022
4384 Clear 28 1017 13 10000 3.09 160 03:54 06.04.2022
4385 Clear 21 1004 32 10000 2.57 270 23:53 05.04.2022
4386 Clouds 13 1014 50 10000 1.03 260 22:57 05.04.2022
4387 Clouds 21 1004 32 10000 0 0 21:23 05.04.2022
4388 Clear 21 1004 32 10000 0 0 20:26 05.04.2022
4389 Clear 21 1004 32 10000 3.6 360 19:42 05.04.2022
4390 Clear 21 1004 32 10000 3.6 190 18:18 05.04.2022
4391 Clear 21 1004 32 10000 0 0 16:54 05.04.2022
4392 Clear 21 1004 32 10000 2.06 70 15:56 05.04.2022
4393 Clear 21 1004 32 10000 1.54 80 15:34 05.04.2022
4394 Clear 21 1004 32 10000 3.09 70 14:35 05.04.2022
4395 Clear 23 1013 25 10000 1.54 120 13:21 05.04.2022
4396 Clear 28 1012 16 10000 2.57 190 11:51 05.04.2022
4397 Clear 30 1012 14 10000 2.06 210 11:32 05.04.2022
4398 Clear 35 1012 10 10000 4.12 190 09:59 05.04.2022
4399 Clear 35 1011 10 10000 3.6 270 08:54 05.04.2022
4400 Clear 35 1013 10 10000 3.6 200 06:58 05.04.2022
4401 Clear 21 1004 32 10000 2.06 320 01:58 05.04.2022
4402 Clear 12 1015 50 10000 0 0 22:44 04.04.2022
4403 Clear 12 1015 50 10000 0 0 22:26 04.04.2022
4404 Clear 13 1015 47 10000 0 0 21:21 04.04.2022
4405 Clear 13 1015 47 10000 0 0 20:49 04.04.2022
4406 Clear 21 1004 32 10000 0 0 19:57 04.04.2022
4407 Clear 21 1004 32 10000 0 0 19:26 04.04.2022
4408 Clear 21 1004 32 10000 0 0 18:33 04.04.2022
4409 Clear 21 1004 32 10000 3.6 80 16:36 04.04.2022
4410 Clear 21 1004 32 10000 2.57 70 15:47 04.04.2022
4411 Clear 21 1004 32 10000 2.57 70 15:29 04.04.2022
4412 Clear 21 1004 32 10000 2.57 90 14:46 04.04.2022
4413 Clear 21 1004 32 10000 3.09 100 13:31 04.04.2022
4414 Clear 26 1013 18 10000 3.6 120 11:56 04.04.2022
4415 Clear 29 1013 14 10000 3.6 130 11:29 04.04.2022
4416 Clear 32 1013 12 10000 2.06 180 09:18 04.04.2022
4417 Clear 29 1016 13 10000 3.6 110 04:45 04.04.2022
4418 Clear 21 1004 32 10000 0 0 01:28 04.04.2022
4419 Clear 11 1016 54 10000 0 0 22:43 03.04.2022
4420 Clear 11 1016 58 10000 0.51 290 21:46 03.04.2022
4421 Clear 11 1016 54 10000 0 0 20:56 03.04.2022
4422 Clear 12 1016 50 10000 0 0 19:50 03.04.2022
4423 Clear 13 1016 47 10000 0 0 18:32 03.04.2022
4424 Clear 13 1016 47 10000 0 0 17:47 03.04.2022
4425 Clear 15 1016 41 10000 0 0 16:57 03.04.2022
4426 Clear 15 1016 41 10000 0 0 16:39 03.04.2022
4427 Clear 21 1004 32 10000 2.57 110 14:52 03.04.2022
4428 Clear 21 1004 32 10000 2.57 120 13:55 03.04.2022
4429 Clear 21 1004 32 10000 3.09 130 12:46 03.04.2022
4430 Clear 26 1014 18 10000 3.6 120 11:29 03.04.2022
4431 Clear 29 1013 15 10000 3.6 150 09:38 03.04.2022
4432 Clear 29 1013 15 10000 3.6 130 08:36 03.04.2022
4433 Clear 27 1015 19 10000 3.09 130 05:38 03.04.2022
4434 Clear 21 1004 32 10000 5.66 100 02:53 03.04.2022
4435 Clouds 12 1016 58 10000 0.51 90 23:21 02.04.2022
4436 Clouds 13 1015 54 10000 2.57 110 22:18 02.04.2022
4437 Clouds 13 1015 54 10000 2.06 80 21:47 02.04.2022
4438 Clouds 15 1015 47 10000 3.09 50 21:18 02.04.2022
4439 Clouds 17 1015 42 10000 2.57 110 19:54 02.04.2022
4440 Clouds 17 1015 48 10000 1.54 140 18:23 02.04.2022
4441 Clouds 18 1015 42 10000 2.57 150 17:53 02.04.2022
4442 Clear 20 1015 34 10000 2.06 120 16:29 02.04.2022
4443 Clear 20 1015 37 10000 0.51 130 15:22 02.04.2022
4444 Clear 19 1015 37 10000 0 0 14:51 02.04.2022
4445 Clouds 21 1004 32 10000 3.09 160 13:51 02.04.2022
4446 Clouds 21 1004 32 10000 3.6 160 13:19 02.04.2022
4447 Clouds 21 1004 32 10000 4.12 140 11:33 02.04.2022
4448 Clouds 28 1013 20 10000 5.66 150 09:30 02.04.2022
4449 Clouds 27 1013 22 10000 5.66 130 06:51 02.04.2022
4450 Clouds 21 1004 32 10000 5.66 140 03:55 02.04.2022
4451 Clouds 12 1017 54 10000 2.57 310 00:19 02.04.2022
4452 Clouds 9 1017 61 10000 3.09 270 23:40 01.04.2022
4453 Clouds 11 1016 50 10000 2.57 310 21:52 01.04.2022
4454 Clouds 11 1016 50 10000 1.03 270 20:52 01.04.2022
4455 Clouds 12 1016 47 10000 0 0 20:30 01.04.2022
4456 Clouds 13 1016 41 10000 3.6 170 19:37 01.04.2022
4457 Clouds 14 1016 38 10000 2.57 190 18:51 01.04.2022
4458 Clouds 14 1017 38 10000 0.51 150 17:54 01.04.2022
4459 Clouds 13 1017 44 10000 2.57 170 17:34 01.04.2022
4460 Clouds 16 1018 31 10000 2.57 170 15:42 01.04.2022
4461 Clouds 17 1017 29 10000 1.03 190 14:26 01.04.2022
4462 Clouds 18 1017 27 10000 3.09 150 13:34 01.04.2022
4463 Clouds 21 1004 32 10000 3.09 140 12:33 01.04.2022
4464 Clouds 21 1004 32 10000 3.6 140 11:44 01.04.2022
4465 Clouds 25 1015 18 10000 5.14 150 10:19 01.04.2022
4466 Clouds 26 1015 15 10000 6.17 140 09:19 01.04.2022
4467 Clear 26 1016 21 10000 5.14 150 06:54 01.04.2022
4468 Clear 23 1018 28 10000 5.66 120 04:51 01.04.2022
4469 Clear 23 1019 28 10000 6.17 120 04:33 01.04.2022
4470 Clouds 21 1004 32 10000 5.14 140 01:57 01.04.2022
4471 Clear 10 1019 71 10000 2.57 190 23:58 31.03.2022
4472 Clear 12 1018 62 10000 2.06 160 21:53 31.03.2022
4473 Clear 12 1018 58 10000 3.09 150 21:32 31.03.2022
4474 Clouds 12 1018 62 10000 3.09 180 20:29 31.03.2022
4475 Clouds 12 1018 62 10000 3.09 180 19:50 31.03.2022
4476 Clouds 13 1018 58 10000 2.57 180 18:46 31.03.2022
4477 Clouds 15 1019 51 10000 2.06 170 17:50 31.03.2022
4478 Clouds 16 1019 48 10000 2.06 170 16:38 31.03.2022
4479 Clouds 16 1019 48 10000 2.57 180 15:45 31.03.2022
4480 Clear 21 1004 32 10000 3.09 170 15:19 31.03.2022
4481 Clear 21 1004 32 10000 3.6 160 14:36 31.03.2022
4482 Clouds 21 1004 32 10000 4.63 140 12:19 31.03.2022
4483 Clouds 25 1016 29 10000 5.14 140 11:22 31.03.2022
4484 Clear 28 1016 28 10000 7.72 150 09:45 31.03.2022
4485 Clear 28 1016 28 10000 7.72 150 09:45 31.03.2022
4486 Clouds 28 1016 30 10000 6.69 150 07:59 31.03.2022
4487 Clouds 27 1018 34 10000 5.66 130 05:42 31.03.2022
4488 Clouds 16 1019 67 10000 3.6 160 23:58 30.03.2022
4489 Clouds 16 1018 63 10000 3.6 180 22:43 30.03.2022
4490 Clear 17 1018 59 10000 2.57 200 21:39 30.03.2022
4491 Clear 17 1018 59 10000 0 0 20:54 30.03.2022
4492 Clear 21 1004 32 10000 0 0 20:20 30.03.2022
4493 Clear 21 1004 32 10000 0 0 20:20 30.03.2022
4494 Clear 21 1004 32 10000 0 0 19:19 30.03.2022
4495 Clear 21 1004 32 10000 2.57 100 18:19 30.03.2022
4496 Clear 21 1004 32 10000 3.09 120 17:45 30.03.2022
4497 Clear 21 1004 32 10000 4.12 120 16:56 30.03.2022
4498 Clear 21 1004 32 10000 6.17 120 16:32 30.03.2022
4499 Clouds 21 1004 32 10000 6.17 130 14:59 30.03.2022
4500 Clouds 21 1004 32 10000 3.09 120 13:35 30.03.2022
4501 Clouds 25 1016 27 10000 3.09 120 12:47 30.03.2022
4502 Clouds 30 1014 19 10000 6.17 130 10:58 30.03.2022
4503 Clouds 32 1014 18 10000 7.2 120 09:59 30.03.2022
4504 Clouds 32 1014 18 10000 7.2 140 09:20 30.03.2022
4505 Clouds 33 1014 16 10000 7.2 140 07:31 30.03.2022
4506 Clouds 32 1016 18 10000 6.17 140 05:40 30.03.2022
4507 Clouds 30 1017 20 10000 4.63 90 03:39 30.03.2022
4508 Clouds 21 1004 32 10000 1.03 300 00:31 30.03.2022
4509 Clouds 21 1004 32 10000 0 0 22:20 29.03.2022
4510 Clouds 21 1004 32 10000 0 0 21:44 29.03.2022
4511 Clouds 21 1004 32 10000 2.06 320 20:49 29.03.2022
4512 Clouds 21 1004 32 10000 2.06 310 19:47 29.03.2022
4513 Clouds 21 1004 32 10000 2.06 340 18:54 29.03.2022
4514 Clouds 21 1004 32 10000 0 0 18:18 29.03.2022
4515 Clouds 21 1004 32 10000 0 0 17:21 29.03.2022
4516 Clouds 21 1004 32 10000 0 0 17:21 29.03.2022
4517 Clouds 21 1004 32 10000 0 0 16:56 29.03.2022
4518 Clouds 21 1004 32 10000 0 0 15:57 29.03.2022
4519 Clouds 21 1004 32 10000 3.09 130 14:48 29.03.2022
4520 Clear 21 1004 32 10000 2.57 120 13:52 29.03.2022
4521 Clear 26 1014 27 10000 3.6 130 12:46 29.03.2022
4522 Clouds 30 1013 21 10000 4.63 150 11:28 29.03.2022
4523 Clouds 31 1013 20 10000 4.63 140 10:23 29.03.2022
4524 Clouds 32 1012 18 10000 5.14 140 09:20 29.03.2022
4525 Clear 32 1013 17 10000 3.09 110 06:54 29.03.2022
4526 Clear 29 1016 20 10000 5.66 120 03:19 29.03.2022
4527 Clear 21 1004 32 10000 0 0 23:46 28.03.2022
4528 Clear 21 1004 32 10000 2.06 300 22:58 28.03.2022
4529 Clear 21 1004 32 10000 2.06 270 22:35 28.03.2022
4530 Clear 21 1004 32 10000 2.57 280 21:48 28.03.2022
4531 Clear 21 1004 32 10000 3.09 290 20:41 28.03.2022
4532 Clear 21 1004 32 10000 0 0 19:59 28.03.2022
4533 Clear 21 1004 32 10000 0 0 19:40 28.03.2022
4534 Clear 21 1004 32 10000 0 0 18:51 28.03.2022
4535 Clear 21 1004 32 10000 0 0 17:41 28.03.2022
4536 Clear 21 1004 32 10000 0 0 16:58 28.03.2022
4537 Clear 21 1004 32 10000 0 0 15:35 28.03.2022
4538 Clear 21 1004 32 10000 0 0 14:24 28.03.2022
4539 Clear 21 1004 32 10000 2.57 110 13:19 28.03.2022
4540 Clear 27 1014 18 10000 3.6 130 11:52 28.03.2022
4541 Clear 32 1013 12 10000 4.63 140 09:58 28.03.2022
4542 Clear 32 1013 12 10000 4.12 140 09:21 28.03.2022
4543 Clear 32 1013 12 10000 5.14 110 08:40 28.03.2022
4544 Clear 32 1013 12 10000 5.14 110 08:20 28.03.2022
4545 Clear 32 1014 12 10000 5.14 140 06:55 28.03.2022
4546 Clear 26 1016 19 10000 0.51 110 02:20 28.03.2022
4547 Clear 12 1014 54 10000 2.57 280 22:36 27.03.2022
4548 Clear 12 1014 54 10000 0 0 21:47 27.03.2022
4549 Clear 21 1004 32 10000 0 0 21:25 27.03.2022
4550 Clear 21 1004 32 10000 0 0 20:24 27.03.2022
4551 Clear 21 1004 32 10000 0 0 19:37 27.03.2022
4552 Clear 21 1004 32 10000 0 0 18:44 27.03.2022
4553 Clear 21 1004 32 10000 0 0 18:23 27.03.2022
4554 Clear 21 1004 32 10000 0 0 17:35 27.03.2022
4555 Clear 21 1004 32 10000 0 0 15:47 27.03.2022
4556 Clear 21 1004 32 10000 1.54 110 13:58 27.03.2022
4557 Clear 21 1004 32 10000 2.57 120 13:20 27.03.2022
4558 Clear 28 1012 13 10000 3.09 130 11:33 27.03.2022
4559 Clear 32 1011 9 10000 3.6 140 09:37 27.03.2022
4560 Clear 31 1012 10 10000 3.6 170 07:31 27.03.2022
4561 Clear 26 1016 17 10000 3.6 120 03:45 27.03.2022
4562 Clear 21 1004 32 10000 0.51 260 00:26 27.03.2022
4563 Clear 21 1004 32 10000 2.57 270 22:49 26.03.2022
4564 Clear 11 1015 62 10000 0 0 21:57 26.03.2022
4565 Clear 12 1014 58 10000 0 0 21:30 26.03.2022
4566 Clear 13 1014 54 10000 0.51 90 19:32 26.03.2022
4567 Clear 13 1014 54 10000 0.51 90 19:32 26.03.2022
4568 Clear 13 1015 54 10000 0 0 18:40 26.03.2022
4569 Clear 15 1015 47 10000 0 0 17:36 26.03.2022
4570 Clear 16 1015 44 10000 0 0 16:34 26.03.2022
4571 Clear 21 1004 32 10000 0 0 15:39 26.03.2022
4572 Clear 21 1004 32 10000 2.57 100 13:56 26.03.2022
4573 Clear 21 1004 32 10000 3.09 110 13:20 26.03.2022
4574 Clear 21 1004 32 10000 4.12 130 11:48 26.03.2022
4575 Clear 21 1004 32 10000 3.6 130 10:48 26.03.2022
4576 Clear 30 1013 19 10000 3.6 150 08:48 26.03.2022
4577 Clear 30 1013 19 10000 4.63 150 06:38 26.03.2022
4578 Clouds 29 1014 21 10000 3.6 90 05:29 26.03.2022
4579 Clouds 23 1018 31 10000 7.72 90 00:54 26.03.2022
4580 Clouds 18 1016 48 10000 3.09 110 22:21 25.03.2022
4581 Clouds 21 1004 32 10000 2.57 100 20:57 25.03.2022
4582 Clouds 21 1004 32 10000 3.09 110 20:26 25.03.2022
4583 Clear 21 1004 32 10000 4.63 110 19:18 25.03.2022
4584 Clouds 21 1004 32 10000 3.6 120 18:22 25.03.2022
4585 Clear 21 1004 32 10000 3.6 120 17:28 25.03.2022
4586 Clear 21 1004 32 10000 3.6 120 16:21 25.03.2022
4587 Clear 21 1004 32 10000 1.54 120 15:26 25.03.2022
4588 Clouds 25 1016 41 10000 4.12 130 13:28 25.03.2022
4589 Clouds 28 1015 34 10000 4.12 130 10:49 25.03.2022
4590 Clouds 29 1013 32 10000 6.69 130 09:28 25.03.2022
4591 Clouds 30 1013 30 10000 6.69 140 08:36 25.03.2022
4592 Clouds 31 1013 30 10000 5.66 110 07:30 25.03.2022
4593 Clouds 30 1014 30 10000 6.17 120 06:29 25.03.2022
4594 Clear 26 1018 44 10000 6.17 100 01:57 25.03.2022
4595 Clouds 21 1004 32 10000 3.09 110 22:56 24.03.2022
4596 Clouds 21 1004 32 10000 4.12 100 21:52 24.03.2022
4597 Clouds 21 1004 32 10000 7.72 90 20:40 24.03.2022
4598 Clouds 21 1004 32 10000 7.2 90 19:48 24.03.2022
4599 Clouds 21 1004 32 10000 6.17 110 17:50 24.03.2022
4600 Clouds 21 1004 32 10000 6.69 110 17:29 24.03.2022
4601 Clouds 21 1004 32 10000 8.23 100 15:52 24.03.2022
4602 Rain 27 1014 39 10000 7.72 110 14:50 24.03.2022
4603 Rain 26 1014 50 10000 4.12 100 14:20 24.03.2022
4604 Rain 27 1014 44 10000 0.51 30 13:24 24.03.2022
4605 Rain 29 1011 37 10000 3.09 10 11:52 24.03.2022
4606 Clouds 33 1010 24 10000 5.14 130 10:18 24.03.2022
4607 Clouds 36 1009 20 10000 6.69 140 08:49 24.03.2022
4608 Clouds 37 1008 18 10000 5.14 170 06:55 24.03.2022
4609 Clear 33 1011 22 10000 3.09 130 03:59 24.03.2022
4610 Clouds 21 1004 32 10000 0 0 23:20 23.03.2022
4611 Clouds 21 1004 32 10000 0.51 310 21:45 23.03.2022
4612 Clouds 21 1004 32 10000 2.57 270 21:20 23.03.2022
4613 Clouds 21 1004 32 10000 2.57 190 19:46 23.03.2022
4614 Clouds 21 1004 32 10000 2.57 260 18:55 23.03.2022
4615 Clear 21 1004 32 10000 1.03 250 17:37 23.03.2022
4616 Clear 21 1004 32 10000 0 0 16:39 23.03.2022
4617 Clear 24 1011 38 10000 0 0 14:51 23.03.2022
4618 Clear 24 1011 35 10000 0.51 50 14:26 23.03.2022
4619 Clouds 27 1010 28 10000 3.09 130 12:55 23.03.2022
4620 Clouds 35 1009 15 10000 3.6 160 09:45 23.03.2022
4621 Clear 36 1009 15 10000 4.12 150 06:48 23.03.2022
4622 Clear 34 1010 17 10000 5.14 100 05:23 23.03.2022
4623 Clouds 25 1013 31 10000 0 0 00:35 23.03.2022
4624 Clouds 20 1012 42 10000 2.57 230 23:39 22.03.2022
4625 Clouds 21 1004 32 10000 2.06 260 21:30 22.03.2022
4626 Clouds 21 1004 32 10000 2.57 310 20:45 22.03.2022
4627 Clouds 21 1004 32 10000 2.57 210 19:43 22.03.2022
4628 Clouds 21 1004 32 10000 2.57 210 19:19 22.03.2022
4629 Clouds 21 1004 32 10000 2.06 360 18:38 22.03.2022
4630 Clouds 21 1004 32 10000 2.57 340 17:37 22.03.2022
4631 Clouds 20 1011 42 10000 2.06 350 16:27 22.03.2022
4632 Clouds 22 1011 30 10000 2.06 300 15:23 22.03.2022
4633 Clouds 23 1011 31 10000 2.06 310 14:47 22.03.2022
4634 Clouds 23 1011 31 10000 2.06 310 14:27 22.03.2022
4635 Clouds 24 1011 29 10000 0 0 13:35 22.03.2022
4636 Clouds 27 1010 22 10000 3.6 170 11:52 22.03.2022
4637 Clouds 33 1009 14 10000 3.09 160 10:40 22.03.2022
4638 Clouds 36 1009 11 10000 4.12 180 08:29 22.03.2022
4639 Clear 36 1010 14 10000 4.63 260 05:25 22.03.2022
4640 Clear 35 1012 14 10000 1.54 260 03:47 22.03.2022
4641 Clear 26 1014 29 10000 1.03 350 00:22 22.03.2022
4642 Clear 21 1004 32 10000 2.57 250 22:29 21.03.2022
4643 Clear 21 1004 32 10000 2.57 270 20:57 21.03.2022
4644 Clear 21 1004 32 10000 0.51 350 20:38 21.03.2022
4645 Clear 21 1004 32 10000 2.57 300 19:58 21.03.2022
4646 Clear 21 1004 32 10000 2.06 290 19:27 21.03.2022
4647 Clear 21 1004 32 10000 2.57 290 18:18 21.03.2022
4648 Clear 21 1004 32 10000 0 0 17:19 21.03.2022
4649 Clear 21 1004 32 10000 2.06 30 16:44 21.03.2022
4650 Clear 21 1004 32 10000 0.51 20 15:52 21.03.2022
4651 Clear 21 1004 32 10000 0 0 15:19 21.03.2022
4652 Clear 23 1014 35 10000 2.57 130 13:58 21.03.2022
4653 Clear 26 1013 27 10000 2.57 120 12:35 21.03.2022
4654 Clear 27 1013 26 10000 3.09 140 11:45 21.03.2022
4655 Clear 32 1012 17 10000 5.14 120 10:40 21.03.2022
4656 Clear 35 1011 16 10000 6.17 150 08:30 21.03.2022
4657 Clear 34 1012 16 10000 4.12 140 06:48 21.03.2022
4658 Clear 33 1016 21 10000 5.66 80 02:51 21.03.2022
4659 Clear 20 1016 52 10000 2.06 280 23:43 20.03.2022
4660 Clear 21 1004 32 10000 2.57 300 22:44 20.03.2022
4661 Clear 21 1004 32 10000 1.54 280 21:52 20.03.2022
4662 Clear 21 1004 32 10000 2.57 330 21:23 20.03.2022
4663 Clear 21 1004 32 10000 2.06 290 20:43 20.03.2022
4664 Clear 21 1004 32 10000 0 0 19:59 20.03.2022
4665 Clear 21 1004 32 10000 0 0 19:28 20.03.2022
4666 Clear 21 1004 32 10000 1.03 360 18:19 20.03.2022
4667 Clear 21 1004 32 10000 0 0 17:33 20.03.2022
4668 Clear 21 1004 32 10000 0 0 17:33 20.03.2022
4669 Clear 21 1004 32 10000 3.09 340 16:57 20.03.2022
4670 Clear 21 1004 32 10000 0 0 15:28 20.03.2022
4671 Clear 21 1004 32 10000 0 0 14:34 20.03.2022
4672 Clear 26 1015 25 10000 3.09 130 12:30 20.03.2022
4673 Clear 28 1014 23 10000 3.09 120 11:22 20.03.2022
4674 Clear 34 1013 15 10000 7.2 130 08:59 20.03.2022
4675 Clear 35 1013 15 10000 7.72 130 07:26 20.03.2022
4676 Clear 34 1015 17 10000 8.75 110 04:23 20.03.2022
4677 Clouds 30 1017 26 10000 3.6 100 01:29 20.03.2022
4678 Clouds 26 1016 38 10000 2.57 220 00:39 20.03.2022
4679 Clouds 20 1015 56 10000 2.57 290 23:19 19.03.2022
4680 Clouds 21 1004 32 10000 0 0 21:27 19.03.2022
4681 Clouds 21 1004 32 10000 0 0 20:39 19.03.2022
4682 Clear 20 1014 60 10000 0 0 18:58 19.03.2022
4683 Clear 20 1014 56 10000 1.54 70 18:23 19.03.2022
4684 Clear 21 1014 52 10000 2.57 80 17:35 19.03.2022
4685 Clear 25 1014 33 10000 2.06 100 15:43 19.03.2022
4686 Clear 25 1014 36 10000 0 0 14:34 19.03.2022
4687 Clouds 28 1014 28 10000 3.6 110 12:59 19.03.2022
4688 Clouds 28 1013 28 10000 3.09 120 12:39 19.03.2022
4689 Clouds 30 1013 23 10000 3.6 120 11:51 19.03.2022
4690 Clouds 32 1012 20 10000 4.12 120 10:45 19.03.2022
4691 Clouds 36 1011 14 10000 2.57 130 06:51 19.03.2022
4692 Clouds 35 1014 20 10000 4.63 80 03:24 19.03.2022
4693 Clouds 34 1014 21 10000 4.12 50 02:29 19.03.2022
4694 Clear 23 1014 56 10000 0 0 23:43 18.03.2022
4695 Clouds 21 1013 68 10000 2.57 220 22:27 18.03.2022
4696 Clear 23 1012 53 10000 2.57 50 21:37 18.03.2022
4697 Clouds 25 1012 50 10000 4.63 140 19:51 18.03.2022
4698 Clouds 29 1011 30 10000 5.14 40 19:21 18.03.2022
4699 Clouds 29 1012 32 10000 1.03 320 17:43 18.03.2022
4700 Clouds 29 1013 30 10000 2.57 40 16:47 18.03.2022
4701 Clouds 25 1013 41 10000 0 0 14:51 18.03.2022
4702 Clouds 26 1012 41 10000 2.06 170 14:21 18.03.2022
4703 Clouds 28 1012 32 10000 2.57 130 12:26 18.03.2022
4704 Clouds 32 1011 22 10000 3.6 140 10:47 18.03.2022
4705 Clouds 36 1010 14 10000 6.69 150 09:28 18.03.2022
4706 Clouds 38 1010 15 10000 5.14 130 07:59 18.03.2022
4707 Clouds 38 1011 16 10000 3.09 60 06:34 18.03.2022
4708 Clouds 33 1014 24 10000 1.54 110 02:51 18.03.2022
4709 Clouds 28 1015 32 10000 2.57 220 00:22 18.03.2022
4710 Clouds 24 1015 43 10000 3.09 240 23:20 17.03.2022
4711 Clouds 21 1004 32 10000 3.09 280 22:23 17.03.2022
4712 Clouds 21 1004 32 10000 1.03 290 21:48 17.03.2022
4713 Clouds 22 1014 46 10000 3.09 240 21:20 17.03.2022
4714 Clouds 23 1013 43 10000 0 0 20:41 17.03.2022
4715 Clear 24 1013 41 10000 2.57 280 19:45 17.03.2022
4716 Clouds 24 1013 41 10000 0 0 18:57 17.03.2022
4717 Clouds 27 1013 29 10000 3.6 140 17:56 17.03.2022
4718 Clouds 24 1013 38 10000 0.51 350 16:43 17.03.2022
4719 Clouds 26 1012 36 10000 2.57 140 15:44 17.03.2022
4720 Clouds 26 1012 36 10000 2.57 140 15:22 17.03.2022
4721 Clouds 27 1012 29 10000 0.51 350 13:50 17.03.2022
4722 Clouds 29 1012 24 10000 2.57 110 12:49 17.03.2022
4723 Clouds 30 1011 21 10000 3.09 110 12:21 17.03.2022
4724 Clouds 32 1011 18 10000 3.6 130 11:25 17.03.2022
4725 Clouds 37 1010 12 10000 5.14 140 09:48 17.03.2022
4726 Clouds 39 1009 13 10000 6.17 120 08:31 17.03.2022
4727 Clouds 39 1009 12 10000 3.6 140 07:32 17.03.2022
4728 Clear 38 1011 13 10000 3.6 100 05:39 17.03.2022
4729 Clear 33 1013 19 10000 4.12 60 00:45 17.03.2022
4730 Clouds 27 1012 32 10000 3.6 70 22:59 16.03.2022
4731 Clouds 27 1012 32 10000 3.6 70 22:40 16.03.2022
4732 Clouds 27 1012 32 10000 3.6 70 22:19 16.03.2022
4733 Clouds 28 1012 30 10000 2.57 330 21:29 16.03.2022
4734 Clouds 27 1011 34 10000 0.51 340 19:26 16.03.2022
4735 Clouds 28 1011 32 10000 1.54 200 18:55 16.03.2022
4736 Clouds 28 1010 30 10000 1.54 360 18:20 16.03.2022
4737 Clouds 29 1011 28 10000 0 0 17:37 16.03.2022
4738 Clouds 29 1011 26 10000 1.03 310 16:50 16.03.2022
4739 Clouds 28 1011 32 10000 3.6 270 15:41 16.03.2022
4740 Clouds 29 1010 26 10000 1.54 60 13:44 16.03.2022
4741 Clouds 28 1010 30 10000 0 0 12:59 16.03.2022
4742 Clouds 33 1009 18 10000 2.57 70 11:44 16.03.2022
4743 Clouds 33 1009 18 10000 2.57 70 11:18 16.03.2022
4744 Clouds 38 1008 13 10000 2.06 170 09:58 16.03.2022
4745 Clouds 39 1008 12 10000 4.63 230 08:37 16.03.2022
4746 Clouds 38 1011 14 10000 4.12 360 03:33 16.03.2022
4747 Clear 23 1011 49 10000 0 0 23:39 15.03.2022
4748 Clear 21 1011 43 10000 2.57 80 22:37 15.03.2022
4749 Clear 19 1010 59 10000 0 0 21:33 15.03.2022
4750 Clear 20 1010 56 10000 0 0 19:47 15.03.2022
4751 Clear 22 1010 46 10000 0 0 18:38 15.03.2022
4752 Clear 22 1010 46 10000 0 0 16:45 15.03.2022
4753 Clear 24 1011 38 10000 0 0 15:44 15.03.2022
4754 Clear 25 1011 36 10000 2.06 100 14:55 15.03.2022
4755 Clear 27 1011 28 10000 2.57 70 14:30 15.03.2022
4756 Clouds 28 1010 28 10000 3.09 80 13:24 15.03.2022
4757 Clouds 31 1009 22 10000 4.12 130 11:34 15.03.2022
4758 Clouds 32 1009 20 10000 3.6 130 10:56 15.03.2022
4759 Clouds 37 1008 13 10000 3.09 100 09:29 15.03.2022
4760 Clouds 38 1008 14 10000 5.14 190 08:32 15.03.2022
4761 Clouds 38 1009 13 10000 3.6 200 07:39 15.03.2022
4762 Clouds 37 1009 12 10000 5.66 280 06:32 15.03.2022
4763 Clear 33 1013 17 10000 3.6 60 01:57 15.03.2022
4764 Clouds 23 1012 38 10000 0 0 23:31 14.03.2022
4765 Clouds 22 1012 40 10000 2.06 360 22:52 14.03.2022
4766 Clouds 23 1012 35 10000 0 0 21:55 14.03.2022
4767 Clouds 22 1011 40 10000 2.57 290 20:59 14.03.2022
4768 Clouds 23 1011 33 10000 3.09 330 20:28 14.03.2022
4769 Clouds 23 1011 33 10000 2.06 340 19:32 14.03.2022
4770 Clouds 22 1012 35 10000 3.09 280 17:58 14.03.2022
4771 Clouds 21 1012 40 10000 2.57 290 17:40 14.03.2022
4772 Clouds 22 1012 37 10000 2.06 240 16:33 14.03.2022
4773 Clouds 24 1013 33 10000 0 0 14:48 14.03.2022
4774 Clouds 28 1012 21 10000 2.06 130 13:29 14.03.2022
4775 Clouds 30 1010 17 10000 3.6 130 11:26 14.03.2022
4776 Clouds 36 1009 12 10000 4.63 120 09:57 14.03.2022
4777 Clouds 37 1009 12 10000 4.63 130 09:34 14.03.2022
4778 Clouds 37 1009 12 10000 4.63 140 08:57 14.03.2022
4779 Clouds 37 1009 12 10000 3.09 150 08:26 14.03.2022
4780 Clear 37 1010 12 10000 5.14 180 06:47 14.03.2022
4781 Clear 34 1014 14 10000 3.09 90 02:59 14.03.2022
4782 Clear 30 1014 19 10000 2.57 100 01:39 14.03.2022
4783 Clear 20 1014 45 10000 0 0 23:41 13.03.2022
4784 Clear 16 1014 63 10000 0 0 21:46 13.03.2022
4785 Clear 17 1014 55 10000 0 0 21:21 13.03.2022
4786 Clear 17 1013 55 10000 0 0 20:46 13.03.2022
4787 Clear 18 1013 52 10000 0 0 20:21 13.03.2022
4788 Clear 18 1013 48 10000 0 0 19:41 13.03.2022
4789 Clear 18 1013 48 10000 0 0 19:22 13.03.2022
4790 Clear 22 1013 28 10000 3.09 40 18:41 13.03.2022
4791 Clear 22 1013 28 10000 3.09 40 18:22 13.03.2022
4792 Clear 20 1014 42 10000 0 0 17:36 13.03.2022
4793 Clear 21 1014 40 10000 0 0 16:44 13.03.2022
4794 Clear 22 1014 33 10000 1.54 80 16:21 13.03.2022
4795 Clear 25 1014 23 10000 3.6 70 15:36 13.03.2022
4796 Clear 25 1014 25 10000 2.57 80 14:36 13.03.2022
4797 Clouds 26 1014 25 10000 3.09 90 13:27 13.03.2022
4798 Clouds 28 1013 23 10000 3.09 90 12:21 13.03.2022
4799 Clouds 31 1013 16 10000 4.63 90 11:36 13.03.2022
4800 Clouds 32 1012 17 10000 4.12 110 10:49 13.03.2022
4801 Clouds 34 1012 15 10000 4.63 140 10:25 13.03.2022
4802 Clouds 36 1011 13 10000 5.14 150 09:41 13.03.2022
4803 Clouds 36 1011 13 10000 4.63 150 08:49 13.03.2022
4804 Clouds 37 1011 13 10000 4.12 130 08:21 13.03.2022
4805 Clear 36 1012 12 10000 2.06 80 06:40 13.03.2022
4806 Clear 34 1015 14 10000 4.63 90 03:56 13.03.2022
4807 Clear 26 1017 22 10000 3.6 100 00:48 13.03.2022
4808 Clear 15 1016 58 10000 0 0 22:48 12.03.2022
4809 Clear 15 1015 55 10000 0 0 20:59 12.03.2022
4810 Clear 16 1014 51 10000 2.06 270 20:18 12.03.2022
4811 Clear 16 1014 55 10000 2.06 280 19:43 12.03.2022
4812 Clear 17 1014 51 10000 0 0 18:34 12.03.2022
4813 Clear 17 1014 48 10000 1.03 100 17:46 12.03.2022
4814 Clear 19 1015 45 10000 0 0 16:25 12.03.2022
4815 Clear 21 1015 32 10000 3.09 80 15:24 12.03.2022
4816 Clear 21 1015 30 10000 2.06 70 14:52 12.03.2022
4817 Clear 21 1015 32 10000 2.57 110 13:53 12.03.2022
4818 Clear 21 1015 32 10000 2.57 110 13:53 12.03.2022
4819 Clear 26 1014 24 10000 3.6 110 12:25 12.03.2022
4820 Clear 26 1013 24 10000 3.6 130 11:51 12.03.2022
4821 Clear 28 1013 20 10000 3.6 130 11:19 12.03.2022
4822 Clear 33 1012 14 10000 3.6 140 09:58 12.03.2022
4823 Clear 33 1012 14 10000 3.6 140 09:58 12.03.2022
4824 Clear 33 1012 14 10000 4.12 170 09:38 12.03.2022
4825 Clear 34 1012 13 10000 3.09 160 07:50 12.03.2022
4826 Clear 33 1014 14 10000 4.63 120 05:20 12.03.2022
4827 Clear 23 1017 28 10000 0 0 00:24 12.03.2022
4828 Clear 16 1016 59 10000 2.57 300 23:28 11.03.2022
4829 Clear 13 1015 67 10000 1.03 290 21:47 11.03.2022
4830 Clear 14 1015 62 10000 0 0 20:57 11.03.2022
4831 Clear 15 1015 58 10000 0 0 20:37 11.03.2022
4832 Clear 15 1014 58 10000 0 0 19:53 11.03.2022
4833 Clear 16 1014 55 10000 0 0 19:26 11.03.2022
4834 Clear 17 1015 51 10000 0 0 17:34 11.03.2022
4835 Clear 18 1015 45 10000 0 0 16:42 11.03.2022
4836 Clear 17 1015 51 10000 0 0 15:57 11.03.2022
4837 Clear 21 1015 32 10000 0 0 14:21 11.03.2022
4838 Clear 23 1014 28 10000 3.6 140 12:52 11.03.2022
4839 Clear 23 1014 31 10000 3.6 140 12:21 11.03.2022
4840 Clear 24 1014 27 10000 4.12 140 11:55 11.03.2022
4841 Clear 30 1013 16 10000 3.6 130 10:18 11.03.2022
4842 Clear 33 1002 13 10000 3.6 120 08:57 11.03.2022
4843 Clear 35 1002 14 10000 4.12 130 08:24 11.03.2022
4844 Clear 34 1002 14 10000 4.12 150 07:45 11.03.2022
4845 Clouds 31 1014 14 10000 5.14 130 05:44 11.03.2022
4846 Clear 30 1015 19 10000 3.6 130 03:48 11.03.2022
4847 Clouds 16 1017 55 10000 0 0 23:38 10.03.2022
4848 Clouds 12 1016 62 10000 0 0 22:30 10.03.2022
4849 Clouds 13 1016 58 10000 0 0 21:40 10.03.2022
4850 Clouds 13 1016 58 10000 0 0 21:18 10.03.2022
4851 Clouds 14 1015 54 10000 0 0 19:43 10.03.2022
4852 Clear 16 1004 41 10000 0 0 18:53 10.03.2022
4853 Clear 19 1005 31 10000 1.03 60 17:28 10.03.2022
4854 Clear 22 1005 30 10000 0.89 150 15:55 10.03.2022
4855 Clouds 23 1005 23 10000 0.89 232 14:44 10.03.2022
4856 Clear 25 1005 21 10000 3.09 130 13:19 10.03.2022
4857 Clear 26 1004 21 10000 3.09 120 11:57 10.03.2022
4858 Clear 27 1004 20 10000 3.6 130 10:53 10.03.2022
4859 Clear 30 1003 13 10000 5.14 110 09:18 10.03.2022
4860 Clear 31 1013 13 10000 4.63 150 07:33 10.03.2022
4861 Clear 29 1016 21 10000 5.14 150 04:19 10.03.2022
4862 Clear 24 1018 33 10000 5.14 120 01:40 10.03.2022
4863 Clear 13 1017 71 10000 0 0 22:46 09.03.2022
4864 Clouds 13 1017 71 10000 0 0 21:49 09.03.2022
4865 Clouds 14 1016 67 10000 0 0 21:27 09.03.2022
4866 Clouds 14 1016 67 10000 2.57 150 19:43 09.03.2022
4867 Clear 16 1016 63 10000 0 0 18:29 09.03.2022
4868 Clear 17 1017 55 10000 0 0 17:26 09.03.2022
4869 Clear 17 1017 55 10000 0 0 17:26 09.03.2022
4870 Clear 17 1017 55 10000 0 0 16:30 09.03.2022
4871 Clear 18 1017 52 10000 0 0 14:56 09.03.2022
4872 Clear 20 1016 42 10000 0 0 13:52 09.03.2022
4873 Clouds 23 1016 33 10000 3.09 130 12:39 09.03.2022
4874 Clouds 24 1015 31 10000 3.09 130 11:52 09.03.2022
4875 Clouds 25 1015 29 10000 3.09 130 11:32 09.03.2022
4876 Clear 29 1014 20 10000 6.17 130 09:45 09.03.2022
4877 Clear 30 1013 17 10000 5.14 140 08:47 09.03.2022
4878 Clear 30 1014 16 10000 6.17 140 06:51 09.03.2022
4879 Clear 24 1018 29 10000 6.17 100 01:54 09.03.2022
4880 Clear 21 1018 43 10000 1.03 110 00:26 09.03.2022
4881 Clear 14 1017 72 10000 0.51 270 22:46 08.03.2022
4882 Clear 14 1016 72 10000 2.57 290 21:52 08.03.2022
4883 Clear 15 1016 67 10000 2.57 280 21:22 08.03.2022
4884 Clear 15 1015 67 10000 3.6 160 20:24 08.03.2022
4885 Clear 16 1015 63 10000 2.57 180 19:24 08.03.2022
4886 Clear 16 1015 63 10000 3.6 160 18:23 08.03.2022
4887 Clear 17 1015 55 10000 3.09 180 16:56 08.03.2022
4888 Clear 18 1016 48 10000 3.6 180 14:58 08.03.2022
4889 Clear 20 1016 40 10000 3.09 170 13:48 08.03.2022
4890 Clear 22 1015 30 10000 3.6 150 12:23 08.03.2022
4891 Clear 25 1014 23 10000 4.12 160 11:42 08.03.2022
4892 Clear 28 1014 20 10000 5.66 160 10:28 08.03.2022
4893 Clear 30 1013 17 10000 6.17 150 08:57 08.03.2022
4894 Clear 30 1013 21 10000 6.17 160 06:30 08.03.2022
4895 Clear 27 1016 1 10000 5.14 120 02:50 08.03.2022
4896 Clear 17 1015 59 10000 2.06 250 22:48 07.03.2022
4897 Clear 17 1014 59 10000 2.57 190 21:45 07.03.2022
4898 Clear 18 1014 55 10000 2.57 150 21:22 07.03.2022
4899 Clear 17 1013 63 10000 2.06 170 20:34 07.03.2022
4900 Clear 18 1013 59 10000 1.54 170 19:50 07.03.2022
4901 Clear 19 1013 55 10000 0.51 170 19:20 07.03.2022
4902 Clear 20 1013 52 10000 0.51 180 18:29 07.03.2022
4903 Clear 21 1013 52 10000 2.57 170 17:31 07.03.2022
4904 Clear 20 1014 64 10000 3.09 160 16:43 07.03.2022
4905 Clear 23 1014 49 10000 2.57 140 14:51 07.03.2022
4906 Clear 26 1013 41 10000 3.09 150 12:34 07.03.2022
4907 Clear 28 1012 34 10000 4.63 160 11:26 07.03.2022
4908 Clouds 31 1012 27 10000 5.66 160 10:30 07.03.2022
4909 Clear 32 1011 27 10000 6.69 150 08:34 07.03.2022
4910 Clear 32 1011 27 10000 6.69 150 08:34 07.03.2022
4911 Clear 28 1015 32 10000 4.12 130 02:25 07.03.2022
4912 Clouds 26 1015 38 10000 4.12 110 00:20 07.03.2022
4913 Clouds 23 1015 46 10000 1.03 130 23:23 06.03.2022
4914 Clouds 19 1014 63 10000 2.57 140 22:27 06.03.2022
4915 Clouds 21 1014 52 10000 3.09 140 21:24 06.03.2022
4916 Clouds 23 1014 43 10000 3.6 140 20:29 06.03.2022
4917 Clouds 25 1014 38 10000 3.6 140 19:39 06.03.2022
4918 Clear 25 1014 41 10000 3.09 150 18:49 06.03.2022
4919 Clear 26 1014 38 10000 3.09 140 17:46 06.03.2022
4920 Clouds 26 1014 38 10000 2.57 130 17:19 06.03.2022
4921 Clouds 26 1014 38 10000 2.57 140 16:28 06.03.2022
4922 Clouds 27 1015 36 10000 3.09 140 15:25 06.03.2022
4923 Clouds 27 1014 36 10000 3.09 140 14:42 06.03.2022
4924 Clouds 27 1015 36 10000 3.09 140 13:48 06.03.2022
4925 Clouds 28 1014 34 10000 3.6 160 12:39 06.03.2022
4926 Clouds 29 1014 30 10000 3.6 150 11:39 06.03.2022
4927 Clear 30 1013 30 10000 4.63 140 10:33 06.03.2022
4928 Clear 32 1013 27 10000 6.69 140 08:51 06.03.2022
4929 Clear 36 1000 43 10000 5.66 160 08:27 06.03.2022
4930 Clouds 36 1000 43 10000 5.66 140 07:23 06.03.2022
4931 Clouds 26 1016 38 10000 6.69 100 01:54 06.03.2022
4932 Clouds 25 1016 41 10000 6.69 110 00:34 06.03.2022
4933 Clouds 25 1016 38 10000 5.66 110 23:57 05.03.2022
4934 Clouds 23 1016 46 10000 4.12 120 23:18 05.03.2022
4935 Clouds 22 1015 53 10000 3.09 120 22:31 05.03.2022
4936 Clouds 22 1015 53 10000 3.09 120 22:31 05.03.2022
4937 Clouds 23 1015 46 10000 3.6 130 21:25 05.03.2022
4938 Clouds 23 1014 46 10000 4.12 130 19:59 05.03.2022
4939 Clouds 24 1014 46 10000 3.6 130 19:18 05.03.2022
4940 Clouds 24 1014 46 10000 3.6 140 18:37 05.03.2022
4941 Clouds 23 1014 49 10000 3.09 140 17:31 05.03.2022
4942 Clear 23 1014 53 10000 3.6 140 16:18 05.03.2022
4943 Clear 25 1014 47 10000 3.6 150 14:53 05.03.2022
4944 Clear 25 1014 47 10000 3.09 140 14:35 05.03.2022
4945 Clear 25 1014 47 10000 3.09 140 14:35 05.03.2022
4946 Clear 26 1014 47 10000 3.09 140 13:37 05.03.2022
4947 Clear 27 1014 41 10000 3.6 140 12:33 05.03.2022
4948 Clear 29 1013 32 10000 4.63 140 11:20 05.03.2022
4949 Clear 30 1012 30 10000 4.63 140 10:48 05.03.2022
4950 Clear 32 1011 27 10000 6.17 130 09:28 05.03.2022
4951 Clear 33 1011 25 10000 7.2 110 07:59 05.03.2022
4952 Clouds 36 1000 43 10000 6.17 130 06:29 05.03.2022
4953 Clouds 36 1000 43 10000 6.17 140 04:54 05.03.2022
4954 Clear 25 1014 50 10000 4.12 130 23:59 04.03.2022
4955 Clear 22 1013 60 10000 3.09 110 22:45 04.03.2022
4956 Clear 22 1013 60 10000 3.09 110 22:23 04.03.2022
4957 Clear 21 1012 64 10000 2.06 200 21:39 04.03.2022
4958 Clear 20 1011 68 10000 0 0 20:32 04.03.2022
4959 Clear 22 1011 56 10000 0 0 19:36 04.03.2022
4960 Clear 23 1011 53 10000 0 0 18:47 04.03.2022
4961 Clear 23 1011 53 10000 0 0 18:22 04.03.2022
4962 Clear 23 1011 53 10000 0 0 17:28 04.03.2022
4963 Clear 25 1011 44 10000 1.03 140 15:48 04.03.2022
4964 Clear 27 1011 34 10000 3.09 70 14:40 04.03.2022
4965 Clear 28 1011 32 10000 3.6 90 13:27 04.03.2022
4966 Clear 36 1000 43 10000 4.12 120 11:57 04.03.2022
4967 Clear 36 1000 43 10000 5.66 120 10:58 04.03.2022
4968 Clear 36 1000 43 10000 5.66 130 10:21 04.03.2022
4969 Clear 36 1000 43 10000 4.63 130 08:48 04.03.2022
4970 Clear 36 1000 43 10000 3.6 150 07:47 04.03.2022
4971 Clear 36 1000 43 10000 4.12 120 05:26 04.03.2022
4972 Clear 29 1012 26 10000 1.03 80 00:41 04.03.2022
4973 Clouds 22 1011 49 10000 2.06 120 22:54 03.03.2022
4974 Clouds 24 1010 41 10000 2.57 80 21:58 03.03.2022
4975 Clouds 24 1010 38 10000 0 0 21:34 03.03.2022
4976 Clouds 25 1009 36 10000 3.6 90 20:21 03.03.2022
4977 Clouds 26 1009 31 10000 3.09 120 18:58 03.03.2022
4978 Clouds 28 1009 28 10000 1.54 80 18:25 03.03.2022
4979 Clouds 31 1009 22 10000 3.6 60 17:31 03.03.2022
4980 Clouds 29 1009 28 10000 4.63 60 16:28 03.03.2022
4981 Clouds 29 1010 30 10000 4.12 60 15:41 03.03.2022
4982 Clouds 36 1000 43 10000 3.09 80 14:44 03.03.2022
4983 Clouds 36 1000 43 10000 3.09 80 14:25 03.03.2022
4984 Clouds 36 1000 43 10000 3.6 90 12:28 03.03.2022
4985 Clouds 36 1000 43 10000 3.09 120 10:56 03.03.2022
4986 Clouds 36 1000 43 10000 3.6 110 09:56 03.03.2022
4987 Clouds 39 1006 14 10000 2.06 170 08:42 03.03.2022
4988 Clear 40 1007 12 10000 2.57 210 06:54 03.03.2022
4989 Clear 36 1000 43 10000 3.09 310 05:20 03.03.2022
4990 Clear 28 1010 30 10000 2.06 40 23:45 02.03.2022
4991 Clear 25 1009 38 10000 2.57 60 22:53 02.03.2022
4992 Clear 22 1009 56 10000 2.06 110 22:31 02.03.2022
4993 Clear 23 1008 49 10000 2.06 80 20:59 02.03.2022
4994 Clear 23 1008 49 10000 3.09 110 20:25 02.03.2022
4995 Clear 25 1008 41 10000 3.09 50 19:37 02.03.2022
4996 Clouds 25 1008 41 10000 2.57 60 18:58 02.03.2022
4997 Clouds 26 1008 38 10000 3.6 40 18:31 02.03.2022
4998 Clouds 27 1009 36 10000 2.57 10 17:41 02.03.2022
4999 Clouds 26 1009 41 10000 2.57 30 16:52 02.03.2022
5000 Clouds 28 1009 36 10000 3.6 60 15:46 02.03.2022
5001 Clouds 29 1009 37 10000 3.09 70 13:52 02.03.2022
5002 Clouds 36 1000 43 10000 3.6 100 12:46 02.03.2022
5003 Clouds 36 1000 43 10000 4.12 110 12:24 02.03.2022
5004 Clouds 36 1000 43 10000 3.6 120 11:26 02.03.2022
5005 Clouds 36 1000 43 10000 4.12 130 10:31 02.03.2022
5006 Clouds 36 1000 43 10000 4.12 130 09:35 02.03.2022
5007 Clouds 38 1006 17 10000 2.57 160 08:28 02.03.2022
5008 Clouds 38 1007 19 10000 5.66 230 07:23 02.03.2022
5009 Clear 36 1000 43 10000 3.6 100 04:46 02.03.2022
5010 Clear 29 1010 37 10000 0 0 00:40 02.03.2022
5011 Clear 29 1010 37 10000 0 0 00:40 02.03.2022
5012 Clear 23 1010 60 10000 1.03 300 23:24 01.03.2022
5013 Clear 20 1010 68 10000 3.09 290 22:37 01.03.2022
5014 Clear 20 1009 68 10000 0 0 21:37 01.03.2022
5015 Clear 22 1009 56 10000 2.57 120 20:38 01.03.2022
5016 Clear 22 1009 56 10000 2.57 120 20:19 01.03.2022
5017 Clouds 23 1009 56 10000 1.54 110 18:52 01.03.2022
5018 Clear 24 1009 50 10000 3.09 110 18:22 01.03.2022
5019 Clear 22 1009 64 10000 0 0 17:39 01.03.2022
5020 Clear 24 1010 57 10000 0 0 16:36 01.03.2022
5021 Clear 24 1010 57 10000 1.03 100 15:47 01.03.2022
5022 Clear 26 1010 44 10000 2.57 60 14:53 01.03.2022
5023 Clear 27 1010 39 10000 2.57 70 14:31 01.03.2022
5024 Clouds 28 1010 39 10000 2.57 70 13:26 01.03.2022
5025 Clouds 31 1009 30 10000 3.09 100 12:36 01.03.2022
5026 Clouds 36 1000 43 10000 3.09 150 10:57 01.03.2022
5027 Clouds 36 1000 43 10000 2.06 160 09:43 01.03.2022
5028 Clouds 36 1000 43 10000 3.09 140 08:20 01.03.2022
5029 Clouds 36 1000 43 10000 2.57 180 06:47 01.03.2022
5030 Clouds 36 1000 43 10000 3.6 80 03:26 01.03.2022
5031 Clouds 30 1011 35 10000 3.6 90 00:48 01.03.2022
5032 Clouds 23 1011 60 10000 0 0 23:39 28.02.2022
5033 Clouds 21 1010 68 10000 0 0 22:38 28.02.2022
5034 Clouds 21 1010 64 10000 2.57 320 21:47 28.02.2022
5035 Clouds 22 1010 64 10000 2.06 290 20:46 28.02.2022
5036 Clouds 21 1010 68 10000 2.06 290 19:51 28.02.2022
5037 Clouds 22 1010 64 10000 0 0 18:50 28.02.2022
5038 Clouds 22 1010 68 10000 0 0 17:43 28.02.2022
5039 Clouds 22 1010 68 10000 0 0 17:21 28.02.2022
5040 Clouds 23 1010 64 10000 0 0 16:21 28.02.2022
5041 Clouds 25 1010 57 10000 0 0 14:32 28.02.2022
5042 Clouds 26 1010 50 10000 0 0 13:53 28.02.2022
5043 Clouds 27 1010 44 10000 0 0 13:24 28.02.2022
5044 Clouds 30 1009 32 10000 3.09 110 12:25 28.02.2022
5045 Clouds 36 1000 43 10000 2.57 110 11:19 28.02.2022
5046 Clouds 36 1000 43 10000 4.12 110 10:23 28.02.2022
5047 Clouds 36 1000 43 10000 3.6 110 09:44 28.02.2022
5048 Clouds 36 1000 43 10000 3.6 90 08:54 28.02.2022
5049 Clouds 36 1000 43 10000 3.6 140 07:59 28.02.2022
5050 Clouds 36 1000 43 10000 3.6 110 06:31 28.02.2022
5051 Clouds 36 1000 43 10000 3.09 150 04:31 28.02.2022
5052 Clouds 31 1012 30 10000 3.09 50 00:53 28.02.2022
5053 Clear 20 1011 73 10000 2.06 290 22:53 27.02.2022
5054 Clear 20 1011 73 10000 2.57 310 22:32 27.02.2022
5055 Clear 20 1010 68 10000 0.51 270 21:42 27.02.2022
5056 Clear 20 1010 73 10000 0.51 280 20:44 27.02.2022
5057 Clear 20 1010 73 10000 0.51 280 20:18 27.02.2022
5058 Clear 20 1010 73 10000 2.06 320 19:49 27.02.2022
5059 Clear 21 1010 68 10000 0 0 19:21 27.02.2022
5060 Clear 23 1010 60 10000 2.06 350 18:33 27.02.2022
5061 Clear 22 1010 64 10000 0 0 17:49 27.02.2022
5062 Clear 23 1011 60 10000 0 0 16:25 27.02.2022
5063 Clear 23 1011 60 10000 0 0 15:24 27.02.2022
5064 Clear 29 1010 34 10000 3.09 120 12:37 27.02.2022
5065 Clear 29 1009 34 10000 3.09 140 11:54 27.02.2022
5066 Clear 36 1000 43 10000 4.12 140 10:37 27.02.2022
5067 Clear 36 1000 43 10000 5.66 120 09:58 27.02.2022
5068 Clear 36 1000 43 10000 5.14 150 09:24 27.02.2022
5069 Clear 36 1000 43 10000 4.63 130 08:48 27.02.2022
5070 Clear 36 1000 43 10000 5.14 130 06:26 27.02.2022
5071 Clear 36 1000 43 10000 5.66 90 03:44 27.02.2022
5072 Clouds 26 1011 53 10000 0.51 300 23:57 26.02.2022
5073 Clouds 20 1011 73 10000 2.06 290 22:43 26.02.2022
5074 Clouds 20 1011 73 10000 0 0 21:29 26.02.2022
5075 Clouds 21 1010 73 10000 2.06 320 20:43 26.02.2022
5076 Clouds 21 1010 73 10000 0 0 19:57 26.02.2022
5077 Clouds 21 1010 73 10000 0 0 19:33 26.02.2022
5078 Clouds 21 1010 73 10000 0 0 19:33 26.02.2022
5079 Clouds 23 1010 64 10000 3.09 350 18:33 26.02.2022
5080 Clouds 23 1011 68 10000 2.57 290 17:37 26.02.2022
5081 Clouds 23 1011 64 10000 0 0 16:39 26.02.2022
5082 Clouds 24 1011 60 10000 0 0 15:38 26.02.2022
5083 Clouds 24 1011 60 10000 0 0 15:19 26.02.2022
5084 Clouds 25 1011 57 10000 0 0 14:42 26.02.2022
5085 Clouds 25 1011 57 10000 0 0 13:53 26.02.2022
5086 Clouds 27 1011 47 10000 2.57 140 12:53 26.02.2022
5087 Clouds 29 1010 39 10000 2.57 130 11:52 26.02.2022
5088 Clouds 30 1009 32 10000 2.57 120 11:25 26.02.2022
5089 Clouds 36 1000 43 10000 5.14 130 09:44 26.02.2022
5090 Clear 36 1000 43 10000 5.14 120 08:35 26.02.2022
5091 Clouds 36 1000 43 10000 5.66 170 06:31 26.02.2022
5092 Clear 27 1012 41 10000 0 0 00:25 26.02.2022
5093 Clear 19 1011 72 10000 0 0 22:43 25.02.2022
5094 Clear 19 1011 72 10000 0 0 21:33 25.02.2022
5095 Clear 20 1010 68 10000 0 0 20:56 25.02.2022
5096 Clear 20 1010 68 10000 2.06 270 20:27 25.02.2022
5097 Clear 22 1011 60 10000 0 0 17:57 25.02.2022
5098 Clear 22 1011 64 10000 0 0 16:59 25.02.2022
5099 Clouds 24 1011 57 10000 2.06 190 15:56 25.02.2022
5100 Clouds 25 1012 47 10000 1.54 170 15:24 25.02.2022
5101 Clouds 26 1012 47 10000 1.54 180 14:56 25.02.2022
5102 Clouds 25 1012 50 10000 1.03 180 14:27 25.02.2022
5103 Clouds 26 1012 53 10000 3.09 190 13:30 25.02.2022
5104 Clouds 27 1011 39 10000 2.57 150 12:21 25.02.2022
5105 Clear 29 1010 34 10000 3.09 140 11:22 25.02.2022
5106 Clear 36 1000 43 10000 4.63 130 10:23 25.02.2022
5107 Clear 36 1000 43 10000 4.63 130 10:23 25.02.2022
5108 Clear 36 1000 43 10000 6.17 130 09:46 25.02.2022
5109 Clear 36 1000 43 10000 6.69 130 08:41 25.02.2022
5110 Clear 36 1000 43 10000 6.17 130 07:31 25.02.2022
5111 Clear 36 1000 43 10000 6.69 140 05:43 25.02.2022
5112 Clear 32 1013 31 10000 6.17 80 02:48 25.02.2022
5113 Clear 18 1013 72 10000 0 0 22:48 24.02.2022
5114 Clear 17 1012 77 10000 0 0 21:51 24.02.2022
5115 Clear 18 1012 72 10000 0 0 21:31 24.02.2022
5116 Clear 18 1012 72 10000 0 0 20:47 24.02.2022
5117 Clear 20 1012 64 10000 0 0 19:32 24.02.2022
5118 Clear 21 1012 60 10000 0 0 18:21 24.02.2022
5119 Clear 20 1012 60 10000 0 0 17:58 24.02.2022
5120 Clear 21 1012 56 10000 0 0 17:21 24.02.2022
5121 Clear 22 1012 49 10000 0 0 16:28 24.02.2022
5122 Clear 22 1012 56 10000 1.54 290 15:44 24.02.2022
5123 Clear 23 1012 53 10000 2.57 170 14:48 24.02.2022
5124 Clear 25 1012 44 10000 3.09 160 13:59 24.02.2022
5125 Clear 24 1012 46 10000 4.12 150 13:38 24.02.2022
5126 Clear 29 1011 30 10000 3.6 140 11:41 24.02.2022
5127 Clear 32 1011 23 10000 5.14 140 10:34 24.02.2022
5128 Clear 36 1000 43 10000 6.69 130 08:44 24.02.2022
5129 Clear 36 1000 43 10000 6.17 110 07:26 24.02.2022
5130 Clear 36 1000 43 10000 7.72 110 05:43 24.02.2022
5131 Clear 24 1014 33 10000 0 0 00:32 24.02.2022
5132 Clear 17 1013 63 10000 2.57 270 22:25 23.02.2022
5133 Clear 17 1012 72 10000 2.57 290 20:48 23.02.2022
5134 Clear 18 1012 63 10000 2.06 310 20:28 23.02.2022
5135 Clear 18 1012 68 10000 0 0 19:35 23.02.2022
5136 Clear 18 1012 68 10000 0 0 18:27 23.02.2022
5137 Clear 20 1013 60 10000 1.54 120 16:33 23.02.2022
5138 Clear 23 1013 43 10000 2.57 90 14:22 23.02.2022
5139 Clear 26 1012 36 10000 3.09 130 12:37 23.02.2022
5140 Clear 29 1011 28 10000 3.6 130 11:23 23.02.2022
5141 Clear 36 1000 43 10000 4.63 130 10:23 23.02.2022
5142 Clear 36 1000 43 10000 5.66 160 08:55 23.02.2022
5143 Clear 36 1000 43 10000 5.14 190 07:55 23.02.2022
5144 Clear 31 1012 23 10000 3.09 90 03:29 23.02.2022
5145 Clear 24 1013 38 10000 2.57 70 00:18 23.02.2022
5146 Clear 20 1013 56 10000 0 0 23:34 22.02.2022
5147 Clear 16 1012 77 10000 0 0 22:28 22.02.2022
5148 Clear 16 1012 77 10000 0 0 22:28 22.02.2022
5149 Clear 16 1012 77 10000 0 0 21:45 22.02.2022
5150 Clear 17 1012 72 10000 0 0 21:21 22.02.2022
5151 Clear 17 1011 72 10000 0 0 20:43 22.02.2022
5152 Clear 17 1011 72 10000 2.06 110 20:25 22.02.2022
5153 Clear 18 1011 68 10000 2.06 80 19:34 22.02.2022
5154 Clear 20 1011 56 10000 3.09 80 18:42 22.02.2022
5155 Clear 21 1011 56 10000 2.57 100 17:35 22.02.2022
5156 Clear 21 1011 52 10000 2.57 100 16:57 22.02.2022
5157 Clear 22 1011 49 10000 3.09 80 16:22 22.02.2022
5158 Clear 22 1012 53 10000 3.09 60 15:31 22.02.2022
5159 Clear 23 1011 46 10000 2.57 70 14:33 22.02.2022
5160 Clear 29 1010 28 10000 4.12 140 11:41 22.02.2022
5161 Clear 36 1000 43 10000 3.6 140 09:48 22.02.2022
5162 Clear 36 1000 43 10000 4.63 150 07:40 22.02.2022
5163 Clear 36 1000 43 10000 4.63 150 07:19 22.02.2022
5164 Clear 28 1013 32 10000 4.63 100 02:51 22.02.2022
5165 Clear 22 1013 46 10000 0 0 23:48 21.02.2022
5166 Clear 15 1013 72 10000 1.54 240 22:37 21.02.2022
5167 Clear 15 1012 72 10000 1.54 240 21:23 21.02.2022
5168 Clear 16 1011 67 10000 1.03 60 18:58 21.02.2022
5169 Clear 18 1011 59 10000 2.57 110 18:39 21.02.2022
5170 Clear 18 1011 59 10000 0 0 16:37 21.02.2022
5171 Clear 21 1011 46 10000 2.57 50 14:24 21.02.2022
5172 Clear 23 1011 40 10000 4.12 150 13:40 21.02.2022
5173 Clear 23 1011 38 10000 3.09 130 12:57 21.02.2022
5174 Clear 25 1010 33 10000 3.6 150 12:21 21.02.2022
5175 Clear 25 1010 33 10000 3.6 150 12:21 21.02.2022
5176 Clear 30 1009 20 10000 3.09 150 10:31 21.02.2022
5177 Clear 32 1009 14 10000 2.57 180 07:51 21.02.2022
5178 Clouds 23 1013 35 10000 3.09 110 00:36 21.02.2022
5179 Clouds 16 1011 67 10000 3.09 200 22:32 20.02.2022
5180 Clouds 16 1011 72 10000 3.09 290 21:44 20.02.2022
5181 Clouds 15 1010 72 10000 2.06 270 21:25 20.02.2022
5182 Clouds 15 1010 72 10000 2.57 270 20:43 20.02.2022
5183 Clouds 17 1010 63 10000 0 0 19:51 20.02.2022
5184 Clouds 17 1009 63 10000 0 0 18:57 20.02.2022
5185 Clouds 17 1010 63 10000 0 0 18:37 20.02.2022
5186 Clouds 17 1010 67 10000 0 0 17:55 20.02.2022
5187 Clouds 18 1010 63 10000 0 0 17:24 20.02.2022
5188 Clouds 19 1010 63 10000 1.03 230 15:27 20.02.2022
5189 Clouds 22 1010 46 10000 0 0 13:59 20.02.2022
5190 Clear 24 1010 35 10000 2.57 150 12:45 20.02.2022
5191 Clear 25 1010 36 10000 3.09 160 11:50 20.02.2022
5192 Clear 30 1009 21 10000 3.6 140 10:21 20.02.2022
5193 Clear 32 1009 18 10000 5.14 160 09:24 20.02.2022
5194 Clear 31 1010 22 10000 4.63 170 06:28 20.02.2022
5195 Clear 22 1014 46 10000 0.51 230 00:32 20.02.2022
5196 Clear 18 1014 68 10000 1.54 260 23:32 19.02.2022
5197 Clear 14 1014 82 10000 0 0 22:24 19.02.2022
5198 Clear 14 1013 82 10000 0 0 21:45 19.02.2022
5199 Clear 15 1012 82 10000 0 0 20:26 19.02.2022
5200 Clear 16 1012 77 10000 0 0 19:34 19.02.2022
5201 Clear 17 1013 72 10000 0 0 18:39 19.02.2022
5202 Clear 17 1013 72 10000 0 0 17:54 19.02.2022
5203 Clear 17 1013 72 10000 0 0 16:47 19.02.2022
5204 Clear 19 1014 63 10000 0 0 15:20 19.02.2022
5205 Clear 19 1014 63 10000 0 0 14:53 19.02.2022
5206 Clear 22 1014 49 10000 2.57 140 13:55 19.02.2022
5207 Clear 26 1013 31 10000 3.6 110 11:42 19.02.2022
5208 Clear 28 1013 28 10000 3.6 120 10:45 19.02.2022
5209 Clear 30 1013 21 10000 4.12 150 08:54 19.02.2022
5210 Clear 30 1013 23 10000 4.12 150 06:45 19.02.2022
5211 Clear 21 1017 49 10000 0.51 160 23:55 18.02.2022
5212 Clear 14 1017 77 10000 0 0 22:24 18.02.2022
5213 Clear 14 1016 77 10000 0 0 21:18 18.02.2022
5214 Clear 15 1016 72 10000 0 0 19:56 18.02.2022
5215 Clear 16 1016 72 10000 2.57 190 18:51 18.02.2022
5216 Clear 16 1016 72 10000 3.09 170 18:25 18.02.2022
5217 Clear 17 1016 63 10000 0 0 17:56 18.02.2022
5218 Clear 19 1017 55 10000 2.06 190 15:35 18.02.2022
5219 Clear 20 1017 52 10000 3.09 150 13:56 18.02.2022
5220 Clear 21 1017 46 10000 2.57 130 13:28 18.02.2022
5221 Clear 23 1016 38 10000 3.6 140 12:42 18.02.2022
5222 Clear 24 1016 35 10000 4.12 140 11:55 18.02.2022
5223 Clear 29 1015 26 10000 6.17 150 10:24 18.02.2022
5224 Clear 31 1015 27 10000 6.69 160 06:58 18.02.2022
5225 Clear 29 1016 32 10000 6.17 120 05:42 18.02.2022
5226 Clear 24 1017 43 10000 4.12 120 23:53 17.02.2022
5227 Clear 20 1016 77 10000 3.09 180 21:50 17.02.2022
5228 Clear 21 1015 73 10000 2.06 170 21:26 17.02.2022
5229 Clear 22 1015 73 10000 3.09 140 20:40 17.02.2022
5230 Clear 21 1015 78 10000 0 0 19:52 17.02.2022
5231 Clear 22 1015 68 10000 0 0 18:54 17.02.2022
5232 Clear 22 1015 68 10000 3.09 140 17:55 17.02.2022
5233 Clear 22 1015 68 10000 3.09 140 16:43 17.02.2022
5234 Clear 24 1015 60 10000 3.09 130 15:38 17.02.2022
5235 Clear 25 1015 53 10000 3.6 130 14:28 17.02.2022
5236 Clear 27 1014 41 10000 3.6 150 12:43 17.02.2022
5237 Clear 30 1013 32 10000 3.6 140 11:27 17.02.2022
5238 Clear 36 1000 43 10000 5.14 130 09:18 17.02.2022
5239 Clear 36 1000 43 10000 6.17 90 04:20 17.02.2022
5240 Clouds 22 1014 60 10000 2.57 310 23:21 16.02.2022
5241 Clouds 18 1013 72 10000 3.09 270 21:44 16.02.2022
5242 Clouds 20 1012 73 10000 3.6 300 19:57 16.02.2022
5243 Clouds 21 1012 60 10000 2.57 330 18:43 16.02.2022
5244 Clouds 20 1012 68 10000 2.06 280 17:53 16.02.2022
5245 Clouds 22 1014 64 10000 0 0 15:40 16.02.2022
5246 Clouds 22 1014 64 10000 0 0 15:19 16.02.2022
5247 Clouds 26 1013 38 10000 3.09 60 13:28 16.02.2022
5248 Clouds 28 1012 30 10000 3.09 90 12:20 16.02.2022
5249 Clouds 30 1012 26 10000 2.57 100 11:28 16.02.2022
5250 Clouds 36 1000 43 10000 4.12 110 10:34 16.02.2022
5251 Clouds 36 1000 43 10000 4.63 130 08:20 16.02.2022
5252 Clouds 36 1000 43 10000 3.6 60 06:29 16.02.2022
5253 Clouds 25 1015 57 10000 0 0 23:45 15.02.2022
5254 Clouds 18 1013 88 10000 0 0 22:30 15.02.2022
5255 Clouds 19 1013 82 10000 0 0 21:47 15.02.2022
5256 Clouds 19 1013 82 10000 0 0 21:27 15.02.2022
5257 Clouds 19 1013 82 10000 0 0 20:56 15.02.2022
5258 Clouds 20 1012 83 10000 0 0 19:57 15.02.2022
5259 Clouds 21 1013 73 10000 0 0 18:56 15.02.2022
5260 Clouds 21 1013 73 10000 0 0 18:22 15.02.2022
5261 Clouds 21 1013 78 10000 2.57 310 17:50 15.02.2022
5262 Clouds 22 1013 78 10000 0 0 16:50 15.02.2022
5263 Clouds 24 1014 64 10000 0 0 15:28 15.02.2022
5264 Clouds 27 1014 47 10000 2.57 80 13:27 15.02.2022
5265 Clouds 28 1014 44 10000 2.57 60 12:37 15.02.2022
5266 Clouds 36 1000 43 10000 2.57 100 11:40 15.02.2022
5267 Clouds 36 1000 43 10000 4.63 110 09:31 15.02.2022
5268 Clouds 36 1000 43 10000 3.6 100 06:58 15.02.2022
5269 Clear 36 1000 43 10000 4.63 110 04:54 15.02.2022
5270 Clouds 25 1017 65 10000 0 0 23:33 14.02.2022
5271 Clouds 21 1015 83 10000 0 0 21:36 14.02.2022
5272 Clouds 22 1015 83 10000 0 0 20:40 14.02.2022
5273 Clouds 23 1015 78 10000 0 0 19:36 14.02.2022
5274 Clouds 23 1015 78 10000 0 0 18:44 14.02.2022
5275 Clouds 24 1015 73 10000 0 0 18:22 14.02.2022
5276 Clouds 25 1015 65 10000 0 0 17:26 14.02.2022
5277 Clouds 26 1016 61 10000 1.54 190 16:24 14.02.2022
5278 Clouds 27 1016 57 10000 1.03 50 14:29 14.02.2022
5279 Clouds 28 1016 47 10000 3.09 100 13:31 14.02.2022
5280 Clear 29 1015 42 10000 4.12 80 12:48 14.02.2022
5281 Clear 30 1014 39 10000 3.09 130 11:54 14.02.2022
5282 Clear 35 1013 23 10000 3.6 130 10:43 14.02.2022
5283 Clear 36 1013 19 10000 4.12 120 08:45 14.02.2022
5284 Clear 36 1014 19 10000 3.6 130 07:31 14.02.2022
5285 Clear 30 1017 23 10000 2.57 90 01:18 14.02.2022
5286 Clear 17 1015 72 10000 2.06 310 22:42 13.02.2022
5287 Clear 17 1015 72 10000 2.06 310 22:24 13.02.2022
5288 Clear 15 1014 77 10000 2.57 270 21:32 13.02.2022
5289 Clear 16 1014 77 10000 0 0 20:35 13.02.2022
5290 Clear 18 1014 68 10000 2.57 300 19:31 13.02.2022
5291 Clear 17 1014 72 10000 2.06 310 18:46 13.02.2022
5292 Clear 17 1014 67 10000 2.57 310 18:26 13.02.2022
5293 Clear 20 1014 56 10000 0 0 15:54 13.02.2022
5294 Clear 20 1015 60 10000 0 0 15:24 13.02.2022
5295 Clear 22 1014 49 10000 0 0 14:22 13.02.2022
5296 Clear 25 1014 36 10000 3.09 140 12:51 13.02.2022
5297 Clear 26 1013 34 10000 3.09 120 11:44 13.02.2022
5298 Clear 32 1012 19 10000 3.6 140 10:33 13.02.2022
5299 Clear 36 1000 43 10000 3.6 140 09:45 13.02.2022
5300 Clear 36 1000 43 10000 2.57 210 07:48 13.02.2022
5301 Clear 23 1014 40 10000 0 0 00:35 13.02.2022
5302 Clear 18 1014 68 10000 2.06 270 23:42 12.02.2022
5303 Clear 15 1013 77 10000 2.06 290 22:33 12.02.2022
5304 Clear 15 1012 77 10000 2.57 300 21:27 12.02.2022
5305 Clear 16 1012 77 10000 2.57 290 20:34 12.02.2022
5306 Clear 16 1012 77 10000 2.06 280 19:27 12.02.2022
5307 Clear 17 1012 67 10000 3.09 310 18:53 12.02.2022
5308 Clear 17 1012 77 10000 1.54 280 18:35 12.02.2022
5309 Clear 18 1012 63 10000 2.06 280 16:58 12.02.2022
5310 Clear 18 1012 68 10000 0 0 16:25 12.02.2022
5311 Clear 18 1012 72 10000 0 0 15:51 12.02.2022
5312 Clear 21 1012 56 10000 0 0 14:31 12.02.2022
5313 Clear 24 1012 46 10000 2.06 70 13:19 12.02.2022
5314 Clear 31 1011 19 10000 4.12 130 10:41 12.02.2022
5315 Clear 32 1011 17 10000 4.12 120 09:49 12.02.2022
5316 Clear 32 1010 15 10000 4.12 120 09:26 12.02.2022
5317 Clear 32 1010 18 10000 4.12 120 08:18 12.02.2022
5318 Clear 30 1012 17 10000 4.12 130 05:33 12.02.2022
5319 Clear 31 1013 20 10000 4.63 100 04:27 12.02.2022
5320 Clear 28 1014 28 10000 7.2 130 02:18 12.02.2022
5321 Clear 16 1014 82 10000 0 0 22:29 11.02.2022
5322 Clear 16 1014 82 10000 0 0 21:55 11.02.2022
5323 Clear 17 1013 82 10000 0 0 20:41 11.02.2022
5324 Clear 17 1013 82 10000 0 0 19:46 11.02.2022
5325 Clear 18 1013 77 10000 0 0 19:27 11.02.2022
5326 Clear 19 1013 72 10000 2.06 100 17:55 11.02.2022
5327 Clear 21 1013 60 10000 0 0 17:25 11.02.2022
5328 Clear 21 1014 64 10000 0 0 16:22 11.02.2022
5329 Clear 22 1014 60 10000 3.09 170 14:43 11.02.2022
5330 Clear 22 1014 60 10000 3.09 170 14:21 11.02.2022
5331 Clear 22 1014 56 10000 3.09 150 13:57 11.02.2022
5332 Clear 23 1014 49 10000 2.57 120 13:39 11.02.2022
5333 Clear 27 1013 34 10000 3.6 140 11:41 11.02.2022
5334 Clear 31 1013 20 10000 5.14 140 09:57 11.02.2022
5335 Clear 32 1013 18 10000 6.17 150 08:42 11.02.2022
5336 Clear 32 1013 18 10000 6.17 150 08:42 11.02.2022
5337 Clear 32 1013 18 10000 6.17 150 08:22 11.02.2022
5338 Clear 36 1000 43 10000 6.17 120 06:33 11.02.2022
5339 Clear 28 1018 24 10000 6.69 140 02:26 11.02.2022
5340 Clear 25 1018 41 10000 4.12 110 00:51 11.02.2022
5341 Clear 17 1017 82 10000 2.57 280 22:49 10.02.2022
5342 Clear 16 1016 82 10000 2.57 280 21:45 10.02.2022
5343 Clear 16 1016 82 10000 2.06 290 20:57 10.02.2022
5344 Clear 17 1015 82 10000 0 0 20:30 10.02.2022
5345 Clear 18 1015 77 10000 0 0 19:25 10.02.2022
5346 Clear 18 1015 82 10000 0 0 18:44 10.02.2022
5347 Clear 20 1015 73 10000 0 0 17:26 10.02.2022
5348 Clear 20 1015 73 10000 1.54 110 16:50 10.02.2022
5349 Clear 23 1016 56 10000 2.06 70 15:47 10.02.2022
5350 Clear 23 1016 56 10000 2.57 90 15:28 10.02.2022
5351 Clear 24 1016 53 10000 1.03 80 14:46 10.02.2022
5352 Clear 24 1016 57 10000 3.09 120 14:23 10.02.2022
5353 Clear 26 1015 47 10000 4.12 140 13:22 10.02.2022
5354 Clear 26 1015 50 10000 3.09 130 12:23 10.02.2022
5355 Clear 29 1014 37 10000 3.6 120 11:33 10.02.2022
5356 Clear 31 1014 30 10000 4.63 120 10:43 10.02.2022
5357 Clear 32 1013 29 10000 5.14 120 09:50 10.02.2022
5358 Clear 36 1000 43 10000 4.63 130 09:18 10.02.2022
5359 Clouds 33 1014 27 10000 4.63 120 06:50 10.02.2022
5360 Clear 32 1015 29 10000 4.12 140 03:55 10.02.2022
5361 Clear 29 1016 32 10000 5.66 90 01:43 10.02.2022
5362 Clouds 26 1016 41 10000 4.12 100 00:42 10.02.2022
5363 Clouds 26 1016 41 10000 4.12 100 00:24 10.02.2022
5364 Clouds 23 1015 68 10000 2.06 130 22:58 09.02.2022
5365 Clouds 22 1015 73 10000 2.57 140 22:33 09.02.2022
5366 Clouds 22 1014 78 10000 1.03 100 21:49 09.02.2022
5367 Clouds 22 1014 73 10000 0 0 21:28 09.02.2022
5368 Clouds 22 1013 73 10000 2.06 140 20:45 09.02.2022
5369 Clouds 22 1013 73 10000 2.06 140 20:23 09.02.2022
5370 Clouds 23 1013 68 10000 2.57 120 19:43 09.02.2022
5371 Clouds 24 1013 73 10000 1.03 160 18:55 09.02.2022
5372 Clouds 22 1013 83 10000 2.06 120 17:24 09.02.2022
5373 Clouds 24 1013 69 10000 2.06 120 16:25 09.02.2022
5374 Clouds 24 1013 69 10000 0 0 15:32 09.02.2022
5375 Clouds 27 1013 54 10000 3.09 110 13:32 09.02.2022
5376 Clouds 28 1012 51 10000 3.09 130 11:52 09.02.2022
5377 Clouds 33 1011 33 10000 4.12 130 10:37 09.02.2022
5378 Clouds 33 1010 33 10000 4.12 130 09:56 09.02.2022
5379 Clouds 36 1000 43 10000 4.63 130 09:22 09.02.2022
5380 Clouds 36 1000 43 10000 3.6 130 08:51 09.02.2022
5381 Clouds 36 1000 43 10000 3.09 110 06:56 09.02.2022
5382 Clouds 32 1012 48 10000 3.6 90 04:36 09.02.2022
5383 Clouds 30 1012 48 10000 3.6 110 03:49 09.02.2022
5384 Clouds 25 1012 78 10000 0 0 23:45 08.02.2022
5385 Clouds 24 1012 83 10000 0 0 23:19 08.02.2022
5386 Clouds 23 1011 88 10000 0 0 22:38 08.02.2022
5387 Clouds 23 1011 88 10000 0 0 22:38 08.02.2022
5388 Clouds 23 1011 88 10000 0 0 22:20 08.02.2022
5389 Clouds 24 1010 88 10000 0 0 21:22 08.02.2022
5390 Clouds 23 1010 88 10000 0 0 20:58 08.02.2022
5391 Clouds 23 1009 83 10000 0 0 20:38 08.02.2022
5392 Clouds 23 1009 83 10000 2.57 280 19:28 08.02.2022
5393 Clouds 23 1010 83 10000 2.06 260 18:24 08.02.2022
5394 Clouds 25 1010 69 10000 2.57 240 17:30 08.02.2022
5395 Clouds 26 1010 61 10000 4.12 230 15:47 08.02.2022
5396 Clouds 26 1010 61 10000 3.6 200 15:27 08.02.2022
5397 Clouds 27 1009 54 10000 2.06 330 13:50 08.02.2022
5398 Clouds 28 1009 57 10000 2.06 160 12:24 08.02.2022
5399 Clouds 36 1000 43 10000 2.06 290 10:52 08.02.2022
5400 Clouds 36 1000 43 10000 2.57 280 09:49 08.02.2022
5401 Clouds 36 1000 43 10000 3.6 300 08:39 08.02.2022
5402 Clouds 36 1000 43 10000 0.45 37 06:49 08.02.2022
5403 Clouds 36 1000 43 10000 5.14 320 04:40 08.02.2022
5404 Clouds 36 1000 43 10000 5.14 320 04:22 08.02.2022
5405 Clouds 36 1000 43 10000 7.72 330 03:36 08.02.2022
5406 Clouds 36 1000 43 10000 7.72 330 03:18 08.02.2022
5407 Clouds 33 1010 22 10000 7.72 330 02:59 08.02.2022
5408 Clouds 33 1010 22 10000 8.23 330 02:36 08.02.2022
5409 Clouds 33 1010 22 10000 8.23 330 02:18 08.02.2022
5410 Clouds 31 1011 22 10000 6.69 340 01:44 08.02.2022
5411 Clouds 31 1011 22 10000 6.69 340 01:25 08.02.2022
5412 Clouds 31 1011 22 10000 6.69 340 01:25 08.02.2022
5413 Clear 30 1010 25 10000 5.66 330 00:55 08.02.2022
5414 Clouds 29 1010 26 10000 1.54 240 00:21 08.02.2022
5415 Clouds 25 1010 36 10000 3.6 330 23:44 07.02.2022
5416 Clouds 25 1010 36 10000 3.6 330 23:18 07.02.2022
5417 Clouds 23 1010 43 10000 2.57 360 22:59 07.02.2022
5418 Clouds 23 1010 40 10000 3.09 360 22:19 07.02.2022
5419 Clouds 21 1010 52 10000 3.09 320 21:50 07.02.2022
5420 Clouds 20 1009 64 10000 1.03 350 21:27 07.02.2022
5421 Clouds 20 1009 60 10000 4.12 340 20:43 07.02.2022
5422 Clouds 20 1009 64 10000 0 0 20:24 07.02.2022
5423 Clouds 19 1009 77 10000 0 0 19:47 07.02.2022
5424 Clouds 20 1009 77 10000 0 0 18:34 07.02.2022
5425 Clear 21 1010 73 10000 1.54 40 17:18 07.02.2022
5426 Clear 21 1010 73 10000 0.51 30 16:46 07.02.2022
5427 Clear 22 1010 68 10000 0 0 15:48 07.02.2022
5428 Clear 23 1010 56 10000 3.09 60 13:51 07.02.2022
5429 Clear 24 1009 53 10000 3.09 100 13:26 07.02.2022
5430 Clear 28 1009 36 10000 0 0 11:58 07.02.2022
5431 Clear 29 1008 30 10000 0 0 11:38 07.02.2022
5432 Clear 31 1008 23 10000 0 0 10:54 07.02.2022
5433 Clear 32 1008 25 10000 2.06 130 10:36 07.02.2022
5434 Clear 33 1008 18 10000 1.54 100 09:53 07.02.2022
5435 Clear 36 1000 43 10000 0.45 37 09:18 07.02.2022
5436 Clear 36 1000 43 10000 0.45 37 08:44 07.02.2022
5437 Clouds 33 1009 21 10000 3.09 220 07:34 07.02.2022
5438 Clear 33 1009 19 10000 4.63 310 06:34 07.02.2022
5439 Clear 31 1011 23 10000 2.57 320 04:18 07.02.2022
5440 Clear 27 1013 32 10000 3.09 100 01:29 07.02.2022
5441 Clear 21 1013 68 10000 0 0 23:50 06.02.2022
5442 Clear 19 1013 77 10000 0 0 23:19 06.02.2022
5443 Clear 15 1012 94 10000 0 0 22:37 06.02.2022
5444 Clear 15 1012 94 10000 0 0 21:37 06.02.2022
5445 Clear 16 1011 88 10000 2.06 280 20:58 06.02.2022
5446 Clear 15 1011 94 10000 3.09 270 20:37 06.02.2022
5447 Clear 16 1011 94 10000 2.06 250 19:50 06.02.2022
5448 Clear 17 1011 88 10000 2.57 270 18:52 06.02.2022
5449 Clear 17 1011 88 10000 1.03 180 18:26 06.02.2022
5450 Clear 18 1012 88 10000 0 0 17:29 06.02.2022
5451 Clear 18 1012 82 10000 0 0 16:50 06.02.2022
5452 Clear 19 1012 77 10000 0 0 15:50 06.02.2022
5453 Clear 19 1012 77 10000 0.51 160 15:28 06.02.2022
5454 Clear 20 1012 73 10000 2.06 10 14:52 06.02.2022
5455 Clear 23 1012 49 10000 3.09 110 13:53 06.02.2022
5456 Clear 23 1012 46 10000 2.06 90 13:20 06.02.2022
5457 Clear 25 1011 38 10000 2.57 90 11:44 06.02.2022
5458 Clear 29 1010 26 10000 3.6 140 10:31 06.02.2022
5459 Clear 30 1010 26 10000 3.09 150 09:26 06.02.2022
5460 Clear 30 1010 25 10000 2.57 70 08:41 06.02.2022
5461 Clear 29 1011 20 10000 3.09 80 06:19 06.02.2022
5462 Clear 27 1013 29 10000 3.6 90 03:31 06.02.2022
5463 Clear 27 1014 34 10000 3.6 90 02:24 06.02.2022
5464 Clear 21 1014 60 10000 0 0 00:30 06.02.2022
5465 Clear 17 1013 82 10000 0 0 23:18 05.02.2022
5466 Clear 14 1012 94 10000 2.06 280 21:33 05.02.2022
5467 Clear 15 1012 88 10000 2.06 290 20:25 05.02.2022
5468 Clear 15 1012 94 10000 2.57 300 19:49 05.02.2022
5469 Clear 16 1012 82 10000 2.57 320 19:27 05.02.2022
5470 Clear 15 1012 94 10000 0 0 18:23 05.02.2022
5471 Clear 16 1012 88 10000 0 0 17:31 05.02.2022
5472 Clear 18 1013 72 10000 0 0 15:42 05.02.2022
5473 Clear 18 1013 72 10000 0 0 15:24 05.02.2022
5474 Clear 21 1011 56 10000 3.09 120 12:54 05.02.2022
5475 Clear 23 1011 40 10000 3.09 100 12:33 05.02.2022
5476 Clear 26 1011 31 10000 3.6 120 10:53 05.02.2022
5477 Clear 28 1011 24 10000 4.63 120 10:25 05.02.2022
5478 Clear 28 1011 26 10000 4.12 120 09:46 05.02.2022
5479 Clear 28 1011 24 10000 5.14 90 08:20 05.02.2022
5480 Clear 28 1011 26 10000 4.63 120 06:57 05.02.2022
5481 Clear 26 1013 31 10000 5.14 130 04:30 05.02.2022
5482 Clear 23 1014 46 10000 5.66 90 01:19 05.02.2022
5483 Clear 21 1014 52 10000 1.03 120 00:53 05.02.2022
5484 Clear 18 1014 72 10000 0 0 23:58 04.02.2022
5485 Clear 16 1014 88 10000 0 0 23:30 04.02.2022
5486 Clear 14 1013 88 10000 1.03 310 21:59 04.02.2022
5487 Clear 14 1013 88 10000 3.09 330 21:36 04.02.2022
5488 Clear 14 1013 88 10000 3.09 330 21:18 04.02.2022
5489 Clear 13 1013 94 10000 0 0 20:20 04.02.2022
5490 Clear 15 1013 88 10000 0 0 17:43 04.02.2022
5491 Clear 16 1014 88 10000 0 0 15:55 04.02.2022
5492 Clear 16 1014 88 10000 0 0 15:55 04.02.2022
5493 Clear 17 1014 82 10000 0 0 14:55 04.02.2022
5494 Clear 19 1013 63 10000 0.51 110 13:39 04.02.2022
5495 Clouds 20 1012 64 10000 2.57 130 12:43 04.02.2022
5496 Clouds 22 1012 43 10000 3.6 130 11:42 04.02.2022
5497 Clouds 22 1012 43 10000 3.6 130 11:42 04.02.2022
5498 Clouds 26 1011 27 10000 6.17 120 10:36 04.02.2022
5499 Clouds 27 1011 29 10000 6.69 120 08:42 04.02.2022
5500 Clouds 26 1011 29 10000 5.66 130 06:57 04.02.2022
5501 Clouds 24 1014 35 10000 7.72 120 02:46 04.02.2022
5502 Clouds 22 1014 40 10000 8.75 110 01:52 04.02.2022
5503 Clouds 17 1014 72 10000 2.06 100 23:29 03.02.2022
5504 Clouds 14 1014 88 10000 3.09 130 22:40 03.02.2022
5505 Clouds 14 1013 88 10000 3.09 150 21:49 03.02.2022
5506 Clouds 14 1012 88 10000 2.57 150 20:39 03.02.2022
5507 Clouds 14 1012 88 10000 2.57 150 20:18 03.02.2022
5508 Clouds 15 1012 82 10000 3.09 140 19:30 03.02.2022
5509 Clouds 17 1012 72 10000 2.57 140 18:38 03.02.2022
5510 Clouds 18 1013 68 10000 3.09 140 17:32 03.02.2022
5511 Clouds 17 1013 72 10000 4.12 150 16:26 03.02.2022
5512 Clouds 18 1014 72 10000 3.6 160 14:45 03.02.2022
5513 Clouds 20 1012 73 10000 2.06 180 12:52 03.02.2022
5514 Clouds 23 1011 43 10000 4.12 130 11:22 03.02.2022
5515 Clouds 25 1010 47 10000 6.69 140 08:37 03.02.2022
5516 Clouds 25 1012 57 10000 7.2 140 05:26 03.02.2022
5517 Clouds 20 1012 77 10000 6.17 140 00:32 03.02.2022
5518 Clouds 19 1012 88 10000 5.14 150 23:39 02.02.2022
5519 Clouds 18 1011 94 10000 3.6 150 21:55 02.02.2022
5520 Clouds 19 1011 88 10000 3.6 150 21:31 02.02.2022
5521 Clouds 19 1011 88 10000 3.6 160 20:40 02.02.2022
5522 Clouds 19 1011 88 10000 3.6 150 19:58 02.02.2022
5523 Clouds 19 1011 88 10000 3.09 150 19:27 02.02.2022
5524 Clouds 19 1011 94 10000 4.12 150 18:39 02.02.2022
5525 Clouds 19 1011 94 10000 3.6 160 17:44 02.02.2022
5526 Clouds 19 1011 94 10000 3.6 150 17:19 02.02.2022
5527 Drizzle 19 1011 94 10000 3.09 150 16:31 02.02.2022
5528 Clouds 18 1011 100 6000 6.17 150 12:55 02.02.2022
5529 Clouds 19 1011 94 6000 6.17 140 12:18 02.02.2022
5530 Drizzle 19 1010 100 3200 5.14 150 11:32 02.02.2022
5531 Clouds 20 1008 100 5000 6.17 150 09:46 02.02.2022
5532 Clouds 22 1007 94 3700 5.66 170 07:32 02.02.2022
5533 Rain 22 1005 100 5000 3.09 210 22:46 01.02.2022
5534 Rain 23 1004 100 6000 4.63 150 21:36 01.02.2022
5535 Rain 23 1003 100 6000 4.12 250 19:58 01.02.2022
5536 Rain 23 1003 100 2500 2.57 300 17:41 01.02.2022
5537 Rain 24 1004 100 5000 3.6 210 16:36 01.02.2022
5538 Thunderstorm 24 1004 100 6000 3.6 150 13:32 01.02.2022
5539 Clouds 25 1003 100 10000 3.09 170 12:30 01.02.2022
5540 Clouds 24 1002 100 10000 3.09 150 10:44 01.02.2022
5541 Clouds 27 1003 78 10000 6.69 340 02:30 01.02.2022
5542 Rain 25 1002 83 10000 7.2 350 23:40 31.01.2022
5543 Clouds 25 1002 88 10000 6.69 350 22:43 31.01.2022
5544 Clouds 25 1001 83 10000 7.2 340 21:38 31.01.2022
5545 Clouds 24 1001 94 10000 8.75 350 20:44 31.01.2022
5546 Clouds 25 1001 83 10000 7.72 350 20:24 31.01.2022
5547 Clouds 25 1001 88 10000 6.17 350 18:54 31.01.2022
5548 Clouds 25 1001 88 10000 4.63 360 18:20 31.01.2022
5549 Clouds 25 1002 88 10000 5.66 360 17:25 31.01.2022
5550 Clouds 24 1003 94 10000 3.09 80 16:25 31.01.2022
5551 Clouds 23 1003 100 10000 2.57 50 14:54 31.01.2022
5552 Clouds 24 1002 100 10000 3.6 100 13:43 31.01.2022
5553 Clouds 24 1002 100 10000 3.6 100 12:38 31.01.2022
5554 Clouds 25 1001 94 10000 3.09 90 11:31 31.01.2022
5555 Clouds 25 1001 94 10000 3.6 100 10:48 31.01.2022
5556 Rain 25 1000 94 10000 2.57 70 09:38 31.01.2022
5557 Rain 25 1000 94 10000 3.09 90 08:56 31.01.2022
5558 Rain 25 1001 94 10000 2.57 90 08:20 31.01.2022
5559 Rain 25 1001 94 10000 0.51 70 07:43 31.01.2022
5560 Rain 25 1003 94 10000 3.09 340 05:33 31.01.2022
5561 Clouds 24 1004 94 10000 4.12 80 00:36 31.01.2022
5562 Clouds 23 1004 100 10000 4.63 90 22:33 30.01.2022
5563 Clouds 23 1003 100 10000 4.12 80 21:46 30.01.2022
5564 Clouds 23 1003 100 10000 3.6 70 21:26 30.01.2022
5565 Clouds 23 1003 100 10000 3.6 60 20:54 30.01.2022
5566 Clouds 23 1002 100 6000 3.6 80 20:31 30.01.2022
5567 Clouds 23 1003 100 6000 3.6 100 19:56 30.01.2022
5568 Rain 22 1003 100 10000 4.63 100 18:52 30.01.2022
5569 Rain 22 1003 100 10000 4.63 100 18:22 30.01.2022
5570 Rain 23 1004 100 5000 5.66 90 17:31 30.01.2022
5571 Rain 23 1004 100 5000 5.66 90 17:31 30.01.2022
5572 Rain 23 1004 100 5000 5.66 90 17:31 30.01.2022
5573 Clouds 23 1005 94 6000 5.14 70 16:44 30.01.2022
5574 Rain 23 1005 94 6000 6.17 60 16:23 30.01.2022
5575 Rain 23 1005 94 6000 6.69 70 15:55 30.01.2022
5576 Rain 23 1005 100 10000 5.66 80 15:33 30.01.2022
5577 Rain 23 1006 100 6000 9.77 90 14:48 30.01.2022
5578 Clouds 23 1005 100 10000 5.66 90 13:49 30.01.2022
5579 Rain 24 1005 94 6000 6.69 60 12:46 30.01.2022
5580 Rain 24 1004 94 10000 3.09 360 11:49 30.01.2022
5581 Rain 25 1003 88 10000 5.14 60 10:26 30.01.2022
5582 Rain 29 1002 70 10000 6.17 100 09:26 30.01.2022
5583 Clouds 28 1002 78 10000 5.66 90 08:32 30.01.2022
5584 Clouds 26 1006 83 10000 8.75 70 02:55 30.01.2022
5585 Drizzle 25 1007 94 6000 7.72 90 01:54 30.01.2022
5586 Clouds 25 1007 94 10000 5.66 120 23:49 29.01.2022
5587 Clouds 24 1006 100 10000 4.12 120 22:58 29.01.2022
5588 Clouds 24 1006 94 10000 3.6 120 21:35 29.01.2022
5589 Clouds 24 1005 94 10000 4.63 100 21:00 29.01.2022
5590 Clouds 23 1005 100 10000 5.14 100 20:20 29.01.2022
5591 Clouds 23 1005 100 10000 4.63 90 19:33 29.01.2022
5592 Rain 24 1005 94 10000 5.66 100 18:44 29.01.2022
5593 Rain 24 1005 100 10000 3.6 110 17:55 29.01.2022
5594 Rain 24 1006 94 10000 6.17 120 16:59 29.01.2022
5595 Rain 24 1007 94 10000 4.63 120 15:27 29.01.2022
5596 Rain 24 1007 100 10000 5.14 130 13:48 29.01.2022
5597 Rain 24 1006 94 10000 4.63 140 13:28 29.01.2022
5598 Rain 24 1006 100 10000 4.63 140 12:58 29.01.2022
5599 Rain 24 1005 100 10000 4.12 150 11:39 29.01.2022
5600 Rain 24 1005 100 10000 0 0 10:33 29.01.2022
5601 Rain 23 1005 100 10000 5.66 120 08:19 29.01.2022
5602 Clouds 27 1008 83 10000 6.17 140 02:26 29.01.2022
5603 Clouds 24 1008 100 10000 4.12 150 00:32 29.01.2022
5604 Clouds 24 1008 94 6000 4.12 120 23:29 28.01.2022
5605 Clouds 23 1007 100 10000 4.63 130 22:46 28.01.2022
5606 Clouds 23 1007 100 10000 5.14 140 22:19 28.01.2022
5607 Clouds 23 1007 100 10000 4.63 140 20:41 28.01.2022
5608 Clouds 23 1007 100 6000 5.66 150 19:57 28.01.2022
5609 Clouds 24 1006 94 10000 5.14 150 18:52 28.01.2022
5610 Clouds 24 1007 94 10000 5.14 140 17:53 28.01.2022
5611 Clouds 25 1009 88 10000 2.57 130 15:52 28.01.2022
5612 Clouds 25 1009 83 10000 6.69 150 14:50 28.01.2022
5613 Clouds 27 1007 78 10000 5.14 120 12:41 28.01.2022
5614 Clouds 28 1005 69 10000 8.23 100 11:43 28.01.2022
5615 Clouds 29 1005 65 10000 8.75 90 10:26 28.01.2022
5616 Clouds 29 1005 65 10000 8.23 80 09:46 28.01.2022
5617 Clouds 36 1004 36 10000 7.72 120 07:41 28.01.2022
5618 Clouds 34 1005 43 10000 8.75 110 05:31 28.01.2022
5619 Clouds 33 1007 46 10000 7.72 140 03:50 28.01.2022
5620 Clouds 32 1008 55 10000 7.72 150 02:24 28.01.2022
5621 Clouds 30 1008 58 10000 7.72 110 01:35 28.01.2022
5622 Clouds 29 1007 58 10000 4.63 150 00:33 28.01.2022
5623 Clouds 25 1006 78 10000 2.06 230 21:58 27.01.2022
5624 Clouds 25 1006 78 10000 0 0 21:34 27.01.2022
5625 Clouds 25 1006 78 10000 0 0 21:34 27.01.2022
5626 Clouds 25 1005 78 10000 0 0 20:58 27.01.2022
5627 Rain 26 1005 73 10000 0 0 19:35 27.01.2022
5628 Clouds 26 1005 73 10000 5.66 50 17:58 27.01.2022
5629 Clouds 29 1005 58 10000 3.09 40 15:43 27.01.2022
5630 Clouds 30 1005 54 10000 3.09 30 13:39 27.01.2022
5631 Clouds 31 1004 51 10000 2.06 120 12:46 27.01.2022
5632 Clouds 34 1003 38 10000 3.09 140 10:59 27.01.2022
5633 Clouds 35 1002 38 10000 5.66 120 09:27 27.01.2022
5634 Clouds 35 1002 38 10000 4.12 100 08:39 27.01.2022
5635 Clouds 35 1003 36 10000 3.6 130 07:23 27.01.2022
5636 Clear 32 1006 48 10000 3.6 110 02:59 27.01.2022
5637 Clouds 28 1007 69 10000 2.57 110 23:52 26.01.2022
5638 Clouds 25 1005 83 10000 0 0 22:27 26.01.2022
5639 Clouds 25 1005 83 10000 0 0 21:41 26.01.2022
5640 Clouds 25 1004 78 10000 2.06 180 20:41 26.01.2022
5641 Clouds 25 1004 78 10000 2.06 180 20:23 26.01.2022
5642 Clouds 26 1003 73 10000 4.63 20 19:28 26.01.2022
5643 Clouds 25 1004 78 10000 4.63 30 18:46 26.01.2022
5644 Clouds 24 1004 88 10000 5.14 30 17:51 26.01.2022
5645 Clouds 24 1005 88 10000 4.12 40 17:24 26.01.2022
5646 Clouds 24 1006 88 10000 5.14 130 16:35 26.01.2022
5647 Clouds 25 1007 78 10000 6.69 110 15:49 26.01.2022
5648 Rain 28 1006 65 10000 5.66 230 14:21 26.01.2022
5649 Clouds 30 1004 54 10000 2.57 40 11:54 26.01.2022
5650 Clouds 32 1003 45 10000 3.6 50 10:43 26.01.2022
5651 Clouds 34 1002 38 10000 6.17 70 09:48 26.01.2022
5652 Clouds 36 1000 43 10000 0.45 37 08:27 26.01.2022
5653 Thunderstorm 36 1000 43 10000 0.45 37 05:42 26.01.2022
5654 Clouds 28 1006 69 10000 3.09 360 23:58 25.01.2022
5655 Clouds 28 1006 69 10000 2.57 20 23:20 25.01.2022
5656 Clouds 25 1005 83 10000 0 0 22:26 25.01.2022
5657 Clouds 25 1005 83 10000 0 0 21:59 25.01.2022
5658 Clouds 26 1004 73 10000 2.57 340 20:59 25.01.2022
5659 Clouds 26 1004 73 10000 3.6 350 20:40 25.01.2022
5660 Clouds 26 1004 73 10000 3.09 10 19:53 25.01.2022
5661 Clouds 27 1004 69 10000 2.06 360 18:38 25.01.2022
5662 Clouds 27 1004 69 10000 2.57 10 17:45 25.01.2022
5663 Clouds 28 1004 65 10000 2.57 40 16:45 25.01.2022
5664 Clouds 28 1005 65 10000 4.12 360 16:21 25.01.2022
5665 Clouds 28 1005 65 10000 3.09 290 15:38 25.01.2022
5666 Clouds 29 1004 58 10000 3.09 350 14:57 25.01.2022
5667 Clouds 30 1004 54 10000 4.63 10 13:42 25.01.2022
5668 Clouds 32 1003 48 10000 7.2 20 10:51 25.01.2022
5669 Clouds 36 1000 43 10000 0.45 37 08:37 25.01.2022
5670 Clouds 36 1000 43 10000 0.45 37 07:29 25.01.2022
5671 Clouds 36 1000 43 10000 0.45 37 06:49 25.01.2022
5672 Clouds 36 1000 43 10000 0.45 37 05:22 25.01.2022
5673 Clouds 27 1005 65 10000 3.09 300 23:37 24.01.2022
5674 Clouds 27 1005 65 10000 3.09 300 23:18 24.01.2022
5675 Clouds 26 1004 73 10000 3.6 330 22:59 24.01.2022
5676 Clouds 25 1004 78 10000 3.09 330 22:41 24.01.2022
5677 Clouds 25 1003 73 10000 2.06 350 21:53 24.01.2022
5678 Clouds 25 1003 73 10000 3.09 360 21:29 24.01.2022
5679 Clouds 26 1003 69 10000 3.6 340 20:30 24.01.2022
5680 Clouds 26 1002 69 10000 4.12 350 19:50 24.01.2022
5681 Clouds 26 1002 73 10000 3.6 360 19:24 24.01.2022
5682 Clouds 27 1003 69 10000 5.14 350 18:18 24.01.2022
5683 Clouds 28 1003 65 10000 5.14 30 17:24 24.01.2022
5684 Clouds 28 1004 57 10000 5.14 40 16:52 24.01.2022
5685 Clouds 30 1004 51 10000 4.12 60 16:19 24.01.2022
5686 Clouds 32 1003 40 10000 2.06 150 14:38 24.01.2022
5687 Clouds 31 1002 58 10000 2.57 240 12:58 24.01.2022
5688 Clouds 32 1002 55 10000 4.12 270 12:23 24.01.2022
5689 Clouds 36 1000 43 10000 0.45 37 10:30 24.01.2022
5690 Clouds 36 1000 43 10000 0.45 37 10:30 24.01.2022
5691 Clouds 36 1000 43 10000 0.45 37 09:48 24.01.2022
5692 Clouds 36 1000 43 10000 0.45 37 08:34 24.01.2022
5693 Clouds 36 1000 43 10000 0.45 37 06:40 24.01.2022
5694 Clouds 30 1005 62 10000 2.06 270 01:30 24.01.2022
5695 Clouds 28 1006 74 10000 2.57 320 00:36 24.01.2022
5696 Clouds 27 1006 78 10000 1.54 280 23:52 23.01.2022
5697 Clouds 25 1005 88 10000 0 0 22:32 23.01.2022
5698 Clouds 24 1005 94 10000 0 0 21:49 23.01.2022
5699 Clouds 24 1004 94 10000 0 0 21:25 23.01.2022
5700 Clouds 24 1004 94 10000 0 0 20:44 23.01.2022
5701 Clouds 25 1004 88 10000 0.51 170 19:44 23.01.2022
5702 Clouds 26 1004 78 10000 2.06 120 18:51 23.01.2022
5703 Clouds 27 1005 74 10000 3.6 110 17:44 23.01.2022
5704 Clouds 27 1005 74 10000 4.12 100 16:47 23.01.2022
5705 Clouds 28 1006 69 10000 3.6 80 14:59 23.01.2022
5706 Clouds 28 1006 69 10000 4.63 80 14:25 23.01.2022
5707 Clouds 30 1005 62 10000 6.17 120 12:59 23.01.2022
5708 Clouds 31 1004 51 10000 7.72 150 12:22 23.01.2022
5709 Clouds 31 1003 48 10000 2.57 190 11:59 23.01.2022
5710 Clouds 32 1003 51 10000 2.06 260 11:19 23.01.2022
5711 Clouds 34 1003 38 10000 2.57 270 10:27 23.01.2022
5712 Clouds 34 1003 36 10000 2.57 250 09:51 23.01.2022
5713 Clouds 36 1000 43 10000 0.45 37 08:54 23.01.2022
5714 Clouds 36 1000 43 10000 0.45 37 05:57 23.01.2022
5715 Clouds 28 1009 65 10000 4.63 310 01:52 23.01.2022
5716 Clouds 28 1009 65 10000 4.63 310 01:27 23.01.2022
5717 Clear 27 1009 74 10000 5.14 310 00:23 23.01.2022
5718 Clouds 26 1009 78 10000 4.63 330 23:56 22.01.2022
5719 Clear 25 1008 83 10000 5.14 360 22:46 22.01.2022
5720 Clear 24 1007 88 10000 3.09 360 21:36 22.01.2022
5721 Clear 25 1007 83 10000 2.57 320 19:51 22.01.2022
5722 Clouds 26 1007 78 10000 4.12 350 18:50 22.01.2022
5723 Clouds 26 1007 78 10000 3.09 360 18:18 22.01.2022
5724 Clouds 27 1007 74 10000 4.63 20 17:40 22.01.2022
5725 Rain 27 1008 74 10000 2.57 40 16:56 22.01.2022
5726 Rain 27 1008 74 10000 2.57 90 15:50 22.01.2022
5727 Clouds 28 1009 74 10000 3.6 50 14:58 22.01.2022
5728 Clouds 28 1008 74 10000 3.6 80 13:46 22.01.2022
5729 Clouds 30 1008 66 10000 4.12 90 12:52 22.01.2022
5730 Clouds 30 1008 62 10000 3.6 110 12:29 22.01.2022
5731 Rain 31 1007 58 10000 3.09 120 11:31 22.01.2022
5732 Clouds 31 1007 58 10000 2.57 130 10:29 22.01.2022
5733 Clouds 32 1006 48 10000 3.09 160 09:59 22.01.2022
5734 Clouds 32 1006 51 10000 4.12 130 08:52 22.01.2022
5735 Clouds 33 1007 43 10000 3.6 200 07:38 22.01.2022
5736 Clouds 36 1000 43 10000 0.45 37 04:53 22.01.2022
5737 Clouds 30 1001 59 10000 0.89 114 01:35 22.01.2022
5738 Clouds 25 1011 83 10000 0 0 23:38 21.01.2022
5739 Clouds 25 1011 83 10000 0 0 23:38 21.01.2022
5740 Clouds 23 1000 95 10000 0.45 226 22:28 21.01.2022
5741 Clouds 23 999 94 10000 1.34 183 20:22 21.01.2022
5742 Clouds 23 1000 99 10000 0.89 219 18:40 21.01.2022
5743 Clouds 22 1000 98 10000 1.34 234 17:31 21.01.2022
5744 Rain 22 1002 99 10000 0 0 15:42 21.01.2022
5745 Rain 23 1003 98 10000 1.34 231 13:37 21.01.2022
5746 Rain 26 1010 64 10000 1.08 179 12:38 21.01.2022
5747 Rain 25 1001 87 10000 1.34 263 11:27 21.01.2022
5748 Clouds 28 999 64 10000 4.92 288 10:19 21.01.2022
5749 Clouds 35 1007 38 10000 3.6 10 08:24 21.01.2022
5750 Clouds 35 1008 38 10000 3.6 190 06:57 21.01.2022
5751 Clouds 27 1000 61 10000 2.24 12 23:36 20.01.2022
5752 Clouds 26 1000 62 10000 0.89 2 22:24 20.01.2022
5753 Clouds 26 1000 61 10000 0.45 30 21:43 20.01.2022
5754 Clouds 27 999 60 10000 1.34 66 20:53 20.01.2022
5755 Clouds 27 999 68 10000 0.89 45 19:20 20.01.2022
5756 Clouds 27 999 65 10000 0.45 49 18:50 20.01.2022
5757 Clouds 26 1000 83 10000 0 0 17:29 20.01.2022
5758 Rain 27 1000 73 10000 0 0 15:43 20.01.2022
5759 Rain 28 1000 64 10000 0 0 15:22 20.01.2022
5760 Clouds 27 1001 72 10000 0 0 13:41 20.01.2022
5761 Clouds 30 999 53 10000 0 0 12:35 20.01.2022
5762 Clouds 30 999 50 10000 2.57 80 11:57 20.01.2022
5763 Clouds 32 999 43 10000 1.34 201 10:40 20.01.2022
5764 Clouds 33 998 36 10000 1.34 203 09:40 20.01.2022
5765 Clouds 35 998 31 10000 1.34 263 08:32 20.01.2022
5766 Clouds 33 1011 43 10000 4.63 70 05:32 20.01.2022
5767 Clouds 27 1002 61 10000 2.24 229 23:28 19.01.2022
5768 Clouds 25 1001 64 10000 2.24 247 22:32 19.01.2022
5769 Clouds 25 1000 68 10000 0.45 247 21:24 19.01.2022
5770 Clouds 25 1000 70 10000 0.89 216 20:50 19.01.2022
5771 Clouds 26 999 68 10000 1.79 252 19:54 19.01.2022
5772 Clouds 26 999 71 10000 1.79 251 18:40 19.01.2022
5773 Clouds 25 999 82 10000 0.51 180 17:45 19.01.2022
5774 Clouds 25 1000 91 10000 1.03 230 16:57 19.01.2022
5775 Clouds 27 1011 83 10000 1.54 40 14:42 19.01.2022
5776 Rain 29 1011 61 10000 2.57 150 12:43 19.01.2022
5777 Rain 29 999 54 10000 1.34 263 11:42 19.01.2022
5778 Clouds 30 999 52 10000 2.68 259 10:35 19.01.2022
5779 Clouds 31 998 51 10000 1.34 274 09:34 19.01.2022
5780 Clouds 32 999 48 10000 2.24 283 06:56 19.01.2022
5781 Clouds 26 1001 65 10000 2.24 272 02:41 19.01.2022
5782 Clouds 22 1001 83 10000 2.68 297 23:20 18.01.2022
5783 Clouds 22 1000 87 10000 1.79 235 22:34 18.01.2022
5784 Clouds 22 1000 88 10000 1.34 257 21:01 18.01.2022
5785 Clouds 22 999 88 10000 2.68 270 19:55 18.01.2022
5786 Clouds 22 999 88 10000 2.68 270 19:36 18.01.2022
5787 Clouds 23 999 83 10000 4.02 250 18:51 18.01.2022
5788 Clouds 23 998 91 10000 2.68 251 17:58 18.01.2022
5789 Clouds 23 999 94 10000 2.24 251 16:58 18.01.2022
5790 Clouds 23 999 99 10000 0.45 199 15:47 18.01.2022
5791 Clouds 24 1010 94 10000 2.57 160 15:21 18.01.2022
5792 Clouds 24 1009 88 10000 5.14 40 12:47 18.01.2022
5793 Clouds 32 983 48 10000 2.68 273 10:47 18.01.2022
5794 Clouds 34 1005 33 10000 4.63 250 08:59 18.01.2022
5795 Clouds 37 982 31 10000 2.68 20 07:51 18.01.2022
5796 Clouds 34 985 48 10000 0.89 46 02:34 18.01.2022
5797 Clouds 27 985 77 10000 0.89 45 23:38 17.01.2022
5798 Clouds 25 985 86 10000 4.12 310 22:26 17.01.2022
5799 Clouds 23 984 91 10000 0.45 45 21:34 17.01.2022
5800 Clouds 23 983 92 10000 0.45 45 20:24 17.01.2022
5801 Clouds 24 1006 94 10000 4.12 330 18:30 17.01.2022
5802 Clouds 24 983 92 10000 3.6 340 17:25 17.01.2022
5803 Clouds 24 1007 94 10000 2.57 320 16:35 17.01.2022
5804 Clouds 25 1007 88 10000 4.63 330 15:19 17.01.2022
5805 Clouds 24 1007 94 10000 3.6 350 14:43 17.01.2022
5806 Clouds 24 1006 94 10000 3.09 360 13:22 17.01.2022
5807 Rain 24 1006 94 10000 2.57 340 12:55 17.01.2022
5808 Rain 25 1006 83 10000 5.14 310 11:48 17.01.2022
5809 Rain 24 1005 94 10000 5.14 310 10:21 17.01.2022
5810 Thunderstorm 24 1005 88 5000 10.8 330 09:34 17.01.2022
5811 Clouds 29 1005 65 10000 6.17 350 07:23 17.01.2022
5812 Clouds 28 1007 61 10000 6.69 360 02:55 17.01.2022
5813 Clouds 24 1008 83 10000 5.66 60 00:55 17.01.2022
5814 Rain 23 1008 83 10000 7.2 40 22:18 16.01.2022
5815 Clouds 22 1008 94 10000 5.66 60 20:35 16.01.2022
5816 Clouds 21 1008 100 10000 6.69 90 18:51 16.01.2022
5817 Rain 21 1009 100 10000 6.69 90 17:59 16.01.2022
5818 Rain 21 1011 100 3300 5.14 10 16:59 16.01.2022
5819 Rain 22 1011 94 6000 5.14 60 16:29 16.01.2022
5820 -273 0 0 0 0 0 14:31 16.01.2022
5821 Rain 23 1010 88 10000 9.77 330 14:30 16.01.2022
5822 Rain 29 1007 48 10000 4.12 80 13:33 16.01.2022
5823 Clouds 30 1007 42 10000 4.12 120 12:22 16.01.2022
5824 Clouds 30 1006 42 10000 5.66 120 11:38 16.01.2022
5825 Clouds 32 1006 37 10000 6.17 100 10:43 16.01.2022
5826 Clouds 32 1006 40 10000 5.66 120 09:58 16.01.2022
5827 Clouds 32 1005 40 10000 5.66 100 09:38 16.01.2022
5828 Clouds 32 1005 40 10000 5.66 100 09:19 16.01.2022
5829 Clouds 32 1007 40 10000 4.63 100 07:19 16.01.2022
5830 Clouds 26 1010 65 10000 2.57 260 00:35 16.01.2022
5831 Clouds 25 1009 73 10000 0 0 22:53 15.01.2022
5832 Clouds 24 1010 83 10000 3.09 40 21:22 15.01.2022
5833 Clouds 24 1009 78 10000 1.54 20 20:44 15.01.2022
5834 Clouds 24 1009 78 10000 1.54 20 20:21 15.01.2022
5835 Clouds 25 1008 69 10000 3.09 130 19:26 15.01.2022
5836 Clouds 26 1007 61 10000 3.6 160 18:18 15.01.2022
5837 Clouds 25 1009 69 10000 3.6 290 16:49 15.01.2022
5838 Clouds 27 1010 61 10000 2.06 160 14:36 15.01.2022
5839 Clouds 28 1009 54 10000 5.66 160 12:39 15.01.2022
5840 Clouds 28 1009 54 10000 7.2 70 11:21 15.01.2022
5841 Clouds 26 1007 65 10000 7.72 300 09:46 15.01.2022
5842 Clouds 35 1009 29 10000 9.77 310 01:27 15.01.2022
5843 Clouds 32 1008 33 10000 4.63 300 23:20 14.01.2022
5844 Clouds 31 1006 30 10000 3.6 310 20:57 14.01.2022
5845 Clouds 31 1006 30 10000 3.09 340 20:24 14.01.2022
5846 Clouds 31 1006 30 10000 3.6 350 19:49 14.01.2022
5847 Clouds 31 1006 30 10000 3.09 330 18:33 14.01.2022
5848 Clouds 31 1007 29 10000 3.09 350 16:57 14.01.2022
5849 Clouds 32 1007 25 10000 4.63 350 16:38 14.01.2022
5850 Clouds 30 1007 21 10000 2.06 90 14:50 14.01.2022
5851 Clouds 30 1007 19 10000 2.06 70 14:20 14.01.2022
5852 Clouds 34 1006 15 10000 0 0 12:37 14.01.2022
5853 Clouds 37 1006 12 10000 3.6 30 11:34 14.01.2022
5854 Clouds 40 1006 9 10000 3.09 90 10:22 14.01.2022
5855 Clouds 41 1005 11 10000 1.54 200 08:52 14.01.2022
5856 Clouds 41 1006 11 10000 3.09 50 07:27 14.01.2022
5857 Clouds 33 1011 29 10000 4.12 290 01:43 14.01.2022
5858 Clouds 29 1011 42 10000 3.09 340 23:39 13.01.2022
5859 Clouds 26 1010 50 10000 0.51 20 21:45 13.01.2022
5860 Clouds 26 1010 50 10000 2.57 360 21:27 13.01.2022
5861 Clouds 29 1010 39 10000 3.09 60 19:44 13.01.2022
5862 Clouds 29 1010 39 10000 3.09 60 19:22 13.01.2022
5863 Clouds 30 1008 37 10000 4.63 340 17:56 13.01.2022
5864 Clouds 31 1009 35 10000 0 0 16:22 13.01.2022
5865 Clouds 32 1010 31 10000 3.09 360 15:38 13.01.2022
5866 Clouds 32 1010 29 10000 1.54 310 14:49 13.01.2022
5867 Clouds 35 1009 26 10000 5.66 350 12:54 13.01.2022
5868 Clouds 41 1007 10 10000 4.12 150 10:25 13.01.2022
5869 Clouds 41 1007 11 10000 4.63 140 09:20 13.01.2022
5870 Clouds 42 1007 12 10000 5.14 90 08:27 13.01.2022
5871 Clear 41 1008 11 10000 5.14 100 07:24 13.01.2022
5872 Clear 41 1009 12 10000 2.57 240 06:38 13.01.2022
5873 Clear 40 1010 12 10000 4.12 50 05:20 13.01.2022
5874 Clear 37 1013 12 10000 3.6 100 02:33 13.01.2022
5875 Clear 34 1013 12 10000 5.14 120 00:56 13.01.2022
5876 Clear 33 1013 11 10000 6.17 110 23:49 12.01.2022
5877 Clear 32 1013 12 10000 4.63 130 23:24 12.01.2022
5878 Clear 30 1012 13 10000 4.12 140 21:57 12.01.2022
5879 Clear 31 1011 12 10000 5.14 140 21:23 12.01.2022
5880 Clear 31 1011 13 10000 4.63 140 20:57 12.01.2022
5881 Clear 31 1011 14 10000 4.63 140 19:55 12.01.2022
5882 Clouds 32 1011 25 10000 5.66 170 18:43 12.01.2022
5883 Clouds 29 1011 30 10000 0 0 17:38 12.01.2022
5884 Clouds 32 1011 25 10000 1.54 10 16:33 12.01.2022
5885 Clouds 34 1012 18 10000 3.6 110 14:48 12.01.2022
5886 Clouds 35 1011 14 10000 3.6 130 13:24 12.01.2022
5887 Clouds 38 1010 12 10000 5.66 140 11:59 12.01.2022
5888 Clouds 41 1009 10 10000 8.75 130 08:43 12.01.2022
5889 Clouds 41 1009 9 10000 5.66 110 07:50 12.01.2022
5890 Clouds 41 1010 10 10000 7.72 110 07:31 12.01.2022
5891 Clear 33 1014 17 10000 3.6 150 23:53 11.01.2022
5892 Clear 30 1014 19 10000 2.06 80 22:56 11.01.2022
5893 Clear 28 1014 21 10000 2.57 120 22:23 11.01.2022
5894 Clear 28 1012 20 10000 3.09 120 20:56 11.01.2022
5895 Clear 28 1012 20 10000 2.06 70 20:20 11.01.2022
5896 Clouds 27 1012 22 10000 3.6 140 18:32 11.01.2022
5897 Clouds 30 1012 16 10000 0 0 17:26 11.01.2022
5898 Clouds 32 1012 14 10000 4.12 160 16:38 11.01.2022
5899 Clouds 32 1012 14 10000 4.63 160 15:47 11.01.2022
5900 Clouds 32 1012 18 10000 3.6 160 14:42 11.01.2022
5901 Clear 32 1012 18 10000 3.6 150 13:56 11.01.2022
5902 Clear 34 1012 15 10000 3.6 140 13:36 11.01.2022
5903 Clear 36 1012 13 10000 4.12 140 12:48 11.01.2022
5904 Clear 37 1011 12 10000 4.63 140 11:45 11.01.2022
5905 Clear 41 1009 9 10000 7.72 130 09:39 11.01.2022
5906 Clear 41 1010 8 10000 7.72 130 07:18 11.01.2022
5907 Clear 33 1015 11 10000 3.6 90 00:33 11.01.2022
5908 Clear 27 1014 17 10000 0 0 23:44 10.01.2022
5909 Clear 27 1014 17 10000 0 0 23:24 10.01.2022
5910 Clear 21 1013 28 10000 0 0 22:19 10.01.2022
5911 Clear 21 1013 28 10000 0 0 22:19 10.01.2022
5912 Clear 21 1013 28 10000 1.54 250 21:54 10.01.2022
5913 Clear 22 1012 23 10000 0 0 21:21 10.01.2022
5914 Clear 22 1011 24 10000 1.03 200 20:57 10.01.2022
5915 Clear 24 1011 22 10000 1.03 100 20:28 10.01.2022
5916 Clear 27 1011 14 10000 2.57 90 19:44 10.01.2022
5917 Clear 27 1011 14 10000 2.57 90 19:21 10.01.2022
5918 Clear 25 1011 22 10000 2.06 100 18:49 10.01.2022
5919 Clear 25 1011 22 10000 2.06 90 17:56 10.01.2022
5920 Clear 27 1011 18 10000 3.09 80 16:42 10.01.2022
5921 Clear 29 1011 14 10000 3.6 70 15:49 10.01.2022
5922 Clear 31 1011 12 10000 3.09 100 14:34 10.01.2022
5923 Clear 36 1010 11 10000 4.12 120 12:18 10.01.2022
5924 Clear 39 1009 8 10000 4.63 120 11:25 10.01.2022
5925 Clear 41 1009 8 10000 4.12 170 09:52 10.01.2022
5926 Clear 42 1008 8 10000 5.14 200 08:22 10.01.2022
5927 Clear 42 1009 9 10000 4.63 160 05:49 10.01.2022
5928 Clear 36 1012 11 10000 5.66 10 01:33 10.01.2022
5929 Clear 34 1012 13 10000 3.6 50 00:29 10.01.2022
5930 Clear 30 1012 16 10000 2.57 70 23:43 09.01.2022
5931 Clear 26 1011 21 10000 2.57 60 22:40 09.01.2022
5932 Clear 25 1011 22 10000 2.57 50 21:47 09.01.2022
5933 Clear 24 1011 23 10000 2.57 60 21:24 09.01.2022
5934 Clear 24 1011 23 10000 2.57 60 21:24 09.01.2022
5935 Clear 24 1010 22 10000 0 0 20:53 09.01.2022
5936 Clear 23 1010 25 10000 0 0 20:34 09.01.2022
5937 Clear 23 1010 25 10000 0 0 19:45 09.01.2022
5938 Clear 24 1010 23 10000 2.06 90 19:23 09.01.2022
5939 Clear 24 1010 25 10000 2.57 100 18:56 09.01.2022
5940 Clear 25 1010 20 10000 3.09 60 18:35 09.01.2022
5941 Clear 26 1010 19 10000 3.6 80 17:45 09.01.2022
5942 Clear 26 1010 19 10000 2.57 70 17:21 09.01.2022
5943 Clear 27 1010 18 10000 3.09 50 15:59 09.01.2022
5944 Clear 27 1010 18 10000 3.6 60 15:36 09.01.2022
5945 Clear 30 1010 14 10000 3.6 90 14:41 09.01.2022
5946 Clear 31 1010 13 10000 3.6 110 13:51 09.01.2022
5947 Clear 33 1009 13 10000 5.66 90 13:25 09.01.2022
5948 Clear 35 1008 12 10000 6.17 120 11:55 09.01.2022
5949 Clear 38 1007 10 10000 3.6 140 10:53 09.01.2022
5950 Clear 39 1007 10 10000 1.54 190 09:50 09.01.2022
5951 Clear 39 1007 10 10000 3.6 220 08:52 09.01.2022
5952 Clear 38 1009 10 10000 3.6 100 05:38 09.01.2022
5953 Clear 32 1013 14 10000 5.66 70 01:24 09.01.2022
5954 Clear 27 1013 22 10000 1.03 100 23:47 08.01.2022
5955 Clear 27 1013 22 10000 1.54 90 23:26 08.01.2022
5956 Clear 18 1013 42 10000 1.54 170 22:30 08.01.2022
5957 Clear 19 1012 32 10000 2.57 100 21:26 08.01.2022
5958 Clear 21 1011 28 10000 3.6 90 20:42 08.01.2022
5959 Clear 21 1011 28 10000 3.6 90 20:21 08.01.2022
5960 Clear 22 1011 26 10000 2.57 90 18:45 08.01.2022
5961 Clear 23 1011 27 10000 3.09 90 17:23 08.01.2022
5962 Clear 24 1012 25 10000 2.57 80 15:58 08.01.2022
5963 Clear 26 1012 24 10000 3.6 100 14:46 08.01.2022
5964 Clear 29 1012 20 10000 3.6 120 13:29 08.01.2022
5965 Clear 32 1010 14 10000 5.14 130 11:28 08.01.2022
5966 Clear 34 1010 14 10000 5.14 140 10:30 08.01.2022
5967 Clear 34 1010 13 10000 5.66 140 09:48 08.01.2022
5968 Clear 35 1010 12 10000 3.6 130 09:28 08.01.2022
5969 Clear 32 1013 17 10000 3.6 80 03:45 08.01.2022
5970 Clear 27 1014 24 10000 7.72 90 00:57 08.01.2022
5971 Clear 21 1014 30 10000 0 0 22:54 07.01.2022
5972 Clear 17 1013 39 10000 2.57 140 21:21 07.01.2022
5973 Clear 18 1012 36 10000 2.06 70 20:23 07.01.2022
5974 Clear 19 1012 32 10000 2.06 80 19:26 07.01.2022
5975 Clear 21 1012 28 10000 2.06 100 18:45 07.01.2022
5976 Clear 24 1013 23 10000 3.6 120 17:28 07.01.2022
5977 Clear 23 1013 25 10000 3.09 100 16:41 07.01.2022
5978 Clear 25 1013 22 10000 3.09 130 14:37 07.01.2022
5979 Clear 27 1013 19 10000 3.6 130 13:41 07.01.2022
5980 Clear 27 1013 18 10000 3.09 130 12:50 07.01.2022
5981 Clear 33 1011 13 10000 4.63 150 09:48 07.01.2022
5982 Clear 30 1014 15 6000 4.12 90 02:58 07.01.2022
5983 Clear 29 1014 17 10000 4.63 110 02:19 07.01.2022
5984 Clear 28 1014 18 10000 4.63 110 01:41 07.01.2022
5985 Clear 28 1014 18 10000 4.63 110 01:20 07.01.2022
5986 Clouds 26 1014 21 10000 5.66 110 00:28 07.01.2022
5987 Clouds 17 1013 42 10000 0 0 21:40 06.01.2022
5988 Clouds 18 1013 39 10000 0 0 20:36 06.01.2022
5989 Clouds 19 1012 37 10000 1.54 320 19:54 06.01.2022
5990 Clear 20 1012 32 10000 0 0 19:28 06.01.2022
5991 Clear 23 1011 27 10000 3.6 130 17:42 06.01.2022
5992 Clear 23 1011 27 10000 3.6 130 17:19 06.01.2022
5993 Clear 25 1011 23 10000 3.6 130 16:21 06.01.2022
5994 Clear 26 1011 22 10000 4.63 120 15:39 06.01.2022
5995 Clear 27 1011 22 10000 6.69 120 15:19 06.01.2022
5996 Clear 27 1011 22 10000 3.6 120 14:19 06.01.2022
5997 Clear 28 1011 21 10000 3.09 130 12:58 06.01.2022
5998 Clear 31 1010 16 10000 3.6 130 11:50 06.01.2022
5999 Clear 32 1010 14 10000 4.12 140 11:28 06.01.2022
6000 Clear 35 1009 13 10000 6.69 190 08:59 06.01.2022
6001 Clear 28 1012 20 10000 3.6 130 01:51 06.01.2022
6002 Clear 25 1013 23 10000 6.17 120 23:40 05.01.2022
6003 Clear 23 1012 28 10000 4.63 130 22:59 05.01.2022
6004 Clear 22 1012 33 10000 2.57 140 22:33 05.01.2022
6005 Clear 21 1012 35 10000 3.6 130 21:54 05.01.2022
6006 Clear 20 1012 37 10000 3.09 110 21:21 05.01.2022
6007 Clear 23 1011 31 10000 3.6 120 20:19 05.01.2022
6008 Clear 23 1011 33 10000 3.6 120 18:54 05.01.2022
6009 Clear 23 1011 33 10000 2.06 110 17:45 05.01.2022
6010 Clear 25 1011 29 10000 3.09 120 16:51 05.01.2022
6011 Clear 26 1011 27 10000 3.09 80 15:46 05.01.2022
6012 Clear 29 1011 23 10000 4.12 120 14:28 05.01.2022
6013 Clear 29 1010 23 10000 3.6 120 13:32 05.01.2022
6014 Clear 32 1010 18 10000 4.63 140 11:45 05.01.2022
6015 Clear 37 1008 12 10000 6.69 150 08:20 05.01.2022
6016 Clear 36 1009 11 10000 4.63 160 06:25 05.01.2022
6017 Clear 30 1014 12 10000 5.14 110 00:59 05.01.2022
6018 Clear 27 1013 14 10000 3.09 130 23:29 04.01.2022
6019 Clear 26 1013 19 10000 2.57 160 22:58 04.01.2022
6020 Clear 23 1012 21 10000 0 0 21:31 04.01.2022
6021 Clear 23 1012 21 10000 0 0 21:31 04.01.2022
6022 Clear 25 1012 16 10000 2.06 100 19:22 04.01.2022
6023 Clear 26 1012 15 10000 0 0 17:54 04.01.2022
6024 Clear 29 1012 13 10000 4.12 130 16:53 04.01.2022
6025 Clear 31 1012 11 10000 6.17 140 16:25 04.01.2022
6026 Clear 32 1012 12 10000 5.14 140 14:54 04.01.2022
6027 Clear 33 1011 12 10000 6.69 140 14:35 04.01.2022
6028 Clouds 34 1011 15 10000 5.66 140 13:29 04.01.2022
6029 Clouds 38 1009 13 10000 6.17 180 10:41 04.01.2022
6030 Clouds 39 1008 11 10000 6.17 120 09:47 04.01.2022
6031 Clouds 39 1008 13 10000 3.6 180 08:34 04.01.2022
6032 Clear 37 1012 18 10000 6.69 130 02:52 04.01.2022
6033 Clear 33 1013 22 10000 6.69 110 00:41 04.01.2022
6034 Clear 29 1012 21 10000 2.06 170 23:34 03.01.2022
6035 Clear 24 1011 25 10000 1.54 160 21:52 03.01.2022
6036 Clear 22 1011 30 10000 0 0 21:33 03.01.2022
6037 Clear 23 1010 28 10000 2.06 110 20:22 03.01.2022
6038 Clouds 24 1009 29 10000 0 0 18:54 03.01.2022
6039 Clouds 24 1009 27 10000 0 0 18:28 03.01.2022
6040 Clouds 25 1009 25 10000 0 0 16:58 03.01.2022
6041 Clear 27 1009 22 10000 0 0 15:39 03.01.2022
6042 Clear 28 1009 20 10000 2.06 140 14:30 03.01.2022
6043 Clear 32 1008 13 10000 3.09 140 12:46 03.01.2022
6044 Clear 37 1008 11 10000 5.66 130 11:38 03.01.2022
6045 Clear 39 1007 10 10000 5.14 140 10:36 03.01.2022
6046 Clear 41 1007 9 10000 7.72 130 08:47 03.01.2022
6047 Clear 40 1008 10 10000 5.66 110 07:36 03.01.2022
6048 Clear 33 1010 18 10000 5.66 110 23:56 02.01.2022
6049 Clear 31 1010 20 10000 3.09 130 23:22 02.01.2022
6050 Clear 27 1010 29 10000 0 0 22:53 02.01.2022
6051 Clear 23 1009 35 10000 0 0 21:42 02.01.2022
6052 Clear 24 1008 33 10000 0 0 20:33 02.01.2022
6053 Clear 24 1008 33 10000 0 0 19:55 02.01.2022
6054 Clear 25 1008 31 10000 0 0 19:30 02.01.2022
6055 Clear 25 1008 33 10000 0 0 18:44 02.01.2022
6056 Clear 27 1008 28 10000 1.03 90 17:44 02.01.2022
6057 Clear 27 1008 28 10000 1.03 90 17:22 02.01.2022
6058 Clear 28 1008 24 10000 2.57 90 16:59 02.01.2022
6059 Clear 29 1008 23 10000 2.57 40 16:24 02.01.2022
6060 Clear 31 1008 20 10000 3.09 130 14:22 02.01.2022
6061 Clear 34 1007 16 10000 4.12 160 12:49 02.01.2022
6062 Clouds 36 1006 14 10000 3.6 160 11:57 02.01.2022
6063 Clouds 37 1006 12 10000 4.12 170 11:23 02.01.2022
6064 Clouds 39 1006 11 10000 6.17 190 10:44 02.01.2022
6065 Clouds 42 1005 9 10000 4.12 170 08:42 02.01.2022
6066 Clear 39 1008 13 10000 2.06 170 03:25 02.01.2022
6067 Clear 34 1008 18 10000 2.57 270 00:58 02.01.2022
6068 Clear 29 1008 24 10000 3.09 270 23:39 01.01.2022
6069 Clear 27 1008 28 10000 3.09 280 22:55 01.01.2022
6070 Clear 25 1007 31 10000 2.57 270 22:21 01.01.2022
6071 Clear 23 1007 38 10000 2.57 280 21:43 01.01.2022
6072 Clear 23 1006 40 10000 3.6 280 20:53 01.01.2022
6073 Clear 25 1006 36 10000 3.6 290 19:55 01.01.2022
6074 Clouds 24 1006 41 10000 3.6 290 18:58 01.01.2022
6075 Clouds 26 1006 38 10000 3.09 330 17:57 01.01.2022
6076 Clouds 28 1006 34 10000 2.57 300 16:35 01.01.2022
6077 Clouds 29 1006 32 10000 1.54 320 15:57 01.01.2022
6078 Clouds 30 1007 32 10000 0 0 14:57 01.01.2022
6079 Clouds 31 1006 29 10000 0 0 13:42 01.01.2022
6080 Clouds 33 1006 25 10000 0 0 12:49 01.01.2022
6081 Clouds 35 1005 21 10000 0 0 11:47 01.01.2022
6082 Clouds 36 1005 20 10000 2.57 230 11:20 01.01.2022
6083 Clouds 38 1004 17 10000 6.69 240 09:49 01.01.2022
6084 Clouds 39 1004 16 10000 7.2 230 09:21 01.01.2022
6085 Clouds 40 1004 13 10000 7.2 270 08:24 01.01.2022
6086 Clouds 39 1004 15 10000 6.69 280 07:41 01.01.2022
6087 Clouds 40 1004 15 10000 5.66 270 06:45 01.01.2022
6088 Clouds 39 1006 16 10000 7.72 270 05:26 01.01.2022
6089 Clear 39 1006 17 10000 7.72 300 04:37 01.01.2022
6090 Clouds 34 1007 27 10000 7.72 330 00:41 01.01.2022
6091 Clouds 30 1007 32 10000 3.6 350 22:59 31.12.2021
6092 Clouds 24 1007 57 10000 1.03 310 21:52 31.12.2021
6093 Clear 25 1006 57 10000 0 0 20:32 31.12.2021
6094 Clouds 25 1006 57 10000 0.51 250 19:29 31.12.2021
6095 Clouds 25 1006 53 10000 2.06 230 18:30 31.12.2021
6096 Clouds 24 1006 57 10000 0 0 17:37 31.12.2021
6097 Clouds 24 1006 57 10000 0 0 17:18 31.12.2021
6098 Clouds 25 1007 53 10000 1.54 60 16:19 31.12.2021
6099 Clouds 26 1007 50 10000 2.06 80 15:53 31.12.2021
6100 Clouds 26 1007 50 10000 0 0 15:28 31.12.2021
6101 Clouds 28 1007 42 10000 3.09 70 14:41 31.12.2021
6102 Clouds 28 1007 42 10000 2.57 60 13:58 31.12.2021
6103 Clouds 29 1007 39 10000 3.6 70 13:35 31.12.2021
6104 Clouds 30 1007 35 10000 4.12 80 12:44 31.12.2021
6105 Clouds 31 1006 30 10000 4.63 110 11:43 31.12.2021
6106 Clouds 31 1006 30 10000 4.63 110 11:19 31.12.2021
6107 Clouds 32 1007 31 10000 1.03 350 10:30 31.12.2021
6108 Clouds 33 1006 25 10000 3.09 110 09:35 31.12.2021
6109 Clouds 33 1006 27 10000 4.12 210 08:56 31.12.2021
6110 Clouds 34 1005 24 10000 4.63 70 08:25 31.12.2021
6111 Clouds 37 1005 19 10000 3.6 110 06:39 31.12.2021
6112 Clouds 30 1008 25 10000 4.12 40 23:23 30.12.2021
6113 Clouds 26 1008 31 10000 1.54 120 22:32 30.12.2021
6114 Clouds 26 1007 31 10000 4.63 50 21:41 30.12.2021
6115 Clouds 26 1007 31 10000 4.63 50 21:22 30.12.2021
6116 Clouds 25 1007 33 10000 3.09 50 20:43 30.12.2021
6117 Clouds 25 1007 33 10000 3.09 50 20:23 30.12.2021
6118 Clouds 23 1007 35 10000 3.09 70 19:36 30.12.2021
6119 Clouds 23 1007 40 10000 3.09 110 18:29 30.12.2021
6120 Clouds 24 1008 41 10000 0 0 17:38 30.12.2021
6121 Clouds 28 1008 26 10000 2.57 90 15:55 30.12.2021
6122 Clouds 28 1008 26 10000 2.57 80 15:36 30.12.2021
6123 Clouds 29 1008 24 10000 2.57 40 14:36 30.12.2021
6124 Clouds 31 1008 22 10000 3.6 110 13:31 30.12.2021
6125 Clouds 33 1008 18 10000 5.14 130 11:59 30.12.2021
6126 Clouds 35 1007 14 10000 7.2 140 10:44 30.12.2021
6127 Clouds 35 1007 13 10000 7.72 140 09:50 30.12.2021
6128 Clouds 38 1007 13 10000 4.63 70 07:42 30.12.2021
6129 Clouds 37 1007 12 10000 2.57 40 06:38 30.12.2021
6130 Clouds 36 1009 13 10000 5.66 100 03:41 30.12.2021
6131 Clouds 34 1010 15 10000 4.12 90 02:35 30.12.2021
6132 Clouds 26 1009 18 10000 2.57 280 23:40 29.12.2021
6133 Clouds 23 1009 23 10000 2.57 270 22:59 29.12.2021
6134 Clouds 20 1009 30 10000 3.09 260 22:18 29.12.2021
6135 Clouds 18 1008 34 10000 0.51 240 21:19 29.12.2021
6136 Clouds 21 1008 28 10000 0 0 20:30 29.12.2021
6137 Clouds 21 1008 28 10000 0 0 20:30 29.12.2021
6138 Clouds 21 1008 26 10000 0 0 19:43 29.12.2021
6139 Clouds 21 1008 28 10000 0 0 18:44 29.12.2021
6140 Clouds 20 1008 26 10000 0 0 17:52 29.12.2021
6141 Clouds 21 1009 23 10000 0 0 17:27 29.12.2021
6142 Clear 22 1009 21 10000 0 0 16:22 29.12.2021
6143 Clear 23 1010 18 10000 0 0 15:26 29.12.2021
6144 Clear 26 1010 13 10000 2.57 170 13:42 29.12.2021
6145 Clear 29 1009 10 10000 3.6 150 12:35 29.12.2021
6146 Clear 31 1008 10 10000 3.6 140 11:25 29.12.2021
6147 Clear 35 1007 8 10000 6.69 130 09:46 29.12.2021
6148 Clear 36 1007 9 10000 4.63 180 07:47 29.12.2021
6149 Clear 35 1007 9 10000 3.6 150 06:37 29.12.2021
6150 Clear 35 1008 8 10000 4.12 110 05:57 29.12.2021
6151 Clear 35 1008 8 10000 5.66 90 05:30 29.12.2021
6152 Clear 32 1009 10 10000 7.72 90 01:45 29.12.2021
6153 Clouds 26 1010 14 10000 3.09 90 00:00 29.12.2021
6154 Clouds 24 1010 17 10000 0 0 23:18 28.12.2021
6155 Clouds 16 1010 36 10000 0 0 22:26 28.12.2021
6156 Clouds 15 1010 38 10000 0 0 21:56 28.12.2021
6157 Clouds 15 1009 38 10000 2.06 340 21:35 28.12.2021
6158 Clear 17 1009 27 10000 1.54 280 20:32 28.12.2021
6159 Clear 17 1009 31 10000 2.57 280 18:56 28.12.2021
6160 Clear 17 1009 31 10000 2.06 270 18:28 28.12.2021
6161 Clear 19 1009 26 10000 0 0 17:42 28.12.2021
6162 Clear 20 1009 24 10000 0 0 16:25 28.12.2021
6163 Clear 21 1010 21 10000 0 0 15:41 28.12.2021
6164 Clear 23 1010 16 10000 2.06 130 14:57 28.12.2021
6165 Clear 23 1010 16 10000 2.06 130 14:57 28.12.2021
6166 Clear 24 1010 15 10000 2.57 140 14:38 28.12.2021
6167 Clear 24 1010 15 10000 2.57 140 14:20 28.12.2021
6168 Clear 25 1009 13 10000 3.6 130 13:38 28.12.2021
6169 Clear 26 1009 12 10000 3.6 140 12:56 28.12.2021
6170 Clear 27 1009 12 10000 3.6 140 12:38 28.12.2021
6171 Clear 33 1008 9 10000 6.17 140 10:52 28.12.2021
6172 Clear 34 1007 11 10000 5.66 100 07:39 28.12.2021
6173 Clear 35 1008 11 10000 6.17 110 06:40 28.12.2021
6174 Clear 26 1011 19 10000 4.63 110 23:42 27.12.2021
6175 Clear 22 1011 24 10000 3.6 110 22:31 27.12.2021
6176 Clear 24 1010 20 10000 5.66 110 21:32 27.12.2021
6177 Clear 25 1010 19 10000 4.63 110 20:45 27.12.2021
6178 Clear 24 1010 23 10000 1.54 110 19:56 27.12.2021
6179 Clear 23 1010 27 10000 2.57 120 19:38 27.12.2021
6180 Clear 26 1010 24 10000 5.14 130 17:55 27.12.2021
6181 Clear 25 1010 29 10000 4.12 130 17:29 27.12.2021
6182 Clear 26 1010 27 10000 3.09 50 16:32 27.12.2021
6183 Clear 25 1010 29 10000 1.03 100 15:50 27.12.2021
6184 Clear 27 1010 26 10000 2.57 130 14:29 27.12.2021
6185 Clear 28 1010 23 10000 3.09 130 13:32 27.12.2021
6186 Clear 32 1009 15 10000 4.63 130 11:34 27.12.2021
6187 Clear 34 1008 14 10000 6.69 130 10:27 27.12.2021
6188 Clear 35 1008 14 10000 8.23 130 09:38 27.12.2021
6189 Clear 35 1008 14 10000 7.2 110 07:35 27.12.2021
6190 Clear 35 1009 16 10000 7.2 110 06:30 27.12.2021
6191 Clear 35 1009 16 10000 7.2 110 06:30 27.12.2021
6192 Clear 31 1012 25 10000 7.72 120 01:59 27.12.2021
6193 Clear 27 1013 28 10000 3.6 150 23:52 26.12.2021
6194 Clear 25 1012 29 10000 0 0 23:34 26.12.2021
6195 Clear 20 1012 37 10000 1.54 230 21:48 26.12.2021
6196 Clear 21 1011 35 10000 3.09 180 20:31 26.12.2021
6197 Clear 21 1011 30 10000 3.6 160 19:27 26.12.2021
6198 Clear 22 1011 30 10000 3.09 180 18:23 26.12.2021
6199 Clear 28 1012 18 10000 3.6 150 15:55 26.12.2021
6200 Clear 29 1011 23 10000 3.6 150 13:52 26.12.2021
6201 Clear 31 1011 20 10000 5.14 150 13:32 26.12.2021
6202 Clear 32 1011 18 10000 4.12 140 12:37 26.12.2021
6203 Clear 33 1011 17 10000 4.63 140 11:57 26.12.2021
6204 Clear 37 1009 12 10000 7.2 150 09:44 26.12.2021
6205 Clear 37 1009 12 10000 8.23 160 08:59 26.12.2021
6206 Clear 37 1009 13 10000 5.66 150 08:38 26.12.2021
6207 Clear 37 1009 13 10000 7.72 140 06:47 26.12.2021
6208 Clear 30 1014 21 10000 6.17 120 00:58 26.12.2021
6209 Clear 29 1014 24 10000 5.14 120 23:50 25.12.2021
6210 Clear 28 1014 26 10000 4.63 110 23:26 25.12.2021
6211 Clear 24 1013 33 10000 2.06 120 22:22 25.12.2021
6212 Clear 21 1012 43 10000 2.06 190 20:48 25.12.2021
6213 Clouds 23 1011 33 10000 2.57 350 19:21 25.12.2021
6214 Clouds 22 1011 40 10000 0 0 18:54 25.12.2021
6215 Clouds 25 1011 31 10000 1.54 40 16:58 25.12.2021
6216 Clouds 27 1011 26 10000 2.06 30 15:54 25.12.2021
6217 Clouds 26 1011 36 10000 2.06 160 14:25 25.12.2021
6218 Clouds 31 1010 23 10000 2.06 100 12:43 25.12.2021
6219 Clouds 33 1010 21 10000 0 0 11:27 25.12.2021
6220 Clouds 35 1009 17 10000 4.63 100 09:49 25.12.2021
6221 Clouds 36 1009 16 10000 5.14 140 07:51 25.12.2021
6222 Clouds 32 1013 25 10000 2.57 130 01:45 25.12.2021
6223 Clouds 31 1014 30 10000 3.09 190 00:30 25.12.2021
6224 Clouds 25 1012 50 10000 2.06 340 22:40 24.12.2021
6225 Clouds 26 1011 47 10000 3.6 270 19:38 24.12.2021
6226 Clouds 26 1011 47 10000 3.6 270 19:19 24.12.2021
6227 Clouds 26 1012 50 10000 0 0 16:50 24.12.2021
6228 Clouds 28 1012 42 10000 2.57 360 15:54 24.12.2021
6229 Clouds 28 1012 36 10000 2.57 350 15:34 24.12.2021
6230 Clouds 28 1012 32 10000 2.57 50 14:40 24.12.2021
6231 Clouds 28 1012 32 10000 2.57 50 14:19 24.12.2021
6232 Clouds 29 1012 30 10000 3.6 50 13:34 24.12.2021
6233 Rain 30 1012 28 10000 4.12 60 12:47 24.12.2021
6234 Clouds 31 1011 29 10000 3.6 70 11:52 24.12.2021
6235 Clouds 31 1011 30 10000 3.6 70 11:26 24.12.2021
6236 Clouds 32 1011 27 10000 4.63 50 10:46 24.12.2021
6237 Clouds 32 1010 25 10000 3.6 30 09:33 24.12.2021
6238 Clouds 33 1010 22 10000 5.14 30 08:23 24.12.2021
6239 Clouds 33 1010 21 10000 4.12 30 07:47 24.12.2021
6240 Clouds 30 1013 32 10000 4.63 360 02:33 24.12.2021
6241 Clouds 26 1013 53 10000 7.2 360 23:56 23.12.2021
6242 Clouds 25 1012 57 10000 5.66 320 22:58 23.12.2021
6243 Clouds 24 1011 60 10000 7.2 340 22:37 23.12.2021
6244 Clouds 24 1011 60 10000 7.2 340 22:18 23.12.2021
6245 Clouds 25 1011 53 10000 9.77 350 20:56 23.12.2021
6246 Clouds 25 1011 50 10000 7.2 10 19:47 23.12.2021
6247 Clouds 25 1011 53 10000 8.75 10 18:35 23.12.2021
6248 Clouds 25 1011 53 10000 8.75 20 17:56 23.12.2021
6249 Clouds 25 1012 53 10000 6.69 360 16:43 23.12.2021
6250 Clouds 25 1012 53 10000 6.69 360 16:23 23.12.2021
6251 Clouds 25 1012 69 10000 6.17 10 15:31 23.12.2021
6252 Clouds 25 1013 69 10000 5.14 360 14:49 23.12.2021
6253 Clouds 24 1013 73 10000 4.63 360 14:30 23.12.2021
6254 Clouds 24 1012 73 10000 5.66 330 12:53 23.12.2021
6255 Rain 28 1010 51 10000 5.14 50 10:44 23.12.2021
6256 Rain 33 1007 25 10000 10.29 70 09:35 23.12.2021
6257 Rain 34 1007 26 10000 7.72 70 08:59 23.12.2021
6258 Clouds 38 1007 17 10000 4.63 260 06:51 23.12.2021
6259 Clouds 35 1009 24 10000 4.12 340 04:30 23.12.2021
6260 Clouds 27 1010 41 10000 0 0 22:57 22.12.2021
6261 Clouds 26 1009 41 10000 2.06 50 22:39 22.12.2021
6262 Clouds 26 1009 41 10000 2.57 60 21:54 22.12.2021
6263 Clouds 25 1009 47 10000 3.09 60 21:29 22.12.2021
6264 Clouds 27 1008 41 10000 2.06 30 20:44 22.12.2021
6265 Clouds 27 1008 41 10000 2.06 30 20:25 22.12.2021
6266 Clouds 27 1008 41 10000 2.06 310 19:19 22.12.2021
6267 Clouds 29 1009 37 10000 3.6 270 17:39 22.12.2021
6268 Clouds 30 1009 30 10000 3.6 260 16:38 22.12.2021
6269 Clouds 31 1010 27 10000 6.17 250 15:39 22.12.2021
6270 Clouds 32 1008 17 10000 3.6 110 13:32 22.12.2021
6271 Clouds 33 1007 19 10000 4.12 120 12:31 22.12.2021
6272 Clouds 38 1006 14 10000 3.6 170 09:53 22.12.2021
6273 Clouds 39 1006 13 10000 2.57 180 09:33 22.12.2021
6274 Clouds 38 1007 13 10000 3.09 210 07:22 22.12.2021
6275 Clouds 39 1009 13 10000 3.09 340 05:41 22.12.2021
6276 Clouds 39 1009 13 10000 3.09 340 05:22 22.12.2021
6277 Clouds 38 1009 13 10000 3.09 80 04:45 22.12.2021
6278 Clouds 38 1010 13 10000 4.12 10 04:19 22.12.2021
6279 Clouds 36 1011 11 10000 5.66 120 03:32 22.12.2021
6280 Clouds 31 1012 15 10000 3.6 90 23:58 21.12.2021
6281 Clouds 26 1012 25 10000 2.06 130 22:51 21.12.2021
6282 Clouds 24 1012 31 10000 2.06 100 22:27 21.12.2021
6283 Clouds 23 1011 33 10000 0 0 21:43 21.12.2021
6284 Clouds 23 1011 27 10000 3.09 70 20:53 21.12.2021
6285 Clouds 25 1010 23 10000 3.09 80 20:20 21.12.2021
6286 Clouds 26 1010 22 10000 3.09 90 19:41 21.12.2021
6287 Clouds 27 1011 22 10000 4.12 90 18:38 21.12.2021
6288 Clouds 28 1011 21 10000 3.09 90 17:59 21.12.2021
6289 Clouds 29 1011 21 10000 4.63 90 17:40 21.12.2021
6290 Clouds 29 1011 30 10000 2.57 70 15:46 21.12.2021
6291 Clouds 29 1011 26 10000 2.57 80 14:59 21.12.2021
6292 Clouds 30 1011 26 10000 2.57 70 13:44 21.12.2021
6293 Clouds 31 1010 25 10000 2.57 100 12:58 21.12.2021
6294 Clouds 35 1009 18 10000 3.09 170 10:53 21.12.2021
6295 Clouds 37 1009 15 10000 3.09 200 09:57 21.12.2021
6296 Clouds 37 1009 16 10000 4.12 230 09:18 21.12.2021
6297 Clouds 36 1010 15 10000 3.6 150 07:45 21.12.2021
6298 Clouds 37 1010 14 10000 3.6 100 07:24 21.12.2021
6299 Clouds 36 1013 13 10000 3.6 150 04:37 21.12.2021
6300 Clouds 33 1015 15 10000 4.63 70 02:31 21.12.2021
6301 Clouds 27 1015 24 10000 2.06 120 23:55 20.12.2021
6302 Clouds 23 1015 40 10000 0 0 22:44 20.12.2021
6303 Clouds 20 1015 52 10000 0 0 22:25 20.12.2021
6304 Clouds 19 1014 55 10000 0 0 21:27 20.12.2021
6305 Clear 19 1014 52 10000 0 0 20:55 20.12.2021
6306 Clear 19 1013 55 10000 0 0 20:24 20.12.2021
6307 Clear 22 1013 40 10000 3.09 110 19:38 20.12.2021
6308 Clear 22 1013 40 10000 3.09 110 19:20 20.12.2021
6309 Clear 21 1013 46 10000 0 0 18:33 20.12.2021
6310 Clear 21 1013 43 10000 2.06 70 17:51 20.12.2021
6311 Clear 24 1014 33 10000 2.06 90 16:47 20.12.2021
6312 Clear 23 1014 35 10000 1.54 50 16:18 20.12.2021
6313 Clear 24 1015 33 10000 2.06 60 15:40 20.12.2021
6314 Clear 26 1015 29 10000 3.6 130 13:49 20.12.2021
6315 Clear 29 1014 24 10000 3.6 140 12:30 20.12.2021
6316 Clear 33 1013 18 10000 4.63 130 10:46 20.12.2021
6317 Clear 34 1013 17 10000 5.66 120 09:40 20.12.2021
6318 Clear 34 1013 17 10000 6.17 110 08:50 20.12.2021
6319 Clear 35 1013 16 10000 6.17 110 08:31 20.12.2021
6320 Clear 35 1013 17 10000 5.66 130 07:35 20.12.2021
6321 Clear 34 1014 17 10000 5.66 130 06:39 20.12.2021
6322 Clear 28 1017 24 10000 7.2 130 00:20 20.12.2021
6323 Clear 27 1016 26 10000 4.12 130 22:56 19.12.2021
6324 Clear 25 1016 31 10000 2.57 110 22:32 19.12.2021
6325 Clear 23 1015 31 10000 3.6 130 21:32 19.12.2021
6326 Clear 25 1014 25 10000 3.6 120 20:42 19.12.2021
6327 Clear 25 1014 25 10000 3.6 120 20:23 19.12.2021
6328 Clear 27 1014 22 10000 4.12 140 19:41 19.12.2021
6329 Clear 27 1014 24 10000 3.6 130 18:37 19.12.2021
6330 Clear 29 1013 20 10000 4.12 120 17:53 19.12.2021
6331 Clear 29 1014 21 10000 4.63 120 17:30 19.12.2021
6332 Clear 30 1014 20 10000 4.63 120 16:27 19.12.2021
6333 Clear 32 1014 18 10000 6.69 120 15:52 19.12.2021
6334 Clear 32 1014 18 10000 6.69 120 15:24 19.12.2021
6335 Clear 32 1014 18 10000 4.63 130 14:45 19.12.2021
6336 Clouds 34 1012 17 10000 7.2 140 13:27 19.12.2021
6337 Clouds 35 1011 15 10000 7.72 140 12:52 19.12.2021
6338 Clouds 36 1010 14 10000 8.23 130 12:28 19.12.2021
6339 Clouds 37 1009 13 10000 5.66 170 11:33 19.12.2021
6340 Clouds 39 1008 12 10000 6.69 180 10:48 19.12.2021
6341 Clouds 40 1008 12 10000 7.2 190 10:21 19.12.2021
6342 Clouds 42 1007 11 10000 6.69 150 08:46 19.12.2021
6343 Clear 41 1009 13 10000 3.6 200 05:37 19.12.2021
6344 Clouds 38 1011 18 10000 6.17 180 01:45 19.12.2021
6345 Clouds 36 1011 19 10000 0.51 130 00:54 19.12.2021
6346 Clouds 32 1009 31 10000 2.06 210 22:51 18.12.2021
6347 Clouds 32 1008 27 10000 2.06 140 22:24 18.12.2021
6348 Clouds 32 1007 25 10000 1.03 260 21:41 18.12.2021
6349 Clouds 32 1007 25 10000 1.03 260 21:22 18.12.2021
6350 Clouds 33 1007 22 10000 2.57 220 20:25 18.12.2021
6351 Clouds 35 1007 18 10000 4.63 280 19:27 18.12.2021
6352 Clouds 34 1006 17 10000 4.12 360 18:23 18.12.2021
6353 Clouds 37 1007 13 10000 5.66 360 17:49 18.12.2021
6354 Clouds 36 1008 16 10000 3.09 350 16:26 18.12.2021
6355 Clouds 38 1007 13 10000 3.6 60 15:48 18.12.2021
6356 Clouds 34 1009 21 10000 7.2 250 14:51 18.12.2021
6357 Clouds 35 1008 18 10000 2.57 260 13:29 18.12.2021
6358 Clouds 35 1008 18 10000 2.57 260 13:29 18.12.2021
6359 Clouds 36 1007 16 10000 3.09 80 11:47 18.12.2021
6360 Clouds 41 1006 11 10000 3.6 110 09:52 18.12.2021
6361 Clouds 42 1005 11 10000 3.09 120 08:48 18.12.2021
6362 Clear 43 1006 10 10000 4.63 120 08:27 18.12.2021
6363 Clouds 42 1007 9 10000 5.66 250 05:56 18.12.2021
6364 Clouds 35 1010 18 10000 1.54 190 00:34 18.12.2021
6365 Clouds 32 1010 20 10000 0 0 23:46 17.12.2021
6366 Clouds 24 1008 38 10000 1.54 250 21:58 17.12.2021
6367 Clouds 23 1008 43 10000 1.03 260 21:23 17.12.2021
6368 Clouds 25 1007 36 10000 2.06 70 20:42 17.12.2021
6369 Clouds 26 1007 29 10000 2.57 40 19:45 17.12.2021
6370 Clear 28 1007 24 10000 3.09 50 18:39 17.12.2021
6371 Clear 30 1007 21 10000 3.6 30 17:40 17.12.2021
6372 Clear 29 1008 24 10000 3.6 40 16:50 17.12.2021
6373 Clear 29 1008 24 10000 3.6 40 16:25 17.12.2021
6374 Clear 29 1009 24 10000 3.6 60 15:25 17.12.2021
6375 Clear 30 1008 25 10000 3.6 70 14:41 17.12.2021
6376 Clear 31 1008 23 10000 4.12 70 13:21 17.12.2021
6377 Clear 33 1007 22 10000 2.57 100 12:21 17.12.2021
6378 Clear 39 1006 13 10000 3.6 150 10:38 17.12.2021
6379 Clear 40 1006 12 10000 2.57 70 09:34 17.12.2021
6380 Clear 40 1006 12 10000 2.57 70 09:34 17.12.2021
6381 Clear 40 1006 11 10000 2.06 270 08:30 17.12.2021
6382 Clear 40 1007 11 10000 5.14 200 06:47 17.12.2021
6383 Clear 38 1009 13 10000 2.57 120 04:39 17.12.2021
6384 Clear 30 1011 20 10000 3.6 70 23:47 16.12.2021
6385 Clear 22 1011 56 10000 0 0 22:24 16.12.2021
6386 Clear 20 1010 60 10000 0 0 21:51 16.12.2021
6387 Clear 19 1010 68 10000 0 0 21:30 16.12.2021
6388 Clear 20 1010 60 10000 0 0 20:31 16.12.2021
6389 Clear 21 1010 52 10000 0 0 19:44 16.12.2021
6390 Clear 21 1010 56 10000 2.06 100 18:39 16.12.2021
6391 Clear 22 1010 56 10000 2.06 120 17:56 16.12.2021
6392 Clear 22 1010 56 10000 2.57 120 17:30 16.12.2021
6393 Clear 24 1010 43 10000 0 0 16:21 16.12.2021
6394 Clear 26 1011 31 10000 2.57 50 14:50 16.12.2021
6395 Clear 28 1011 30 10000 2.57 130 13:29 16.12.2021
6396 Clear 31 1010 23 10000 3.09 130 11:20 16.12.2021
6397 Clear 34 1010 18 10000 2.57 160 10:59 16.12.2021
6398 Clear 35 1009 15 10000 3.09 160 10:20 16.12.2021
6399 Clear 36 1009 16 10000 5.14 140 07:48 16.12.2021
6400 Clear 35 1010 17 10000 5.14 130 06:21 16.12.2021
6401 Clear 30 1014 30 10000 6.69 100 00:54 16.12.2021
6402 Clear 27 1014 36 10000 3.6 110 23:25 15.12.2021
6403 Clear 21 1013 60 10000 0 0 22:43 15.12.2021
6404 Clear 19 1013 68 10000 0.51 70 21:55 15.12.2021
6405 Clear 19 1012 63 10000 0 0 21:26 15.12.2021
6406 Clear 20 1012 64 10000 1.54 100 20:18 15.12.2021
6407 Clear 20 1011 64 10000 0 0 19:45 15.12.2021
6408 Clouds 22 1011 56 10000 2.57 120 18:37 15.12.2021
6409 Clouds 22 1011 53 10000 0 0 17:51 15.12.2021
6410 Clouds 22 1011 53 10000 0 0 17:51 15.12.2021
6411 Clouds 22 1011 53 10000 0 0 17:32 15.12.2021
6412 Clouds 24 1012 43 10000 2.57 120 16:27 15.12.2021
6413 Clouds 25 1012 41 10000 3.09 120 15:46 15.12.2021
6414 Clouds 25 1012 41 10000 3.09 130 15:27 15.12.2021
6415 Clouds 27 1012 34 10000 3.6 130 14:18 15.12.2021
6416 Clouds 30 1011 28 10000 3.6 150 12:32 15.12.2021
6417 Clouds 33 1011 22 10000 3.6 150 10:25 15.12.2021
6418 Clouds 34 1010 22 10000 7.72 150 08:54 15.12.2021
6419 Clear 34 1011 21 10000 6.17 140 06:54 15.12.2021
6420 Clear 32 1014 23 10000 8.75 160 01:20 15.12.2021
6421 Clear 29 1013 30 10000 5.14 200 23:42 14.12.2021
6422 Clear 28 1012 30 10000 5.14 200 22:48 14.12.2021
6423 Clear 27 1011 29 10000 5.66 220 22:18 14.12.2021
6424 Clear 24 1008 57 10000 2.06 280 20:27 14.12.2021
6425 Clear 25 1008 53 10000 0 0 19:40 14.12.2021
6426 Clouds 26 1008 50 10000 0 0 18:44 14.12.2021
6427 Clouds 27 1008 39 10000 0 0 17:58 14.12.2021
6428 Clouds 27 1008 39 10000 0 0 17:58 14.12.2021
6429 Clouds 27 1008 44 10000 0 0 17:28 14.12.2021
6430 Clouds 27 1009 47 10000 0 0 16:38 14.12.2021
6431 Clouds 27 1009 36 10000 0 0 15:26 14.12.2021
6432 Clouds 31 1009 22 10000 2.57 100 13:31 14.12.2021
6433 Clouds 33 1008 21 10000 2.57 150 11:58 14.12.2021
6434 Clouds 34 1008 17 10000 3.09 130 11:23 14.12.2021
6435 Clouds 37 1007 12 10000 2.57 140 09:57 14.12.2021
6436 Clouds 38 1007 12 10000 4.63 160 09:35 14.12.2021
6437 Clear 38 1007 11 10000 3.6 170 08:23 14.12.2021
6438 Clear 39 1007 11 10000 4.12 150 07:43 14.12.2021
6439 Clear 33 1011 17 10000 5.14 80 02:25 14.12.2021
6440 Clear 23 1012 43 10000 0 0 22:50 13.12.2021
6441 Clear 19 1011 55 10000 1.54 250 21:52 13.12.2021
6442 Clear 18 1011 63 10000 0 0 20:59 13.12.2021
6443 Clear 19 1010 52 10000 0 0 20:31 13.12.2021
6444 Clear 19 1010 52 10000 0 0 19:52 13.12.2021
6445 Clear 22 1010 35 10000 2.06 90 17:56 13.12.2021
6446 Clear 22 1010 37 10000 2.06 100 17:23 13.12.2021
6447 Clear 23 1011 31 10000 0.51 10 15:49 13.12.2021
6448 Clear 25 1011 29 10000 2.57 80 15:19 13.12.2021
6449 Clouds 27 1010 22 10000 4.12 160 13:38 13.12.2021
6450 Clouds 29 1009 20 10000 3.6 120 12:42 13.12.2021
6451 Clouds 30 1009 19 10000 3.6 120 11:54 13.12.2021
6452 Clouds 32 1009 14 10000 3.6 130 11:35 13.12.2021
6453 Clouds 35 1008 12 10000 3.6 140 10:43 13.12.2021
6454 Clouds 37 1008 12 10000 2.57 170 08:52 13.12.2021
6455 Clouds 36 1008 11 10000 2.57 190 07:37 13.12.2021
6456 Clouds 36 1009 12 10000 3.09 200 05:23 13.12.2021
6457 Clouds 27 1013 36 10000 4.12 250 00:42 13.12.2021
6458 Clouds 20 1011 34 10000 1.54 270 21:59 12.12.2021
6459 Clouds 21 1011 32 10000 3.09 250 21:33 12.12.2021
6460 Clouds 19 1009 45 10000 2.57 180 19:38 12.12.2021
6461 Clear 20 1008 42 10000 2.06 260 18:28 12.12.2021
6462 Clear 23 1009 23 10000 3.09 70 16:54 12.12.2021
6463 Clear 24 1009 20 10000 3.6 90 16:26 12.12.2021
6464 Clear 25 1009 20 10000 3.09 80 15:28 12.12.2021
6465 Clear 25 1009 22 10000 3.09 70 14:54 12.12.2021
6466 Clear 25 1009 23 10000 3.09 80 14:22 12.12.2021
6467 Clear 27 1009 24 10000 4.12 80 12:51 12.12.2021
6468 Clear 29 1008 21 10000 3.6 100 12:23 12.12.2021
6469 Clear 29 1008 21 10000 3.6 100 12:23 12.12.2021
6470 Clear 31 1008 19 10000 3.6 100 11:43 12.12.2021
6471 Clear 33 1008 16 10000 3.09 100 10:44 12.12.2021
6472 Clear 33 1008 16 10000 3.09 100 10:44 12.12.2021
6473 Clear 35 1007 14 10000 3.6 130 10:21 12.12.2021
6474 Clear 36 1008 12 10000 3.09 160 08:48 12.12.2021
6475 Clear 36 1008 13 10000 1.54 230 07:28 12.12.2021
6476 Clear 35 1009 13 10000 1.54 260 05:56 12.12.2021
6477 Clear 35 1010 14 10000 2.57 220 04:53 12.12.2021
6478 Clear 31 1013 13 10000 3.6 20 01:26 12.12.2021
6479 Clear 26 1013 22 10000 3.09 60 23:26 11.12.2021
6480 Clear 20 1012 42 10000 2.57 90 22:21 11.12.2021
6481 Clear 16 1012 55 10000 0 0 21:35 11.12.2021
6482 Clear 16 1011 63 10000 2.57 70 20:19 11.12.2021
6483 Clear 18 1011 55 10000 0 0 19:21 11.12.2021
6484 Clear 17 1011 55 10000 0 0 18:48 11.12.2021
6485 Clear 19 1010 45 10000 2.06 30 17:54 11.12.2021
6486 Clear 21 1011 30 10000 2.06 50 16:37 11.12.2021
6487 Clear 22 1011 30 10000 3.6 70 15:41 11.12.2021
6488 Clear 23 1012 28 10000 2.57 80 14:36 11.12.2021
6489 Clear 27 1011 22 10000 4.12 120 12:31 11.12.2021
6490 Clear 31 1010 16 10000 4.63 110 10:50 11.12.2021
6491 Clear 33 1010 16 10000 2.06 140 09:43 11.12.2021
6492 Clear 31 1013 12 10000 3.09 110 03:58 11.12.2021
6493 Clear 26 1015 15 10000 4.12 60 00:48 11.12.2021
6494 Clear 24 1015 19 10000 5.14 70 23:44 10.12.2021
6495 Clear 21 1015 32 10000 3.09 60 22:47 10.12.2021
6496 Clear 15 1014 51 10000 0 0 21:41 10.12.2021
6497 Clear 16 1013 48 10000 0 0 20:28 10.12.2021
6498 Clear 18 1013 32 10000 3.09 90 19:19 10.12.2021
6499 Clear 18 1013 36 10000 1.03 80 17:46 10.12.2021
6500 Clear 19 1013 32 10000 2.57 90 16:37 10.12.2021
6501 Clear 20 1013 30 10000 3.09 90 15:45 10.12.2021
6502 Clear 20 1014 32 10000 3.09 70 15:26 10.12.2021
6503 Clear 22 1014 24 10000 4.12 100 14:35 10.12.2021
6504 Clear 21 1014 30 10000 3.09 90 13:49 10.12.2021
6505 Clear 23 1013 27 10000 3.6 130 12:56 10.12.2021
6506 Clear 26 1012 22 10000 3.6 120 11:43 10.12.2021
6507 Clear 28 1012 17 10000 4.63 120 10:57 10.12.2021
6508 Clear 30 1011 16 10000 4.63 120 09:46 10.12.2021
6509 Clear 31 1012 16 10000 4.63 110 07:49 10.12.2021
6510 Clear 30 1013 17 10000 5.14 120 04:57 10.12.2021
6511 Clear 27 1016 21 10000 5.14 100 02:42 10.12.2021
6512 Clear 20 1016 30 10000 4.12 100 23:42 09.12.2021
6513 Clear 17 1016 63 10000 0.51 110 22:43 09.12.2021
6514 Clear 17 1016 63 10000 0.51 110 22:22 09.12.2021
6515 Clear 15 1016 67 10000 3.09 120 21:40 09.12.2021
6516 Clear 14 1015 82 10000 0 0 20:36 09.12.2021
6517 Clear 14 1015 82 10000 0.51 200 19:43 09.12.2021
6518 Clear 15 1015 82 10000 2.57 140 19:20 09.12.2021
6519 Clear 16 1015 77 10000 2.57 120 18:19 09.12.2021
6520 Clear 16 1015 82 10000 0 0 17:48 09.12.2021
6521 Clear 16 1015 77 10000 0 0 17:24 09.12.2021
6522 Clear 17 1015 72 10000 0 0 16:36 09.12.2021
6523 Clear 17 1016 67 10000 0 0 15:18 09.12.2021
6524 Clear 19 1016 55 10000 1.03 30 14:36 09.12.2021
6525 Clear 22 1015 43 10000 3.09 110 12:48 09.12.2021
6526 Clear 22 1014 53 10000 2.57 100 11:51 09.12.2021
6527 Clouds 26 1014 29 10000 1.03 90 10:28 09.12.2021
6528 Clouds 24 1014 35 10000 4.63 90 07:34 09.12.2021
6529 Clouds 21 1018 40 10000 4.63 110 03:56 09.12.2021
6530 Clouds 19 1018 55 10000 4.63 130 00:26 09.12.2021
6531 Clouds 18 1017 68 10000 6.17 110 23:37 08.12.2021
6532 Clouds 18 1017 68 10000 2.57 170 22:57 08.12.2021
6533 Clouds 18 1016 63 10000 5.66 70 22:36 08.12.2021
6534 Clouds 19 1016 55 10000 5.14 80 21:38 08.12.2021
6535 Clouds 19 1015 55 10000 5.66 100 20:50 08.12.2021
6536 Clouds 19 1015 59 10000 6.69 100 19:57 08.12.2021
6537 Rain 19 1016 63 10000 3.6 110 19:20 08.12.2021
6538 Clouds 23 1016 35 10000 6.17 140 18:22 08.12.2021
6539 Clouds 24 1015 33 10000 7.72 120 16:53 08.12.2021
6540 Clouds 25 1015 36 10000 4.63 120 15:42 08.12.2021
6541 Clouds 25 1015 36 10000 4.63 120 15:22 08.12.2021
6542 Clouds 27 1015 29 10000 5.66 130 13:26 08.12.2021
6543 Clouds 30 1013 26 10000 5.14 140 10:44 08.12.2021
6544 Clouds 32 1012 25 10000 4.63 110 09:32 08.12.2021
6545 Clouds 32 1012 25 10000 4.12 130 08:34 08.12.2021
6546 Clear 32 1013 27 10000 4.12 60 06:22 08.12.2021
6547 Clouds 26 1016 34 10000 7.72 100 00:41 08.12.2021
6548 Clouds 25 1016 38 10000 5.66 120 23:22 07.12.2021
6549 Clouds 21 1015 60 10000 3.09 120 21:25 07.12.2021
6550 Clouds 22 1014 56 10000 3.6 130 20:25 07.12.2021
6551 Clouds 23 1014 60 10000 3.6 120 18:59 07.12.2021
6552 Clouds 23 1013 68 10000 2.57 120 18:21 07.12.2021
6553 Clouds 23 1013 78 10000 0 0 17:24 07.12.2021
6554 Clouds 23 1014 78 10000 3.09 80 16:42 07.12.2021
6555 Clouds 24 1014 73 10000 2.06 110 15:59 07.12.2021
6556 Clouds 25 1014 61 10000 0 0 14:37 07.12.2021
6557 Clouds 26 1014 57 10000 4.63 330 13:38 07.12.2021
6558 Clouds 27 1013 54 10000 2.06 340 12:22 07.12.2021
6559 Clouds 30 1012 35 10000 3.6 140 10:56 07.12.2021
6560 Clouds 31 1010 33 10000 3.6 130 09:20 07.12.2021
6561 Clouds 32 1011 31 10000 2.57 190 06:50 07.12.2021
6562 Clouds 31 1012 33 10000 3.6 160 05:50 07.12.2021
6563 Clouds 29 1014 45 10000 5.66 80 02:35 07.12.2021
6564 Clouds 22 1014 83 10000 2.06 340 23:21 06.12.2021
6565 Clouds 21 1014 88 10000 1.03 350 22:40 06.12.2021
6566 Clouds 21 1014 88 10000 0 0 21:59 06.12.2021
6567 Clouds 21 1013 88 10000 3.6 170 21:27 06.12.2021
6568 Clouds 20 1012 94 10000 2.06 230 20:32 06.12.2021
6569 Clouds 21 1012 88 10000 0 0 19:24 06.12.2021
6570 Rain 21 1011 83 10000 7.72 70 18:34 06.12.2021
6571 Clouds 21 1012 83 10000 3.6 110 17:53 06.12.2021
6572 Rain 22 1012 78 10000 5.14 70 17:33 06.12.2021
6573 Clouds 22 1012 83 10000 2.57 90 15:51 06.12.2021
6574 Clouds 22 1012 78 10000 2.06 110 14:35 06.12.2021
6575 Clouds 23 1010 68 10000 4.63 100 12:40 06.12.2021
6576 Clouds 21 1011 83 10000 7.72 130 11:55 06.12.2021
6577 Clouds 32 1008 29 10000 7.2 140 09:44 06.12.2021
6578 Clouds 34 1008 26 10000 3.09 150 07:38 06.12.2021
6579 Clear 30 1012 32 10000 4.63 60 02:20 06.12.2021
6580 Clear 21 1013 64 10000 3.6 150 22:20 05.12.2021
6581 Clear 19 1012 63 10000 3.09 70 21:25 05.12.2021
6582 Clear 21 1011 56 10000 3.09 130 20:20 05.12.2021
6583 Clear 20 1012 60 10000 1.54 130 19:58 05.12.2021
6584 Clouds 20 1011 60 10000 0 0 19:23 05.12.2021
6585 Clouds 20 1011 60 10000 2.57 130 18:26 05.12.2021
6586 Clouds 20 1011 60 10000 2.06 70 17:49 05.12.2021
6587 Clouds 22 1012 49 10000 5.14 80 16:58 05.12.2021
6588 Clouds 23 1012 46 10000 5.14 90 16:28 05.12.2021
6589 Clouds 24 1012 41 10000 7.2 90 15:58 05.12.2021
6590 Clouds 24 1013 41 10000 4.63 90 14:47 05.12.2021
6591 Clouds 25 1012 36 10000 6.17 80 14:29 05.12.2021
6592 Clouds 25 1012 31 10000 7.2 70 13:31 05.12.2021
6593 Clouds 25 1012 29 10000 8.23 70 12:41 05.12.2021
6594 Clouds 25 1012 29 10000 8.23 70 12:23 05.12.2021
6595 Clouds 26 1011 27 10000 7.72 90 11:37 05.12.2021
6596 Clouds 26 1011 27 10000 9.26 110 10:21 05.12.2021
6597 Clouds 27 1011 28 10000 8.75 120 09:26 05.12.2021
6598 Clear 31 1014 19 10000 7.72 150 04:56 05.12.2021
6599 Clouds 28 1015 24 10000 8.23 150 01:23 05.12.2021
6600 Clouds 24 1013 27 10000 3.6 120 22:42 04.12.2021
6601 Clouds 23 1012 31 10000 4.12 110 21:37 04.12.2021
6602 Clouds 25 1012 27 10000 4.63 110 20:40 04.12.2021
6603 Clouds 26 1012 27 10000 4.63 120 19:33 04.12.2021
6604 Clouds 25 1012 31 10000 3.6 130 18:43 04.12.2021
6605 Clouds 27 1012 26 10000 3.09 130 17:47 04.12.2021
6606 Clouds 27 1012 26 10000 5.66 90 17:20 04.12.2021
6607 Clouds 28 1013 24 10000 5.14 120 16:46 04.12.2021
6608 Clouds 29 1013 21 10000 6.69 120 16:27 04.12.2021
6609 Clouds 33 1013 22 10000 5.66 140 12:44 04.12.2021
6610 Clouds 33 1011 19 10000 3.09 100 11:34 04.12.2021
6611 Clouds 36 1011 14 10000 5.66 100 10:57 04.12.2021
6612 Clouds 38 1010 13 10000 4.12 130 09:40 04.12.2021
6613 Clear 38 1010 13 10000 6.69 110 08:28 04.12.2021
6614 Clouds 37 1013 16 10000 8.75 40 04:43 04.12.2021
6615 Clear 33 1016 22 10000 6.69 80 00:49 04.12.2021
6616 Clear 29 1015 28 10000 0 0 23:33 03.12.2021
6617 Clear 27 1015 32 10000 0 0 22:51 03.12.2021
6618 Clear 21 1015 56 10000 0.51 340 21:54 03.12.2021
6619 Clear 22 1014 49 10000 2.06 110 21:22 03.12.2021
6620 Clear 21 1014 52 10000 2.06 330 20:42 03.12.2021
6621 Clouds 21 1014 56 10000 0 0 19:21 03.12.2021
6622 Clouds 22 1014 53 10000 2.06 230 18:22 03.12.2021
6623 Clouds 22 1014 49 10000 2.06 260 17:30 03.12.2021
6624 Clouds 28 1015 26 10000 2.57 70 13:35 03.12.2021
6625 Clouds 31 1014 18 10000 3.6 110 12:30 03.12.2021
6626 Clouds 33 1013 15 10000 4.12 110 11:19 03.12.2021
6627 Clouds 38 1012 11 10000 4.63 90 09:21 03.12.2021
6628 Clouds 38 1012 11 10000 7.2 80 07:44 03.12.2021
6629 Clear 38 1013 10 10000 5.66 70 06:41 03.12.2021
6630 Clear 34 1016 17 10000 5.66 50 00:49 03.12.2021
6631 Clear 31 1016 23 10000 4.12 60 23:48 02.12.2021
6632 Clear 24 1016 46 10000 0 0 22:54 02.12.2021
6633 Clear 18 1015 63 10000 0 0 21:41 02.12.2021
6634 Clear 18 1014 63 10000 0 0 20:46 02.12.2021
6635 Clear 19 1014 63 10000 0.51 270 20:22 02.12.2021
6636 Clear 20 1014 52 10000 0 0 18:50 02.12.2021
6637 Clear 21 1014 52 10000 0 0 16:53 02.12.2021
6638 Clear 23 1014 40 10000 0 0 15:41 02.12.2021
6639 Clear 24 1015 38 10000 0 0 14:53 02.12.2021
6640 Clear 26 1014 31 10000 0 0 13:39 02.12.2021
6641 Clear 27 1014 29 10000 0 0 12:46 02.12.2021
6642 Clear 31 1013 15 10000 2.57 100 11:45 02.12.2021
6643 Clear 37 1011 9 10000 7.2 110 09:27 02.12.2021
6644 Clear 38 1012 11 10000 4.63 130 07:20 02.12.2021
6645 Clear 34 1015 14 10000 4.12 70 01:28 02.12.2021
6646 Clear 31 1015 18 10000 2.57 60 00:35 02.12.2021
6647 Clear 19 1014 68 10000 0 0 22:32 01.12.2021
6648 Clear 18 1014 59 10000 2.57 330 21:44 01.12.2021
6649 Clear 18 1012 68 10000 0 0 20:24 01.12.2021
6650 Clear 18 1012 63 10000 0 0 19:46 01.12.2021
6651 Clear 19 1012 55 10000 0 0 18:55 01.12.2021
6652 Clear 20 1012 52 10000 0 0 17:31 01.12.2021
6653 Clear 21 1012 52 10000 0 0 16:34 01.12.2021
6654 Clear 26 1013 25 10000 3.6 80 14:35 01.12.2021
6655 Clear 26 1012 31 10000 2.57 70 13:37 01.12.2021
6656 Clear 33 1011 15 10000 4.12 120 10:45 01.12.2021
6657 Clear 35 1010 12 10000 3.6 120 10:27 01.12.2021
6658 Clear 37 1010 9 10000 2.57 150 08:52 01.12.2021
6659 Clear 37 1009 12 10000 4.63 130 07:59 01.12.2021
6660 Clear 37 1010 12 10000 2.06 340 07:31 01.12.2021
6661 Clear 35 1012 13 10000 3.09 340 03:57 01.12.2021
6662 Clear 35 1013 13 10000 4.63 330 03:27 01.12.2021
6663 Clear 30 1014 19 10000 1.03 280 00:34 01.12.2021
6664 Clear 28 1013 26 10000 0 0 23:29 30.11.2021
6665 Clear 21 1012 46 10000 3.09 40 22:32 30.11.2021
6666 Clear 19 1011 52 10000 3.09 20 20:47 30.11.2021
6667 Clear 16 1011 77 10000 0 0 20:25 30.11.2021
6668 Clear 17 1010 67 10000 2.57 350 19:39 30.11.2021
6669 Clear 17 1010 67 10000 1.54 320 18:53 30.11.2021
6670 Clear 18 1010 63 10000 1.03 190 17:45 30.11.2021
6671 Clear 21 1011 46 10000 2.06 60 16:19 30.11.2021